<?xml version="1.0" encoding="UTF-8" standalone="no" ?>
<gpx xmlns="http://www.topografix.com/GPX/1/1" xmlns:xsi="http://www.w3.org/2001/XMLSchema-instance" xsi:schemaLocation="http://www.topografix.com/GPX/1/1 http://www.topografix.com/GPX/1/1/gpx.xsd" version="1.1" creator="VisuGPX - https://www.visugpx.com">
  <metadata>
    <name>Tracé 2 Origole 2009 JPM</name>
    <desc><![CDATA[
Tracé 2 Origole 2009 en mode Rando]]></desc>
  </metadata>
  <trk>
    <name><![CDATA[2009-12-05 : Origole]]></name>
    <desc><![CDATA[L'Origole 2009 courue par Christian Bouteille]]></desc>
    <trkseg>
      <trkpt lat="48.69382" lon="1.86462">
        <ele>161.16</ele>
        <time>2009-12-06T01:25:33.000Z</time>
      </trkpt>
      <trkpt lat="48.69384" lon="1.86456">
        <ele>161.64</ele>
        <time>2009-12-06T01:25:35.000Z</time>
      </trkpt>
      <trkpt lat="48.69386" lon="1.86453">
        <ele>162.12</ele>
        <time>2009-12-06T01:25:37.000Z</time>
      </trkpt>
      <trkpt lat="48.69389" lon="1.86454">
        <ele>162.12</ele>
        <time>2009-12-06T01:25:43.000Z</time>
      </trkpt>
      <trkpt lat="48.69397" lon="1.8646">
        <ele>163.08</ele>
        <time>2009-12-06T01:25:47.000Z</time>
      </trkpt>
      <trkpt lat="48.69406" lon="1.86473">
        <ele>163.08</ele>
        <time>2009-12-06T01:25:53.000Z</time>
      </trkpt>
      <trkpt lat="48.69412" lon="1.86491">
        <ele>162.12</ele>
        <time>2009-12-06T01:25:59.000Z</time>
      </trkpt>
      <trkpt lat="48.69415" lon="1.86495">
        <ele>161.64</ele>
        <time>2009-12-06T01:26:04.000Z</time>
      </trkpt>
      <trkpt lat="48.69418" lon="1.86499">
        <ele>162.6</ele>
        <time>2009-12-06T01:26:08.000Z</time>
      </trkpt>
      <trkpt lat="48.6943" lon="1.86511">
        <ele>162.6</ele>
        <time>2009-12-06T01:26:14.000Z</time>
      </trkpt>
      <trkpt lat="48.6944" lon="1.86512">
        <ele>162.6</ele>
        <time>2009-12-06T01:26:18.000Z</time>
      </trkpt>
      <trkpt lat="48.69453" lon="1.86508">
        <ele>162.6</ele>
        <time>2009-12-06T01:26:23.000Z</time>
      </trkpt>
      <trkpt lat="48.69455" lon="1.86501">
        <ele>162.6</ele>
        <time>2009-12-06T01:26:26.000Z</time>
      </trkpt>
      <trkpt lat="48.69458" lon="1.86488">
        <ele>162.6</ele>
        <time>2009-12-06T01:26:31.000Z</time>
      </trkpt>
      <trkpt lat="48.69463" lon="1.86482">
        <ele>163.08</ele>
        <time>2009-12-06T01:26:34.000Z</time>
      </trkpt>
      <trkpt lat="48.69478" lon="1.86477">
        <ele>165</ele>
        <time>2009-12-06T01:26:42.000Z</time>
      </trkpt>
      <trkpt lat="48.69488" lon="1.86478">
        <ele>166.93</ele>
        <time>2009-12-06T01:26:47.000Z</time>
      </trkpt>
      <trkpt lat="48.695" lon="1.8648">
        <ele>167.41</ele>
        <time>2009-12-06T01:26:52.000Z</time>
      </trkpt>
      <trkpt lat="48.69511" lon="1.86486">
        <ele>166.45</ele>
        <time>2009-12-06T01:26:58.000Z</time>
      </trkpt>
      <trkpt lat="48.69519" lon="1.8649">
        <ele>167.41</ele>
        <time>2009-12-06T01:27:02.000Z</time>
      </trkpt>
      <trkpt lat="48.69521" lon="1.86492">
        <ele>167.89</ele>
        <time>2009-12-06T01:27:04.000Z</time>
      </trkpt>
      <trkpt lat="48.69535" lon="1.86502">
        <ele>169.33</ele>
        <time>2009-12-06T01:27:12.000Z</time>
      </trkpt>
      <trkpt lat="48.69546" lon="1.8651">
        <ele>169.81</ele>
        <time>2009-12-06T01:27:18.000Z</time>
      </trkpt>
      <trkpt lat="48.69555" lon="1.86515">
        <ele>170.29</ele>
        <time>2009-12-06T01:27:23.000Z</time>
      </trkpt>
      <trkpt lat="48.69564" lon="1.86521">
        <ele>170.77</ele>
        <time>2009-12-06T01:27:28.000Z</time>
      </trkpt>
      <trkpt lat="48.6957" lon="1.86526">
        <ele>171.73</ele>
        <time>2009-12-06T01:27:33.000Z</time>
      </trkpt>
      <trkpt lat="48.69579" lon="1.86532">
        <ele>171.73</ele>
        <time>2009-12-06T01:27:40.000Z</time>
      </trkpt>
      <trkpt lat="48.69585" lon="1.86536">
        <ele>171.25</ele>
        <time>2009-12-06T01:27:45.000Z</time>
      </trkpt>
      <trkpt lat="48.69592" lon="1.86547">
        <ele>172.21</ele>
        <time>2009-12-06T01:27:52.000Z</time>
      </trkpt>
      <trkpt lat="48.69593" lon="1.86562">
        <ele>171.73</ele>
        <time>2009-12-06T01:27:57.000Z</time>
      </trkpt>
      <trkpt lat="48.69596" lon="1.86581">
        <ele>171.73</ele>
        <time>2009-12-06T01:28:03.000Z</time>
      </trkpt>
      <trkpt lat="48.69603" lon="1.86592">
        <ele>170.29</ele>
        <time>2009-12-06T01:28:07.000Z</time>
      </trkpt>
      <trkpt lat="48.69612" lon="1.86609">
        <ele>169.81</ele>
        <time>2009-12-06T01:28:14.000Z</time>
      </trkpt>
      <trkpt lat="48.69619" lon="1.86624">
        <ele>170.77</ele>
        <time>2009-12-06T01:28:20.000Z</time>
      </trkpt>
      <trkpt lat="48.69628" lon="1.86638">
        <ele>170.77</ele>
        <time>2009-12-06T01:28:26.000Z</time>
      </trkpt>
      <trkpt lat="48.69635" lon="1.86649">
        <ele>169.81</ele>
        <time>2009-12-06T01:28:31.000Z</time>
      </trkpt>
      <trkpt lat="48.69642" lon="1.86664">
        <ele>168.37</ele>
        <time>2009-12-06T01:28:37.000Z</time>
      </trkpt>
      <trkpt lat="48.6965" lon="1.86672">
        <ele>167.89</ele>
        <time>2009-12-06T01:28:42.000Z</time>
      </trkpt>
      <trkpt lat="48.69658" lon="1.86684">
        <ele>167.89</ele>
        <time>2009-12-06T01:28:48.000Z</time>
      </trkpt>
      <trkpt lat="48.69665" lon="1.86696">
        <ele>168.37</ele>
        <time>2009-12-06T01:28:56.000Z</time>
      </trkpt>
      <trkpt lat="48.69666" lon="1.86703">
        <ele>169.81</ele>
        <time>2009-12-06T01:29:01.000Z</time>
      </trkpt>
      <trkpt lat="48.69667" lon="1.86703">
        <ele>170.77</ele>
        <time>2009-12-06T01:29:06.000Z</time>
      </trkpt>
      <trkpt lat="48.69667" lon="1.86705">
        <ele>171.25</ele>
        <time>2009-12-06T01:29:14.000Z</time>
      </trkpt>
      <trkpt lat="48.69666" lon="1.86706">
        <ele>171.25</ele>
        <time>2009-12-06T01:29:20.000Z</time>
      </trkpt>
      <trkpt lat="48.69667" lon="1.86709">
        <ele>173.17</ele>
        <time>2009-12-06T01:29:30.000Z</time>
      </trkpt>
      <trkpt lat="48.6967" lon="1.86713">
        <ele>173.17</ele>
        <time>2009-12-06T01:29:34.000Z</time>
      </trkpt>
      <trkpt lat="48.69674" lon="1.8672">
        <ele>173.17</ele>
        <time>2009-12-06T01:29:39.000Z</time>
      </trkpt>
      <trkpt lat="48.69681" lon="1.86729">
        <ele>171.73</ele>
        <time>2009-12-06T01:29:47.000Z</time>
      </trkpt>
      <trkpt lat="48.69687" lon="1.8674">
        <ele>171.73</ele>
        <time>2009-12-06T01:29:56.000Z</time>
      </trkpt>
      <trkpt lat="48.69693" lon="1.86751">
        <ele>171.73</ele>
        <time>2009-12-06T01:30:03.000Z</time>
      </trkpt>
      <trkpt lat="48.69699" lon="1.86758">
        <ele>170.77</ele>
        <time>2009-12-06T01:30:10.000Z</time>
      </trkpt>
      <trkpt lat="48.69705" lon="1.86766">
        <ele>170.77</ele>
        <time>2009-12-06T01:30:16.000Z</time>
      </trkpt>
      <trkpt lat="48.69712" lon="1.86777">
        <ele>171.25</ele>
        <time>2009-12-06T01:30:21.000Z</time>
      </trkpt>
      <trkpt lat="48.69721" lon="1.86794">
        <ele>170.77</ele>
        <time>2009-12-06T01:30:26.000Z</time>
      </trkpt>
      <trkpt lat="48.69729" lon="1.86807">
        <ele>169.33</ele>
        <time>2009-12-06T01:30:31.000Z</time>
      </trkpt>
      <trkpt lat="48.69743" lon="1.8682">
        <ele>166.93</ele>
        <time>2009-12-06T01:30:38.000Z</time>
      </trkpt>
      <trkpt lat="48.69753" lon="1.86836">
        <ele>167.41</ele>
        <time>2009-12-06T01:30:44.000Z</time>
      </trkpt>
      <trkpt lat="48.69762" lon="1.86849">
        <ele>168.85</ele>
        <time>2009-12-06T01:30:50.000Z</time>
      </trkpt>
      <trkpt lat="48.69769" lon="1.86858">
        <ele>167.41</ele>
        <time>2009-12-06T01:30:54.000Z</time>
      </trkpt>
      <trkpt lat="48.69777" lon="1.86874">
        <ele>166.45</ele>
        <time>2009-12-06T01:31:00.000Z</time>
      </trkpt>
      <trkpt lat="48.69779" lon="1.86885">
        <ele>165.96</ele>
        <time>2009-12-06T01:31:03.000Z</time>
      </trkpt>
      <trkpt lat="48.69784" lon="1.86905">
        <ele>165</ele>
        <time>2009-12-06T01:31:10.000Z</time>
      </trkpt>
      <trkpt lat="48.69787" lon="1.86922">
        <ele>163.08</ele>
        <time>2009-12-06T01:31:16.000Z</time>
      </trkpt>
      <trkpt lat="48.69791" lon="1.8694">
        <ele>163.08</ele>
        <time>2009-12-06T01:31:22.000Z</time>
      </trkpt>
      <trkpt lat="48.69792" lon="1.86955">
        <ele>163.56</ele>
        <time>2009-12-06T01:31:27.000Z</time>
      </trkpt>
      <trkpt lat="48.69794" lon="1.86964">
        <ele>162.6</ele>
        <time>2009-12-06T01:31:30.000Z</time>
      </trkpt>
      <trkpt lat="48.69796" lon="1.86986">
        <ele>164.52</ele>
        <time>2009-12-06T01:31:37.000Z</time>
      </trkpt>
      <trkpt lat="48.69797" lon="1.86992">
        <ele>164.52</ele>
        <time>2009-12-06T01:31:39.000Z</time>
      </trkpt>
      <trkpt lat="48.698" lon="1.87011">
        <ele>163.56</ele>
        <time>2009-12-06T01:31:46.000Z</time>
      </trkpt>
      <trkpt lat="48.69804" lon="1.87028">
        <ele>162.12</ele>
        <time>2009-12-06T01:31:52.000Z</time>
      </trkpt>
      <trkpt lat="48.69804" lon="1.87032">
        <ele>161.64</ele>
        <time>2009-12-06T01:31:53.000Z</time>
      </trkpt>
      <trkpt lat="48.69808" lon="1.87047">
        <ele>160.2</ele>
        <time>2009-12-06T01:31:59.000Z</time>
      </trkpt>
      <trkpt lat="48.69809" lon="1.87049">
        <ele>159.72</ele>
        <time>2009-12-06T01:32:00.000Z</time>
      </trkpt>
      <trkpt lat="48.69812" lon="1.87072">
        <ele>157.79</ele>
        <time>2009-12-06T01:32:08.000Z</time>
      </trkpt>
      <trkpt lat="48.69815" lon="1.87086">
        <ele>155.39</ele>
        <time>2009-12-06T01:32:13.000Z</time>
      </trkpt>
      <trkpt lat="48.69816" lon="1.87097">
        <ele>155.39</ele>
        <time>2009-12-06T01:32:17.000Z</time>
      </trkpt>
      <trkpt lat="48.69817" lon="1.871">
        <ele>154.91</ele>
        <time>2009-12-06T01:32:18.000Z</time>
      </trkpt>
      <trkpt lat="48.69821" lon="1.87117">
        <ele>152.99</ele>
        <time>2009-12-06T01:32:24.000Z</time>
      </trkpt>
      <trkpt lat="48.69826" lon="1.87134">
        <ele>151.54</ele>
        <time>2009-12-06T01:32:30.000Z</time>
      </trkpt>
      <trkpt lat="48.6983" lon="1.87148">
        <ele>150.1</ele>
        <time>2009-12-06T01:32:35.000Z</time>
      </trkpt>
      <trkpt lat="48.69834" lon="1.87165">
        <ele>147.7</ele>
        <time>2009-12-06T01:32:41.000Z</time>
      </trkpt>
      <trkpt lat="48.69844" lon="1.87178">
        <ele>148.18</ele>
        <time>2009-12-06T01:32:47.000Z</time>
      </trkpt>
      <trkpt lat="48.69849" lon="1.87189">
        <ele>162.6</ele>
        <time>2009-12-06T01:32:54.000Z</time>
      </trkpt>
      <trkpt lat="48.69858" lon="1.8719">
        <ele>165.96</ele>
        <time>2009-12-06T01:32:59.000Z</time>
      </trkpt>
      <trkpt lat="48.69867" lon="1.8719">
        <ele>166.93</ele>
        <time>2009-12-06T01:33:04.000Z</time>
      </trkpt>
      <trkpt lat="48.69869" lon="1.8719">
        <ele>167.41</ele>
        <time>2009-12-06T01:33:05.000Z</time>
      </trkpt>
      <trkpt lat="48.69877" lon="1.87191">
        <ele>167.89</ele>
        <time>2009-12-06T01:33:10.000Z</time>
      </trkpt>
      <trkpt lat="48.69886" lon="1.87191">
        <ele>168.85</ele>
        <time>2009-12-06T01:33:15.000Z</time>
      </trkpt>
      <trkpt lat="48.69897" lon="1.87187">
        <ele>169.81</ele>
        <time>2009-12-06T01:33:20.000Z</time>
      </trkpt>
      <trkpt lat="48.69905" lon="1.87184">
        <ele>169.81</ele>
        <time>2009-12-06T01:33:25.000Z</time>
      </trkpt>
      <trkpt lat="48.69914" lon="1.87181">
        <ele>168.85</ele>
        <time>2009-12-06T01:33:31.000Z</time>
      </trkpt>
      <trkpt lat="48.69921" lon="1.87182">
        <ele>170.29</ele>
        <time>2009-12-06T01:33:35.000Z</time>
      </trkpt>
      <trkpt lat="48.69932" lon="1.87178">
        <ele>170.29</ele>
        <time>2009-12-06T01:33:40.000Z</time>
      </trkpt>
      <trkpt lat="48.69945" lon="1.87174">
        <ele>169.81</ele>
        <time>2009-12-06T01:33:46.000Z</time>
      </trkpt>
      <trkpt lat="48.69956" lon="1.87173">
        <ele>170.29</ele>
        <time>2009-12-06T01:33:51.000Z</time>
      </trkpt>
      <trkpt lat="48.6997" lon="1.87174">
        <ele>173.17</ele>
        <time>2009-12-06T01:33:56.000Z</time>
      </trkpt>
      <trkpt lat="48.69973" lon="1.87174">
        <ele>173.17</ele>
        <time>2009-12-06T01:33:57.000Z</time>
      </trkpt>
      <trkpt lat="48.69984" lon="1.87171">
        <ele>175.1</ele>
        <time>2009-12-06T01:34:03.000Z</time>
      </trkpt>
      <trkpt lat="48.69995" lon="1.8717">
        <ele>175.1</ele>
        <time>2009-12-06T01:34:08.000Z</time>
      </trkpt>
      <trkpt lat="48.69997" lon="1.8717">
        <ele>175.1</ele>
        <time>2009-12-06T01:34:09.000Z</time>
      </trkpt>
      <trkpt lat="48.70008" lon="1.87166">
        <ele>175.1</ele>
        <time>2009-12-06T01:34:15.000Z</time>
      </trkpt>
      <trkpt lat="48.70018" lon="1.87165">
        <ele>175.1</ele>
        <time>2009-12-06T01:34:20.000Z</time>
      </trkpt>
      <trkpt lat="48.7003" lon="1.87162">
        <ele>173.66</ele>
        <time>2009-12-06T01:34:25.000Z</time>
      </trkpt>
      <trkpt lat="48.70038" lon="1.87157">
        <ele>172.69</ele>
        <time>2009-12-06T01:34:30.000Z</time>
      </trkpt>
      <trkpt lat="48.70052" lon="1.87147">
        <ele>170.29</ele>
        <time>2009-12-06T01:34:37.000Z</time>
      </trkpt>
      <trkpt lat="48.70064" lon="1.87139">
        <ele>170.77</ele>
        <time>2009-12-06T01:34:43.000Z</time>
      </trkpt>
      <trkpt lat="48.70072" lon="1.87132">
        <ele>170.29</ele>
        <time>2009-12-06T01:34:48.000Z</time>
      </trkpt>
      <trkpt lat="48.70077" lon="1.87127">
        <ele>169.33</ele>
        <time>2009-12-06T01:34:52.000Z</time>
      </trkpt>
      <trkpt lat="48.70088" lon="1.87118">
        <ele>169.33</ele>
        <time>2009-12-06T01:34:59.000Z</time>
      </trkpt>
      <trkpt lat="48.701" lon="1.87109">
        <ele>169.33</ele>
        <time>2009-12-06T01:35:05.000Z</time>
      </trkpt>
      <trkpt lat="48.70111" lon="1.87104">
        <ele>170.77</ele>
        <time>2009-12-06T01:35:10.000Z</time>
      </trkpt>
      <trkpt lat="48.70118" lon="1.871">
        <ele>171.73</ele>
        <time>2009-12-06T01:35:13.000Z</time>
      </trkpt>
      <trkpt lat="48.70125" lon="1.87092">
        <ele>172.21</ele>
        <time>2009-12-06T01:35:18.000Z</time>
      </trkpt>
      <trkpt lat="48.70128" lon="1.87089">
        <ele>173.66</ele>
        <time>2009-12-06T01:35:20.000Z</time>
      </trkpt>
      <trkpt lat="48.70132" lon="1.87084">
        <ele>174.62</ele>
        <time>2009-12-06T01:35:24.000Z</time>
      </trkpt>
      <trkpt lat="48.70142" lon="1.87076">
        <ele>174.14</ele>
        <time>2009-12-06T01:35:30.000Z</time>
      </trkpt>
      <trkpt lat="48.70145" lon="1.87076">
        <ele>173.66</ele>
        <time>2009-12-06T01:35:32.000Z</time>
      </trkpt>
      <trkpt lat="48.70151" lon="1.87073">
        <ele>173.66</ele>
        <time>2009-12-06T01:35:35.000Z</time>
      </trkpt>
      <trkpt lat="48.70163" lon="1.8707">
        <ele>175.1</ele>
        <time>2009-12-06T01:35:41.000Z</time>
      </trkpt>
      <trkpt lat="48.70174" lon="1.87061">
        <ele>174.14</ele>
        <time>2009-12-06T01:35:46.000Z</time>
      </trkpt>
      <trkpt lat="48.70181" lon="1.87057">
        <ele>173.17</ele>
        <time>2009-12-06T01:35:50.000Z</time>
      </trkpt>
      <trkpt lat="48.70185" lon="1.87055">
        <ele>172.21</ele>
        <time>2009-12-06T01:35:53.000Z</time>
      </trkpt>
      <trkpt lat="48.70199" lon="1.87053">
        <ele>170.77</ele>
        <time>2009-12-06T01:36:00.000Z</time>
      </trkpt>
      <trkpt lat="48.70204" lon="1.87056">
        <ele>170.77</ele>
        <time>2009-12-06T01:36:05.000Z</time>
      </trkpt>
      <trkpt lat="48.70204" lon="1.87059">
        <ele>172.21</ele>
        <time>2009-12-06T01:36:12.000Z</time>
      </trkpt>
      <trkpt lat="48.70206" lon="1.87073">
        <ele>173.17</ele>
        <time>2009-12-06T01:36:17.000Z</time>
      </trkpt>
      <trkpt lat="48.70206" lon="1.87076">
        <ele>173.17</ele>
        <time>2009-12-06T01:36:18.000Z</time>
      </trkpt>
      <trkpt lat="48.70215" lon="1.87093">
        <ele>168.37</ele>
        <time>2009-12-06T01:36:24.000Z</time>
      </trkpt>
      <trkpt lat="48.7022" lon="1.87106">
        <ele>161.64</ele>
        <time>2009-12-06T01:36:29.000Z</time>
      </trkpt>
      <trkpt lat="48.70222" lon="1.87117">
        <ele>157.79</ele>
        <time>2009-12-06T01:36:33.000Z</time>
      </trkpt>
      <trkpt lat="48.70226" lon="1.87132">
        <ele>154.43</ele>
        <time>2009-12-06T01:36:38.000Z</time>
      </trkpt>
      <trkpt lat="48.7023" lon="1.87152">
        <ele>149.62</ele>
        <time>2009-12-06T01:36:44.000Z</time>
      </trkpt>
      <trkpt lat="48.70229" lon="1.87177">
        <ele>154.91</ele>
        <time>2009-12-06T01:36:50.000Z</time>
      </trkpt>
      <trkpt lat="48.7023" lon="1.87194">
        <ele>156.83</ele>
        <time>2009-12-06T01:36:55.000Z</time>
      </trkpt>
      <trkpt lat="48.70232" lon="1.87209">
        <ele>158.27</ele>
        <time>2009-12-06T01:36:59.000Z</time>
      </trkpt>
      <trkpt lat="48.70232" lon="1.87226">
        <ele>160.68</ele>
        <time>2009-12-06T01:37:04.000Z</time>
      </trkpt>
      <trkpt lat="48.70234" lon="1.87246">
        <ele>160.68</ele>
        <time>2009-12-06T01:37:10.000Z</time>
      </trkpt>
      <trkpt lat="48.70235" lon="1.87262">
        <ele>161.16</ele>
        <time>2009-12-06T01:37:15.000Z</time>
      </trkpt>
      <trkpt lat="48.70236" lon="1.87277">
        <ele>161.64</ele>
        <time>2009-12-06T01:37:20.000Z</time>
      </trkpt>
      <trkpt lat="48.70239" lon="1.8729">
        <ele>160.2</ele>
        <time>2009-12-06T01:37:25.000Z</time>
      </trkpt>
      <trkpt lat="48.70243" lon="1.87304">
        <ele>154.91</ele>
        <time>2009-12-06T01:37:31.000Z</time>
      </trkpt>
      <trkpt lat="48.7025" lon="1.87318">
        <ele>149.14</ele>
        <time>2009-12-06T01:37:37.000Z</time>
      </trkpt>
      <trkpt lat="48.70254" lon="1.87335">
        <ele>145.3</ele>
        <time>2009-12-06T01:37:43.000Z</time>
      </trkpt>
      <trkpt lat="48.70255" lon="1.87353">
        <ele>146.26</ele>
        <time>2009-12-06T01:37:48.000Z</time>
      </trkpt>
      <trkpt lat="48.70255" lon="1.87356">
        <ele>146.26</ele>
        <time>2009-12-06T01:37:49.000Z</time>
      </trkpt>
      <trkpt lat="48.70257" lon="1.8737">
        <ele>141.45</ele>
        <time>2009-12-06T01:37:55.000Z</time>
      </trkpt>
      <trkpt lat="48.70261" lon="1.87382">
        <ele>136.64</ele>
        <time>2009-12-06T01:38:01.000Z</time>
      </trkpt>
      <trkpt lat="48.70264" lon="1.87394">
        <ele>131.84</ele>
        <time>2009-12-06T01:38:06.000Z</time>
      </trkpt>
      <trkpt lat="48.70265" lon="1.87397">
        <ele>131.36</ele>
        <time>2009-12-06T01:38:07.000Z</time>
      </trkpt>
      <trkpt lat="48.70269" lon="1.87413">
        <ele>127.03</ele>
        <time>2009-12-06T01:38:13.000Z</time>
      </trkpt>
      <trkpt lat="48.70272" lon="1.87425">
        <ele>127.03</ele>
        <time>2009-12-06T01:38:19.000Z</time>
      </trkpt>
      <trkpt lat="48.70274" lon="1.87435">
        <ele>123.19</ele>
        <time>2009-12-06T01:38:23.000Z</time>
      </trkpt>
      <trkpt lat="48.7027" lon="1.87451">
        <ele>125.11</ele>
        <time>2009-12-06T01:38:29.000Z</time>
      </trkpt>
      <trkpt lat="48.70271" lon="1.87458">
        <ele>125.59</ele>
        <time>2009-12-06T01:38:31.000Z</time>
      </trkpt>
      <trkpt lat="48.70275" lon="1.87481">
        <ele>121.74</ele>
        <time>2009-12-06T01:38:37.000Z</time>
      </trkpt>
      <trkpt lat="48.70278" lon="1.87499">
        <ele>118.86</ele>
        <time>2009-12-06T01:38:42.000Z</time>
      </trkpt>
      <trkpt lat="48.7028" lon="1.87513">
        <ele>118.86</ele>
        <time>2009-12-06T01:38:47.000Z</time>
      </trkpt>
      <trkpt lat="48.70285" lon="1.87531">
        <ele>117.42</ele>
        <time>2009-12-06T01:38:53.000Z</time>
      </trkpt>
      <trkpt lat="48.70287" lon="1.87539">
        <ele>116.94</ele>
        <time>2009-12-06T01:38:56.000Z</time>
      </trkpt>
      <trkpt lat="48.70289" lon="1.8755">
        <ele>118.38</ele>
        <time>2009-12-06T01:39:00.000Z</time>
      </trkpt>
      <trkpt lat="48.70293" lon="1.87568">
        <ele>117.9</ele>
        <time>2009-12-06T01:39:07.000Z</time>
      </trkpt>
      <trkpt lat="48.70293" lon="1.87591">
        <ele>122.71</ele>
        <time>2009-12-06T01:39:13.000Z</time>
      </trkpt>
      <trkpt lat="48.70292" lon="1.87595">
        <ele>124.63</ele>
        <time>2009-12-06T01:39:14.000Z</time>
      </trkpt>
      <trkpt lat="48.70292" lon="1.87621">
        <ele>129.43</ele>
        <time>2009-12-06T01:39:21.000Z</time>
      </trkpt>
      <trkpt lat="48.70293" lon="1.87638">
        <ele>131.84</ele>
        <time>2009-12-06T01:39:25.000Z</time>
      </trkpt>
      <trkpt lat="48.70292" lon="1.87653">
        <ele>131.36</ele>
        <time>2009-12-06T01:39:29.000Z</time>
      </trkpt>
      <trkpt lat="48.70294" lon="1.87676">
        <ele>132.32</ele>
        <time>2009-12-06T01:39:35.000Z</time>
      </trkpt>
      <trkpt lat="48.70292" lon="1.87697">
        <ele>136.64</ele>
        <time>2009-12-06T01:39:41.000Z</time>
      </trkpt>
      <trkpt lat="48.70293" lon="1.87703">
        <ele>136.16</ele>
        <time>2009-12-06T01:39:43.000Z</time>
      </trkpt>
      <trkpt lat="48.70295" lon="1.87718">
        <ele>132.32</ele>
        <time>2009-12-06T01:39:48.000Z</time>
      </trkpt>
      <trkpt lat="48.70298" lon="1.87733">
        <ele>126.07</ele>
        <time>2009-12-06T01:39:55.000Z</time>
      </trkpt>
      <trkpt lat="48.70298" lon="1.87746">
        <ele>125.11</ele>
        <time>2009-12-06T01:39:59.000Z</time>
      </trkpt>
      <trkpt lat="48.70296" lon="1.8776">
        <ele>124.63</ele>
        <time>2009-12-06T01:40:03.000Z</time>
      </trkpt>
      <trkpt lat="48.70297" lon="1.87766">
        <ele>123.19</ele>
        <time>2009-12-06T01:40:05.000Z</time>
      </trkpt>
      <trkpt lat="48.70296" lon="1.87777">
        <ele>123.67</ele>
        <time>2009-12-06T01:40:09.000Z</time>
      </trkpt>
      <trkpt lat="48.70292" lon="1.87794">
        <ele>125.11</ele>
        <time>2009-12-06T01:40:14.000Z</time>
      </trkpt>
      <trkpt lat="48.7029" lon="1.87809">
        <ele>125.11</ele>
        <time>2009-12-06T01:40:19.000Z</time>
      </trkpt>
      <trkpt lat="48.70288" lon="1.87815">
        <ele>125.59</ele>
        <time>2009-12-06T01:40:21.000Z</time>
      </trkpt>
      <trkpt lat="48.70285" lon="1.87828">
        <ele>127.03</ele>
        <time>2009-12-06T01:40:25.000Z</time>
      </trkpt>
      <trkpt lat="48.70282" lon="1.87835">
        <ele>127.03</ele>
        <time>2009-12-06T01:40:27.000Z</time>
      </trkpt>
      <trkpt lat="48.70278" lon="1.87843">
        <ele>127.51</ele>
        <time>2009-12-06T01:40:30.000Z</time>
      </trkpt>
      <trkpt lat="48.70274" lon="1.87858">
        <ele>127.51</ele>
        <time>2009-12-06T01:40:35.000Z</time>
      </trkpt>
      <trkpt lat="48.70271" lon="1.87878">
        <ele>127.99</ele>
        <time>2009-12-06T01:40:40.000Z</time>
      </trkpt>
      <trkpt lat="48.7027" lon="1.87885">
        <ele>126.07</ele>
        <time>2009-12-06T01:40:42.000Z</time>
      </trkpt>
      <trkpt lat="48.70265" lon="1.87905">
        <ele>128.47</ele>
        <time>2009-12-06T01:40:48.000Z</time>
      </trkpt>
      <trkpt lat="48.70264" lon="1.87917">
        <ele>125.59</ele>
        <time>2009-12-06T01:40:52.000Z</time>
      </trkpt>
      <trkpt lat="48.70267" lon="1.87932">
        <ele>118.38</ele>
        <time>2009-12-06T01:40:58.000Z</time>
      </trkpt>
      <trkpt lat="48.70269" lon="1.87945">
        <ele>112.13</ele>
        <time>2009-12-06T01:41:02.000Z</time>
      </trkpt>
      <trkpt lat="48.70263" lon="1.87965">
        <ele>105.4</ele>
        <time>2009-12-06T01:41:08.000Z</time>
      </trkpt>
      <trkpt lat="48.70262" lon="1.87973">
        <ele>102.04</ele>
        <time>2009-12-06T01:41:11.000Z</time>
      </trkpt>
      <trkpt lat="48.70259" lon="1.87988">
        <ele>100.6</ele>
        <time>2009-12-06T01:41:15.000Z</time>
      </trkpt>
      <trkpt lat="48.70257" lon="1.88003">
        <ele>97.71</ele>
        <time>2009-12-06T01:41:19.000Z</time>
      </trkpt>
      <trkpt lat="48.70253" lon="1.88018">
        <ele>97.23</ele>
        <time>2009-12-06T01:41:23.000Z</time>
      </trkpt>
      <trkpt lat="48.7025" lon="1.88032">
        <ele>95.79</ele>
        <time>2009-12-06T01:41:28.000Z</time>
      </trkpt>
      <trkpt lat="48.70251" lon="1.88039">
        <ele>93.87</ele>
        <time>2009-12-06T01:41:31.000Z</time>
      </trkpt>
      <trkpt lat="48.70247" lon="1.8805">
        <ele>92.9</ele>
        <time>2009-12-06T01:41:35.000Z</time>
      </trkpt>
      <trkpt lat="48.70246" lon="1.88066">
        <ele>90.5</ele>
        <time>2009-12-06T01:41:40.000Z</time>
      </trkpt>
      <trkpt lat="48.70247" lon="1.88085">
        <ele>89.54</ele>
        <time>2009-12-06T01:41:45.000Z</time>
      </trkpt>
      <trkpt lat="48.7025" lon="1.88108">
        <ele>90.5</ele>
        <time>2009-12-06T01:41:50.000Z</time>
      </trkpt>
      <trkpt lat="48.7025" lon="1.88129">
        <ele>93.39</ele>
        <time>2009-12-06T01:41:54.000Z</time>
      </trkpt>
      <trkpt lat="48.7025" lon="1.88151">
        <ele>98.19</ele>
        <time>2009-12-06T01:41:58.000Z</time>
      </trkpt>
      <trkpt lat="48.70248" lon="1.88177">
        <ele>105.88</ele>
        <time>2009-12-06T01:42:04.000Z</time>
      </trkpt>
      <trkpt lat="48.70251" lon="1.88198">
        <ele>110.69</ele>
        <time>2009-12-06T01:42:09.000Z</time>
      </trkpt>
      <trkpt lat="48.70255" lon="1.88216">
        <ele>115.5</ele>
        <time>2009-12-06T01:42:13.000Z</time>
      </trkpt>
      <trkpt lat="48.70251" lon="1.88257">
        <ele>134.72</ele>
        <time>2009-12-06T01:42:19.000Z</time>
      </trkpt>
      <trkpt lat="48.70251" lon="1.88262">
        <ele>136.64</ele>
        <time>2009-12-06T01:42:20.000Z</time>
      </trkpt>
      <trkpt lat="48.70246" lon="1.88287">
        <ele>141.45</ele>
        <time>2009-12-06T01:42:26.000Z</time>
      </trkpt>
      <trkpt lat="48.70244" lon="1.88302">
        <ele>141.45</ele>
        <time>2009-12-06T01:42:30.000Z</time>
      </trkpt>
      <trkpt lat="48.70248" lon="1.88324">
        <ele>141.45</ele>
        <time>2009-12-06T01:42:37.000Z</time>
      </trkpt>
      <trkpt lat="48.7025" lon="1.88339">
        <ele>141.45</ele>
        <time>2009-12-06T01:42:42.000Z</time>
      </trkpt>
      <trkpt lat="48.70253" lon="1.88358">
        <ele>140.97</ele>
        <time>2009-12-06T01:42:48.000Z</time>
      </trkpt>
      <trkpt lat="48.70251" lon="1.88377">
        <ele>141.45</ele>
        <time>2009-12-06T01:42:54.000Z</time>
      </trkpt>
      <trkpt lat="48.7025" lon="1.88394">
        <ele>143.37</ele>
        <time>2009-12-06T01:43:00.000Z</time>
      </trkpt>
      <trkpt lat="48.70249" lon="1.88407">
        <ele>144.34</ele>
        <time>2009-12-06T01:43:04.000Z</time>
      </trkpt>
      <trkpt lat="48.70247" lon="1.88419">
        <ele>144.34</ele>
        <time>2009-12-06T01:43:08.000Z</time>
      </trkpt>
      <trkpt lat="48.70243" lon="1.88438">
        <ele>145.78</ele>
        <time>2009-12-06T01:43:14.000Z</time>
      </trkpt>
      <trkpt lat="48.70243" lon="1.88453">
        <ele>146.74</ele>
        <time>2009-12-06T01:43:19.000Z</time>
      </trkpt>
      <trkpt lat="48.70243" lon="1.88471">
        <ele>149.14</ele>
        <time>2009-12-06T01:43:25.000Z</time>
      </trkpt>
      <trkpt lat="48.70242" lon="1.8849">
        <ele>150.58</ele>
        <time>2009-12-06T01:43:31.000Z</time>
      </trkpt>
      <trkpt lat="48.7024" lon="1.88502">
        <ele>152.03</ele>
        <time>2009-12-06T01:43:35.000Z</time>
      </trkpt>
      <trkpt lat="48.70243" lon="1.88512">
        <ele>151.54</ele>
        <time>2009-12-06T01:43:39.000Z</time>
      </trkpt>
      <trkpt lat="48.70251" lon="1.88527">
        <ele>153.95</ele>
        <time>2009-12-06T01:43:45.000Z</time>
      </trkpt>
      <trkpt lat="48.70264" lon="1.88534">
        <ele>152.51</ele>
        <time>2009-12-06T01:43:51.000Z</time>
      </trkpt>
      <trkpt lat="48.70267" lon="1.88535">
        <ele>152.51</ele>
        <time>2009-12-06T01:43:52.000Z</time>
      </trkpt>
      <trkpt lat="48.7028" lon="1.88534">
        <ele>149.62</ele>
        <time>2009-12-06T01:43:57.000Z</time>
      </trkpt>
      <trkpt lat="48.70291" lon="1.88534">
        <ele>146.26</ele>
        <time>2009-12-06T01:44:01.000Z</time>
      </trkpt>
      <trkpt lat="48.70298" lon="1.88536">
        <ele>144.82</ele>
        <time>2009-12-06T01:44:04.000Z</time>
      </trkpt>
      <trkpt lat="48.70308" lon="1.88537">
        <ele>143.37</ele>
        <time>2009-12-06T01:44:09.000Z</time>
      </trkpt>
      <trkpt lat="48.70318" lon="1.88535">
        <ele>142.89</ele>
        <time>2009-12-06T01:44:14.000Z</time>
      </trkpt>
      <trkpt lat="48.70333" lon="1.88536">
        <ele>142.41</ele>
        <time>2009-12-06T01:44:21.000Z</time>
      </trkpt>
      <trkpt lat="48.70346" lon="1.88538">
        <ele>138.57</ele>
        <time>2009-12-06T01:44:27.000Z</time>
      </trkpt>
      <trkpt lat="48.70356" lon="1.88539">
        <ele>136.64</ele>
        <time>2009-12-06T01:44:31.000Z</time>
      </trkpt>
      <trkpt lat="48.70368" lon="1.88539">
        <ele>135.68</ele>
        <time>2009-12-06T01:44:36.000Z</time>
      </trkpt>
      <trkpt lat="48.70377" lon="1.8854">
        <ele>134.24</ele>
        <time>2009-12-06T01:44:41.000Z</time>
      </trkpt>
      <trkpt lat="48.7038" lon="1.88541">
        <ele>134.24</ele>
        <time>2009-12-06T01:44:42.000Z</time>
      </trkpt>
      <trkpt lat="48.70389" lon="1.88543">
        <ele>135.68</ele>
        <time>2009-12-06T01:44:48.000Z</time>
      </trkpt>
      <trkpt lat="48.70393" lon="1.88545">
        <ele>137.61</ele>
        <time>2009-12-06T01:44:52.000Z</time>
      </trkpt>
      <trkpt lat="48.70396" lon="1.88549">
        <ele>142.89</ele>
        <time>2009-12-06T01:44:59.000Z</time>
      </trkpt>
      <trkpt lat="48.70395" lon="1.88556">
        <ele>144.34</ele>
        <time>2009-12-06T01:45:05.000Z</time>
      </trkpt>
      <trkpt lat="48.70392" lon="1.88578">
        <ele>148.66</ele>
        <time>2009-12-06T01:45:10.000Z</time>
      </trkpt>
      <trkpt lat="48.70393" lon="1.88593">
        <ele>146.26</ele>
        <time>2009-12-06T01:45:15.000Z</time>
      </trkpt>
      <trkpt lat="48.70392" lon="1.88608">
        <ele>142.89</ele>
        <time>2009-12-06T01:45:20.000Z</time>
      </trkpt>
      <trkpt lat="48.70395" lon="1.88624">
        <ele>141.93</ele>
        <time>2009-12-06T01:45:26.000Z</time>
      </trkpt>
      <trkpt lat="48.70395" lon="1.8864">
        <ele>145.3</ele>
        <time>2009-12-06T01:45:31.000Z</time>
      </trkpt>
      <trkpt lat="48.70395" lon="1.88654">
        <ele>145.78</ele>
        <time>2009-12-06T01:45:36.000Z</time>
      </trkpt>
      <trkpt lat="48.70394" lon="1.88658">
        <ele>148.18</ele>
        <time>2009-12-06T01:45:37.000Z</time>
      </trkpt>
      <trkpt lat="48.70388" lon="1.88676">
        <ele>153.47</ele>
        <time>2009-12-06T01:45:42.000Z</time>
      </trkpt>
      <trkpt lat="48.70393" lon="1.88693">
        <ele>151.54</ele>
        <time>2009-12-06T01:45:49.000Z</time>
      </trkpt>
      <trkpt lat="48.70394" lon="1.88699">
        <ele>151.06</ele>
        <time>2009-12-06T01:45:51.000Z</time>
      </trkpt>
      <trkpt lat="48.70392" lon="1.88724">
        <ele>153.95</ele>
        <time>2009-12-06T01:45:58.000Z</time>
      </trkpt>
      <trkpt lat="48.70394" lon="1.88737">
        <ele>147.7</ele>
        <time>2009-12-06T01:46:04.000Z</time>
      </trkpt>
      <trkpt lat="48.70394" lon="1.8874">
        <ele>146.26</ele>
        <time>2009-12-06T01:46:05.000Z</time>
      </trkpt>
      <trkpt lat="48.70394" lon="1.88761">
        <ele>147.22</ele>
        <time>2009-12-06T01:46:11.000Z</time>
      </trkpt>
      <trkpt lat="48.70392" lon="1.88779">
        <ele>142.89</ele>
        <time>2009-12-06T01:46:18.000Z</time>
      </trkpt>
      <trkpt lat="48.70386" lon="1.88796">
        <ele>142.41</ele>
        <time>2009-12-06T01:46:24.000Z</time>
      </trkpt>
      <trkpt lat="48.70381" lon="1.88808">
        <ele>141.93</ele>
        <time>2009-12-06T01:46:29.000Z</time>
      </trkpt>
      <trkpt lat="48.70373" lon="1.88819">
        <ele>149.62</ele>
        <time>2009-12-06T01:46:34.000Z</time>
      </trkpt>
      <trkpt lat="48.70362" lon="1.88836">
        <ele>149.62</ele>
        <time>2009-12-06T01:46:40.000Z</time>
      </trkpt>
      <trkpt lat="48.70354" lon="1.88848">
        <ele>149.62</ele>
        <time>2009-12-06T01:46:45.000Z</time>
      </trkpt>
      <trkpt lat="48.70346" lon="1.88859">
        <ele>149.62</ele>
        <time>2009-12-06T01:46:51.000Z</time>
      </trkpt>
      <trkpt lat="48.70345" lon="1.8886">
        <ele>149.14</ele>
        <time>2009-12-06T01:46:52.000Z</time>
      </trkpt>
      <trkpt lat="48.70339" lon="1.88858">
        <ele>145.78</ele>
        <time>2009-12-06T01:46:57.000Z</time>
      </trkpt>
      <trkpt lat="48.70329" lon="1.88875">
        <ele>144.34</ele>
        <time>2009-12-06T01:47:03.000Z</time>
      </trkpt>
      <trkpt lat="48.70319" lon="1.88888">
        <ele>145.3</ele>
        <time>2009-12-06T01:47:08.000Z</time>
      </trkpt>
      <trkpt lat="48.70309" lon="1.88903">
        <ele>144.82</ele>
        <time>2009-12-06T01:47:14.000Z</time>
      </trkpt>
      <trkpt lat="48.70304" lon="1.88912">
        <ele>142.89</ele>
        <time>2009-12-06T01:47:19.000Z</time>
      </trkpt>
      <trkpt lat="48.70297" lon="1.88928">
        <ele>143.37</ele>
        <time>2009-12-06T01:47:25.000Z</time>
      </trkpt>
      <trkpt lat="48.70296" lon="1.8893">
        <ele>144.34</ele>
        <time>2009-12-06T01:47:26.000Z</time>
      </trkpt>
      <trkpt lat="48.70289" lon="1.88944">
        <ele>144.34</ele>
        <time>2009-12-06T01:47:32.000Z</time>
      </trkpt>
      <trkpt lat="48.70282" lon="1.88957">
        <ele>144.82</ele>
        <time>2009-12-06T01:47:37.000Z</time>
      </trkpt>
      <trkpt lat="48.70276" lon="1.88969">
        <ele>144.34</ele>
        <time>2009-12-06T01:47:42.000Z</time>
      </trkpt>
      <trkpt lat="48.70272" lon="1.8898">
        <ele>142.41</ele>
        <time>2009-12-06T01:47:46.000Z</time>
      </trkpt>
      <trkpt lat="48.70268" lon="1.88983">
        <ele>142.41</ele>
        <time>2009-12-06T01:47:48.000Z</time>
      </trkpt>
      <trkpt lat="48.70257" lon="1.88993">
        <ele>141.93</ele>
        <time>2009-12-06T01:47:54.000Z</time>
      </trkpt>
      <trkpt lat="48.70251" lon="1.88983">
        <ele>141.93</ele>
        <time>2009-12-06T01:48:00.000Z</time>
      </trkpt>
      <trkpt lat="48.70245" lon="1.88974">
        <ele>142.41</ele>
        <time>2009-12-06T01:48:04.000Z</time>
      </trkpt>
      <trkpt lat="48.70236" lon="1.8898">
        <ele>141.45</ele>
        <time>2009-12-06T01:48:09.000Z</time>
      </trkpt>
      <trkpt lat="48.70232" lon="1.88993">
        <ele>140.01</ele>
        <time>2009-12-06T01:48:13.000Z</time>
      </trkpt>
      <trkpt lat="48.70232" lon="1.88996">
        <ele>139.53</ele>
        <time>2009-12-06T01:48:14.000Z</time>
      </trkpt>
      <trkpt lat="48.70228" lon="1.89016">
        <ele>138.09</ele>
        <time>2009-12-06T01:48:20.000Z</time>
      </trkpt>
      <trkpt lat="48.70225" lon="1.8903">
        <ele>137.13</ele>
        <time>2009-12-06T01:48:25.000Z</time>
      </trkpt>
      <trkpt lat="48.70221" lon="1.89049">
        <ele>136.16</ele>
        <time>2009-12-06T01:48:31.000Z</time>
      </trkpt>
      <trkpt lat="48.70217" lon="1.89064">
        <ele>134.72</ele>
        <time>2009-12-06T01:48:36.000Z</time>
      </trkpt>
      <trkpt lat="48.70214" lon="1.89078">
        <ele>134.72</ele>
        <time>2009-12-06T01:48:40.000Z</time>
      </trkpt>
      <trkpt lat="48.70212" lon="1.89094">
        <ele>134.24</ele>
        <time>2009-12-06T01:48:45.000Z</time>
      </trkpt>
      <trkpt lat="48.70207" lon="1.89111">
        <ele>132.8</ele>
        <time>2009-12-06T01:48:51.000Z</time>
      </trkpt>
      <trkpt lat="48.70203" lon="1.89124">
        <ele>132.8</ele>
        <time>2009-12-06T01:48:56.000Z</time>
      </trkpt>
      <trkpt lat="48.70199" lon="1.89137">
        <ele>133.76</ele>
        <time>2009-12-06T01:49:01.000Z</time>
      </trkpt>
      <trkpt lat="48.70196" lon="1.89149">
        <ele>134.24</ele>
        <time>2009-12-06T01:49:05.000Z</time>
      </trkpt>
      <trkpt lat="48.7019" lon="1.89167">
        <ele>136.16</ele>
        <time>2009-12-06T01:49:11.000Z</time>
      </trkpt>
      <trkpt lat="48.70187" lon="1.89183">
        <ele>137.13</ele>
        <time>2009-12-06T01:49:16.000Z</time>
      </trkpt>
      <trkpt lat="48.70182" lon="1.89201">
        <ele>139.05</ele>
        <time>2009-12-06T01:49:22.000Z</time>
      </trkpt>
      <trkpt lat="48.70183" lon="1.89204">
        <ele>139.05</ele>
        <time>2009-12-06T01:49:23.000Z</time>
      </trkpt>
      <trkpt lat="48.70199" lon="1.89217">
        <ele>139.05</ele>
        <time>2009-12-06T01:49:31.000Z</time>
      </trkpt>
      <trkpt lat="48.70201" lon="1.89218">
        <ele>138.57</ele>
        <time>2009-12-06T01:49:32.000Z</time>
      </trkpt>
      <trkpt lat="48.70206" lon="1.89224">
        <ele>138.57</ele>
        <time>2009-12-06T01:49:35.000Z</time>
      </trkpt>
      <trkpt lat="48.70218" lon="1.89239">
        <ele>139.53</ele>
        <time>2009-12-06T01:49:42.000Z</time>
      </trkpt>
      <trkpt lat="48.70224" lon="1.89247">
        <ele>139.05</ele>
        <time>2009-12-06T01:49:46.000Z</time>
      </trkpt>
      <trkpt lat="48.70237" lon="1.89262">
        <ele>140.49</ele>
        <time>2009-12-06T01:49:52.000Z</time>
      </trkpt>
      <trkpt lat="48.70244" lon="1.89276">
        <ele>142.41</ele>
        <time>2009-12-06T01:49:57.000Z</time>
      </trkpt>
      <trkpt lat="48.70247" lon="1.89283">
        <ele>142.89</ele>
        <time>2009-12-06T01:50:00.000Z</time>
      </trkpt>
      <trkpt lat="48.70258" lon="1.89297">
        <ele>143.85</ele>
        <time>2009-12-06T01:50:06.000Z</time>
      </trkpt>
      <trkpt lat="48.70266" lon="1.89309">
        <ele>140.97</ele>
        <time>2009-12-06T01:50:11.000Z</time>
      </trkpt>
      <trkpt lat="48.70274" lon="1.89324">
        <ele>139.53</ele>
        <time>2009-12-06T01:50:18.000Z</time>
      </trkpt>
      <trkpt lat="48.70281" lon="1.89333">
        <ele>140.01</ele>
        <time>2009-12-06T01:50:22.000Z</time>
      </trkpt>
      <trkpt lat="48.70289" lon="1.89342">
        <ele>140.01</ele>
        <time>2009-12-06T01:50:26.000Z</time>
      </trkpt>
      <trkpt lat="48.70296" lon="1.89353">
        <ele>140.49</ele>
        <time>2009-12-06T01:50:31.000Z</time>
      </trkpt>
      <trkpt lat="48.70297" lon="1.89355">
        <ele>140.49</ele>
        <time>2009-12-06T01:50:32.000Z</time>
      </trkpt>
      <trkpt lat="48.70302" lon="1.89357">
        <ele>142.41</ele>
        <time>2009-12-06T01:50:39.000Z</time>
      </trkpt>
      <trkpt lat="48.70303" lon="1.89357">
        <ele>143.37</ele>
        <time>2009-12-06T01:50:45.000Z</time>
      </trkpt>
      <trkpt lat="48.70309" lon="1.89358">
        <ele>143.37</ele>
        <time>2009-12-06T01:50:55.000Z</time>
      </trkpt>
      <trkpt lat="48.70313" lon="1.89359">
        <ele>144.34</ele>
        <time>2009-12-06T01:50:58.000Z</time>
      </trkpt>
      <trkpt lat="48.70318" lon="1.89359">
        <ele>147.22</ele>
        <time>2009-12-06T01:51:04.000Z</time>
      </trkpt>
      <trkpt lat="48.70319" lon="1.89359">
        <ele>147.7</ele>
        <time>2009-12-06T01:51:05.000Z</time>
      </trkpt>
      <trkpt lat="48.70327" lon="1.89358">
        <ele>148.18</ele>
        <time>2009-12-06T01:51:12.000Z</time>
      </trkpt>
      <trkpt lat="48.70332" lon="1.8936">
        <ele>148.66</ele>
        <time>2009-12-06T01:51:16.000Z</time>
      </trkpt>
      <trkpt lat="48.70334" lon="1.8936">
        <ele>148.66</ele>
        <time>2009-12-06T01:51:18.000Z</time>
      </trkpt>
      <trkpt lat="48.70343" lon="1.89358">
        <ele>150.1</ele>
        <time>2009-12-06T01:51:24.000Z</time>
      </trkpt>
      <trkpt lat="48.70353" lon="1.89358">
        <ele>150.58</ele>
        <time>2009-12-06T01:51:31.000Z</time>
      </trkpt>
      <trkpt lat="48.70357" lon="1.89356">
        <ele>151.54</ele>
        <time>2009-12-06T01:51:36.000Z</time>
      </trkpt>
      <trkpt lat="48.70361" lon="1.89354">
        <ele>152.03</ele>
        <time>2009-12-06T01:51:40.000Z</time>
      </trkpt>
      <trkpt lat="48.70368" lon="1.89349">
        <ele>148.66</ele>
        <time>2009-12-06T01:51:47.000Z</time>
      </trkpt>
      <trkpt lat="48.70369" lon="1.89348">
        <ele>147.7</ele>
        <time>2009-12-06T01:51:48.000Z</time>
      </trkpt>
      <trkpt lat="48.70376" lon="1.89345">
        <ele>145.78</ele>
        <time>2009-12-06T01:51:54.000Z</time>
      </trkpt>
      <trkpt lat="48.70381" lon="1.89343">
        <ele>148.18</ele>
        <time>2009-12-06T01:51:59.000Z</time>
      </trkpt>
      <trkpt lat="48.70386" lon="1.89343">
        <ele>148.66</ele>
        <time>2009-12-06T01:52:02.000Z</time>
      </trkpt>
      <trkpt lat="48.70392" lon="1.89342">
        <ele>148.18</ele>
        <time>2009-12-06T01:52:07.000Z</time>
      </trkpt>
      <trkpt lat="48.70396" lon="1.89344">
        <ele>148.66</ele>
        <time>2009-12-06T01:52:11.000Z</time>
      </trkpt>
      <trkpt lat="48.704" lon="1.89349">
        <ele>153.47</ele>
        <time>2009-12-06T01:52:17.000Z</time>
      </trkpt>
      <trkpt lat="48.70404" lon="1.89359">
        <ele>160.68</ele>
        <time>2009-12-06T01:52:25.000Z</time>
      </trkpt>
      <trkpt lat="48.70409" lon="1.89365">
        <ele>166.93</ele>
        <time>2009-12-06T01:52:32.000Z</time>
      </trkpt>
      <trkpt lat="48.70412" lon="1.89371">
        <ele>170.77</ele>
        <time>2009-12-06T01:52:38.000Z</time>
      </trkpt>
      <trkpt lat="48.70417" lon="1.8938">
        <ele>174.14</ele>
        <time>2009-12-06T01:52:46.000Z</time>
      </trkpt>
      <trkpt lat="48.70421" lon="1.89386">
        <ele>173.17</ele>
        <time>2009-12-06T01:52:52.000Z</time>
      </trkpt>
      <trkpt lat="48.7042" lon="1.89394">
        <ele>173.17</ele>
        <time>2009-12-06T01:53:00.000Z</time>
      </trkpt>
      <trkpt lat="48.70418" lon="1.89402">
        <ele>172.69</ele>
        <time>2009-12-06T01:53:04.000Z</time>
      </trkpt>
      <trkpt lat="48.70417" lon="1.8941">
        <ele>172.21</ele>
        <time>2009-12-06T01:53:09.000Z</time>
      </trkpt>
      <trkpt lat="48.70416" lon="1.8942">
        <ele>171.73</ele>
        <time>2009-12-06T01:53:14.000Z</time>
      </trkpt>
      <trkpt lat="48.70415" lon="1.89432">
        <ele>171.25</ele>
        <time>2009-12-06T01:53:19.000Z</time>
      </trkpt>
      <trkpt lat="48.70417" lon="1.89442">
        <ele>166.93</ele>
        <time>2009-12-06T01:53:24.000Z</time>
      </trkpt>
      <trkpt lat="48.70421" lon="1.89454">
        <ele>163.56</ele>
        <time>2009-12-06T01:53:29.000Z</time>
      </trkpt>
      <trkpt lat="48.70424" lon="1.89467">
        <ele>164.52</ele>
        <time>2009-12-06T01:53:34.000Z</time>
      </trkpt>
      <trkpt lat="48.70425" lon="1.89471">
        <ele>164.52</ele>
        <time>2009-12-06T01:53:36.000Z</time>
      </trkpt>
      <trkpt lat="48.70429" lon="1.89483">
        <ele>165</ele>
        <time>2009-12-06T01:53:42.000Z</time>
      </trkpt>
      <trkpt lat="48.70435" lon="1.89496">
        <ele>167.89</ele>
        <time>2009-12-06T01:53:51.000Z</time>
      </trkpt>
      <trkpt lat="48.70436" lon="1.89505">
        <ele>169.81</ele>
        <time>2009-12-06T01:53:58.000Z</time>
      </trkpt>
      <trkpt lat="48.70438" lon="1.8952">
        <ele>172.69</ele>
        <time>2009-12-06T01:54:05.000Z</time>
      </trkpt>
      <trkpt lat="48.70441" lon="1.89531">
        <ele>172.69</ele>
        <time>2009-12-06T01:54:09.000Z</time>
      </trkpt>
      <trkpt lat="48.7044" lon="1.89553">
        <ele>174.62</ele>
        <time>2009-12-06T01:54:16.000Z</time>
      </trkpt>
      <trkpt lat="48.7044" lon="1.89568">
        <ele>173.17</ele>
        <time>2009-12-06T01:54:21.000Z</time>
      </trkpt>
      <trkpt lat="48.70439" lon="1.89575">
        <ele>173.66</ele>
        <time>2009-12-06T01:54:23.000Z</time>
      </trkpt>
      <trkpt lat="48.70439" lon="1.89591">
        <ele>173.17</ele>
        <time>2009-12-06T01:54:29.000Z</time>
      </trkpt>
      <trkpt lat="48.70438" lon="1.89603">
        <ele>171.73</ele>
        <time>2009-12-06T01:54:33.000Z</time>
      </trkpt>
      <trkpt lat="48.70438" lon="1.89624">
        <ele>168.85</ele>
        <time>2009-12-06T01:54:39.000Z</time>
      </trkpt>
      <trkpt lat="48.70435" lon="1.8963">
        <ele>169.81</ele>
        <time>2009-12-06T01:54:42.000Z</time>
      </trkpt>
      <trkpt lat="48.70428" lon="1.89642">
        <ele>171.25</ele>
        <time>2009-12-06T01:54:48.000Z</time>
      </trkpt>
      <trkpt lat="48.7042" lon="1.89645">
        <ele>170.77</ele>
        <time>2009-12-06T01:54:53.000Z</time>
      </trkpt>
      <trkpt lat="48.70414" lon="1.89642">
        <ele>171.73</ele>
        <time>2009-12-06T01:54:56.000Z</time>
      </trkpt>
      <trkpt lat="48.70406" lon="1.89642">
        <ele>171.25</ele>
        <time>2009-12-06T01:55:02.000Z</time>
      </trkpt>
      <trkpt lat="48.70395" lon="1.89642">
        <ele>168.85</ele>
        <time>2009-12-06T01:55:08.000Z</time>
      </trkpt>
      <trkpt lat="48.70393" lon="1.89642">
        <ele>167.89</ele>
        <time>2009-12-06T01:55:09.000Z</time>
      </trkpt>
      <trkpt lat="48.70385" lon="1.89634">
        <ele>167.89</ele>
        <time>2009-12-06T01:55:15.000Z</time>
      </trkpt>
      <trkpt lat="48.70377" lon="1.89629">
        <ele>167.89</ele>
        <time>2009-12-06T01:55:22.000Z</time>
      </trkpt>
      <trkpt lat="48.7037" lon="1.89625">
        <ele>165.96</ele>
        <time>2009-12-06T01:55:26.000Z</time>
      </trkpt>
      <trkpt lat="48.70361" lon="1.89613">
        <ele>165.96</ele>
        <time>2009-12-06T01:55:32.000Z</time>
      </trkpt>
      <trkpt lat="48.70356" lon="1.89604">
        <ele>163.56</ele>
        <time>2009-12-06T01:55:37.000Z</time>
      </trkpt>
      <trkpt lat="48.70352" lon="1.89597">
        <ele>160.2</ele>
        <time>2009-12-06T01:55:43.000Z</time>
      </trkpt>
      <trkpt lat="48.70346" lon="1.89585">
        <ele>156.83</ele>
        <time>2009-12-06T01:55:49.000Z</time>
      </trkpt>
      <trkpt lat="48.70343" lon="1.89579">
        <ele>156.83</ele>
        <time>2009-12-06T01:55:52.000Z</time>
      </trkpt>
      <trkpt lat="48.70334" lon="1.89567">
        <ele>154.43</ele>
        <time>2009-12-06T01:55:58.000Z</time>
      </trkpt>
      <trkpt lat="48.70325" lon="1.89561">
        <ele>151.54</ele>
        <time>2009-12-06T01:56:04.000Z</time>
      </trkpt>
      <trkpt lat="48.70317" lon="1.89556">
        <ele>149.62</ele>
        <time>2009-12-06T01:56:09.000Z</time>
      </trkpt>
      <trkpt lat="48.70298" lon="1.89565">
        <ele>150.58</ele>
        <time>2009-12-06T01:56:16.000Z</time>
      </trkpt>
      <trkpt lat="48.70285" lon="1.89569">
        <ele>151.54</ele>
        <time>2009-12-06T01:56:22.000Z</time>
      </trkpt>
      <trkpt lat="48.70277" lon="1.89572">
        <ele>151.06</ele>
        <time>2009-12-06T01:56:27.000Z</time>
      </trkpt>
      <trkpt lat="48.70266" lon="1.89587">
        <ele>149.14</ele>
        <time>2009-12-06T01:56:34.000Z</time>
      </trkpt>
      <trkpt lat="48.7026" lon="1.89594">
        <ele>150.58</ele>
        <time>2009-12-06T01:56:37.000Z</time>
      </trkpt>
      <trkpt lat="48.70252" lon="1.89609">
        <ele>143.85</ele>
        <time>2009-12-06T01:56:44.000Z</time>
      </trkpt>
      <trkpt lat="48.70248" lon="1.89617">
        <ele>143.37</ele>
        <time>2009-12-06T01:56:47.000Z</time>
      </trkpt>
      <trkpt lat="48.70242" lon="1.89631">
        <ele>141.45</ele>
        <time>2009-12-06T01:56:52.000Z</time>
      </trkpt>
      <trkpt lat="48.70237" lon="1.89642">
        <ele>142.41</ele>
        <time>2009-12-06T01:56:56.000Z</time>
      </trkpt>
      <trkpt lat="48.70229" lon="1.89654">
        <ele>145.78</ele>
        <time>2009-12-06T01:57:02.000Z</time>
      </trkpt>
      <trkpt lat="48.70216" lon="1.89665">
        <ele>149.14</ele>
        <time>2009-12-06T01:57:09.000Z</time>
      </trkpt>
      <trkpt lat="48.70207" lon="1.8968">
        <ele>149.62</ele>
        <time>2009-12-06T01:57:14.000Z</time>
      </trkpt>
      <trkpt lat="48.70198" lon="1.89689">
        <ele>150.58</ele>
        <time>2009-12-06T01:57:19.000Z</time>
      </trkpt>
      <trkpt lat="48.70195" lon="1.89697">
        <ele>149.14</ele>
        <time>2009-12-06T01:57:23.000Z</time>
      </trkpt>
      <trkpt lat="48.70191" lon="1.89704">
        <ele>148.66</ele>
        <time>2009-12-06T01:57:27.000Z</time>
      </trkpt>
      <trkpt lat="48.7019" lon="1.89707">
        <ele>147.22</ele>
        <time>2009-12-06T01:57:29.000Z</time>
      </trkpt>
      <trkpt lat="48.70184" lon="1.89714">
        <ele>145.3</ele>
        <time>2009-12-06T01:57:33.000Z</time>
      </trkpt>
      <trkpt lat="48.70186" lon="1.89731">
        <ele>141.45</ele>
        <time>2009-12-06T01:57:38.000Z</time>
      </trkpt>
      <trkpt lat="48.70188" lon="1.8975">
        <ele>141.45</ele>
        <time>2009-12-06T01:57:44.000Z</time>
      </trkpt>
      <trkpt lat="48.70188" lon="1.89752">
        <ele>141.45</ele>
        <time>2009-12-06T01:57:45.000Z</time>
      </trkpt>
      <trkpt lat="48.7019" lon="1.89757">
        <ele>140.49</ele>
        <time>2009-12-06T01:57:48.000Z</time>
      </trkpt>
      <trkpt lat="48.7019" lon="1.89765">
        <ele>143.85</ele>
        <time>2009-12-06T01:57:52.000Z</time>
      </trkpt>
      <trkpt lat="48.70197" lon="1.89776">
        <ele>141.45</ele>
        <time>2009-12-06T01:57:59.000Z</time>
      </trkpt>
      <trkpt lat="48.702" lon="1.89781">
        <ele>140.97</ele>
        <time>2009-12-06T01:58:02.000Z</time>
      </trkpt>
      <trkpt lat="48.70208" lon="1.89791">
        <ele>141.93</ele>
        <time>2009-12-06T01:58:09.000Z</time>
      </trkpt>
      <trkpt lat="48.70211" lon="1.89797">
        <ele>144.82</ele>
        <time>2009-12-06T01:58:13.000Z</time>
      </trkpt>
      <trkpt lat="48.70218" lon="1.89808">
        <ele>144.34</ele>
        <time>2009-12-06T01:58:19.000Z</time>
      </trkpt>
      <trkpt lat="48.70219" lon="1.89812">
        <ele>144.34</ele>
        <time>2009-12-06T01:58:21.000Z</time>
      </trkpt>
      <trkpt lat="48.70222" lon="1.89819">
        <ele>149.14</ele>
        <time>2009-12-06T01:58:26.000Z</time>
      </trkpt>
      <trkpt lat="48.70221" lon="1.89827">
        <ele>151.54</ele>
        <time>2009-12-06T01:58:30.000Z</time>
      </trkpt>
      <trkpt lat="48.70227" lon="1.89838">
        <ele>146.74</ele>
        <time>2009-12-06T01:58:37.000Z</time>
      </trkpt>
      <trkpt lat="48.7023" lon="1.89851">
        <ele>149.14</ele>
        <time>2009-12-06T01:58:44.000Z</time>
      </trkpt>
      <trkpt lat="48.70231" lon="1.89854">
        <ele>149.14</ele>
        <time>2009-12-06T01:58:46.000Z</time>
      </trkpt>
      <trkpt lat="48.70229" lon="1.89864">
        <ele>152.03</ele>
        <time>2009-12-06T01:58:52.000Z</time>
      </trkpt>
      <trkpt lat="48.70226" lon="1.89874">
        <ele>156.35</ele>
        <time>2009-12-06T01:58:59.000Z</time>
      </trkpt>
      <trkpt lat="48.70228" lon="1.89882">
        <ele>157.79</ele>
        <time>2009-12-06T01:59:06.000Z</time>
      </trkpt>
      <trkpt lat="48.70231" lon="1.89892">
        <ele>161.16</ele>
        <time>2009-12-06T01:59:11.000Z</time>
      </trkpt>
      <trkpt lat="48.70232" lon="1.89897">
        <ele>159.24</ele>
        <time>2009-12-06T01:59:14.000Z</time>
      </trkpt>
      <trkpt lat="48.70232" lon="1.89906">
        <ele>158.27</ele>
        <time>2009-12-06T01:59:20.000Z</time>
      </trkpt>
      <trkpt lat="48.70235" lon="1.8991">
        <ele>155.39</ele>
        <time>2009-12-06T01:59:26.000Z</time>
      </trkpt>
      <trkpt lat="48.70235" lon="1.89919">
        <ele>154.43</ele>
        <time>2009-12-06T01:59:32.000Z</time>
      </trkpt>
      <trkpt lat="48.7023" lon="1.89934">
        <ele>163.56</ele>
        <time>2009-12-06T01:59:46.000Z</time>
      </trkpt>
      <trkpt lat="48.70232" lon="1.8994">
        <ele>162.12</ele>
        <time>2009-12-06T01:59:52.000Z</time>
      </trkpt>
      <trkpt lat="48.70232" lon="1.89946">
        <ele>162.6</ele>
        <time>2009-12-06T01:59:57.000Z</time>
      </trkpt>
      <trkpt lat="48.70232" lon="1.89946">
        <ele>163.08</ele>
        <time>2009-12-06T01:59:58.000Z</time>
      </trkpt>
      <trkpt lat="48.70237" lon="1.89951">
        <ele>165.96</ele>
        <time>2009-12-06T02:00:03.000Z</time>
      </trkpt>
      <trkpt lat="48.70241" lon="1.8996">
        <ele>167.41</ele>
        <time>2009-12-06T02:00:11.000Z</time>
      </trkpt>
      <trkpt lat="48.70245" lon="1.89968">
        <ele>170.29</ele>
        <time>2009-12-06T02:00:18.000Z</time>
      </trkpt>
      <trkpt lat="48.70248" lon="1.89979">
        <ele>177.02</ele>
        <time>2009-12-06T02:00:31.000Z</time>
      </trkpt>
      <trkpt lat="48.70248" lon="1.89984">
        <ele>177.5</ele>
        <time>2009-12-06T02:00:38.000Z</time>
      </trkpt>
      <trkpt lat="48.70252" lon="1.89987">
        <ele>179.9</ele>
        <time>2009-12-06T02:00:45.000Z</time>
      </trkpt>
      <trkpt lat="48.70253" lon="1.89998">
        <ele>177.98</ele>
        <time>2009-12-06T02:00:51.000Z</time>
      </trkpt>
      <trkpt lat="48.70252" lon="1.90007">
        <ele>180.87</ele>
        <time>2009-12-06T02:00:59.000Z</time>
      </trkpt>
      <trkpt lat="48.70254" lon="1.90012">
        <ele>179.9</ele>
        <time>2009-12-06T02:01:05.000Z</time>
      </trkpt>
      <trkpt lat="48.70258" lon="1.90017">
        <ele>177.5</ele>
        <time>2009-12-06T02:01:11.000Z</time>
      </trkpt>
      <trkpt lat="48.70259" lon="1.90021">
        <ele>177.5</ele>
        <time>2009-12-06T02:01:13.000Z</time>
      </trkpt>
      <trkpt lat="48.70261" lon="1.9003">
        <ele>177.02</ele>
        <time>2009-12-06T02:01:17.000Z</time>
      </trkpt>
      <trkpt lat="48.70263" lon="1.90042">
        <ele>178.46</ele>
        <time>2009-12-06T02:01:22.000Z</time>
      </trkpt>
      <trkpt lat="48.70264" lon="1.90051">
        <ele>181.35</ele>
        <time>2009-12-06T02:01:25.000Z</time>
      </trkpt>
      <trkpt lat="48.70262" lon="1.90059">
        <ele>184.23</ele>
        <time>2009-12-06T02:01:29.000Z</time>
      </trkpt>
      <trkpt lat="48.70262" lon="1.90063">
        <ele>182.79</ele>
        <time>2009-12-06T02:01:33.000Z</time>
      </trkpt>
      <trkpt lat="48.70259" lon="1.90068">
        <ele>183.27</ele>
        <time>2009-12-06T02:01:37.000Z</time>
      </trkpt>
      <trkpt lat="48.7026" lon="1.90078">
        <ele>183.27</ele>
        <time>2009-12-06T02:01:42.000Z</time>
      </trkpt>
      <trkpt lat="48.70259" lon="1.90083">
        <ele>185.19</ele>
        <time>2009-12-06T02:01:45.000Z</time>
      </trkpt>
      <trkpt lat="48.70257" lon="1.90097">
        <ele>183.75</ele>
        <time>2009-12-06T02:01:50.000Z</time>
      </trkpt>
      <trkpt lat="48.70257" lon="1.90108">
        <ele>181.83</ele>
        <time>2009-12-06T02:01:54.000Z</time>
      </trkpt>
      <trkpt lat="48.70257" lon="1.90123">
        <ele>179.9</ele>
        <time>2009-12-06T02:01:59.000Z</time>
      </trkpt>
      <trkpt lat="48.70258" lon="1.90139">
        <ele>180.38</ele>
        <time>2009-12-06T02:02:04.000Z</time>
      </trkpt>
      <trkpt lat="48.70256" lon="1.90146">
        <ele>181.35</ele>
        <time>2009-12-06T02:02:06.000Z</time>
      </trkpt>
      <trkpt lat="48.70256" lon="1.90166">
        <ele>183.27</ele>
        <time>2009-12-06T02:02:12.000Z</time>
      </trkpt>
      <trkpt lat="48.70252" lon="1.90182">
        <ele>186.63</ele>
        <time>2009-12-06T02:02:17.000Z</time>
      </trkpt>
      <trkpt lat="48.7025" lon="1.90191">
        <ele>186.15</ele>
        <time>2009-12-06T02:02:22.000Z</time>
      </trkpt>
      <trkpt lat="48.70248" lon="1.90192">
        <ele>183.75</ele>
        <time>2009-12-06T02:02:26.000Z</time>
      </trkpt>
      <trkpt lat="48.70235" lon="1.902">
        <ele>182.31</ele>
        <time>2009-12-06T02:02:33.000Z</time>
      </trkpt>
      <trkpt lat="48.7023" lon="1.90204">
        <ele>180.38</ele>
        <time>2009-12-06T02:02:36.000Z</time>
      </trkpt>
      <trkpt lat="48.70222" lon="1.90216">
        <ele>180.38</ele>
        <time>2009-12-06T02:02:42.000Z</time>
      </trkpt>
      <trkpt lat="48.70221" lon="1.90213">
        <ele>177.98</ele>
        <time>2009-12-06T02:02:49.000Z</time>
      </trkpt>
      <trkpt lat="48.70219" lon="1.90207">
        <ele>177.5</ele>
        <time>2009-12-06T02:02:54.000Z</time>
      </trkpt>
      <trkpt lat="48.70206" lon="1.90196">
        <ele>173.17</ele>
        <time>2009-12-06T02:03:01.000Z</time>
      </trkpt>
      <trkpt lat="48.70192" lon="1.90191">
        <ele>169.81</ele>
        <time>2009-12-06T02:03:08.000Z</time>
      </trkpt>
      <trkpt lat="48.70183" lon="1.90189">
        <ele>167.89</ele>
        <time>2009-12-06T02:03:14.000Z</time>
      </trkpt>
      <trkpt lat="48.70172" lon="1.90187">
        <ele>167.89</ele>
        <time>2009-12-06T02:03:20.000Z</time>
      </trkpt>
      <trkpt lat="48.70166" lon="1.90187">
        <ele>165.48</ele>
        <time>2009-12-06T02:03:24.000Z</time>
      </trkpt>
      <trkpt lat="48.70161" lon="1.90195">
        <ele>164.52</ele>
        <time>2009-12-06T02:03:28.000Z</time>
      </trkpt>
      <trkpt lat="48.7016" lon="1.90203">
        <ele>164.04</ele>
        <time>2009-12-06T02:03:33.000Z</time>
      </trkpt>
      <trkpt lat="48.70157" lon="1.90209">
        <ele>160.2</ele>
        <time>2009-12-06T02:03:37.000Z</time>
      </trkpt>
      <trkpt lat="48.70155" lon="1.9022">
        <ele>162.6</ele>
        <time>2009-12-06T02:03:43.000Z</time>
      </trkpt>
      <trkpt lat="48.70156" lon="1.90231">
        <ele>163.08</ele>
        <time>2009-12-06T02:03:48.000Z</time>
      </trkpt>
      <trkpt lat="48.70157" lon="1.90239">
        <ele>167.41</ele>
        <time>2009-12-06T02:03:52.000Z</time>
      </trkpt>
      <trkpt lat="48.70159" lon="1.90249">
        <ele>169.81</ele>
        <time>2009-12-06T02:03:58.000Z</time>
      </trkpt>
      <trkpt lat="48.70158" lon="1.9025">
        <ele>169.81</ele>
        <time>2009-12-06T02:04:00.000Z</time>
      </trkpt>
      <trkpt lat="48.70157" lon="1.90261">
        <ele>169.33</ele>
        <time>2009-12-06T02:04:07.000Z</time>
      </trkpt>
      <trkpt lat="48.70156" lon="1.90266">
        <ele>170.77</ele>
        <time>2009-12-06T02:04:11.000Z</time>
      </trkpt>
      <trkpt lat="48.70155" lon="1.90275">
        <ele>167.89</ele>
        <time>2009-12-06T02:04:17.000Z</time>
      </trkpt>
      <trkpt lat="48.70152" lon="1.90278">
        <ele>166.45</ele>
        <time>2009-12-06T02:04:21.000Z</time>
      </trkpt>
      <trkpt lat="48.70147" lon="1.90286">
        <ele>166.93</ele>
        <time>2009-12-06T02:04:27.000Z</time>
      </trkpt>
      <trkpt lat="48.70137" lon="1.90298">
        <ele>170.77</ele>
        <time>2009-12-06T02:04:33.000Z</time>
      </trkpt>
      <trkpt lat="48.7013" lon="1.90311">
        <ele>172.69</ele>
        <time>2009-12-06T02:04:38.000Z</time>
      </trkpt>
      <trkpt lat="48.70123" lon="1.90313">
        <ele>168.85</ele>
        <time>2009-12-06T02:04:44.000Z</time>
      </trkpt>
      <trkpt lat="48.70117" lon="1.9032">
        <ele>167.89</ele>
        <time>2009-12-06T02:04:48.000Z</time>
      </trkpt>
      <trkpt lat="48.70116" lon="1.90327">
        <ele>165.96</ele>
        <time>2009-12-06T02:04:51.000Z</time>
      </trkpt>
      <trkpt lat="48.70113" lon="1.90341">
        <ele>162.12</ele>
        <time>2009-12-06T02:04:58.000Z</time>
      </trkpt>
      <trkpt lat="48.70113" lon="1.90343">
        <ele>161.16</ele>
        <time>2009-12-06T02:04:59.000Z</time>
      </trkpt>
      <trkpt lat="48.70108" lon="1.90355">
        <ele>158.27</ele>
        <time>2009-12-06T02:05:05.000Z</time>
      </trkpt>
      <trkpt lat="48.70103" lon="1.90362">
        <ele>157.31</ele>
        <time>2009-12-06T02:05:09.000Z</time>
      </trkpt>
      <trkpt lat="48.70103" lon="1.90362">
        <ele>156.35</ele>
        <time>2009-12-06T02:05:10.000Z</time>
      </trkpt>
      <trkpt lat="48.70093" lon="1.90368">
        <ele>153.47</ele>
        <time>2009-12-06T02:05:17.000Z</time>
      </trkpt>
      <trkpt lat="48.70092" lon="1.90369">
        <ele>153.47</ele>
        <time>2009-12-06T02:05:18.000Z</time>
      </trkpt>
      <trkpt lat="48.70086" lon="1.90375">
        <ele>149.62</ele>
        <time>2009-12-06T02:05:24.000Z</time>
      </trkpt>
      <trkpt lat="48.70082" lon="1.9038">
        <ele>149.14</ele>
        <time>2009-12-06T02:05:27.000Z</time>
      </trkpt>
      <trkpt lat="48.7008" lon="1.90384">
        <ele>149.14</ele>
        <time>2009-12-06T02:05:29.000Z</time>
      </trkpt>
      <trkpt lat="48.70072" lon="1.90393">
        <ele>150.1</ele>
        <time>2009-12-06T02:05:35.000Z</time>
      </trkpt>
      <trkpt lat="48.70072" lon="1.90395">
        <ele>149.14</ele>
        <time>2009-12-06T02:05:36.000Z</time>
      </trkpt>
      <trkpt lat="48.70067" lon="1.90405">
        <ele>148.18</ele>
        <time>2009-12-06T02:05:42.000Z</time>
      </trkpt>
      <trkpt lat="48.70064" lon="1.90413">
        <ele>147.22</ele>
        <time>2009-12-06T02:05:45.000Z</time>
      </trkpt>
      <trkpt lat="48.70066" lon="1.90424">
        <ele>145.3</ele>
        <time>2009-12-06T02:05:49.000Z</time>
      </trkpt>
      <trkpt lat="48.70067" lon="1.90431">
        <ele>143.37</ele>
        <time>2009-12-06T02:05:52.000Z</time>
      </trkpt>
      <trkpt lat="48.70064" lon="1.90448">
        <ele>142.41</ele>
        <time>2009-12-06T02:05:58.000Z</time>
      </trkpt>
      <trkpt lat="48.70068" lon="1.90458">
        <ele>141.45</ele>
        <time>2009-12-06T02:06:03.000Z</time>
      </trkpt>
      <trkpt lat="48.70072" lon="1.90462">
        <ele>140.97</ele>
        <time>2009-12-06T02:06:05.000Z</time>
      </trkpt>
      <trkpt lat="48.70079" lon="1.90471">
        <ele>141.45</ele>
        <time>2009-12-06T02:06:10.000Z</time>
      </trkpt>
      <trkpt lat="48.70075" lon="1.90479">
        <ele>146.26</ele>
        <time>2009-12-06T02:06:16.000Z</time>
      </trkpt>
      <trkpt lat="48.70078" lon="1.90487">
        <ele>145.78</ele>
        <time>2009-12-06T02:06:22.000Z</time>
      </trkpt>
      <trkpt lat="48.70081" lon="1.90495">
        <ele>144.34</ele>
        <time>2009-12-06T02:06:28.000Z</time>
      </trkpt>
      <trkpt lat="48.70082" lon="1.90501">
        <ele>144.34</ele>
        <time>2009-12-06T02:06:33.000Z</time>
      </trkpt>
      <trkpt lat="48.70086" lon="1.90506">
        <ele>144.82</ele>
        <time>2009-12-06T02:06:40.000Z</time>
      </trkpt>
      <trkpt lat="48.70087" lon="1.90518">
        <ele>146.74</ele>
        <time>2009-12-06T02:06:49.000Z</time>
      </trkpt>
      <trkpt lat="48.7009" lon="1.90525">
        <ele>147.22</ele>
        <time>2009-12-06T02:06:56.000Z</time>
      </trkpt>
      <trkpt lat="48.70092" lon="1.9053">
        <ele>147.7</ele>
        <time>2009-12-06T02:07:02.000Z</time>
      </trkpt>
      <trkpt lat="48.70095" lon="1.90537">
        <ele>151.54</ele>
        <time>2009-12-06T02:07:08.000Z</time>
      </trkpt>
      <trkpt lat="48.70096" lon="1.90543">
        <ele>154.91</ele>
        <time>2009-12-06T02:07:13.000Z</time>
      </trkpt>
      <trkpt lat="48.701" lon="1.90549">
        <ele>158.75</ele>
        <time>2009-12-06T02:07:19.000Z</time>
      </trkpt>
      <trkpt lat="48.70105" lon="1.90553">
        <ele>159.72</ele>
        <time>2009-12-06T02:07:25.000Z</time>
      </trkpt>
      <trkpt lat="48.70105" lon="1.90559">
        <ele>162.12</ele>
        <time>2009-12-06T02:07:29.000Z</time>
      </trkpt>
      <trkpt lat="48.70104" lon="1.90561">
        <ele>162.6</ele>
        <time>2009-12-06T02:07:30.000Z</time>
      </trkpt>
      <trkpt lat="48.70113" lon="1.90574">
        <ele>161.64</ele>
        <time>2009-12-06T02:07:36.000Z</time>
      </trkpt>
      <trkpt lat="48.70115" lon="1.90578">
        <ele>160.2</ele>
        <time>2009-12-06T02:07:38.000Z</time>
      </trkpt>
      <trkpt lat="48.70117" lon="1.90585">
        <ele>159.24</ele>
        <time>2009-12-06T02:07:43.000Z</time>
      </trkpt>
      <trkpt lat="48.70121" lon="1.90595">
        <ele>160.2</ele>
        <time>2009-12-06T02:07:49.000Z</time>
      </trkpt>
      <trkpt lat="48.7012" lon="1.9061">
        <ele>160.68</ele>
        <time>2009-12-06T02:07:56.000Z</time>
      </trkpt>
      <trkpt lat="48.70119" lon="1.90615">
        <ele>158.75</ele>
        <time>2009-12-06T02:07:59.000Z</time>
      </trkpt>
      <trkpt lat="48.70118" lon="1.90625">
        <ele>158.75</ele>
        <time>2009-12-06T02:08:04.000Z</time>
      </trkpt>
      <trkpt lat="48.70116" lon="1.90631">
        <ele>158.27</ele>
        <time>2009-12-06T02:08:07.000Z</time>
      </trkpt>
      <trkpt lat="48.70118" lon="1.90634">
        <ele>157.31</ele>
        <time>2009-12-06T02:08:10.000Z</time>
      </trkpt>
      <trkpt lat="48.70123" lon="1.90646">
        <ele>154.91</ele>
        <time>2009-12-06T02:08:16.000Z</time>
      </trkpt>
      <trkpt lat="48.70127" lon="1.90654">
        <ele>151.54</ele>
        <time>2009-12-06T02:08:21.000Z</time>
      </trkpt>
      <trkpt lat="48.70127" lon="1.90656">
        <ele>151.06</ele>
        <time>2009-12-06T02:08:22.000Z</time>
      </trkpt>
      <trkpt lat="48.70128" lon="1.9066">
        <ele>151.54</ele>
        <time>2009-12-06T02:08:24.000Z</time>
      </trkpt>
      <trkpt lat="48.70127" lon="1.90674">
        <ele>154.91</ele>
        <time>2009-12-06T02:08:30.000Z</time>
      </trkpt>
      <trkpt lat="48.7012" lon="1.90683">
        <ele>160.2</ele>
        <time>2009-12-06T02:08:36.000Z</time>
      </trkpt>
      <trkpt lat="48.70112" lon="1.90695">
        <ele>163.08</ele>
        <time>2009-12-06T02:08:41.000Z</time>
      </trkpt>
      <trkpt lat="48.70108" lon="1.90704">
        <ele>161.64</ele>
        <time>2009-12-06T02:08:46.000Z</time>
      </trkpt>
      <trkpt lat="48.70105" lon="1.90709">
        <ele>160.2</ele>
        <time>2009-12-06T02:08:50.000Z</time>
      </trkpt>
      <trkpt lat="48.70105" lon="1.90719">
        <ele>158.75</ele>
        <time>2009-12-06T02:08:57.000Z</time>
      </trkpt>
      <trkpt lat="48.70103" lon="1.90723">
        <ele>159.24</ele>
        <time>2009-12-06T02:09:00.000Z</time>
      </trkpt>
      <trkpt lat="48.701" lon="1.90732">
        <ele>158.27</ele>
        <time>2009-12-06T02:09:06.000Z</time>
      </trkpt>
      <trkpt lat="48.70098" lon="1.90737">
        <ele>159.24</ele>
        <time>2009-12-06T02:09:09.000Z</time>
      </trkpt>
      <trkpt lat="48.70096" lon="1.90745">
        <ele>158.75</ele>
        <time>2009-12-06T02:09:13.000Z</time>
      </trkpt>
      <trkpt lat="48.70089" lon="1.90755">
        <ele>158.75</ele>
        <time>2009-12-06T02:09:19.000Z</time>
      </trkpt>
      <trkpt lat="48.70082" lon="1.90766">
        <ele>158.27</ele>
        <time>2009-12-06T02:09:25.000Z</time>
      </trkpt>
      <trkpt lat="48.70081" lon="1.90769">
        <ele>158.75</ele>
        <time>2009-12-06T02:09:27.000Z</time>
      </trkpt>
      <trkpt lat="48.70076" lon="1.90774">
        <ele>161.64</ele>
        <time>2009-12-06T02:09:31.000Z</time>
      </trkpt>
      <trkpt lat="48.70074" lon="1.90783">
        <ele>161.64</ele>
        <time>2009-12-06T02:09:35.000Z</time>
      </trkpt>
      <trkpt lat="48.70074" lon="1.90786">
        <ele>161.16</ele>
        <time>2009-12-06T02:09:37.000Z</time>
      </trkpt>
      <trkpt lat="48.7007" lon="1.90797">
        <ele>158.75</ele>
        <time>2009-12-06T02:09:44.000Z</time>
      </trkpt>
      <trkpt lat="48.70072" lon="1.9081">
        <ele>155.87</ele>
        <time>2009-12-06T02:09:51.000Z</time>
      </trkpt>
      <trkpt lat="48.70073" lon="1.90812">
        <ele>154.91</ele>
        <time>2009-12-06T02:09:52.000Z</time>
      </trkpt>
      <trkpt lat="48.70074" lon="1.90825">
        <ele>155.87</ele>
        <time>2009-12-06T02:09:58.000Z</time>
      </trkpt>
      <trkpt lat="48.70071" lon="1.90827">
        <ele>155.87</ele>
        <time>2009-12-06T02:10:01.000Z</time>
      </trkpt>
      <trkpt lat="48.70068" lon="1.9083">
        <ele>153.95</ele>
        <time>2009-12-06T02:10:06.000Z</time>
      </trkpt>
      <trkpt lat="48.70064" lon="1.90833">
        <ele>152.99</ele>
        <time>2009-12-06T02:10:09.000Z</time>
      </trkpt>
      <trkpt lat="48.70053" lon="1.90835">
        <ele>152.03</ele>
        <time>2009-12-06T02:10:15.000Z</time>
      </trkpt>
      <trkpt lat="48.70051" lon="1.90843">
        <ele>149.14</ele>
        <time>2009-12-06T02:10:19.000Z</time>
      </trkpt>
      <trkpt lat="48.70051" lon="1.90846">
        <ele>148.66</ele>
        <time>2009-12-06T02:10:20.000Z</time>
      </trkpt>
      <trkpt lat="48.70051" lon="1.9085">
        <ele>148.18</ele>
        <time>2009-12-06T02:10:22.000Z</time>
      </trkpt>
      <trkpt lat="48.7005" lon="1.90859">
        <ele>144.34</ele>
        <time>2009-12-06T02:10:27.000Z</time>
      </trkpt>
      <trkpt lat="48.70047" lon="1.90865">
        <ele>143.85</ele>
        <time>2009-12-06T02:10:30.000Z</time>
      </trkpt>
      <trkpt lat="48.70045" lon="1.90873">
        <ele>142.41</ele>
        <time>2009-12-06T02:10:34.000Z</time>
      </trkpt>
      <trkpt lat="48.70041" lon="1.90886">
        <ele>142.41</ele>
        <time>2009-12-06T02:10:39.000Z</time>
      </trkpt>
      <trkpt lat="48.70039" lon="1.9089">
        <ele>140.97</ele>
        <time>2009-12-06T02:10:42.000Z</time>
      </trkpt>
      <trkpt lat="48.70039" lon="1.90898">
        <ele>141.93</ele>
        <time>2009-12-06T02:10:46.000Z</time>
      </trkpt>
      <trkpt lat="48.70035" lon="1.90909">
        <ele>145.78</ele>
        <time>2009-12-06T02:10:52.000Z</time>
      </trkpt>
      <trkpt lat="48.70034" lon="1.90912">
        <ele>147.7</ele>
        <time>2009-12-06T02:10:54.000Z</time>
      </trkpt>
      <trkpt lat="48.70028" lon="1.90921">
        <ele>152.99</ele>
        <time>2009-12-06T02:11:00.000Z</time>
      </trkpt>
      <trkpt lat="48.70026" lon="1.90924">
        <ele>154.43</ele>
        <time>2009-12-06T02:11:02.000Z</time>
      </trkpt>
      <trkpt lat="48.70019" lon="1.90932">
        <ele>153.95</ele>
        <time>2009-12-06T02:11:08.000Z</time>
      </trkpt>
      <trkpt lat="48.7001" lon="1.90946">
        <ele>156.35</ele>
        <time>2009-12-06T02:11:14.000Z</time>
      </trkpt>
      <trkpt lat="48.70003" lon="1.90951">
        <ele>159.24</ele>
        <time>2009-12-06T02:11:18.000Z</time>
      </trkpt>
      <trkpt lat="48.69997" lon="1.90955">
        <ele>156.83</ele>
        <time>2009-12-06T02:11:22.000Z</time>
      </trkpt>
      <trkpt lat="48.6999" lon="1.9096">
        <ele>155.87</ele>
        <time>2009-12-06T02:11:27.000Z</time>
      </trkpt>
      <trkpt lat="48.69987" lon="1.90964">
        <ele>153.47</ele>
        <time>2009-12-06T02:11:30.000Z</time>
      </trkpt>
      <trkpt lat="48.69981" lon="1.90975">
        <ele>152.03</ele>
        <time>2009-12-06T02:11:35.000Z</time>
      </trkpt>
      <trkpt lat="48.69976" lon="1.9098">
        <ele>150.58</ele>
        <time>2009-12-06T02:11:40.000Z</time>
      </trkpt>
      <trkpt lat="48.69971" lon="1.90987">
        <ele>149.14</ele>
        <time>2009-12-06T02:11:44.000Z</time>
      </trkpt>
      <trkpt lat="48.69971" lon="1.90999">
        <ele>149.14</ele>
        <time>2009-12-06T02:11:50.000Z</time>
      </trkpt>
      <trkpt lat="48.69974" lon="1.91009">
        <ele>144.34</ele>
        <time>2009-12-06T02:11:56.000Z</time>
      </trkpt>
      <trkpt lat="48.69974" lon="1.91019">
        <ele>143.85</ele>
        <time>2009-12-06T02:12:01.000Z</time>
      </trkpt>
      <trkpt lat="48.69975" lon="1.91032">
        <ele>146.74</ele>
        <time>2009-12-06T02:12:08.000Z</time>
      </trkpt>
      <trkpt lat="48.69976" lon="1.91042">
        <ele>150.1</ele>
        <time>2009-12-06T02:12:13.000Z</time>
      </trkpt>
      <trkpt lat="48.69979" lon="1.91052">
        <ele>150.1</ele>
        <time>2009-12-06T02:12:18.000Z</time>
      </trkpt>
      <trkpt lat="48.69981" lon="1.91062">
        <ele>152.03</ele>
        <time>2009-12-06T02:12:26.000Z</time>
      </trkpt>
      <trkpt lat="48.69985" lon="1.91071">
        <ele>153.47</ele>
        <time>2009-12-06T02:12:34.000Z</time>
      </trkpt>
      <trkpt lat="48.69987" lon="1.91075">
        <ele>152.51</ele>
        <time>2009-12-06T02:12:38.000Z</time>
      </trkpt>
      <trkpt lat="48.69987" lon="1.91081">
        <ele>151.54</ele>
        <time>2009-12-06T02:12:42.000Z</time>
      </trkpt>
      <trkpt lat="48.69986" lon="1.91091">
        <ele>153.47</ele>
        <time>2009-12-06T02:12:48.000Z</time>
      </trkpt>
      <trkpt lat="48.69987" lon="1.91096">
        <ele>155.39</ele>
        <time>2009-12-06T02:12:51.000Z</time>
      </trkpt>
      <trkpt lat="48.69991" lon="1.911">
        <ele>156.83</ele>
        <time>2009-12-06T02:12:55.000Z</time>
      </trkpt>
      <trkpt lat="48.69995" lon="1.91108">
        <ele>153.47</ele>
        <time>2009-12-06T02:13:02.000Z</time>
      </trkpt>
      <trkpt lat="48.69997" lon="1.91112">
        <ele>153.95</ele>
        <time>2009-12-06T02:13:05.000Z</time>
      </trkpt>
      <trkpt lat="48.69996" lon="1.91116">
        <ele>155.39</ele>
        <time>2009-12-06T02:13:07.000Z</time>
      </trkpt>
      <trkpt lat="48.69992" lon="1.91123">
        <ele>157.79</ele>
        <time>2009-12-06T02:13:13.000Z</time>
      </trkpt>
      <trkpt lat="48.69987" lon="1.91132">
        <ele>158.75</ele>
        <time>2009-12-06T02:13:21.000Z</time>
      </trkpt>
      <trkpt lat="48.69987" lon="1.91133">
        <ele>158.75</ele>
        <time>2009-12-06T02:13:22.000Z</time>
      </trkpt>
      <trkpt lat="48.69984" lon="1.91141">
        <ele>157.79</ele>
        <time>2009-12-06T02:13:27.000Z</time>
      </trkpt>
      <trkpt lat="48.69982" lon="1.91152">
        <ele>155.39</ele>
        <time>2009-12-06T02:13:32.000Z</time>
      </trkpt>
      <trkpt lat="48.69979" lon="1.91153">
        <ele>150.58</ele>
        <time>2009-12-06T02:13:39.000Z</time>
      </trkpt>
      <trkpt lat="48.69973" lon="1.91151">
        <ele>152.03</ele>
        <time>2009-12-06T02:13:43.000Z</time>
      </trkpt>
      <trkpt lat="48.69966" lon="1.91162">
        <ele>148.18</ele>
        <time>2009-12-06T02:13:52.000Z</time>
      </trkpt>
      <trkpt lat="48.6996" lon="1.91163">
        <ele>149.62</ele>
        <time>2009-12-06T02:13:56.000Z</time>
      </trkpt>
      <trkpt lat="48.69958" lon="1.91168">
        <ele>146.26</ele>
        <time>2009-12-06T02:13:59.000Z</time>
      </trkpt>
      <trkpt lat="48.69956" lon="1.91176">
        <ele>145.3</ele>
        <time>2009-12-06T02:14:02.000Z</time>
      </trkpt>
      <trkpt lat="48.69956" lon="1.9119">
        <ele>141.45</ele>
        <time>2009-12-06T02:14:07.000Z</time>
      </trkpt>
      <trkpt lat="48.6996" lon="1.91199">
        <ele>141.45</ele>
        <time>2009-12-06T02:14:12.000Z</time>
      </trkpt>
      <trkpt lat="48.69967" lon="1.91206">
        <ele>139.53</ele>
        <time>2009-12-06T02:14:17.000Z</time>
      </trkpt>
      <trkpt lat="48.69971" lon="1.91211">
        <ele>137.61</ele>
        <time>2009-12-06T02:14:22.000Z</time>
      </trkpt>
      <trkpt lat="48.69978" lon="1.91209">
        <ele>136.64</ele>
        <time>2009-12-06T02:14:30.000Z</time>
      </trkpt>
      <trkpt lat="48.69982" lon="1.91216">
        <ele>142.89</ele>
        <time>2009-12-06T02:14:39.000Z</time>
      </trkpt>
      <trkpt lat="48.69982" lon="1.91224">
        <ele>148.18</ele>
        <time>2009-12-06T02:14:44.000Z</time>
      </trkpt>
      <trkpt lat="48.69978" lon="1.91236">
        <ele>153.47</ele>
        <time>2009-12-06T02:14:57.000Z</time>
      </trkpt>
      <trkpt lat="48.69978" lon="1.91242">
        <ele>158.27</ele>
        <time>2009-12-06T02:15:10.000Z</time>
      </trkpt>
      <trkpt lat="48.69977" lon="1.91238">
        <ele>155.87</ele>
        <time>2009-12-06T02:15:15.000Z</time>
      </trkpt>
      <trkpt lat="48.69977" lon="1.91243">
        <ele>150.58</ele>
        <time>2009-12-06T02:15:22.000Z</time>
      </trkpt>
      <trkpt lat="48.69968" lon="1.91255">
        <ele>148.66</ele>
        <time>2009-12-06T02:15:36.000Z</time>
      </trkpt>
      <trkpt lat="48.69965" lon="1.91262">
        <ele>149.62</ele>
        <time>2009-12-06T02:15:43.000Z</time>
      </trkpt>
      <trkpt lat="48.6996" lon="1.91271">
        <ele>153.95</ele>
        <time>2009-12-06T02:15:51.000Z</time>
      </trkpt>
      <trkpt lat="48.69953" lon="1.91282">
        <ele>154.91</ele>
        <time>2009-12-06T02:15:57.000Z</time>
      </trkpt>
      <trkpt lat="48.6995" lon="1.91292">
        <ele>153.95</ele>
        <time>2009-12-06T02:16:01.000Z</time>
      </trkpt>
      <trkpt lat="48.69948" lon="1.91304">
        <ele>154.43</ele>
        <time>2009-12-06T02:16:05.000Z</time>
      </trkpt>
      <trkpt lat="48.69949" lon="1.91318">
        <ele>155.87</ele>
        <time>2009-12-06T02:16:11.000Z</time>
      </trkpt>
      <trkpt lat="48.69949" lon="1.91338">
        <ele>158.27</ele>
        <time>2009-12-06T02:16:18.000Z</time>
      </trkpt>
      <trkpt lat="48.69952" lon="1.91346">
        <ele>154.91</ele>
        <time>2009-12-06T02:16:24.000Z</time>
      </trkpt>
      <trkpt lat="48.69947" lon="1.91356">
        <ele>154.43</ele>
        <time>2009-12-06T02:16:31.000Z</time>
      </trkpt>
      <trkpt lat="48.69942" lon="1.91361">
        <ele>152.03</ele>
        <time>2009-12-06T02:16:37.000Z</time>
      </trkpt>
      <trkpt lat="48.69937" lon="1.91365">
        <ele>150.58</ele>
        <time>2009-12-06T02:16:42.000Z</time>
      </trkpt>
      <trkpt lat="48.69934" lon="1.91368">
        <ele>149.14</ele>
        <time>2009-12-06T02:16:45.000Z</time>
      </trkpt>
      <trkpt lat="48.69931" lon="1.9137">
        <ele>151.06</ele>
        <time>2009-12-06T02:16:48.000Z</time>
      </trkpt>
      <trkpt lat="48.69931" lon="1.91373">
        <ele>150.1</ele>
        <time>2009-12-06T02:16:50.000Z</time>
      </trkpt>
      <trkpt lat="48.69923" lon="1.91369">
        <ele>150.58</ele>
        <time>2009-12-06T02:16:56.000Z</time>
      </trkpt>
      <trkpt lat="48.69921" lon="1.91367">
        <ele>152.51</ele>
        <time>2009-12-06T02:17:01.000Z</time>
      </trkpt>
      <trkpt lat="48.69918" lon="1.91368">
        <ele>153.95</ele>
        <time>2009-12-06T02:17:07.000Z</time>
      </trkpt>
      <trkpt lat="48.69913" lon="1.91369">
        <ele>153.95</ele>
        <time>2009-12-06T02:17:14.000Z</time>
      </trkpt>
      <trkpt lat="48.69912" lon="1.91375">
        <ele>152.51</ele>
        <time>2009-12-06T02:17:21.000Z</time>
      </trkpt>
      <trkpt lat="48.69909" lon="1.91382">
        <ele>151.06</ele>
        <time>2009-12-06T02:17:31.000Z</time>
      </trkpt>
      <trkpt lat="48.6991" lon="1.91389">
        <ele>149.14</ele>
        <time>2009-12-06T02:17:35.000Z</time>
      </trkpt>
      <trkpt lat="48.6991" lon="1.91394">
        <ele>147.7</ele>
        <time>2009-12-06T02:17:39.000Z</time>
      </trkpt>
      <trkpt lat="48.69911" lon="1.91402">
        <ele>146.74</ele>
        <time>2009-12-06T02:17:46.000Z</time>
      </trkpt>
      <trkpt lat="48.69913" lon="1.91408">
        <ele>150.58</ele>
        <time>2009-12-06T02:17:52.000Z</time>
      </trkpt>
      <trkpt lat="48.69913" lon="1.91412">
        <ele>152.51</ele>
        <time>2009-12-06T02:17:56.000Z</time>
      </trkpt>
      <trkpt lat="48.69914" lon="1.91418">
        <ele>154.43</ele>
        <time>2009-12-06T02:18:01.000Z</time>
      </trkpt>
      <trkpt lat="48.69914" lon="1.91423">
        <ele>154.91</ele>
        <time>2009-12-06T02:18:05.000Z</time>
      </trkpt>
      <trkpt lat="48.69916" lon="1.91427">
        <ele>153.95</ele>
        <time>2009-12-06T02:18:10.000Z</time>
      </trkpt>
      <trkpt lat="48.69919" lon="1.91434">
        <ele>153.47</ele>
        <time>2009-12-06T02:18:17.000Z</time>
      </trkpt>
      <trkpt lat="48.69921" lon="1.91443">
        <ele>152.51</ele>
        <time>2009-12-06T02:18:24.000Z</time>
      </trkpt>
      <trkpt lat="48.69923" lon="1.91451">
        <ele>155.87</ele>
        <time>2009-12-06T02:18:31.000Z</time>
      </trkpt>
      <trkpt lat="48.69927" lon="1.91457">
        <ele>156.35</ele>
        <time>2009-12-06T02:18:37.000Z</time>
      </trkpt>
      <trkpt lat="48.69931" lon="1.91459">
        <ele>157.31</ele>
        <time>2009-12-06T02:18:42.000Z</time>
      </trkpt>
      <trkpt lat="48.69937" lon="1.91466">
        <ele>156.35</ele>
        <time>2009-12-06T02:18:47.000Z</time>
      </trkpt>
      <trkpt lat="48.69942" lon="1.91472">
        <ele>157.31</ele>
        <time>2009-12-06T02:18:54.000Z</time>
      </trkpt>
      <trkpt lat="48.69942" lon="1.91474">
        <ele>157.79</ele>
        <time>2009-12-06T02:18:56.000Z</time>
      </trkpt>
      <trkpt lat="48.69949" lon="1.91472">
        <ele>156.35</ele>
        <time>2009-12-06T02:19:02.000Z</time>
      </trkpt>
      <trkpt lat="48.69951" lon="1.91478">
        <ele>156.35</ele>
        <time>2009-12-06T02:19:08.000Z</time>
      </trkpt>
      <trkpt lat="48.69952" lon="1.91483">
        <ele>156.35</ele>
        <time>2009-12-06T02:19:11.000Z</time>
      </trkpt>
      <trkpt lat="48.69954" lon="1.91493">
        <ele>156.35</ele>
        <time>2009-12-06T02:19:18.000Z</time>
      </trkpt>
      <trkpt lat="48.69954" lon="1.91496">
        <ele>161.16</ele>
        <time>2009-12-06T02:19:23.000Z</time>
      </trkpt>
      <trkpt lat="48.69955" lon="1.915">
        <ele>164.52</ele>
        <time>2009-12-06T02:19:30.000Z</time>
      </trkpt>
      <trkpt lat="48.69957" lon="1.91509">
        <ele>166.45</ele>
        <time>2009-12-06T02:19:36.000Z</time>
      </trkpt>
      <trkpt lat="48.69959" lon="1.91512">
        <ele>168.85</ele>
        <time>2009-12-06T02:19:41.000Z</time>
      </trkpt>
      <trkpt lat="48.69962" lon="1.91521">
        <ele>168.85</ele>
        <time>2009-12-06T02:19:50.000Z</time>
      </trkpt>
      <trkpt lat="48.69963" lon="1.91523">
        <ele>168.85</ele>
        <time>2009-12-06T02:19:51.000Z</time>
      </trkpt>
      <trkpt lat="48.69965" lon="1.91529">
        <ele>169.33</ele>
        <time>2009-12-06T02:19:56.000Z</time>
      </trkpt>
      <trkpt lat="48.69968" lon="1.91541">
        <ele>170.29</ele>
        <time>2009-12-06T02:20:05.000Z</time>
      </trkpt>
      <trkpt lat="48.69967" lon="1.9155">
        <ele>170.29</ele>
        <time>2009-12-06T02:20:11.000Z</time>
      </trkpt>
      <trkpt lat="48.69967" lon="1.91557">
        <ele>171.73</ele>
        <time>2009-12-06T02:20:16.000Z</time>
      </trkpt>
      <trkpt lat="48.69967" lon="1.91561">
        <ele>171.73</ele>
        <time>2009-12-06T02:20:18.000Z</time>
      </trkpt>
      <trkpt lat="48.69968" lon="1.91571">
        <ele>171.25</ele>
        <time>2009-12-06T02:20:25.000Z</time>
      </trkpt>
      <trkpt lat="48.69965" lon="1.91578">
        <ele>171.25</ele>
        <time>2009-12-06T02:20:31.000Z</time>
      </trkpt>
      <trkpt lat="48.69961" lon="1.91583">
        <ele>170.29</ele>
        <time>2009-12-06T02:20:36.000Z</time>
      </trkpt>
      <trkpt lat="48.69956" lon="1.91589">
        <ele>168.85</ele>
        <time>2009-12-06T02:20:41.000Z</time>
      </trkpt>
      <trkpt lat="48.69953" lon="1.91593">
        <ele>168.85</ele>
        <time>2009-12-06T02:20:44.000Z</time>
      </trkpt>
      <trkpt lat="48.6995" lon="1.91598">
        <ele>167.89</ele>
        <time>2009-12-06T02:20:47.000Z</time>
      </trkpt>
      <trkpt lat="48.69944" lon="1.91605">
        <ele>165</ele>
        <time>2009-12-06T02:20:52.000Z</time>
      </trkpt>
      <trkpt lat="48.69939" lon="1.91611">
        <ele>165</ele>
        <time>2009-12-06T02:20:57.000Z</time>
      </trkpt>
      <trkpt lat="48.69935" lon="1.91614">
        <ele>166.93</ele>
        <time>2009-12-06T02:21:00.000Z</time>
      </trkpt>
      <trkpt lat="48.69925" lon="1.91618">
        <ele>170.29</ele>
        <time>2009-12-06T02:21:06.000Z</time>
      </trkpt>
      <trkpt lat="48.6992" lon="1.91623">
        <ele>164.04</ele>
        <time>2009-12-06T02:21:12.000Z</time>
      </trkpt>
      <trkpt lat="48.69921" lon="1.91634">
        <ele>157.31</ele>
        <time>2009-12-06T02:21:19.000Z</time>
      </trkpt>
      <trkpt lat="48.69921" lon="1.91635">
        <ele>156.83</ele>
        <time>2009-12-06T02:21:20.000Z</time>
      </trkpt>
      <trkpt lat="48.69922" lon="1.91639">
        <ele>154.43</ele>
        <time>2009-12-06T02:21:23.000Z</time>
      </trkpt>
      <trkpt lat="48.69921" lon="1.91645">
        <ele>152.51</ele>
        <time>2009-12-06T02:21:29.000Z</time>
      </trkpt>
      <trkpt lat="48.69919" lon="1.9165">
        <ele>152.99</ele>
        <time>2009-12-06T02:21:34.000Z</time>
      </trkpt>
      <trkpt lat="48.69917" lon="1.91654">
        <ele>154.43</ele>
        <time>2009-12-06T02:21:39.000Z</time>
      </trkpt>
      <trkpt lat="48.69914" lon="1.91662">
        <ele>157.31</ele>
        <time>2009-12-06T02:21:46.000Z</time>
      </trkpt>
      <trkpt lat="48.69913" lon="1.91668">
        <ele>159.24</ele>
        <time>2009-12-06T02:21:52.000Z</time>
      </trkpt>
      <trkpt lat="48.6991" lon="1.91675">
        <ele>161.64</ele>
        <time>2009-12-06T02:21:58.000Z</time>
      </trkpt>
      <trkpt lat="48.69909" lon="1.91678">
        <ele>163.08</ele>
        <time>2009-12-06T02:21:59.000Z</time>
      </trkpt>
      <trkpt lat="48.69906" lon="1.91686">
        <ele>165</ele>
        <time>2009-12-06T02:22:06.000Z</time>
      </trkpt>
      <trkpt lat="48.69906" lon="1.91695">
        <ele>165.48</ele>
        <time>2009-12-06T02:22:13.000Z</time>
      </trkpt>
      <trkpt lat="48.69907" lon="1.91703">
        <ele>164.04</ele>
        <time>2009-12-06T02:22:19.000Z</time>
      </trkpt>
      <trkpt lat="48.69908" lon="1.91709">
        <ele>165.96</ele>
        <time>2009-12-06T02:22:25.000Z</time>
      </trkpt>
      <trkpt lat="48.6991" lon="1.91717">
        <ele>165.96</ele>
        <time>2009-12-06T02:22:32.000Z</time>
      </trkpt>
      <trkpt lat="48.69914" lon="1.91724">
        <ele>167.89</ele>
        <time>2009-12-06T02:22:38.000Z</time>
      </trkpt>
      <trkpt lat="48.69915" lon="1.91732">
        <ele>170.77</ele>
        <time>2009-12-06T02:22:44.000Z</time>
      </trkpt>
      <trkpt lat="48.69915" lon="1.91737">
        <ele>173.17</ele>
        <time>2009-12-06T02:22:49.000Z</time>
      </trkpt>
      <trkpt lat="48.69914" lon="1.91742">
        <ele>173.66</ele>
        <time>2009-12-06T02:22:53.000Z</time>
      </trkpt>
      <trkpt lat="48.69913" lon="1.9175">
        <ele>173.66</ele>
        <time>2009-12-06T02:22:57.000Z</time>
      </trkpt>
      <trkpt lat="48.69912" lon="1.91754">
        <ele>173.66</ele>
        <time>2009-12-06T02:22:59.000Z</time>
      </trkpt>
      <trkpt lat="48.69911" lon="1.91758">
        <ele>172.69</ele>
        <time>2009-12-06T02:23:02.000Z</time>
      </trkpt>
      <trkpt lat="48.699" lon="1.91762">
        <ele>173.17</ele>
        <time>2009-12-06T02:23:09.000Z</time>
      </trkpt>
      <trkpt lat="48.6989" lon="1.91771">
        <ele>173.66</ele>
        <time>2009-12-06T02:23:16.000Z</time>
      </trkpt>
      <trkpt lat="48.69881" lon="1.91775">
        <ele>173.17</ele>
        <time>2009-12-06T02:23:20.000Z</time>
      </trkpt>
      <trkpt lat="48.6988" lon="1.91776">
        <ele>172.69</ele>
        <time>2009-12-06T02:23:21.000Z</time>
      </trkpt>
      <trkpt lat="48.69876" lon="1.9178">
        <ele>174.14</ele>
        <time>2009-12-06T02:23:26.000Z</time>
      </trkpt>
      <trkpt lat="48.69868" lon="1.91777">
        <ele>173.17</ele>
        <time>2009-12-06T02:23:31.000Z</time>
      </trkpt>
      <trkpt lat="48.69867" lon="1.91772">
        <ele>172.21</ele>
        <time>2009-12-06T02:23:33.000Z</time>
      </trkpt>
      <trkpt lat="48.69864" lon="1.91751">
        <ele>175.58</ele>
        <time>2009-12-06T02:23:39.000Z</time>
      </trkpt>
      <trkpt lat="48.69869" lon="1.91735">
        <ele>170.29</ele>
        <time>2009-12-06T02:23:45.000Z</time>
      </trkpt>
      <trkpt lat="48.69871" lon="1.91733">
        <ele>168.85</ele>
        <time>2009-12-06T02:23:46.000Z</time>
      </trkpt>
      <trkpt lat="48.69875" lon="1.91714">
        <ele>161.64</ele>
        <time>2009-12-06T02:23:54.000Z</time>
      </trkpt>
      <trkpt lat="48.69883" lon="1.91692">
        <ele>156.35</ele>
        <time>2009-12-06T02:24:02.000Z</time>
      </trkpt>
      <trkpt lat="48.69887" lon="1.91678">
        <ele>155.39</ele>
        <time>2009-12-06T02:24:08.000Z</time>
      </trkpt>
      <trkpt lat="48.69893" lon="1.91665">
        <ele>157.31</ele>
        <time>2009-12-06T02:24:13.000Z</time>
      </trkpt>
      <trkpt lat="48.69895" lon="1.9165">
        <ele>152.03</ele>
        <time>2009-12-06T02:24:19.000Z</time>
      </trkpt>
      <trkpt lat="48.69895" lon="1.91635">
        <ele>148.66</ele>
        <time>2009-12-06T02:24:24.000Z</time>
      </trkpt>
      <trkpt lat="48.69895" lon="1.91631">
        <ele>148.66</ele>
        <time>2009-12-06T02:24:25.000Z</time>
      </trkpt>
      <trkpt lat="48.69895" lon="1.91613">
        <ele>142.41</ele>
        <time>2009-12-06T02:24:32.000Z</time>
      </trkpt>
      <trkpt lat="48.69894" lon="1.91608">
        <ele>143.37</ele>
        <time>2009-12-06T02:24:37.000Z</time>
      </trkpt>
      <trkpt lat="48.6989" lon="1.91596">
        <ele>142.41</ele>
        <time>2009-12-06T02:24:42.000Z</time>
      </trkpt>
      <trkpt lat="48.69891" lon="1.9158">
        <ele>141.93</ele>
        <time>2009-12-06T02:24:48.000Z</time>
      </trkpt>
      <trkpt lat="48.69884" lon="1.91568">
        <ele>137.61</ele>
        <time>2009-12-06T02:24:53.000Z</time>
      </trkpt>
      <trkpt lat="48.69879" lon="1.91565">
        <ele>136.64</ele>
        <time>2009-12-06T02:24:55.000Z</time>
      </trkpt>
      <trkpt lat="48.6987" lon="1.91554">
        <ele>131.84</ele>
        <time>2009-12-06T02:25:00.000Z</time>
      </trkpt>
      <trkpt lat="48.69868" lon="1.91553">
        <ele>132.8</ele>
        <time>2009-12-06T02:25:01.000Z</time>
      </trkpt>
      <trkpt lat="48.69857" lon="1.91548">
        <ele>134.72</ele>
        <time>2009-12-06T02:25:07.000Z</time>
      </trkpt>
      <trkpt lat="48.69851" lon="1.91546">
        <ele>134.72</ele>
        <time>2009-12-06T02:25:11.000Z</time>
      </trkpt>
      <trkpt lat="48.69842" lon="1.91541">
        <ele>135.2</ele>
        <time>2009-12-06T02:25:16.000Z</time>
      </trkpt>
      <trkpt lat="48.69831" lon="1.91548">
        <ele>133.76</ele>
        <time>2009-12-06T02:25:22.000Z</time>
      </trkpt>
      <trkpt lat="48.69828" lon="1.91552">
        <ele>133.76</ele>
        <time>2009-12-06T02:25:26.000Z</time>
      </trkpt>
      <trkpt lat="48.69826" lon="1.91555">
        <ele>141.93</ele>
        <time>2009-12-06T02:25:33.000Z</time>
      </trkpt>
      <trkpt lat="48.69823" lon="1.91559">
        <ele>145.78</ele>
        <time>2009-12-06T02:25:41.000Z</time>
      </trkpt>
      <trkpt lat="48.69817" lon="1.9156">
        <ele>147.7</ele>
        <time>2009-12-06T02:25:50.000Z</time>
      </trkpt>
      <trkpt lat="48.69811" lon="1.91559">
        <ele>151.06</ele>
        <time>2009-12-06T02:26:04.000Z</time>
      </trkpt>
      <trkpt lat="48.69807" lon="1.91557">
        <ele>150.1</ele>
        <time>2009-12-06T02:26:12.000Z</time>
      </trkpt>
      <trkpt lat="48.69806" lon="1.91555">
        <ele>147.7</ele>
        <time>2009-12-06T02:26:21.000Z</time>
      </trkpt>
      <trkpt lat="48.69806" lon="1.91558">
        <ele>152.99</ele>
        <time>2009-12-06T02:26:29.000Z</time>
      </trkpt>
      <trkpt lat="48.69801" lon="1.9156">
        <ele>153.95</ele>
        <time>2009-12-06T02:26:36.000Z</time>
      </trkpt>
      <trkpt lat="48.69796" lon="1.91563">
        <ele>156.35</ele>
        <time>2009-12-06T02:26:46.000Z</time>
      </trkpt>
      <trkpt lat="48.69793" lon="1.91565">
        <ele>159.24</ele>
        <time>2009-12-06T02:26:53.000Z</time>
      </trkpt>
      <trkpt lat="48.69791" lon="1.91565">
        <ele>159.72</ele>
        <time>2009-12-06T02:26:59.000Z</time>
      </trkpt>
      <trkpt lat="48.69786" lon="1.91563">
        <ele>160.2</ele>
        <time>2009-12-06T02:27:07.000Z</time>
      </trkpt>
      <trkpt lat="48.69783" lon="1.91564">
        <ele>159.72</ele>
        <time>2009-12-06T02:27:15.000Z</time>
      </trkpt>
      <trkpt lat="48.69781" lon="1.91565">
        <ele>161.16</ele>
        <time>2009-12-06T02:27:23.000Z</time>
      </trkpt>
      <trkpt lat="48.69777" lon="1.91566">
        <ele>162.6</ele>
        <time>2009-12-06T02:27:33.000Z</time>
      </trkpt>
      <trkpt lat="48.69772" lon="1.91564">
        <ele>166.45</ele>
        <time>2009-12-06T02:27:43.000Z</time>
      </trkpt>
      <trkpt lat="48.69769" lon="1.91563">
        <ele>167.41</ele>
        <time>2009-12-06T02:27:47.000Z</time>
      </trkpt>
      <trkpt lat="48.69764" lon="1.91562">
        <ele>165.96</ele>
        <time>2009-12-06T02:27:53.000Z</time>
      </trkpt>
      <trkpt lat="48.6976" lon="1.91561">
        <ele>165.48</ele>
        <time>2009-12-06T02:27:58.000Z</time>
      </trkpt>
      <trkpt lat="48.69761" lon="1.91557">
        <ele>164.04</ele>
        <time>2009-12-06T02:28:01.000Z</time>
      </trkpt>
      <trkpt lat="48.69764" lon="1.9155">
        <ele>162.6</ele>
        <time>2009-12-06T02:28:07.000Z</time>
      </trkpt>
      <trkpt lat="48.69766" lon="1.91545">
        <ele>160.2</ele>
        <time>2009-12-06T02:28:10.000Z</time>
      </trkpt>
      <trkpt lat="48.69769" lon="1.91539">
        <ele>156.83</ele>
        <time>2009-12-06T02:28:16.000Z</time>
      </trkpt>
      <trkpt lat="48.69771" lon="1.91532">
        <ele>152.99</ele>
        <time>2009-12-06T02:28:20.000Z</time>
      </trkpt>
      <trkpt lat="48.69769" lon="1.91526">
        <ele>151.06</ele>
        <time>2009-12-06T02:28:26.000Z</time>
      </trkpt>
      <trkpt lat="48.69771" lon="1.91522">
        <ele>147.7</ele>
        <time>2009-12-06T02:28:29.000Z</time>
      </trkpt>
      <trkpt lat="48.69776" lon="1.9151">
        <ele>141.93</ele>
        <time>2009-12-06T02:28:35.000Z</time>
      </trkpt>
      <trkpt lat="48.69777" lon="1.91508">
        <ele>141.45</ele>
        <time>2009-12-06T02:28:36.000Z</time>
      </trkpt>
      <trkpt lat="48.69775" lon="1.91505">
        <ele>140.49</ele>
        <time>2009-12-06T02:28:38.000Z</time>
      </trkpt>
      <trkpt lat="48.69768" lon="1.91505">
        <ele>135.2</ele>
        <time>2009-12-06T02:28:44.000Z</time>
      </trkpt>
      <trkpt lat="48.69767" lon="1.91505">
        <ele>133.76</ele>
        <time>2009-12-06T02:28:45.000Z</time>
      </trkpt>
      <trkpt lat="48.6976" lon="1.91503">
        <ele>131.36</ele>
        <time>2009-12-06T02:28:51.000Z</time>
      </trkpt>
      <trkpt lat="48.69756" lon="1.91502">
        <ele>133.76</ele>
        <time>2009-12-06T02:28:57.000Z</time>
      </trkpt>
      <trkpt lat="48.69754" lon="1.91501">
        <ele>133.76</ele>
        <time>2009-12-06T02:28:59.000Z</time>
      </trkpt>
      <trkpt lat="48.69747" lon="1.91494">
        <ele>132.8</ele>
        <time>2009-12-06T02:29:05.000Z</time>
      </trkpt>
      <trkpt lat="48.69745" lon="1.91493">
        <ele>133.76</ele>
        <time>2009-12-06T02:29:06.000Z</time>
      </trkpt>
      <trkpt lat="48.6974" lon="1.9148">
        <ele>135.68</ele>
        <time>2009-12-06T02:29:13.000Z</time>
      </trkpt>
      <trkpt lat="48.69734" lon="1.91473">
        <ele>138.09</ele>
        <time>2009-12-06T02:29:18.000Z</time>
      </trkpt>
      <trkpt lat="48.6973" lon="1.9147">
        <ele>135.2</ele>
        <time>2009-12-06T02:29:21.000Z</time>
      </trkpt>
      <trkpt lat="48.69723" lon="1.9147">
        <ele>134.24</ele>
        <time>2009-12-06T02:29:25.000Z</time>
      </trkpt>
      <trkpt lat="48.69715" lon="1.91466">
        <ele>132.32</ele>
        <time>2009-12-06T02:29:30.000Z</time>
      </trkpt>
      <trkpt lat="48.69711" lon="1.91463">
        <ele>131.36</ele>
        <time>2009-12-06T02:29:33.000Z</time>
      </trkpt>
      <trkpt lat="48.697" lon="1.91457">
        <ele>136.16</ele>
        <time>2009-12-06T02:29:39.000Z</time>
      </trkpt>
      <trkpt lat="48.69689" lon="1.91445">
        <ele>140.97</ele>
        <time>2009-12-06T02:29:45.000Z</time>
      </trkpt>
      <trkpt lat="48.69673" lon="1.91441">
        <ele>148.18</ele>
        <time>2009-12-06T02:29:51.000Z</time>
      </trkpt>
      <trkpt lat="48.69668" lon="1.91441">
        <ele>150.1</ele>
        <time>2009-12-06T02:29:53.000Z</time>
      </trkpt>
      <trkpt lat="48.6966" lon="1.91449">
        <ele>149.62</ele>
        <time>2009-12-06T02:29:59.000Z</time>
      </trkpt>
      <trkpt lat="48.69656" lon="1.91449">
        <ele>148.18</ele>
        <time>2009-12-06T02:30:03.000Z</time>
      </trkpt>
      <trkpt lat="48.69653" lon="1.91447">
        <ele>147.7</ele>
        <time>2009-12-06T02:30:06.000Z</time>
      </trkpt>
      <trkpt lat="48.69641" lon="1.91443">
        <ele>150.1</ele>
        <time>2009-12-06T02:30:12.000Z</time>
      </trkpt>
      <trkpt lat="48.69636" lon="1.91441">
        <ele>150.58</ele>
        <time>2009-12-06T02:30:16.000Z</time>
      </trkpt>
      <trkpt lat="48.69626" lon="1.91442">
        <ele>149.62</ele>
        <time>2009-12-06T02:30:23.000Z</time>
      </trkpt>
      <trkpt lat="48.69617" lon="1.91444">
        <ele>147.7</ele>
        <time>2009-12-06T02:30:28.000Z</time>
      </trkpt>
      <trkpt lat="48.69609" lon="1.91439">
        <ele>146.26</ele>
        <time>2009-12-06T02:30:33.000Z</time>
      </trkpt>
      <trkpt lat="48.69601" lon="1.91436">
        <ele>149.14</ele>
        <time>2009-12-06T02:30:40.000Z</time>
      </trkpt>
      <trkpt lat="48.69598" lon="1.91436">
        <ele>144.82</ele>
        <time>2009-12-06T02:30:47.000Z</time>
      </trkpt>
      <trkpt lat="48.69597" lon="1.91435">
        <ele>143.37</ele>
        <time>2009-12-06T02:30:49.000Z</time>
      </trkpt>
      <trkpt lat="48.69591" lon="1.91432">
        <ele>144.34</ele>
        <time>2009-12-06T02:30:57.000Z</time>
      </trkpt>
      <trkpt lat="48.69588" lon="1.91432">
        <ele>145.3</ele>
        <time>2009-12-06T02:31:01.000Z</time>
      </trkpt>
      <trkpt lat="48.69584" lon="1.91433">
        <ele>145.3</ele>
        <time>2009-12-06T02:31:06.000Z</time>
      </trkpt>
      <trkpt lat="48.69583" lon="1.91429">
        <ele>144.82</ele>
        <time>2009-12-06T02:31:08.000Z</time>
      </trkpt>
      <trkpt lat="48.69578" lon="1.91424">
        <ele>145.78</ele>
        <time>2009-12-06T02:31:12.000Z</time>
      </trkpt>
      <trkpt lat="48.69574" lon="1.91417">
        <ele>146.74</ele>
        <time>2009-12-06T02:31:17.000Z</time>
      </trkpt>
      <trkpt lat="48.69569" lon="1.91408">
        <ele>146.74</ele>
        <time>2009-12-06T02:31:21.000Z</time>
      </trkpt>
      <trkpt lat="48.69558" lon="1.91399">
        <ele>143.37</ele>
        <time>2009-12-06T02:31:27.000Z</time>
      </trkpt>
      <trkpt lat="48.6955" lon="1.91403">
        <ele>139.05</ele>
        <time>2009-12-06T02:31:33.000Z</time>
      </trkpt>
      <trkpt lat="48.69547" lon="1.91404">
        <ele>138.09</ele>
        <time>2009-12-06T02:31:35.000Z</time>
      </trkpt>
      <trkpt lat="48.69541" lon="1.91403">
        <ele>137.61</ele>
        <time>2009-12-06T02:31:38.000Z</time>
      </trkpt>
      <trkpt lat="48.69537" lon="1.91399">
        <ele>135.2</ele>
        <time>2009-12-06T02:31:42.000Z</time>
      </trkpt>
      <trkpt lat="48.69532" lon="1.91397">
        <ele>135.2</ele>
        <time>2009-12-06T02:31:45.000Z</time>
      </trkpt>
      <trkpt lat="48.69528" lon="1.91395">
        <ele>133.76</ele>
        <time>2009-12-06T02:31:48.000Z</time>
      </trkpt>
      <trkpt lat="48.69525" lon="1.91388">
        <ele>130.4</ele>
        <time>2009-12-06T02:31:53.000Z</time>
      </trkpt>
      <trkpt lat="48.69519" lon="1.91391">
        <ele>126.55</ele>
        <time>2009-12-06T02:31:57.000Z</time>
      </trkpt>
      <trkpt lat="48.6951" lon="1.91399">
        <ele>121.74</ele>
        <time>2009-12-06T02:32:02.000Z</time>
      </trkpt>
      <trkpt lat="48.69503" lon="1.91402">
        <ele>115.5</ele>
        <time>2009-12-06T02:32:08.000Z</time>
      </trkpt>
      <trkpt lat="48.69493" lon="1.91409">
        <ele>119.82</ele>
        <time>2009-12-06T02:32:13.000Z</time>
      </trkpt>
      <trkpt lat="48.69492" lon="1.91412">
        <ele>120.3</ele>
        <time>2009-12-06T02:32:14.000Z</time>
      </trkpt>
      <trkpt lat="48.69491" lon="1.91425">
        <ele>115.5</ele>
        <time>2009-12-06T02:32:19.000Z</time>
      </trkpt>
      <trkpt lat="48.69489" lon="1.9143">
        <ele>115.98</ele>
        <time>2009-12-06T02:32:21.000Z</time>
      </trkpt>
      <trkpt lat="48.69487" lon="1.91447">
        <ele>118.38</ele>
        <time>2009-12-06T02:32:27.000Z</time>
      </trkpt>
      <trkpt lat="48.69484" lon="1.91453">
        <ele>127.51</ele>
        <time>2009-12-06T02:32:31.000Z</time>
      </trkpt>
      <trkpt lat="48.69484" lon="1.91456">
        <ele>136.16</ele>
        <time>2009-12-06T02:32:36.000Z</time>
      </trkpt>
      <trkpt lat="48.69488" lon="1.91462">
        <ele>142.89</ele>
        <time>2009-12-06T02:32:42.000Z</time>
      </trkpt>
      <trkpt lat="48.69492" lon="1.91467">
        <ele>146.74</ele>
        <time>2009-12-06T02:32:48.000Z</time>
      </trkpt>
      <trkpt lat="48.6949" lon="1.91477">
        <ele>150.58</ele>
        <time>2009-12-06T02:32:56.000Z</time>
      </trkpt>
      <trkpt lat="48.69495" lon="1.91485">
        <ele>143.37</ele>
        <time>2009-12-06T02:33:01.000Z</time>
      </trkpt>
      <trkpt lat="48.69496" lon="1.91488">
        <ele>140.01</ele>
        <time>2009-12-06T02:33:04.000Z</time>
      </trkpt>
      <trkpt lat="48.69496" lon="1.91496">
        <ele>135.68</ele>
        <time>2009-12-06T02:33:13.000Z</time>
      </trkpt>
      <trkpt lat="48.69497" lon="1.91507">
        <ele>132.8</ele>
        <time>2009-12-06T02:33:19.000Z</time>
      </trkpt>
      <trkpt lat="48.695" lon="1.91514">
        <ele>140.97</ele>
        <time>2009-12-06T02:33:28.000Z</time>
      </trkpt>
      <trkpt lat="48.695" lon="1.9152">
        <ele>140.97</ele>
        <time>2009-12-06T02:33:34.000Z</time>
      </trkpt>
      <trkpt lat="48.69501" lon="1.91527">
        <ele>142.41</ele>
        <time>2009-12-06T02:33:40.000Z</time>
      </trkpt>
      <trkpt lat="48.69506" lon="1.91532">
        <ele>148.18</ele>
        <time>2009-12-06T02:33:46.000Z</time>
      </trkpt>
      <trkpt lat="48.69511" lon="1.91529">
        <ele>148.18</ele>
        <time>2009-12-06T02:33:52.000Z</time>
      </trkpt>
      <trkpt lat="48.69511" lon="1.9153">
        <ele>147.7</ele>
        <time>2009-12-06T02:33:54.000Z</time>
      </trkpt>
      <trkpt lat="48.69519" lon="1.91526">
        <ele>143.37</ele>
        <time>2009-12-06T02:34:02.000Z</time>
      </trkpt>
      <trkpt lat="48.69522" lon="1.91525">
        <ele>142.41</ele>
        <time>2009-12-06T02:34:08.000Z</time>
      </trkpt>
      <trkpt lat="48.69524" lon="1.91525">
        <ele>145.3</ele>
        <time>2009-12-06T02:34:14.000Z</time>
      </trkpt>
      <trkpt lat="48.6953" lon="1.91525">
        <ele>150.1</ele>
        <time>2009-12-06T02:34:21.000Z</time>
      </trkpt>
      <trkpt lat="48.69538" lon="1.91523">
        <ele>154.43</ele>
        <time>2009-12-06T02:34:27.000Z</time>
      </trkpt>
      <trkpt lat="48.69545" lon="1.91522">
        <ele>157.79</ele>
        <time>2009-12-06T02:34:35.000Z</time>
      </trkpt>
      <trkpt lat="48.69548" lon="1.91528">
        <ele>157.31</ele>
        <time>2009-12-06T02:34:48.000Z</time>
      </trkpt>
      <trkpt lat="48.6955" lon="1.91533">
        <ele>156.35</ele>
        <time>2009-12-06T02:34:59.000Z</time>
      </trkpt>
      <trkpt lat="48.69548" lon="1.91537">
        <ele>155.39</ele>
        <time>2009-12-06T02:35:03.000Z</time>
      </trkpt>
      <trkpt lat="48.69548" lon="1.91543">
        <ele>154.91</ele>
        <time>2009-12-06T02:35:08.000Z</time>
      </trkpt>
      <trkpt lat="48.69553" lon="1.91548">
        <ele>153.47</ele>
        <time>2009-12-06T02:35:15.000Z</time>
      </trkpt>
      <trkpt lat="48.69555" lon="1.91553">
        <ele>152.51</ele>
        <time>2009-12-06T02:35:20.000Z</time>
      </trkpt>
      <trkpt lat="48.69556" lon="1.91561">
        <ele>156.35</ele>
        <time>2009-12-06T02:35:27.000Z</time>
      </trkpt>
      <trkpt lat="48.69557" lon="1.91565">
        <ele>157.79</ele>
        <time>2009-12-06T02:35:32.000Z</time>
      </trkpt>
      <trkpt lat="48.69558" lon="1.91576">
        <ele>161.64</ele>
        <time>2009-12-06T02:35:40.000Z</time>
      </trkpt>
      <trkpt lat="48.69559" lon="1.91581">
        <ele>162.12</ele>
        <time>2009-12-06T02:35:43.000Z</time>
      </trkpt>
      <trkpt lat="48.69559" lon="1.91587">
        <ele>165</ele>
        <time>2009-12-06T02:35:49.000Z</time>
      </trkpt>
      <trkpt lat="48.69556" lon="1.91588">
        <ele>165.96</ele>
        <time>2009-12-06T02:35:51.000Z</time>
      </trkpt>
      <trkpt lat="48.69545" lon="1.91593">
        <ele>165</ele>
        <time>2009-12-06T02:35:58.000Z</time>
      </trkpt>
      <trkpt lat="48.69537" lon="1.91594">
        <ele>162.12</ele>
        <time>2009-12-06T02:36:02.000Z</time>
      </trkpt>
      <trkpt lat="48.69523" lon="1.91594">
        <ele>161.16</ele>
        <time>2009-12-06T02:36:08.000Z</time>
      </trkpt>
      <trkpt lat="48.69518" lon="1.91594">
        <ele>158.27</ele>
        <time>2009-12-06T02:36:11.000Z</time>
      </trkpt>
      <trkpt lat="48.69505" lon="1.91594">
        <ele>158.27</ele>
        <time>2009-12-06T02:36:17.000Z</time>
      </trkpt>
      <trkpt lat="48.69497" lon="1.91596">
        <ele>156.35</ele>
        <time>2009-12-06T02:36:21.000Z</time>
      </trkpt>
      <trkpt lat="48.69495" lon="1.91598">
        <ele>155.87</ele>
        <time>2009-12-06T02:36:22.000Z</time>
      </trkpt>
      <trkpt lat="48.69494" lon="1.91614">
        <ele>150.1</ele>
        <time>2009-12-06T02:36:28.000Z</time>
      </trkpt>
      <trkpt lat="48.69494" lon="1.91625">
        <ele>147.7</ele>
        <time>2009-12-06T02:36:33.000Z</time>
      </trkpt>
      <trkpt lat="48.69492" lon="1.91636">
        <ele>145.3</ele>
        <time>2009-12-06T02:36:37.000Z</time>
      </trkpt>
      <trkpt lat="48.69492" lon="1.9164">
        <ele>143.85</ele>
        <time>2009-12-06T02:36:39.000Z</time>
      </trkpt>
      <trkpt lat="48.6949" lon="1.91645">
        <ele>142.89</ele>
        <time>2009-12-06T02:36:43.000Z</time>
      </trkpt>
      <trkpt lat="48.69487" lon="1.91645">
        <ele>141.93</ele>
        <time>2009-12-06T02:36:45.000Z</time>
      </trkpt>
      <trkpt lat="48.69482" lon="1.91643">
        <ele>140.49</ele>
        <time>2009-12-06T02:36:50.000Z</time>
      </trkpt>
      <trkpt lat="48.69476" lon="1.91636">
        <ele>139.05</ele>
        <time>2009-12-06T02:36:56.000Z</time>
      </trkpt>
      <trkpt lat="48.69468" lon="1.9163">
        <ele>140.01</ele>
        <time>2009-12-06T02:37:02.000Z</time>
      </trkpt>
      <trkpt lat="48.69466" lon="1.91627">
        <ele>140.97</ele>
        <time>2009-12-06T02:37:05.000Z</time>
      </trkpt>
      <trkpt lat="48.69458" lon="1.91618">
        <ele>140.49</ele>
        <time>2009-12-06T02:37:11.000Z</time>
      </trkpt>
      <trkpt lat="48.69455" lon="1.91615">
        <ele>140.49</ele>
        <time>2009-12-06T02:37:13.000Z</time>
      </trkpt>
      <trkpt lat="48.69452" lon="1.91609">
        <ele>140.97</ele>
        <time>2009-12-06T02:37:16.000Z</time>
      </trkpt>
      <trkpt lat="48.69444" lon="1.91599">
        <ele>140.49</ele>
        <time>2009-12-06T02:37:21.000Z</time>
      </trkpt>
      <trkpt lat="48.69434" lon="1.91588">
        <ele>140.49</ele>
        <time>2009-12-06T02:37:27.000Z</time>
      </trkpt>
      <trkpt lat="48.6943" lon="1.91587">
        <ele>140.01</ele>
        <time>2009-12-06T02:37:29.000Z</time>
      </trkpt>
      <trkpt lat="48.69427" lon="1.91586">
        <ele>140.97</ele>
        <time>2009-12-06T02:37:31.000Z</time>
      </trkpt>
      <trkpt lat="48.6942" lon="1.91588">
        <ele>140.01</ele>
        <time>2009-12-06T02:37:37.000Z</time>
      </trkpt>
      <trkpt lat="48.69418" lon="1.91592">
        <ele>139.05</ele>
        <time>2009-12-06T02:37:40.000Z</time>
      </trkpt>
      <trkpt lat="48.69415" lon="1.91603">
        <ele>136.16</ele>
        <time>2009-12-06T02:37:47.000Z</time>
      </trkpt>
      <trkpt lat="48.69414" lon="1.91609">
        <ele>135.2</ele>
        <time>2009-12-06T02:37:51.000Z</time>
      </trkpt>
      <trkpt lat="48.69411" lon="1.91616">
        <ele>135.2</ele>
        <time>2009-12-06T02:37:55.000Z</time>
      </trkpt>
      <trkpt lat="48.6941" lon="1.91616">
        <ele>136.16</ele>
        <time>2009-12-06T02:37:57.000Z</time>
      </trkpt>
      <trkpt lat="48.6941" lon="1.91622">
        <ele>138.09</ele>
        <time>2009-12-06T02:38:01.000Z</time>
      </trkpt>
      <trkpt lat="48.69409" lon="1.91629">
        <ele>137.61</ele>
        <time>2009-12-06T02:38:06.000Z</time>
      </trkpt>
      <trkpt lat="48.69406" lon="1.91635">
        <ele>136.64</ele>
        <time>2009-12-06T02:38:10.000Z</time>
      </trkpt>
      <trkpt lat="48.694" lon="1.91643">
        <ele>140.49</ele>
        <time>2009-12-06T02:38:17.000Z</time>
      </trkpt>
      <trkpt lat="48.69398" lon="1.91639">
        <ele>143.85</ele>
        <time>2009-12-06T02:38:22.000Z</time>
      </trkpt>
      <trkpt lat="48.69394" lon="1.91639">
        <ele>144.34</ele>
        <time>2009-12-06T02:38:26.000Z</time>
      </trkpt>
      <trkpt lat="48.69388" lon="1.9164">
        <ele>150.1</ele>
        <time>2009-12-06T02:38:32.000Z</time>
      </trkpt>
      <trkpt lat="48.69381" lon="1.91642">
        <ele>152.51</ele>
        <time>2009-12-06T02:38:39.000Z</time>
      </trkpt>
      <trkpt lat="48.69379" lon="1.91643">
        <ele>153.95</ele>
        <time>2009-12-06T02:38:45.000Z</time>
      </trkpt>
      <trkpt lat="48.69377" lon="1.91648">
        <ele>155.39</ele>
        <time>2009-12-06T02:38:52.000Z</time>
      </trkpt>
      <trkpt lat="48.69374" lon="1.91651">
        <ele>154.43</ele>
        <time>2009-12-06T02:38:58.000Z</time>
      </trkpt>
      <trkpt lat="48.69371" lon="1.91651">
        <ele>154.43</ele>
        <time>2009-12-06T02:39:02.000Z</time>
      </trkpt>
      <trkpt lat="48.69366" lon="1.91655">
        <ele>156.83</ele>
        <time>2009-12-06T02:39:10.000Z</time>
      </trkpt>
      <trkpt lat="48.69364" lon="1.91656">
        <ele>157.79</ele>
        <time>2009-12-06T02:39:14.000Z</time>
      </trkpt>
      <trkpt lat="48.69361" lon="1.91657">
        <ele>155.39</ele>
        <time>2009-12-06T02:39:21.000Z</time>
      </trkpt>
      <trkpt lat="48.69357" lon="1.91654">
        <ele>156.83</ele>
        <time>2009-12-06T02:39:28.000Z</time>
      </trkpt>
      <trkpt lat="48.69358" lon="1.91646">
        <ele>156.35</ele>
        <time>2009-12-06T02:39:34.000Z</time>
      </trkpt>
      <trkpt lat="48.69359" lon="1.91638">
        <ele>155.39</ele>
        <time>2009-12-06T02:39:38.000Z</time>
      </trkpt>
      <trkpt lat="48.69365" lon="1.91621">
        <ele>152.51</ele>
        <time>2009-12-06T02:39:45.000Z</time>
      </trkpt>
      <trkpt lat="48.69366" lon="1.91608">
        <ele>149.14</ele>
        <time>2009-12-06T02:39:51.000Z</time>
      </trkpt>
      <trkpt lat="48.69366" lon="1.91605">
        <ele>148.66</ele>
        <time>2009-12-06T02:39:52.000Z</time>
      </trkpt>
      <trkpt lat="48.69363" lon="1.91594">
        <ele>150.1</ele>
        <time>2009-12-06T02:39:57.000Z</time>
      </trkpt>
      <trkpt lat="48.69362" lon="1.91588">
        <ele>150.1</ele>
        <time>2009-12-06T02:40:00.000Z</time>
      </trkpt>
      <trkpt lat="48.69359" lon="1.91575">
        <ele>150.58</ele>
        <time>2009-12-06T02:40:05.000Z</time>
      </trkpt>
      <trkpt lat="48.69358" lon="1.9157">
        <ele>150.58</ele>
        <time>2009-12-06T02:40:07.000Z</time>
      </trkpt>
      <trkpt lat="48.69356" lon="1.91565">
        <ele>150.58</ele>
        <time>2009-12-06T02:40:10.000Z</time>
      </trkpt>
      <trkpt lat="48.69355" lon="1.91559">
        <ele>144.34</ele>
        <time>2009-12-06T02:40:15.000Z</time>
      </trkpt>
      <trkpt lat="48.69355" lon="1.91553">
        <ele>140.97</ele>
        <time>2009-12-06T02:40:19.000Z</time>
      </trkpt>
      <trkpt lat="48.69357" lon="1.91542">
        <ele>137.13</ele>
        <time>2009-12-06T02:40:25.000Z</time>
      </trkpt>
      <trkpt lat="48.69346" lon="1.91533">
        <ele>133.28</ele>
        <time>2009-12-06T02:40:34.000Z</time>
      </trkpt>
      <trkpt lat="48.69345" lon="1.91532">
        <ele>133.28</ele>
        <time>2009-12-06T02:40:35.000Z</time>
      </trkpt>
      <trkpt lat="48.69339" lon="1.9153">
        <ele>134.72</ele>
        <time>2009-12-06T02:40:39.000Z</time>
      </trkpt>
      <trkpt lat="48.69333" lon="1.91536">
        <ele>136.64</ele>
        <time>2009-12-06T02:40:45.000Z</time>
      </trkpt>
      <trkpt lat="48.69331" lon="1.91538">
        <ele>138.57</ele>
        <time>2009-12-06T02:40:48.000Z</time>
      </trkpt>
      <trkpt lat="48.6932" lon="1.91536">
        <ele>143.37</ele>
        <time>2009-12-06T02:40:55.000Z</time>
      </trkpt>
      <trkpt lat="48.69317" lon="1.91534">
        <ele>142.89</ele>
        <time>2009-12-06T02:40:58.000Z</time>
      </trkpt>
      <trkpt lat="48.69309" lon="1.91539">
        <ele>140.01</ele>
        <time>2009-12-06T02:41:05.000Z</time>
      </trkpt>
      <trkpt lat="48.69308" lon="1.91541">
        <ele>139.05</ele>
        <time>2009-12-06T02:41:06.000Z</time>
      </trkpt>
      <trkpt lat="48.69303" lon="1.91555">
        <ele>133.76</ele>
        <time>2009-12-06T02:41:11.000Z</time>
      </trkpt>
      <trkpt lat="48.69299" lon="1.91566">
        <ele>132.32</ele>
        <time>2009-12-06T02:41:16.000Z</time>
      </trkpt>
      <trkpt lat="48.69292" lon="1.91575">
        <ele>132.32</ele>
        <time>2009-12-06T02:41:21.000Z</time>
      </trkpt>
      <trkpt lat="48.69291" lon="1.91583">
        <ele>130.4</ele>
        <time>2009-12-06T02:41:24.000Z</time>
      </trkpt>
      <trkpt lat="48.69283" lon="1.91596">
        <ele>127.99</ele>
        <time>2009-12-06T02:41:29.000Z</time>
      </trkpt>
      <trkpt lat="48.69279" lon="1.91605">
        <ele>127.99</ele>
        <time>2009-12-06T02:41:34.000Z</time>
      </trkpt>
      <trkpt lat="48.69271" lon="1.91613">
        <ele>130.4</ele>
        <time>2009-12-06T02:41:39.000Z</time>
      </trkpt>
      <trkpt lat="48.69271" lon="1.91623">
        <ele>130.4</ele>
        <time>2009-12-06T02:41:43.000Z</time>
      </trkpt>
      <trkpt lat="48.69279" lon="1.91628">
        <ele>135.2</ele>
        <time>2009-12-06T02:41:51.000Z</time>
      </trkpt>
      <trkpt lat="48.69286" lon="1.9163">
        <ele>137.61</ele>
        <time>2009-12-06T02:42:02.000Z</time>
      </trkpt>
      <trkpt lat="48.6929" lon="1.91633">
        <ele>133.76</ele>
        <time>2009-12-06T02:42:11.000Z</time>
      </trkpt>
      <trkpt lat="48.69295" lon="1.91632">
        <ele>127.99</ele>
        <time>2009-12-06T02:42:17.000Z</time>
      </trkpt>
      <trkpt lat="48.69295" lon="1.91635">
        <ele>127.51</ele>
        <time>2009-12-06T02:42:23.000Z</time>
      </trkpt>
      <trkpt lat="48.69296" lon="1.91637">
        <ele>140.97</ele>
        <time>2009-12-06T02:42:31.000Z</time>
      </trkpt>
      <trkpt lat="48.69297" lon="1.91641">
        <ele>136.16</ele>
        <time>2009-12-06T02:42:43.000Z</time>
      </trkpt>
      <trkpt lat="48.69299" lon="1.91644">
        <ele>136.16</ele>
        <time>2009-12-06T02:42:46.000Z</time>
      </trkpt>
      <trkpt lat="48.69308" lon="1.91642">
        <ele>141.93</ele>
        <time>2009-12-06T02:42:53.000Z</time>
      </trkpt>
      <trkpt lat="48.69314" lon="1.91647">
        <ele>144.34</ele>
        <time>2009-12-06T02:43:05.000Z</time>
      </trkpt>
      <trkpt lat="48.69317" lon="1.91651">
        <ele>145.3</ele>
        <time>2009-12-06T02:43:12.000Z</time>
      </trkpt>
      <trkpt lat="48.69316" lon="1.91657">
        <ele>145.78</ele>
        <time>2009-12-06T02:43:23.000Z</time>
      </trkpt>
      <trkpt lat="48.69313" lon="1.91658">
        <ele>143.85</ele>
        <time>2009-12-06T02:43:27.000Z</time>
      </trkpt>
      <trkpt lat="48.69307" lon="1.91666">
        <ele>143.37</ele>
        <time>2009-12-06T02:43:31.000Z</time>
      </trkpt>
      <trkpt lat="48.693" lon="1.91681">
        <ele>142.89</ele>
        <time>2009-12-06T02:43:37.000Z</time>
      </trkpt>
      <trkpt lat="48.693" lon="1.91684">
        <ele>141.93</ele>
        <time>2009-12-06T02:43:38.000Z</time>
      </trkpt>
      <trkpt lat="48.69298" lon="1.91687">
        <ele>141.93</ele>
        <time>2009-12-06T02:43:40.000Z</time>
      </trkpt>
      <trkpt lat="48.69287" lon="1.91688">
        <ele>146.26</ele>
        <time>2009-12-06T02:43:46.000Z</time>
      </trkpt>
      <trkpt lat="48.69278" lon="1.91687">
        <ele>145.78</ele>
        <time>2009-12-06T02:43:52.000Z</time>
      </trkpt>
      <trkpt lat="48.69266" lon="1.91689">
        <ele>145.3</ele>
        <time>2009-12-06T02:43:57.000Z</time>
      </trkpt>
      <trkpt lat="48.69261" lon="1.91697">
        <ele>141.45</ele>
        <time>2009-12-06T02:44:01.000Z</time>
      </trkpt>
      <trkpt lat="48.69258" lon="1.91707">
        <ele>135.2</ele>
        <time>2009-12-06T02:44:06.000Z</time>
      </trkpt>
      <trkpt lat="48.69258" lon="1.9171">
        <ele>134.24</ele>
        <time>2009-12-06T02:44:08.000Z</time>
      </trkpt>
      <trkpt lat="48.6926" lon="1.91727">
        <ele>133.28</ele>
        <time>2009-12-06T02:44:14.000Z</time>
      </trkpt>
      <trkpt lat="48.69259" lon="1.91736">
        <ele>135.68</ele>
        <time>2009-12-06T02:44:19.000Z</time>
      </trkpt>
      <trkpt lat="48.69255" lon="1.91749">
        <ele>137.61</ele>
        <time>2009-12-06T02:44:27.000Z</time>
      </trkpt>
      <trkpt lat="48.69255" lon="1.91756">
        <ele>140.97</ele>
        <time>2009-12-06T02:44:33.000Z</time>
      </trkpt>
      <trkpt lat="48.69254" lon="1.91767">
        <ele>147.22</ele>
        <time>2009-12-06T02:44:38.000Z</time>
      </trkpt>
      <trkpt lat="48.69253" lon="1.91776">
        <ele>146.74</ele>
        <time>2009-12-06T02:44:45.000Z</time>
      </trkpt>
      <trkpt lat="48.69252" lon="1.91785">
        <ele>149.14</ele>
        <time>2009-12-06T02:44:51.000Z</time>
      </trkpt>
      <trkpt lat="48.6925" lon="1.9179">
        <ele>150.1</ele>
        <time>2009-12-06T02:44:54.000Z</time>
      </trkpt>
      <trkpt lat="48.69246" lon="1.91798">
        <ele>149.14</ele>
        <time>2009-12-06T02:44:59.000Z</time>
      </trkpt>
      <trkpt lat="48.69244" lon="1.918">
        <ele>149.14</ele>
        <time>2009-12-06T02:45:00.000Z</time>
      </trkpt>
      <trkpt lat="48.69235" lon="1.91808">
        <ele>146.26</ele>
        <time>2009-12-06T02:45:07.000Z</time>
      </trkpt>
      <trkpt lat="48.6923" lon="1.91807">
        <ele>145.3</ele>
        <time>2009-12-06T02:45:11.000Z</time>
      </trkpt>
      <trkpt lat="48.69226" lon="1.91808">
        <ele>144.82</ele>
        <time>2009-12-06T02:45:13.000Z</time>
      </trkpt>
      <trkpt lat="48.69216" lon="1.91819">
        <ele>140.49</ele>
        <time>2009-12-06T02:45:20.000Z</time>
      </trkpt>
      <trkpt lat="48.69208" lon="1.91828">
        <ele>138.57</ele>
        <time>2009-12-06T02:45:26.000Z</time>
      </trkpt>
      <trkpt lat="48.69202" lon="1.9184">
        <ele>136.64</ele>
        <time>2009-12-06T02:45:31.000Z</time>
      </trkpt>
      <trkpt lat="48.69193" lon="1.91852">
        <ele>138.57</ele>
        <time>2009-12-06T02:45:36.000Z</time>
      </trkpt>
      <trkpt lat="48.69187" lon="1.91865">
        <ele>137.13</ele>
        <time>2009-12-06T02:45:42.000Z</time>
      </trkpt>
      <trkpt lat="48.69183" lon="1.91876">
        <ele>137.13</ele>
        <time>2009-12-06T02:45:48.000Z</time>
      </trkpt>
      <trkpt lat="48.69179" lon="1.91884">
        <ele>141.45</ele>
        <time>2009-12-06T02:45:52.000Z</time>
      </trkpt>
      <trkpt lat="48.69175" lon="1.91892">
        <ele>145.78</ele>
        <time>2009-12-06T02:45:58.000Z</time>
      </trkpt>
      <trkpt lat="48.69173" lon="1.91901">
        <ele>146.74</ele>
        <time>2009-12-06T02:46:04.000Z</time>
      </trkpt>
      <trkpt lat="48.69172" lon="1.91904">
        <ele>145.78</ele>
        <time>2009-12-06T02:46:06.000Z</time>
      </trkpt>
      <trkpt lat="48.69172" lon="1.91909">
        <ele>144.34</ele>
        <time>2009-12-06T02:46:08.000Z</time>
      </trkpt>
      <trkpt lat="48.69173" lon="1.91915">
        <ele>146.26</ele>
        <time>2009-12-06T02:46:14.000Z</time>
      </trkpt>
      <trkpt lat="48.69173" lon="1.91931">
        <ele>149.62</ele>
        <time>2009-12-06T02:46:20.000Z</time>
      </trkpt>
      <trkpt lat="48.69174" lon="1.91939">
        <ele>154.43</ele>
        <time>2009-12-06T02:46:26.000Z</time>
      </trkpt>
      <trkpt lat="48.6917" lon="1.91941">
        <ele>155.39</ele>
        <time>2009-12-06T02:46:32.000Z</time>
      </trkpt>
      <trkpt lat="48.69169" lon="1.91942">
        <ele>154.91</ele>
        <time>2009-12-06T02:46:33.000Z</time>
      </trkpt>
      <trkpt lat="48.69166" lon="1.91945">
        <ele>155.39</ele>
        <time>2009-12-06T02:46:39.000Z</time>
      </trkpt>
      <trkpt lat="48.69164" lon="1.9194">
        <ele>153.95</ele>
        <time>2009-12-06T02:46:44.000Z</time>
      </trkpt>
      <trkpt lat="48.69161" lon="1.91937">
        <ele>151.54</ele>
        <time>2009-12-06T02:46:48.000Z</time>
      </trkpt>
      <trkpt lat="48.69156" lon="1.91935">
        <ele>153.95</ele>
        <time>2009-12-06T02:46:51.000Z</time>
      </trkpt>
      <trkpt lat="48.69145" lon="1.91935">
        <ele>156.35</ele>
        <time>2009-12-06T02:46:57.000Z</time>
      </trkpt>
      <trkpt lat="48.69137" lon="1.91935">
        <ele>159.72</ele>
        <time>2009-12-06T02:47:01.000Z</time>
      </trkpt>
      <trkpt lat="48.69125" lon="1.91931">
        <ele>156.35</ele>
        <time>2009-12-06T02:47:08.000Z</time>
      </trkpt>
      <trkpt lat="48.69118" lon="1.91934">
        <ele>152.51</ele>
        <time>2009-12-06T02:47:12.000Z</time>
      </trkpt>
      <trkpt lat="48.69113" lon="1.91948">
        <ele>147.7</ele>
        <time>2009-12-06T02:47:17.000Z</time>
      </trkpt>
      <trkpt lat="48.69112" lon="1.9195">
        <ele>146.26</ele>
        <time>2009-12-06T02:47:18.000Z</time>
      </trkpt>
      <trkpt lat="48.69106" lon="1.91965">
        <ele>141.93</ele>
        <time>2009-12-06T02:47:24.000Z</time>
      </trkpt>
      <trkpt lat="48.691" lon="1.91973">
        <ele>141.45</ele>
        <time>2009-12-06T02:47:29.000Z</time>
      </trkpt>
      <trkpt lat="48.691" lon="1.91984">
        <ele>138.09</ele>
        <time>2009-12-06T02:47:33.000Z</time>
      </trkpt>
      <trkpt lat="48.69105" lon="1.91991">
        <ele>136.16</ele>
        <time>2009-12-06T02:47:38.000Z</time>
      </trkpt>
      <trkpt lat="48.69112" lon="1.92003">
        <ele>140.01</ele>
        <time>2009-12-06T02:47:46.000Z</time>
      </trkpt>
      <trkpt lat="48.69111" lon="1.92005">
        <ele>142.41</ele>
        <time>2009-12-06T02:47:47.000Z</time>
      </trkpt>
      <trkpt lat="48.69109" lon="1.92014">
        <ele>145.3</ele>
        <time>2009-12-06T02:47:51.000Z</time>
      </trkpt>
      <trkpt lat="48.69106" lon="1.92024">
        <ele>146.74</ele>
        <time>2009-12-06T02:47:59.000Z</time>
      </trkpt>
      <trkpt lat="48.69101" lon="1.9203">
        <ele>148.18</ele>
        <time>2009-12-06T02:48:05.000Z</time>
      </trkpt>
      <trkpt lat="48.69101" lon="1.9203">
        <ele>148.18</ele>
        <time>2009-12-06T02:48:06.000Z</time>
      </trkpt>
      <trkpt lat="48.691" lon="1.92037">
        <ele>147.22</ele>
        <time>2009-12-06T02:48:12.000Z</time>
      </trkpt>
      <trkpt lat="48.691" lon="1.92038">
        <ele>148.66</ele>
        <time>2009-12-06T02:48:14.000Z</time>
      </trkpt>
      <trkpt lat="48.69093" lon="1.92047">
        <ele>150.58</ele>
        <time>2009-12-06T02:48:22.000Z</time>
      </trkpt>
      <trkpt lat="48.69086" lon="1.92053">
        <ele>150.58</ele>
        <time>2009-12-06T02:48:27.000Z</time>
      </trkpt>
      <trkpt lat="48.69085" lon="1.92061">
        <ele>149.62</ele>
        <time>2009-12-06T02:48:30.000Z</time>
      </trkpt>
      <trkpt lat="48.69087" lon="1.92073">
        <ele>148.66</ele>
        <time>2009-12-06T02:48:35.000Z</time>
      </trkpt>
      <trkpt lat="48.69087" lon="1.92086">
        <ele>146.26</ele>
        <time>2009-12-06T02:48:40.000Z</time>
      </trkpt>
      <trkpt lat="48.6909" lon="1.92093">
        <ele>146.26</ele>
        <time>2009-12-06T02:48:44.000Z</time>
      </trkpt>
      <trkpt lat="48.6909" lon="1.921">
        <ele>148.18</ele>
        <time>2009-12-06T02:48:47.000Z</time>
      </trkpt>
      <trkpt lat="48.69093" lon="1.92111">
        <ele>151.54</ele>
        <time>2009-12-06T02:48:54.000Z</time>
      </trkpt>
      <trkpt lat="48.69093" lon="1.92115">
        <ele>152.51</ele>
        <time>2009-12-06T02:48:59.000Z</time>
      </trkpt>
      <trkpt lat="48.69091" lon="1.92122">
        <ele>151.54</ele>
        <time>2009-12-06T02:49:04.000Z</time>
      </trkpt>
      <trkpt lat="48.6909" lon="1.92126">
        <ele>150.58</ele>
        <time>2009-12-06T02:49:10.000Z</time>
      </trkpt>
      <trkpt lat="48.69088" lon="1.92131">
        <ele>152.03</ele>
        <time>2009-12-06T02:49:14.000Z</time>
      </trkpt>
      <trkpt lat="48.69087" lon="1.92137">
        <ele>153.95</ele>
        <time>2009-12-06T02:49:18.000Z</time>
      </trkpt>
      <trkpt lat="48.6909" lon="1.92144">
        <ele>154.91</ele>
        <time>2009-12-06T02:49:26.000Z</time>
      </trkpt>
      <trkpt lat="48.69088" lon="1.92151">
        <ele>158.27</ele>
        <time>2009-12-06T02:49:31.000Z</time>
      </trkpt>
      <trkpt lat="48.69087" lon="1.92157">
        <ele>159.24</ele>
        <time>2009-12-06T02:49:36.000Z</time>
      </trkpt>
      <trkpt lat="48.69086" lon="1.92161">
        <ele>159.24</ele>
        <time>2009-12-06T02:49:40.000Z</time>
      </trkpt>
      <trkpt lat="48.69084" lon="1.92166">
        <ele>157.79</ele>
        <time>2009-12-06T02:49:43.000Z</time>
      </trkpt>
      <trkpt lat="48.6908" lon="1.92178">
        <ele>156.35</ele>
        <time>2009-12-06T02:49:48.000Z</time>
      </trkpt>
      <trkpt lat="48.6908" lon="1.92189">
        <ele>156.35</ele>
        <time>2009-12-06T02:49:52.000Z</time>
      </trkpt>
      <trkpt lat="48.69078" lon="1.92201">
        <ele>152.03</ele>
        <time>2009-12-06T02:49:57.000Z</time>
      </trkpt>
      <trkpt lat="48.69076" lon="1.92208">
        <ele>148.66</ele>
        <time>2009-12-06T02:50:01.000Z</time>
      </trkpt>
      <trkpt lat="48.69075" lon="1.92211">
        <ele>148.18</ele>
        <time>2009-12-06T02:50:03.000Z</time>
      </trkpt>
      <trkpt lat="48.69074" lon="1.92218">
        <ele>145.78</ele>
        <time>2009-12-06T02:50:06.000Z</time>
      </trkpt>
      <trkpt lat="48.69069" lon="1.9223">
        <ele>140.01</ele>
        <time>2009-12-06T02:50:12.000Z</time>
      </trkpt>
      <trkpt lat="48.69061" lon="1.92239">
        <ele>138.57</ele>
        <time>2009-12-06T02:50:17.000Z</time>
      </trkpt>
      <trkpt lat="48.69057" lon="1.92242">
        <ele>139.05</ele>
        <time>2009-12-06T02:50:20.000Z</time>
      </trkpt>
      <trkpt lat="48.69053" lon="1.92245">
        <ele>139.05</ele>
        <time>2009-12-06T02:50:22.000Z</time>
      </trkpt>
      <trkpt lat="48.69046" lon="1.92249">
        <ele>141.45</ele>
        <time>2009-12-06T02:50:29.000Z</time>
      </trkpt>
      <trkpt lat="48.69041" lon="1.92253">
        <ele>139.53</ele>
        <time>2009-12-06T02:50:33.000Z</time>
      </trkpt>
      <trkpt lat="48.69036" lon="1.92258">
        <ele>135.68</ele>
        <time>2009-12-06T02:50:37.000Z</time>
      </trkpt>
      <trkpt lat="48.69032" lon="1.92277">
        <ele>131.36</ele>
        <time>2009-12-06T02:50:44.000Z</time>
      </trkpt>
      <trkpt lat="48.69031" lon="1.92282">
        <ele>129.92</ele>
        <time>2009-12-06T02:50:46.000Z</time>
      </trkpt>
      <trkpt lat="48.6903" lon="1.92287">
        <ele>128.95</ele>
        <time>2009-12-06T02:50:49.000Z</time>
      </trkpt>
      <trkpt lat="48.69028" lon="1.92303">
        <ele>129.92</ele>
        <time>2009-12-06T02:50:55.000Z</time>
      </trkpt>
      <trkpt lat="48.69028" lon="1.92306">
        <ele>130.4</ele>
        <time>2009-12-06T02:50:57.000Z</time>
      </trkpt>
      <trkpt lat="48.69024" lon="1.9232">
        <ele>136.16</ele>
        <time>2009-12-06T02:51:02.000Z</time>
      </trkpt>
      <trkpt lat="48.69025" lon="1.9233">
        <ele>136.64</ele>
        <time>2009-12-06T02:51:06.000Z</time>
      </trkpt>
      <trkpt lat="48.69026" lon="1.92333">
        <ele>135.68</ele>
        <time>2009-12-06T02:51:07.000Z</time>
      </trkpt>
      <trkpt lat="48.69027" lon="1.9234">
        <ele>136.64</ele>
        <time>2009-12-06T02:51:10.000Z</time>
      </trkpt>
      <trkpt lat="48.69024" lon="1.92351">
        <ele>136.64</ele>
        <time>2009-12-06T02:51:15.000Z</time>
      </trkpt>
      <trkpt lat="48.69023" lon="1.92353">
        <ele>135.2</ele>
        <time>2009-12-06T02:51:17.000Z</time>
      </trkpt>
      <trkpt lat="48.69019" lon="1.92366">
        <ele>132.32</ele>
        <time>2009-12-06T02:51:23.000Z</time>
      </trkpt>
      <trkpt lat="48.69017" lon="1.92382">
        <ele>131.36</ele>
        <time>2009-12-06T02:51:29.000Z</time>
      </trkpt>
      <trkpt lat="48.69016" lon="1.9239">
        <ele>132.32</ele>
        <time>2009-12-06T02:51:34.000Z</time>
      </trkpt>
      <trkpt lat="48.69015" lon="1.924">
        <ele>133.76</ele>
        <time>2009-12-06T02:51:41.000Z</time>
      </trkpt>
      <trkpt lat="48.69016" lon="1.92407">
        <ele>137.13</ele>
        <time>2009-12-06T02:51:46.000Z</time>
      </trkpt>
      <trkpt lat="48.69017" lon="1.9241">
        <ele>140.49</ele>
        <time>2009-12-06T02:51:49.000Z</time>
      </trkpt>
      <trkpt lat="48.69018" lon="1.92421">
        <ele>146.26</ele>
        <time>2009-12-06T02:51:57.000Z</time>
      </trkpt>
      <trkpt lat="48.69018" lon="1.9243">
        <ele>147.7</ele>
        <time>2009-12-06T02:52:04.000Z</time>
      </trkpt>
      <trkpt lat="48.69016" lon="1.92431">
        <ele>147.7</ele>
        <time>2009-12-06T02:52:05.000Z</time>
      </trkpt>
      <trkpt lat="48.69015" lon="1.92438">
        <ele>147.7</ele>
        <time>2009-12-06T02:52:12.000Z</time>
      </trkpt>
      <trkpt lat="48.6902" lon="1.9244">
        <ele>148.18</ele>
        <time>2009-12-06T02:52:17.000Z</time>
      </trkpt>
      <trkpt lat="48.6902" lon="1.92448">
        <ele>149.62</ele>
        <time>2009-12-06T02:52:25.000Z</time>
      </trkpt>
      <trkpt lat="48.69022" lon="1.92455">
        <ele>152.03</ele>
        <time>2009-12-06T02:52:32.000Z</time>
      </trkpt>
      <trkpt lat="48.69023" lon="1.92461">
        <ele>153.47</ele>
        <time>2009-12-06T02:52:38.000Z</time>
      </trkpt>
      <trkpt lat="48.69024" lon="1.92467">
        <ele>157.79</ele>
        <time>2009-12-06T02:52:43.000Z</time>
      </trkpt>
      <trkpt lat="48.69023" lon="1.92474">
        <ele>155.87</ele>
        <time>2009-12-06T02:52:50.000Z</time>
      </trkpt>
      <trkpt lat="48.6902" lon="1.92479">
        <ele>152.99</ele>
        <time>2009-12-06T02:52:55.000Z</time>
      </trkpt>
      <trkpt lat="48.69021" lon="1.92487">
        <ele>152.51</ele>
        <time>2009-12-06T02:53:00.000Z</time>
      </trkpt>
      <trkpt lat="48.69022" lon="1.92491">
        <ele>153.47</ele>
        <time>2009-12-06T02:53:03.000Z</time>
      </trkpt>
      <trkpt lat="48.69017" lon="1.92496">
        <ele>156.35</ele>
        <time>2009-12-06T02:53:10.000Z</time>
      </trkpt>
      <trkpt lat="48.69014" lon="1.92504">
        <ele>156.83</ele>
        <time>2009-12-06T02:53:16.000Z</time>
      </trkpt>
      <trkpt lat="48.69011" lon="1.92507">
        <ele>159.24</ele>
        <time>2009-12-06T02:53:21.000Z</time>
      </trkpt>
      <trkpt lat="48.69011" lon="1.92511">
        <ele>160.68</ele>
        <time>2009-12-06T02:53:25.000Z</time>
      </trkpt>
      <trkpt lat="48.69002" lon="1.9251">
        <ele>161.64</ele>
        <time>2009-12-06T02:53:32.000Z</time>
      </trkpt>
      <trkpt lat="48.68998" lon="1.92508">
        <ele>164.04</ele>
        <time>2009-12-06T02:53:38.000Z</time>
      </trkpt>
      <trkpt lat="48.68997" lon="1.92501">
        <ele>165</ele>
        <time>2009-12-06T02:53:42.000Z</time>
      </trkpt>
      <trkpt lat="48.68998" lon="1.92499">
        <ele>162.12</ele>
        <time>2009-12-06T02:53:44.000Z</time>
      </trkpt>
      <trkpt lat="48.68996" lon="1.9249">
        <ele>160.2</ele>
        <time>2009-12-06T02:53:49.000Z</time>
      </trkpt>
      <trkpt lat="48.68995" lon="1.92485">
        <ele>158.75</ele>
        <time>2009-12-06T02:53:51.000Z</time>
      </trkpt>
      <trkpt lat="48.68993" lon="1.92475">
        <ele>157.79</ele>
        <time>2009-12-06T02:53:55.000Z</time>
      </trkpt>
      <trkpt lat="48.6899" lon="1.92464">
        <ele>151.06</ele>
        <time>2009-12-06T02:54:00.000Z</time>
      </trkpt>
      <trkpt lat="48.6898" lon="1.92465">
        <ele>153.47</ele>
        <time>2009-12-06T02:54:05.000Z</time>
      </trkpt>
      <trkpt lat="48.6898" lon="1.92467">
        <ele>153.95</ele>
        <time>2009-12-06T02:54:06.000Z</time>
      </trkpt>
      <trkpt lat="48.68978" lon="1.92471">
        <ele>153.47</ele>
        <time>2009-12-06T02:54:08.000Z</time>
      </trkpt>
      <trkpt lat="48.68972" lon="1.92475">
        <ele>154.43</ele>
        <time>2009-12-06T02:54:13.000Z</time>
      </trkpt>
      <trkpt lat="48.68968" lon="1.92481">
        <ele>154.91</ele>
        <time>2009-12-06T02:54:17.000Z</time>
      </trkpt>
      <trkpt lat="48.6896" lon="1.92485">
        <ele>156.83</ele>
        <time>2009-12-06T02:54:22.000Z</time>
      </trkpt>
      <trkpt lat="48.68957" lon="1.92489">
        <ele>156.35</ele>
        <time>2009-12-06T02:54:24.000Z</time>
      </trkpt>
      <trkpt lat="48.68948" lon="1.92502">
        <ele>154.91</ele>
        <time>2009-12-06T02:54:31.000Z</time>
      </trkpt>
      <trkpt lat="48.68945" lon="1.92513">
        <ele>153.47</ele>
        <time>2009-12-06T02:54:35.000Z</time>
      </trkpt>
      <trkpt lat="48.68943" lon="1.92526">
        <ele>150.58</ele>
        <time>2009-12-06T02:54:39.000Z</time>
      </trkpt>
      <trkpt lat="48.68946" lon="1.92538">
        <ele>151.06</ele>
        <time>2009-12-06T02:54:44.000Z</time>
      </trkpt>
      <trkpt lat="48.68947" lon="1.92546">
        <ele>146.74</ele>
        <time>2009-12-06T02:54:48.000Z</time>
      </trkpt>
      <trkpt lat="48.68948" lon="1.92552">
        <ele>151.54</ele>
        <time>2009-12-06T02:54:53.000Z</time>
      </trkpt>
      <trkpt lat="48.68949" lon="1.9256">
        <ele>152.51</ele>
        <time>2009-12-06T02:54:56.000Z</time>
      </trkpt>
      <trkpt lat="48.68951" lon="1.92566">
        <ele>155.87</ele>
        <time>2009-12-06T02:55:00.000Z</time>
      </trkpt>
      <trkpt lat="48.68954" lon="1.92583">
        <ele>159.24</ele>
        <time>2009-12-06T02:55:07.000Z</time>
      </trkpt>
      <trkpt lat="48.68956" lon="1.92597">
        <ele>158.27</ele>
        <time>2009-12-06T02:55:12.000Z</time>
      </trkpt>
      <trkpt lat="48.68956" lon="1.92605">
        <ele>158.27</ele>
        <time>2009-12-06T02:55:15.000Z</time>
      </trkpt>
      <trkpt lat="48.68954" lon="1.92612">
        <ele>157.31</ele>
        <time>2009-12-06T02:55:18.000Z</time>
      </trkpt>
      <trkpt lat="48.68945" lon="1.92616">
        <ele>154.43</ele>
        <time>2009-12-06T02:55:24.000Z</time>
      </trkpt>
      <trkpt lat="48.68943" lon="1.92622">
        <ele>152.51</ele>
        <time>2009-12-06T02:55:26.000Z</time>
      </trkpt>
      <trkpt lat="48.6894" lon="1.92629">
        <ele>152.51</ele>
        <time>2009-12-06T02:55:29.000Z</time>
      </trkpt>
      <trkpt lat="48.6893" lon="1.92636">
        <ele>150.1</ele>
        <time>2009-12-06T02:55:35.000Z</time>
      </trkpt>
      <trkpt lat="48.68926" lon="1.92638">
        <ele>150.58</ele>
        <time>2009-12-06T02:55:37.000Z</time>
      </trkpt>
      <trkpt lat="48.68917" lon="1.92635">
        <ele>151.06</ele>
        <time>2009-12-06T02:55:43.000Z</time>
      </trkpt>
      <trkpt lat="48.68907" lon="1.92633">
        <ele>149.62</ele>
        <time>2009-12-06T02:55:48.000Z</time>
      </trkpt>
      <trkpt lat="48.68897" lon="1.92631">
        <ele>146.26</ele>
        <time>2009-12-06T02:55:54.000Z</time>
      </trkpt>
      <trkpt lat="48.68894" lon="1.92632">
        <ele>144.34</ele>
        <time>2009-12-06T02:55:56.000Z</time>
      </trkpt>
      <trkpt lat="48.6889" lon="1.92648">
        <ele>135.68</ele>
        <time>2009-12-06T02:56:02.000Z</time>
      </trkpt>
      <trkpt lat="48.68887" lon="1.92649">
        <ele>137.13</ele>
        <time>2009-12-06T02:56:04.000Z</time>
      </trkpt>
      <trkpt lat="48.68884" lon="1.92658">
        <ele>132.8</ele>
        <time>2009-12-06T02:56:10.000Z</time>
      </trkpt>
      <trkpt lat="48.68883" lon="1.92666">
        <ele>129.43</ele>
        <time>2009-12-06T02:56:16.000Z</time>
      </trkpt>
      <trkpt lat="48.68885" lon="1.9267">
        <ele>126.55</ele>
        <time>2009-12-06T02:56:19.000Z</time>
      </trkpt>
      <trkpt lat="48.68884" lon="1.92685">
        <ele>129.92</ele>
        <time>2009-12-06T02:56:27.000Z</time>
      </trkpt>
      <trkpt lat="48.68884" lon="1.92689">
        <ele>133.76</ele>
        <time>2009-12-06T02:56:32.000Z</time>
      </trkpt>
      <trkpt lat="48.68884" lon="1.92695">
        <ele>138.57</ele>
        <time>2009-12-06T02:56:40.000Z</time>
      </trkpt>
      <trkpt lat="48.68881" lon="1.92703">
        <ele>139.53</ele>
        <time>2009-12-06T02:56:46.000Z</time>
      </trkpt>
      <trkpt lat="48.68882" lon="1.92708">
        <ele>145.3</ele>
        <time>2009-12-06T02:56:55.000Z</time>
      </trkpt>
      <trkpt lat="48.6888" lon="1.92713">
        <ele>146.74</ele>
        <time>2009-12-06T02:57:03.000Z</time>
      </trkpt>
      <trkpt lat="48.68879" lon="1.92713">
        <ele>147.7</ele>
        <time>2009-12-06T02:57:04.000Z</time>
      </trkpt>
      <trkpt lat="48.68873" lon="1.92714">
        <ele>150.58</ele>
        <time>2009-12-06T02:57:09.000Z</time>
      </trkpt>
      <trkpt lat="48.68872" lon="1.92714">
        <ele>150.58</ele>
        <time>2009-12-06T02:57:10.000Z</time>
      </trkpt>
      <trkpt lat="48.68871" lon="1.92718">
        <ele>149.62</ele>
        <time>2009-12-06T02:57:13.000Z</time>
      </trkpt>
      <trkpt lat="48.68865" lon="1.92726">
        <ele>147.22</ele>
        <time>2009-12-06T02:57:19.000Z</time>
      </trkpt>
      <trkpt lat="48.68864" lon="1.92728">
        <ele>147.7</ele>
        <time>2009-12-06T02:57:20.000Z</time>
      </trkpt>
      <trkpt lat="48.68858" lon="1.92747">
        <ele>147.7</ele>
        <time>2009-12-06T02:57:28.000Z</time>
      </trkpt>
      <trkpt lat="48.68854" lon="1.92758">
        <ele>144.34</ele>
        <time>2009-12-06T02:57:33.000Z</time>
      </trkpt>
      <trkpt lat="48.68853" lon="1.9276">
        <ele>143.37</ele>
        <time>2009-12-06T02:57:34.000Z</time>
      </trkpt>
      <trkpt lat="48.68846" lon="1.92771">
        <ele>140.97</ele>
        <time>2009-12-06T02:57:40.000Z</time>
      </trkpt>
      <trkpt lat="48.6884" lon="1.92778">
        <ele>140.97</ele>
        <time>2009-12-06T02:57:43.000Z</time>
      </trkpt>
      <trkpt lat="48.68834" lon="1.92785">
        <ele>140.01</ele>
        <time>2009-12-06T02:57:47.000Z</time>
      </trkpt>
      <trkpt lat="48.68834" lon="1.92797">
        <ele>135.68</ele>
        <time>2009-12-06T02:57:51.000Z</time>
      </trkpt>
      <trkpt lat="48.68836" lon="1.92802">
        <ele>133.76</ele>
        <time>2009-12-06T02:57:54.000Z</time>
      </trkpt>
      <trkpt lat="48.68839" lon="1.92814">
        <ele>130.88</ele>
        <time>2009-12-06T02:57:59.000Z</time>
      </trkpt>
      <trkpt lat="48.68839" lon="1.92816">
        <ele>130.88</ele>
        <time>2009-12-06T02:58:00.000Z</time>
      </trkpt>
      <trkpt lat="48.68842" lon="1.92824">
        <ele>131.84</ele>
        <time>2009-12-06T02:58:05.000Z</time>
      </trkpt>
      <trkpt lat="48.68844" lon="1.92827">
        <ele>129.43</ele>
        <time>2009-12-06T02:58:09.000Z</time>
      </trkpt>
      <trkpt lat="48.6885" lon="1.92824">
        <ele>131.84</ele>
        <time>2009-12-06T02:58:13.000Z</time>
      </trkpt>
      <trkpt lat="48.6885" lon="1.92814">
        <ele>137.61</ele>
        <time>2009-12-06T02:58:18.000Z</time>
      </trkpt>
      <trkpt lat="48.68855" lon="1.92813">
        <ele>143.85</ele>
        <time>2009-12-06T02:58:24.000Z</time>
      </trkpt>
      <trkpt lat="48.68858" lon="1.92817">
        <ele>149.14</ele>
        <time>2009-12-06T02:58:28.000Z</time>
      </trkpt>
      <trkpt lat="48.68864" lon="1.92825">
        <ele>158.27</ele>
        <time>2009-12-06T02:58:33.000Z</time>
      </trkpt>
      <trkpt lat="48.68872" lon="1.92824">
        <ele>153.95</ele>
        <time>2009-12-06T02:58:40.000Z</time>
      </trkpt>
      <trkpt lat="48.68879" lon="1.92824">
        <ele>149.14</ele>
        <time>2009-12-06T02:58:46.000Z</time>
      </trkpt>
      <trkpt lat="48.68883" lon="1.92831">
        <ele>150.1</ele>
        <time>2009-12-06T02:58:54.000Z</time>
      </trkpt>
      <trkpt lat="48.6889" lon="1.92836">
        <ele>144.34</ele>
        <time>2009-12-06T02:59:02.000Z</time>
      </trkpt>
      <trkpt lat="48.68897" lon="1.92843">
        <ele>146.26</ele>
        <time>2009-12-06T02:59:10.000Z</time>
      </trkpt>
      <trkpt lat="48.68896" lon="1.92851">
        <ele>149.62</ele>
        <time>2009-12-06T02:59:14.000Z</time>
      </trkpt>
      <trkpt lat="48.68901" lon="1.92855">
        <ele>149.62</ele>
        <time>2009-12-06T02:59:20.000Z</time>
      </trkpt>
      <trkpt lat="48.689" lon="1.9287">
        <ele>137.61</ele>
        <time>2009-12-06T02:59:35.000Z</time>
      </trkpt>
      <trkpt lat="48.68899" lon="1.92878">
        <ele>136.16</ele>
        <time>2009-12-06T02:59:41.000Z</time>
      </trkpt>
      <trkpt lat="48.68903" lon="1.92881">
        <ele>146.26</ele>
        <time>2009-12-06T02:59:49.000Z</time>
      </trkpt>
      <trkpt lat="48.68901" lon="1.92884">
        <ele>152.51</ele>
        <time>2009-12-06T02:59:54.000Z</time>
      </trkpt>
      <trkpt lat="48.68901" lon="1.92891">
        <ele>149.62</ele>
        <time>2009-12-06T02:59:58.000Z</time>
      </trkpt>
      <trkpt lat="48.68901" lon="1.92897">
        <ele>150.1</ele>
        <time>2009-12-06T03:00:02.000Z</time>
      </trkpt>
      <trkpt lat="48.68901" lon="1.92909">
        <ele>149.14</ele>
        <time>2009-12-06T03:00:08.000Z</time>
      </trkpt>
      <trkpt lat="48.68901" lon="1.92916">
        <ele>149.14</ele>
        <time>2009-12-06T03:00:12.000Z</time>
      </trkpt>
      <trkpt lat="48.68903" lon="1.92924">
        <ele>149.14</ele>
        <time>2009-12-06T03:00:17.000Z</time>
      </trkpt>
      <trkpt lat="48.68901" lon="1.92931">
        <ele>150.1</ele>
        <time>2009-12-06T03:00:23.000Z</time>
      </trkpt>
      <trkpt lat="48.68899" lon="1.92938">
        <ele>153.95</ele>
        <time>2009-12-06T03:00:27.000Z</time>
      </trkpt>
      <trkpt lat="48.68897" lon="1.92946">
        <ele>155.87</ele>
        <time>2009-12-06T03:00:34.000Z</time>
      </trkpt>
      <trkpt lat="48.68893" lon="1.92953">
        <ele>155.87</ele>
        <time>2009-12-06T03:00:39.000Z</time>
      </trkpt>
      <trkpt lat="48.68892" lon="1.92956">
        <ele>154.91</ele>
        <time>2009-12-06T03:00:44.000Z</time>
      </trkpt>
      <trkpt lat="48.6889" lon="1.9296">
        <ele>156.35</ele>
        <time>2009-12-06T03:00:48.000Z</time>
      </trkpt>
      <trkpt lat="48.68886" lon="1.92962">
        <ele>157.31</ele>
        <time>2009-12-06T03:00:52.000Z</time>
      </trkpt>
      <trkpt lat="48.68879" lon="1.92958">
        <ele>163.08</ele>
        <time>2009-12-06T03:00:57.000Z</time>
      </trkpt>
      <trkpt lat="48.68874" lon="1.92954">
        <ele>166.45</ele>
        <time>2009-12-06T03:01:00.000Z</time>
      </trkpt>
      <trkpt lat="48.68869" lon="1.9295">
        <ele>166.93</ele>
        <time>2009-12-06T03:01:03.000Z</time>
      </trkpt>
      <trkpt lat="48.68866" lon="1.92958">
        <ele>158.75</ele>
        <time>2009-12-06T03:01:08.000Z</time>
      </trkpt>
      <trkpt lat="48.6886" lon="1.92961">
        <ele>157.31</ele>
        <time>2009-12-06T03:01:12.000Z</time>
      </trkpt>
      <trkpt lat="48.68848" lon="1.92965">
        <ele>157.31</ele>
        <time>2009-12-06T03:01:18.000Z</time>
      </trkpt>
      <trkpt lat="48.68847" lon="1.92965">
        <ele>156.83</ele>
        <time>2009-12-06T03:01:19.000Z</time>
      </trkpt>
      <trkpt lat="48.68843" lon="1.92967">
        <ele>154.91</ele>
        <time>2009-12-06T03:01:21.000Z</time>
      </trkpt>
      <trkpt lat="48.68837" lon="1.92961">
        <ele>157.31</ele>
        <time>2009-12-06T03:01:25.000Z</time>
      </trkpt>
      <trkpt lat="48.68826" lon="1.92955">
        <ele>158.27</ele>
        <time>2009-12-06T03:01:31.000Z</time>
      </trkpt>
      <trkpt lat="48.68825" lon="1.92956">
        <ele>157.79</ele>
        <time>2009-12-06T03:01:32.000Z</time>
      </trkpt>
      <trkpt lat="48.68816" lon="1.92962">
        <ele>156.83</ele>
        <time>2009-12-06T03:01:39.000Z</time>
      </trkpt>
      <trkpt lat="48.68809" lon="1.92968">
        <ele>157.79</ele>
        <time>2009-12-06T03:01:45.000Z</time>
      </trkpt>
      <trkpt lat="48.68807" lon="1.92975">
        <ele>156.35</ele>
        <time>2009-12-06T03:01:49.000Z</time>
      </trkpt>
      <trkpt lat="48.68805" lon="1.92982">
        <ele>156.35</ele>
        <time>2009-12-06T03:01:54.000Z</time>
      </trkpt>
      <trkpt lat="48.68803" lon="1.92993">
        <ele>156.35</ele>
        <time>2009-12-06T03:02:01.000Z</time>
      </trkpt>
      <trkpt lat="48.68801" lon="1.92998">
        <ele>155.39</ele>
        <time>2009-12-06T03:02:04.000Z</time>
      </trkpt>
      <trkpt lat="48.688" lon="1.93017">
        <ele>154.91</ele>
        <time>2009-12-06T03:02:12.000Z</time>
      </trkpt>
      <trkpt lat="48.68801" lon="1.9303">
        <ele>150.1</ele>
        <time>2009-12-06T03:02:19.000Z</time>
      </trkpt>
      <trkpt lat="48.68801" lon="1.93032">
        <ele>150.58</ele>
        <time>2009-12-06T03:02:20.000Z</time>
      </trkpt>
      <trkpt lat="48.688" lon="1.93041">
        <ele>145.78</ele>
        <time>2009-12-06T03:02:26.000Z</time>
      </trkpt>
      <trkpt lat="48.68799" lon="1.93048">
        <ele>141.93</ele>
        <time>2009-12-06T03:02:31.000Z</time>
      </trkpt>
      <trkpt lat="48.68798" lon="1.93054">
        <ele>140.49</ele>
        <time>2009-12-06T03:02:35.000Z</time>
      </trkpt>
      <trkpt lat="48.68799" lon="1.93061">
        <ele>142.89</ele>
        <time>2009-12-06T03:02:42.000Z</time>
      </trkpt>
      <trkpt lat="48.688" lon="1.93066">
        <ele>146.74</ele>
        <time>2009-12-06T03:02:47.000Z</time>
      </trkpt>
      <trkpt lat="48.688" lon="1.93066">
        <ele>148.18</ele>
        <time>2009-12-06T03:02:48.000Z</time>
      </trkpt>
      <trkpt lat="48.68795" lon="1.93068">
        <ele>147.7</ele>
        <time>2009-12-06T03:02:55.000Z</time>
      </trkpt>
      <trkpt lat="48.6879" lon="1.93069">
        <ele>148.18</ele>
        <time>2009-12-06T03:03:02.000Z</time>
      </trkpt>
      <trkpt lat="48.68784" lon="1.93069">
        <ele>152.99</ele>
        <time>2009-12-06T03:03:08.000Z</time>
      </trkpt>
      <trkpt lat="48.68784" lon="1.93077">
        <ele>151.06</ele>
        <time>2009-12-06T03:03:13.000Z</time>
      </trkpt>
      <trkpt lat="48.68784" lon="1.93077">
        <ele>151.06</ele>
        <time>2009-12-06T03:03:14.000Z</time>
      </trkpt>
      <trkpt lat="48.68783" lon="1.93088">
        <ele>152.99</ele>
        <time>2009-12-06T03:03:21.000Z</time>
      </trkpt>
      <trkpt lat="48.68783" lon="1.93098">
        <ele>155.87</ele>
        <time>2009-12-06T03:03:27.000Z</time>
      </trkpt>
      <trkpt lat="48.68784" lon="1.93099">
        <ele>155.87</ele>
        <time>2009-12-06T03:03:28.000Z</time>
      </trkpt>
      <trkpt lat="48.68787" lon="1.93106">
        <ele>154.43</ele>
        <time>2009-12-06T03:03:34.000Z</time>
      </trkpt>
      <trkpt lat="48.68781" lon="1.93109">
        <ele>157.31</ele>
        <time>2009-12-06T03:03:41.000Z</time>
      </trkpt>
      <trkpt lat="48.6878" lon="1.9311">
        <ele>158.27</ele>
        <time>2009-12-06T03:03:42.000Z</time>
      </trkpt>
      <trkpt lat="48.68776" lon="1.9312">
        <ele>161.16</ele>
        <time>2009-12-06T03:03:47.000Z</time>
      </trkpt>
      <trkpt lat="48.68776" lon="1.93133">
        <ele>159.24</ele>
        <time>2009-12-06T03:03:54.000Z</time>
      </trkpt>
      <trkpt lat="48.68775" lon="1.93141">
        <ele>160.2</ele>
        <time>2009-12-06T03:03:57.000Z</time>
      </trkpt>
      <trkpt lat="48.68771" lon="1.93153">
        <ele>158.75</ele>
        <time>2009-12-06T03:04:04.000Z</time>
      </trkpt>
      <trkpt lat="48.6877" lon="1.93153">
        <ele>159.72</ele>
        <time>2009-12-06T03:04:05.000Z</time>
      </trkpt>
      <trkpt lat="48.68761" lon="1.93152">
        <ele>158.27</ele>
        <time>2009-12-06T03:04:11.000Z</time>
      </trkpt>
      <trkpt lat="48.68757" lon="1.93157">
        <ele>155.87</ele>
        <time>2009-12-06T03:04:14.000Z</time>
      </trkpt>
      <trkpt lat="48.68755" lon="1.93163">
        <ele>154.43</ele>
        <time>2009-12-06T03:04:17.000Z</time>
      </trkpt>
      <trkpt lat="48.68752" lon="1.93172">
        <ele>148.66</ele>
        <time>2009-12-06T03:04:23.000Z</time>
      </trkpt>
      <trkpt lat="48.68752" lon="1.93178">
        <ele>145.3</ele>
        <time>2009-12-06T03:04:25.000Z</time>
      </trkpt>
      <trkpt lat="48.68749" lon="1.93194">
        <ele>141.45</ele>
        <time>2009-12-06T03:04:31.000Z</time>
      </trkpt>
      <trkpt lat="48.68746" lon="1.93207">
        <ele>140.97</ele>
        <time>2009-12-06T03:04:36.000Z</time>
      </trkpt>
      <trkpt lat="48.68743" lon="1.93222">
        <ele>147.7</ele>
        <time>2009-12-06T03:04:42.000Z</time>
      </trkpt>
      <trkpt lat="48.68742" lon="1.93227">
        <ele>148.18</ele>
        <time>2009-12-06T03:04:44.000Z</time>
      </trkpt>
      <trkpt lat="48.68742" lon="1.93231">
        <ele>148.18</ele>
        <time>2009-12-06T03:04:46.000Z</time>
      </trkpt>
      <trkpt lat="48.68742" lon="1.93244">
        <ele>151.06</ele>
        <time>2009-12-06T03:04:54.000Z</time>
      </trkpt>
      <trkpt lat="48.68744" lon="1.93251">
        <ele>162.12</ele>
        <time>2009-12-06T03:05:06.000Z</time>
      </trkpt>
      <trkpt lat="48.68744" lon="1.93248">
        <ele>161.16</ele>
        <time>2009-12-06T03:05:11.000Z</time>
      </trkpt>
      <trkpt lat="48.6874" lon="1.93254">
        <ele>159.72</ele>
        <time>2009-12-06T03:05:17.000Z</time>
      </trkpt>
      <trkpt lat="48.68739" lon="1.9326">
        <ele>156.83</ele>
        <time>2009-12-06T03:05:21.000Z</time>
      </trkpt>
      <trkpt lat="48.68739" lon="1.93262">
        <ele>153.47</ele>
        <time>2009-12-06T03:05:25.000Z</time>
      </trkpt>
      <trkpt lat="48.68738" lon="1.93261">
        <ele>152.03</ele>
        <time>2009-12-06T03:05:26.000Z</time>
      </trkpt>
      <trkpt lat="48.68735" lon="1.9326">
        <ele>149.14</ele>
        <time>2009-12-06T03:05:29.000Z</time>
      </trkpt>
      <trkpt lat="48.68731" lon="1.93274">
        <ele>147.7</ele>
        <time>2009-12-06T03:05:35.000Z</time>
      </trkpt>
      <trkpt lat="48.68732" lon="1.93277">
        <ele>146.74</ele>
        <time>2009-12-06T03:05:37.000Z</time>
      </trkpt>
      <trkpt lat="48.68733" lon="1.93287">
        <ele>146.74</ele>
        <time>2009-12-06T03:05:42.000Z</time>
      </trkpt>
      <trkpt lat="48.68733" lon="1.93297">
        <ele>146.74</ele>
        <time>2009-12-06T03:05:47.000Z</time>
      </trkpt>
      <trkpt lat="48.68735" lon="1.93304">
        <ele>145.78</ele>
        <time>2009-12-06T03:05:52.000Z</time>
      </trkpt>
      <trkpt lat="48.68738" lon="1.93311">
        <ele>145.78</ele>
        <time>2009-12-06T03:05:56.000Z</time>
      </trkpt>
      <trkpt lat="48.68739" lon="1.93314">
        <ele>145.3</ele>
        <time>2009-12-06T03:05:58.000Z</time>
      </trkpt>
      <trkpt lat="48.68739" lon="1.93317">
        <ele>144.34</ele>
        <time>2009-12-06T03:06:00.000Z</time>
      </trkpt>
      <trkpt lat="48.68738" lon="1.93325">
        <ele>146.26</ele>
        <time>2009-12-06T03:06:05.000Z</time>
      </trkpt>
      <trkpt lat="48.68739" lon="1.93326">
        <ele>145.78</ele>
        <time>2009-12-06T03:06:06.000Z</time>
      </trkpt>
      <trkpt lat="48.6874" lon="1.93337">
        <ele>143.37</ele>
        <time>2009-12-06T03:06:12.000Z</time>
      </trkpt>
      <trkpt lat="48.68744" lon="1.93341">
        <ele>150.1</ele>
        <time>2009-12-06T03:06:19.000Z</time>
      </trkpt>
      <trkpt lat="48.68746" lon="1.93346">
        <ele>155.87</ele>
        <time>2009-12-06T03:06:26.000Z</time>
      </trkpt>
      <trkpt lat="48.68749" lon="1.93349">
        <ele>153.47</ele>
        <time>2009-12-06T03:06:31.000Z</time>
      </trkpt>
      <trkpt lat="48.68753" lon="1.93355">
        <ele>146.74</ele>
        <time>2009-12-06T03:06:38.000Z</time>
      </trkpt>
      <trkpt lat="48.68754" lon="1.93359">
        <ele>150.1</ele>
        <time>2009-12-06T03:06:45.000Z</time>
      </trkpt>
      <trkpt lat="48.68749" lon="1.93362">
        <ele>148.18</ele>
        <time>2009-12-06T03:06:54.000Z</time>
      </trkpt>
      <trkpt lat="48.68749" lon="1.93363">
        <ele>147.7</ele>
        <time>2009-12-06T03:06:55.000Z</time>
      </trkpt>
      <trkpt lat="48.68748" lon="1.93369">
        <ele>145.78</ele>
        <time>2009-12-06T03:07:00.000Z</time>
      </trkpt>
      <trkpt lat="48.6875" lon="1.93372">
        <ele>149.62</ele>
        <time>2009-12-06T03:07:07.000Z</time>
      </trkpt>
      <trkpt lat="48.68747" lon="1.93377">
        <ele>152.03</ele>
        <time>2009-12-06T03:07:13.000Z</time>
      </trkpt>
      <trkpt lat="48.68744" lon="1.93386">
        <ele>158.27</ele>
        <time>2009-12-06T03:07:20.000Z</time>
      </trkpt>
      <trkpt lat="48.6874" lon="1.93382">
        <ele>159.24</ele>
        <time>2009-12-06T03:07:24.000Z</time>
      </trkpt>
      <trkpt lat="48.68735" lon="1.93382">
        <ele>161.16</ele>
        <time>2009-12-06T03:07:29.000Z</time>
      </trkpt>
      <trkpt lat="48.6873" lon="1.93389">
        <ele>160.2</ele>
        <time>2009-12-06T03:07:33.000Z</time>
      </trkpt>
      <trkpt lat="48.68726" lon="1.93395">
        <ele>156.35</ele>
        <time>2009-12-06T03:07:39.000Z</time>
      </trkpt>
      <trkpt lat="48.68724" lon="1.93396">
        <ele>154.43</ele>
        <time>2009-12-06T03:07:40.000Z</time>
      </trkpt>
      <trkpt lat="48.68718" lon="1.9339">
        <ele>153.95</ele>
        <time>2009-12-06T03:07:45.000Z</time>
      </trkpt>
      <trkpt lat="48.6871" lon="1.93385">
        <ele>155.39</ele>
        <time>2009-12-06T03:07:52.000Z</time>
      </trkpt>
      <trkpt lat="48.68708" lon="1.93384">
        <ele>156.35</ele>
        <time>2009-12-06T03:07:54.000Z</time>
      </trkpt>
      <trkpt lat="48.68703" lon="1.93382">
        <ele>149.62</ele>
        <time>2009-12-06T03:08:00.000Z</time>
      </trkpt>
      <trkpt lat="48.68703" lon="1.93383">
        <ele>148.66</ele>
        <time>2009-12-06T03:08:01.000Z</time>
      </trkpt>
      <trkpt lat="48.68701" lon="1.93394">
        <ele>146.74</ele>
        <time>2009-12-06T03:08:06.000Z</time>
      </trkpt>
      <trkpt lat="48.68699" lon="1.93401">
        <ele>142.89</ele>
        <time>2009-12-06T03:08:12.000Z</time>
      </trkpt>
      <trkpt lat="48.68694" lon="1.93405">
        <ele>140.97</ele>
        <time>2009-12-06T03:08:18.000Z</time>
      </trkpt>
      <trkpt lat="48.687" lon="1.93424">
        <ele>143.85</ele>
        <time>2009-12-06T03:08:51.000Z</time>
      </trkpt>
      <trkpt lat="48.687" lon="1.93429">
        <ele>143.37</ele>
        <time>2009-12-06T03:08:57.000Z</time>
      </trkpt>
      <trkpt lat="48.68701" lon="1.93438">
        <ele>142.41</ele>
        <time>2009-12-06T03:09:08.000Z</time>
      </trkpt>
      <trkpt lat="48.68701" lon="1.93438">
        <ele>142.89</ele>
        <time>2009-12-06T03:09:10.000Z</time>
      </trkpt>
      <trkpt lat="48.68697" lon="1.93436">
        <ele>142.89</ele>
        <time>2009-12-06T03:09:15.000Z</time>
      </trkpt>
      <trkpt lat="48.68692" lon="1.93438">
        <ele>144.34</ele>
        <time>2009-12-06T03:09:19.000Z</time>
      </trkpt>
      <trkpt lat="48.68689" lon="1.93443">
        <ele>149.62</ele>
        <time>2009-12-06T03:09:23.000Z</time>
      </trkpt>
      <trkpt lat="48.68689" lon="1.93443">
        <ele>150.1</ele>
        <time>2009-12-06T03:09:24.000Z</time>
      </trkpt>
      <trkpt lat="48.68687" lon="1.93447">
        <ele>150.1</ele>
        <time>2009-12-06T03:09:29.000Z</time>
      </trkpt>
      <trkpt lat="48.68683" lon="1.93443">
        <ele>152.03</ele>
        <time>2009-12-06T03:09:32.000Z</time>
      </trkpt>
      <trkpt lat="48.68676" lon="1.93438">
        <ele>153.47</ele>
        <time>2009-12-06T03:09:37.000Z</time>
      </trkpt>
      <trkpt lat="48.68669" lon="1.93434">
        <ele>152.51</ele>
        <time>2009-12-06T03:09:43.000Z</time>
      </trkpt>
      <trkpt lat="48.6866" lon="1.93424">
        <ele>154.43</ele>
        <time>2009-12-06T03:09:49.000Z</time>
      </trkpt>
      <trkpt lat="48.68658" lon="1.93425">
        <ele>149.14</ele>
        <time>2009-12-06T03:09:51.000Z</time>
      </trkpt>
      <trkpt lat="48.68658" lon="1.9343">
        <ele>143.37</ele>
        <time>2009-12-06T03:09:54.000Z</time>
      </trkpt>
      <trkpt lat="48.68655" lon="1.93443">
        <ele>137.61</ele>
        <time>2009-12-06T03:09:59.000Z</time>
      </trkpt>
      <trkpt lat="48.68649" lon="1.93453">
        <ele>133.76</ele>
        <time>2009-12-06T03:10:04.000Z</time>
      </trkpt>
      <trkpt lat="48.68644" lon="1.93457">
        <ele>134.24</ele>
        <time>2009-12-06T03:10:08.000Z</time>
      </trkpt>
      <trkpt lat="48.68643" lon="1.93465">
        <ele>135.2</ele>
        <time>2009-12-06T03:10:13.000Z</time>
      </trkpt>
      <trkpt lat="48.68641" lon="1.93475">
        <ele>132.32</ele>
        <time>2009-12-06T03:10:18.000Z</time>
      </trkpt>
      <trkpt lat="48.68639" lon="1.93481">
        <ele>133.76</ele>
        <time>2009-12-06T03:10:21.000Z</time>
      </trkpt>
      <trkpt lat="48.68633" lon="1.93485">
        <ele>136.16</ele>
        <time>2009-12-06T03:10:26.000Z</time>
      </trkpt>
      <trkpt lat="48.68629" lon="1.93488">
        <ele>137.13</ele>
        <time>2009-12-06T03:10:31.000Z</time>
      </trkpt>
      <trkpt lat="48.68627" lon="1.9349">
        <ele>137.13</ele>
        <time>2009-12-06T03:10:34.000Z</time>
      </trkpt>
      <trkpt lat="48.68628" lon="1.935">
        <ele>130.88</ele>
        <time>2009-12-06T03:10:40.000Z</time>
      </trkpt>
      <trkpt lat="48.68628" lon="1.93502">
        <ele>130.88</ele>
        <time>2009-12-06T03:10:41.000Z</time>
      </trkpt>
      <trkpt lat="48.68627" lon="1.93513">
        <ele>128.95</ele>
        <time>2009-12-06T03:10:46.000Z</time>
      </trkpt>
      <trkpt lat="48.68624" lon="1.9352">
        <ele>132.32</ele>
        <time>2009-12-06T03:10:50.000Z</time>
      </trkpt>
      <trkpt lat="48.68622" lon="1.93525">
        <ele>136.64</ele>
        <time>2009-12-06T03:10:55.000Z</time>
      </trkpt>
      <trkpt lat="48.68622" lon="1.93529">
        <ele>137.13</ele>
        <time>2009-12-06T03:10:58.000Z</time>
      </trkpt>
      <trkpt lat="48.68628" lon="1.9354">
        <ele>138.57</ele>
        <time>2009-12-06T03:11:04.000Z</time>
      </trkpt>
      <trkpt lat="48.68629" lon="1.93545">
        <ele>138.57</ele>
        <time>2009-12-06T03:11:09.000Z</time>
      </trkpt>
      <trkpt lat="48.6863" lon="1.93552">
        <ele>134.72</ele>
        <time>2009-12-06T03:11:14.000Z</time>
      </trkpt>
      <trkpt lat="48.68631" lon="1.93556">
        <ele>135.2</ele>
        <time>2009-12-06T03:11:19.000Z</time>
      </trkpt>
      <trkpt lat="48.68634" lon="1.93561">
        <ele>134.72</ele>
        <time>2009-12-06T03:11:31.000Z</time>
      </trkpt>
      <trkpt lat="48.68635" lon="1.93566">
        <ele>135.68</ele>
        <time>2009-12-06T03:11:34.000Z</time>
      </trkpt>
      <trkpt lat="48.68641" lon="1.93572">
        <ele>132.32</ele>
        <time>2009-12-06T03:11:40.000Z</time>
      </trkpt>
      <trkpt lat="48.68645" lon="1.93579">
        <ele>132.8</ele>
        <time>2009-12-06T03:11:46.000Z</time>
      </trkpt>
      <trkpt lat="48.68649" lon="1.93583">
        <ele>138.09</ele>
        <time>2009-12-06T03:11:52.000Z</time>
      </trkpt>
      <trkpt lat="48.68652" lon="1.93587">
        <ele>140.01</ele>
        <time>2009-12-06T03:11:57.000Z</time>
      </trkpt>
      <trkpt lat="48.68655" lon="1.93591">
        <ele>139.05</ele>
        <time>2009-12-06T03:12:03.000Z</time>
      </trkpt>
      <trkpt lat="48.68656" lon="1.93595">
        <ele>137.61</ele>
        <time>2009-12-06T03:12:07.000Z</time>
      </trkpt>
      <trkpt lat="48.68658" lon="1.93604">
        <ele>139.53</ele>
        <time>2009-12-06T03:12:12.000Z</time>
      </trkpt>
      <trkpt lat="48.68659" lon="1.9361">
        <ele>140.01</ele>
        <time>2009-12-06T03:12:16.000Z</time>
      </trkpt>
      <trkpt lat="48.68662" lon="1.93617">
        <ele>140.97</ele>
        <time>2009-12-06T03:12:22.000Z</time>
      </trkpt>
      <trkpt lat="48.68664" lon="1.93623">
        <ele>143.37</ele>
        <time>2009-12-06T03:12:25.000Z</time>
      </trkpt>
      <trkpt lat="48.68665" lon="1.93632">
        <ele>147.22</ele>
        <time>2009-12-06T03:12:31.000Z</time>
      </trkpt>
      <trkpt lat="48.68669" lon="1.93638">
        <ele>146.26</ele>
        <time>2009-12-06T03:12:38.000Z</time>
      </trkpt>
      <trkpt lat="48.68666" lon="1.93653">
        <ele>147.7</ele>
        <time>2009-12-06T03:13:08.000Z</time>
      </trkpt>
      <trkpt lat="48.68664" lon="1.93653">
        <ele>149.14</ele>
        <time>2009-12-06T03:13:09.000Z</time>
      </trkpt>
      <trkpt lat="48.68657" lon="1.93647">
        <ele>154.91</ele>
        <time>2009-12-06T03:13:15.000Z</time>
      </trkpt>
      <trkpt lat="48.68649" lon="1.93639">
        <ele>158.27</ele>
        <time>2009-12-06T03:13:24.000Z</time>
      </trkpt>
      <trkpt lat="48.68646" lon="1.93638">
        <ele>158.75</ele>
        <time>2009-12-06T03:13:26.000Z</time>
      </trkpt>
      <trkpt lat="48.68645" lon="1.9364">
        <ele>158.27</ele>
        <time>2009-12-06T03:13:28.000Z</time>
      </trkpt>
      <trkpt lat="48.68649" lon="1.93644">
        <ele>157.79</ele>
        <time>2009-12-06T03:13:36.000Z</time>
      </trkpt>
      <trkpt lat="48.68654" lon="1.93647">
        <ele>158.27</ele>
        <time>2009-12-06T03:13:40.000Z</time>
      </trkpt>
      <trkpt lat="48.68658" lon="1.93649">
        <ele>159.72</ele>
        <time>2009-12-06T03:13:43.000Z</time>
      </trkpt>
      <trkpt lat="48.68661" lon="1.93654">
        <ele>159.72</ele>
        <time>2009-12-06T03:13:48.000Z</time>
      </trkpt>
      <trkpt lat="48.68661" lon="1.93661">
        <ele>160.2</ele>
        <time>2009-12-06T03:13:54.000Z</time>
      </trkpt>
      <trkpt lat="48.6866" lon="1.93671">
        <ele>154.43</ele>
        <time>2009-12-06T03:14:04.000Z</time>
      </trkpt>
      <trkpt lat="48.68658" lon="1.93676">
        <ele>156.83</ele>
        <time>2009-12-06T03:14:10.000Z</time>
      </trkpt>
      <trkpt lat="48.68654" lon="1.9368">
        <ele>161.16</ele>
        <time>2009-12-06T03:14:14.000Z</time>
      </trkpt>
      <trkpt lat="48.6865" lon="1.93684">
        <ele>165.48</ele>
        <time>2009-12-06T03:14:18.000Z</time>
      </trkpt>
      <trkpt lat="48.68649" lon="1.9369">
        <ele>162.12</ele>
        <time>2009-12-06T03:14:22.000Z</time>
      </trkpt>
      <trkpt lat="48.68647" lon="1.93703">
        <ele>158.75</ele>
        <time>2009-12-06T03:14:29.000Z</time>
      </trkpt>
      <trkpt lat="48.68647" lon="1.93706">
        <ele>159.24</ele>
        <time>2009-12-06T03:14:33.000Z</time>
      </trkpt>
      <trkpt lat="48.68642" lon="1.93706">
        <ele>164.04</ele>
        <time>2009-12-06T03:14:38.000Z</time>
      </trkpt>
      <trkpt lat="48.68635" lon="1.93704">
        <ele>162.12</ele>
        <time>2009-12-06T03:14:43.000Z</time>
      </trkpt>
      <trkpt lat="48.68628" lon="1.93696">
        <ele>164.04</ele>
        <time>2009-12-06T03:14:48.000Z</time>
      </trkpt>
      <trkpt lat="48.68625" lon="1.93691">
        <ele>163.08</ele>
        <time>2009-12-06T03:14:51.000Z</time>
      </trkpt>
      <trkpt lat="48.68619" lon="1.93689">
        <ele>158.75</ele>
        <time>2009-12-06T03:14:56.000Z</time>
      </trkpt>
      <trkpt lat="48.68614" lon="1.93684">
        <ele>155.39</ele>
        <time>2009-12-06T03:15:00.000Z</time>
      </trkpt>
      <trkpt lat="48.68611" lon="1.93682">
        <ele>152.99</ele>
        <time>2009-12-06T03:15:02.000Z</time>
      </trkpt>
      <trkpt lat="48.68594" lon="1.93672">
        <ele>151.54</ele>
        <time>2009-12-06T03:15:09.000Z</time>
      </trkpt>
      <trkpt lat="48.68584" lon="1.93663">
        <ele>145.3</ele>
        <time>2009-12-06T03:15:14.000Z</time>
      </trkpt>
      <trkpt lat="48.68578" lon="1.93652">
        <ele>142.89</ele>
        <time>2009-12-06T03:15:18.000Z</time>
      </trkpt>
      <trkpt lat="48.68572" lon="1.93646">
        <ele>139.53</ele>
        <time>2009-12-06T03:15:23.000Z</time>
      </trkpt>
      <trkpt lat="48.68566" lon="1.93643">
        <ele>140.49</ele>
        <time>2009-12-06T03:15:27.000Z</time>
      </trkpt>
      <trkpt lat="48.68559" lon="1.93636">
        <ele>141.45</ele>
        <time>2009-12-06T03:15:31.000Z</time>
      </trkpt>
      <trkpt lat="48.68551" lon="1.93636">
        <ele>138.57</ele>
        <time>2009-12-06T03:15:36.000Z</time>
      </trkpt>
      <trkpt lat="48.68544" lon="1.9363">
        <ele>141.93</ele>
        <time>2009-12-06T03:15:40.000Z</time>
      </trkpt>
      <trkpt lat="48.68538" lon="1.9363">
        <ele>142.41</ele>
        <time>2009-12-06T03:15:45.000Z</time>
      </trkpt>
      <trkpt lat="48.68531" lon="1.93632">
        <ele>139.53</ele>
        <time>2009-12-06T03:15:51.000Z</time>
      </trkpt>
      <trkpt lat="48.6853" lon="1.93632">
        <ele>139.53</ele>
        <time>2009-12-06T03:15:52.000Z</time>
      </trkpt>
      <trkpt lat="48.68525" lon="1.93632">
        <ele>135.2</ele>
        <time>2009-12-06T03:15:57.000Z</time>
      </trkpt>
      <trkpt lat="48.68523" lon="1.93639">
        <ele>126.55</ele>
        <time>2009-12-06T03:16:02.000Z</time>
      </trkpt>
      <trkpt lat="48.68523" lon="1.93641">
        <ele>124.63</ele>
        <time>2009-12-06T03:16:03.000Z</time>
      </trkpt>
      <trkpt lat="48.68522" lon="1.93654">
        <ele>117.42</ele>
        <time>2009-12-06T03:16:08.000Z</time>
      </trkpt>
      <trkpt lat="48.68522" lon="1.93665">
        <ele>120.3</ele>
        <time>2009-12-06T03:16:14.000Z</time>
      </trkpt>
      <trkpt lat="48.68522" lon="1.93668">
        <ele>120.3</ele>
        <time>2009-12-06T03:16:17.000Z</time>
      </trkpt>
      <trkpt lat="48.68522" lon="1.93673">
        <ele>118.38</ele>
        <time>2009-12-06T03:16:20.000Z</time>
      </trkpt>
      <trkpt lat="48.68522" lon="1.9369">
        <ele>114.53</ele>
        <time>2009-12-06T03:16:26.000Z</time>
      </trkpt>
      <trkpt lat="48.68524" lon="1.93701">
        <ele>112.13</ele>
        <time>2009-12-06T03:16:30.000Z</time>
      </trkpt>
      <trkpt lat="48.68523" lon="1.93719">
        <ele>113.09</ele>
        <time>2009-12-06T03:16:36.000Z</time>
      </trkpt>
      <trkpt lat="48.68524" lon="1.93725">
        <ele>121.26</ele>
        <time>2009-12-06T03:16:42.000Z</time>
      </trkpt>
      <trkpt lat="48.68527" lon="1.93723">
        <ele>122.71</ele>
        <time>2009-12-06T03:16:47.000Z</time>
      </trkpt>
      <trkpt lat="48.68533" lon="1.93723">
        <ele>121.74</ele>
        <time>2009-12-06T03:16:52.000Z</time>
      </trkpt>
      <trkpt lat="48.68536" lon="1.93725">
        <ele>123.67</ele>
        <time>2009-12-06T03:16:55.000Z</time>
      </trkpt>
      <trkpt lat="48.68543" lon="1.93727">
        <ele>125.11</ele>
        <time>2009-12-06T03:17:00.000Z</time>
      </trkpt>
      <trkpt lat="48.68546" lon="1.93728">
        <ele>129.43</ele>
        <time>2009-12-06T03:17:04.000Z</time>
      </trkpt>
      <trkpt lat="48.68558" lon="1.93725">
        <ele>127.99</ele>
        <time>2009-12-06T03:17:19.000Z</time>
      </trkpt>
      <trkpt lat="48.68557" lon="1.93727">
        <ele>130.88</ele>
        <time>2009-12-06T03:17:20.000Z</time>
      </trkpt>
      <trkpt lat="48.68562" lon="1.93737">
        <ele>129.92</ele>
        <time>2009-12-06T03:17:33.000Z</time>
      </trkpt>
      <trkpt lat="48.68566" lon="1.93743">
        <ele>131.36</ele>
        <time>2009-12-06T03:17:39.000Z</time>
      </trkpt>
      <trkpt lat="48.68568" lon="1.93744">
        <ele>134.72</ele>
        <time>2009-12-06T03:17:41.000Z</time>
      </trkpt>
      <trkpt lat="48.68571" lon="1.93754">
        <ele>138.09</ele>
        <time>2009-12-06T03:17:51.000Z</time>
      </trkpt>
      <trkpt lat="48.68574" lon="1.93758">
        <ele>142.89</ele>
        <time>2009-12-06T03:17:56.000Z</time>
      </trkpt>
      <trkpt lat="48.68577" lon="1.93764">
        <ele>145.3</ele>
        <time>2009-12-06T03:18:00.000Z</time>
      </trkpt>
      <trkpt lat="48.68582" lon="1.9377">
        <ele>148.66</ele>
        <time>2009-12-06T03:18:05.000Z</time>
      </trkpt>
      <trkpt lat="48.68584" lon="1.93775">
        <ele>150.58</ele>
        <time>2009-12-06T03:18:09.000Z</time>
      </trkpt>
      <trkpt lat="48.68586" lon="1.93779">
        <ele>152.51</ele>
        <time>2009-12-06T03:18:14.000Z</time>
      </trkpt>
      <trkpt lat="48.6859" lon="1.9378">
        <ele>152.51</ele>
        <time>2009-12-06T03:18:19.000Z</time>
      </trkpt>
      <trkpt lat="48.68596" lon="1.93785">
        <ele>151.06</ele>
        <time>2009-12-06T03:18:26.000Z</time>
      </trkpt>
      <trkpt lat="48.68597" lon="1.93786">
        <ele>151.06</ele>
        <time>2009-12-06T03:18:27.000Z</time>
      </trkpt>
      <trkpt lat="48.68603" lon="1.9379">
        <ele>151.06</ele>
        <time>2009-12-06T03:18:33.000Z</time>
      </trkpt>
      <trkpt lat="48.68606" lon="1.93797">
        <ele>146.26</ele>
        <time>2009-12-06T03:18:39.000Z</time>
      </trkpt>
      <trkpt lat="48.68607" lon="1.93805">
        <ele>151.06</ele>
        <time>2009-12-06T03:18:44.000Z</time>
      </trkpt>
      <trkpt lat="48.68609" lon="1.93814">
        <ele>152.99</ele>
        <time>2009-12-06T03:18:50.000Z</time>
      </trkpt>
      <trkpt lat="48.68611" lon="1.93819">
        <ele>156.83</ele>
        <time>2009-12-06T03:18:56.000Z</time>
      </trkpt>
      <trkpt lat="48.68609" lon="1.93826">
        <ele>156.83</ele>
        <time>2009-12-06T03:19:03.000Z</time>
      </trkpt>
      <trkpt lat="48.68611" lon="1.93832">
        <ele>156.35</ele>
        <time>2009-12-06T03:19:09.000Z</time>
      </trkpt>
      <trkpt lat="48.68613" lon="1.93837">
        <ele>153.95</ele>
        <time>2009-12-06T03:19:15.000Z</time>
      </trkpt>
      <trkpt lat="48.68612" lon="1.93842">
        <ele>149.62</ele>
        <time>2009-12-06T03:19:21.000Z</time>
      </trkpt>
      <trkpt lat="48.68612" lon="1.93848">
        <ele>145.78</ele>
        <time>2009-12-06T03:19:29.000Z</time>
      </trkpt>
      <trkpt lat="48.68612" lon="1.93853">
        <ele>146.26</ele>
        <time>2009-12-06T03:19:34.000Z</time>
      </trkpt>
      <trkpt lat="48.68612" lon="1.93858">
        <ele>147.7</ele>
        <time>2009-12-06T03:19:39.000Z</time>
      </trkpt>
      <trkpt lat="48.68613" lon="1.93862">
        <ele>144.34</ele>
        <time>2009-12-06T03:19:45.000Z</time>
      </trkpt>
      <trkpt lat="48.68615" lon="1.93869">
        <ele>145.78</ele>
        <time>2009-12-06T03:19:52.000Z</time>
      </trkpt>
      <trkpt lat="48.68618" lon="1.93874">
        <ele>150.1</ele>
        <time>2009-12-06T03:19:58.000Z</time>
      </trkpt>
      <trkpt lat="48.68618" lon="1.93883">
        <ele>152.51</ele>
        <time>2009-12-06T03:20:06.000Z</time>
      </trkpt>
      <trkpt lat="48.68617" lon="1.93892">
        <ele>162.12</ele>
        <time>2009-12-06T03:20:14.000Z</time>
      </trkpt>
      <trkpt lat="48.68616" lon="1.93901">
        <ele>165.48</ele>
        <time>2009-12-06T03:20:20.000Z</time>
      </trkpt>
      <trkpt lat="48.68617" lon="1.9391">
        <ele>165</ele>
        <time>2009-12-06T03:20:26.000Z</time>
      </trkpt>
      <trkpt lat="48.6862" lon="1.93922">
        <ele>167.89</ele>
        <time>2009-12-06T03:20:33.000Z</time>
      </trkpt>
      <trkpt lat="48.68621" lon="1.93927">
        <ele>167.41</ele>
        <time>2009-12-06T03:20:36.000Z</time>
      </trkpt>
      <trkpt lat="48.68622" lon="1.93933">
        <ele>166.93</ele>
        <time>2009-12-06T03:20:39.000Z</time>
      </trkpt>
      <trkpt lat="48.68623" lon="1.93945">
        <ele>164.52</ele>
        <time>2009-12-06T03:20:45.000Z</time>
      </trkpt>
      <trkpt lat="48.68623" lon="1.93946">
        <ele>164.04</ele>
        <time>2009-12-06T03:20:46.000Z</time>
      </trkpt>
      <trkpt lat="48.68623" lon="1.93954">
        <ele>160.2</ele>
        <time>2009-12-06T03:20:53.000Z</time>
      </trkpt>
      <trkpt lat="48.68618" lon="1.93959">
        <ele>162.12</ele>
        <time>2009-12-06T03:20:59.000Z</time>
      </trkpt>
      <trkpt lat="48.68617" lon="1.9396">
        <ele>162.12</ele>
        <time>2009-12-06T03:21:00.000Z</time>
      </trkpt>
      <trkpt lat="48.68612" lon="1.93972">
        <ele>157.31</ele>
        <time>2009-12-06T03:21:06.000Z</time>
      </trkpt>
      <trkpt lat="48.68608" lon="1.93988">
        <ele>153.95</ele>
        <time>2009-12-06T03:21:12.000Z</time>
      </trkpt>
      <trkpt lat="48.68609" lon="1.93993">
        <ele>152.99</ele>
        <time>2009-12-06T03:21:14.000Z</time>
      </trkpt>
      <trkpt lat="48.68607" lon="1.94003">
        <ele>149.62</ele>
        <time>2009-12-06T03:21:18.000Z</time>
      </trkpt>
      <trkpt lat="48.68607" lon="1.9401">
        <ele>146.26</ele>
        <time>2009-12-06T03:21:23.000Z</time>
      </trkpt>
      <trkpt lat="48.68603" lon="1.94014">
        <ele>144.34</ele>
        <time>2009-12-06T03:21:26.000Z</time>
      </trkpt>
      <trkpt lat="48.68597" lon="1.94018">
        <ele>144.34</ele>
        <time>2009-12-06T03:21:30.000Z</time>
      </trkpt>
      <trkpt lat="48.68594" lon="1.94023">
        <ele>144.34</ele>
        <time>2009-12-06T03:21:32.000Z</time>
      </trkpt>
      <trkpt lat="48.68593" lon="1.94038">
        <ele>140.49</ele>
        <time>2009-12-06T03:21:37.000Z</time>
      </trkpt>
      <trkpt lat="48.68591" lon="1.94044">
        <ele>144.82</ele>
        <time>2009-12-06T03:21:40.000Z</time>
      </trkpt>
      <trkpt lat="48.68578" lon="1.94057">
        <ele>147.7</ele>
        <time>2009-12-06T03:21:48.000Z</time>
      </trkpt>
      <trkpt lat="48.68577" lon="1.94064">
        <ele>149.62</ele>
        <time>2009-12-06T03:21:52.000Z</time>
      </trkpt>
      <trkpt lat="48.68577" lon="1.94074">
        <ele>148.66</ele>
        <time>2009-12-06T03:21:56.000Z</time>
      </trkpt>
      <trkpt lat="48.68582" lon="1.94081">
        <ele>146.26</ele>
        <time>2009-12-06T03:22:01.000Z</time>
      </trkpt>
      <trkpt lat="48.68587" lon="1.94093">
        <ele>141.45</ele>
        <time>2009-12-06T03:22:12.000Z</time>
      </trkpt>
      <trkpt lat="48.68589" lon="1.94098">
        <ele>143.85</ele>
        <time>2009-12-06T03:22:20.000Z</time>
      </trkpt>
      <trkpt lat="48.68589" lon="1.94111">
        <ele>148.66</ele>
        <time>2009-12-06T03:22:37.000Z</time>
      </trkpt>
      <trkpt lat="48.68588" lon="1.94115">
        <ele>151.54</ele>
        <time>2009-12-06T03:22:41.000Z</time>
      </trkpt>
      <trkpt lat="48.68587" lon="1.94121">
        <ele>149.62</ele>
        <time>2009-12-06T03:22:44.000Z</time>
      </trkpt>
      <trkpt lat="48.68579" lon="1.94137">
        <ele>153.47</ele>
        <time>2009-12-06T03:22:52.000Z</time>
      </trkpt>
      <trkpt lat="48.68578" lon="1.94142">
        <ele>153.47</ele>
        <time>2009-12-06T03:22:54.000Z</time>
      </trkpt>
      <trkpt lat="48.68576" lon="1.94149">
        <ele>153.47</ele>
        <time>2009-12-06T03:22:58.000Z</time>
      </trkpt>
      <trkpt lat="48.68567" lon="1.94163">
        <ele>155.39</ele>
        <time>2009-12-06T03:23:05.000Z</time>
      </trkpt>
      <trkpt lat="48.68567" lon="1.94166">
        <ele>156.35</ele>
        <time>2009-12-06T03:23:07.000Z</time>
      </trkpt>
      <trkpt lat="48.68571" lon="1.94173">
        <ele>155.87</ele>
        <time>2009-12-06T03:23:12.000Z</time>
      </trkpt>
      <trkpt lat="48.68571" lon="1.94184">
        <ele>152.99</ele>
        <time>2009-12-06T03:23:19.000Z</time>
      </trkpt>
      <trkpt lat="48.6857" lon="1.94187">
        <ele>152.03</ele>
        <time>2009-12-06T03:23:22.000Z</time>
      </trkpt>
      <trkpt lat="48.68565" lon="1.94187">
        <ele>155.87</ele>
        <time>2009-12-06T03:23:25.000Z</time>
      </trkpt>
      <trkpt lat="48.68555" lon="1.94183">
        <ele>162.6</ele>
        <time>2009-12-06T03:23:31.000Z</time>
      </trkpt>
      <trkpt lat="48.68546" lon="1.9418">
        <ele>160.68</ele>
        <time>2009-12-06T03:23:37.000Z</time>
      </trkpt>
      <trkpt lat="48.68543" lon="1.9418">
        <ele>157.79</ele>
        <time>2009-12-06T03:23:40.000Z</time>
      </trkpt>
      <trkpt lat="48.68534" lon="1.94186">
        <ele>152.51</ele>
        <time>2009-12-06T03:23:48.000Z</time>
      </trkpt>
      <trkpt lat="48.68531" lon="1.94185">
        <ele>150.1</ele>
        <time>2009-12-06T03:23:51.000Z</time>
      </trkpt>
      <trkpt lat="48.68523" lon="1.94181">
        <ele>149.14</ele>
        <time>2009-12-06T03:23:56.000Z</time>
      </trkpt>
      <trkpt lat="48.68518" lon="1.94186">
        <ele>145.78</ele>
        <time>2009-12-06T03:24:01.000Z</time>
      </trkpt>
      <trkpt lat="48.68506" lon="1.94181">
        <ele>147.7</ele>
        <time>2009-12-06T03:24:08.000Z</time>
      </trkpt>
      <trkpt lat="48.68501" lon="1.94185">
        <ele>142.89</ele>
        <time>2009-12-06T03:24:13.000Z</time>
      </trkpt>
      <trkpt lat="48.68499" lon="1.94183">
        <ele>142.41</ele>
        <time>2009-12-06T03:24:17.000Z</time>
      </trkpt>
      <trkpt lat="48.68497" lon="1.94183">
        <ele>145.3</ele>
        <time>2009-12-06T03:24:18.000Z</time>
      </trkpt>
      <trkpt lat="48.68483" lon="1.94182">
        <ele>149.14</ele>
        <time>2009-12-06T03:24:24.000Z</time>
      </trkpt>
      <trkpt lat="48.68484" lon="1.94194">
        <ele>140.01</ele>
        <time>2009-12-06T03:24:29.000Z</time>
      </trkpt>
      <trkpt lat="48.68483" lon="1.94207">
        <ele>140.01</ele>
        <time>2009-12-06T03:24:33.000Z</time>
      </trkpt>
      <trkpt lat="48.68475" lon="1.94211">
        <ele>141.45</ele>
        <time>2009-12-06T03:24:38.000Z</time>
      </trkpt>
      <trkpt lat="48.68467" lon="1.9421">
        <ele>144.82</ele>
        <time>2009-12-06T03:24:43.000Z</time>
      </trkpt>
      <trkpt lat="48.68459" lon="1.94219">
        <ele>136.16</ele>
        <time>2009-12-06T03:24:50.000Z</time>
      </trkpt>
      <trkpt lat="48.68461" lon="1.94229">
        <ele>131.84</ele>
        <time>2009-12-06T03:24:55.000Z</time>
      </trkpt>
      <trkpt lat="48.6846" lon="1.94236">
        <ele>130.4</ele>
        <time>2009-12-06T03:25:01.000Z</time>
      </trkpt>
      <trkpt lat="48.68461" lon="1.94244">
        <ele>149.14</ele>
        <time>2009-12-06T03:25:16.000Z</time>
      </trkpt>
      <trkpt lat="48.68476" lon="1.9424">
        <ele>144.34</ele>
        <time>2009-12-06T03:25:39.000Z</time>
      </trkpt>
      <trkpt lat="48.68478" lon="1.9425">
        <ele>146.26</ele>
        <time>2009-12-06T03:25:51.000Z</time>
      </trkpt>
      <trkpt lat="48.68484" lon="1.94254">
        <ele>147.7</ele>
        <time>2009-12-06T03:26:03.000Z</time>
      </trkpt>
      <trkpt lat="48.68484" lon="1.94258">
        <ele>148.18</ele>
        <time>2009-12-06T03:26:07.000Z</time>
      </trkpt>
      <trkpt lat="48.68485" lon="1.94263">
        <ele>146.74</ele>
        <time>2009-12-06T03:26:11.000Z</time>
      </trkpt>
      <trkpt lat="48.68484" lon="1.94268">
        <ele>144.82</ele>
        <time>2009-12-06T03:26:17.000Z</time>
      </trkpt>
      <trkpt lat="48.68485" lon="1.94272">
        <ele>145.3</ele>
        <time>2009-12-06T03:26:21.000Z</time>
      </trkpt>
      <trkpt lat="48.68477" lon="1.94271">
        <ele>144.34</ele>
        <time>2009-12-06T03:26:28.000Z</time>
      </trkpt>
      <trkpt lat="48.68469" lon="1.94278">
        <ele>144.82</ele>
        <time>2009-12-06T03:26:34.000Z</time>
      </trkpt>
      <trkpt lat="48.68468" lon="1.9428">
        <ele>145.3</ele>
        <time>2009-12-06T03:26:36.000Z</time>
      </trkpt>
      <trkpt lat="48.68464" lon="1.94286">
        <ele>141.93</ele>
        <time>2009-12-06T03:26:42.000Z</time>
      </trkpt>
      <trkpt lat="48.68463" lon="1.94287">
        <ele>141.93</ele>
        <time>2009-12-06T03:26:43.000Z</time>
      </trkpt>
      <trkpt lat="48.68457" lon="1.94291">
        <ele>139.05</ele>
        <time>2009-12-06T03:26:49.000Z</time>
      </trkpt>
      <trkpt lat="48.68454" lon="1.94297">
        <ele>137.13</ele>
        <time>2009-12-06T03:26:53.000Z</time>
      </trkpt>
      <trkpt lat="48.6845" lon="1.94303">
        <ele>132.8</ele>
        <time>2009-12-06T03:26:58.000Z</time>
      </trkpt>
      <trkpt lat="48.68446" lon="1.94305">
        <ele>133.28</ele>
        <time>2009-12-06T03:27:01.000Z</time>
      </trkpt>
      <trkpt lat="48.68438" lon="1.94313">
        <ele>134.24</ele>
        <time>2009-12-06T03:27:06.000Z</time>
      </trkpt>
      <trkpt lat="48.68431" lon="1.94326">
        <ele>135.68</ele>
        <time>2009-12-06T03:27:11.000Z</time>
      </trkpt>
      <trkpt lat="48.6843" lon="1.94328">
        <ele>134.72</ele>
        <time>2009-12-06T03:27:12.000Z</time>
      </trkpt>
      <trkpt lat="48.68427" lon="1.94339">
        <ele>134.24</ele>
        <time>2009-12-06T03:27:19.000Z</time>
      </trkpt>
      <trkpt lat="48.68425" lon="1.94344">
        <ele>134.24</ele>
        <time>2009-12-06T03:27:22.000Z</time>
      </trkpt>
      <trkpt lat="48.68417" lon="1.94347">
        <ele>136.64</ele>
        <time>2009-12-06T03:27:29.000Z</time>
      </trkpt>
      <trkpt lat="48.68417" lon="1.94348">
        <ele>135.68</ele>
        <time>2009-12-06T03:27:30.000Z</time>
      </trkpt>
      <trkpt lat="48.68414" lon="1.94348">
        <ele>136.16</ele>
        <time>2009-12-06T03:27:32.000Z</time>
      </trkpt>
      <trkpt lat="48.68404" lon="1.94347">
        <ele>141.45</ele>
        <time>2009-12-06T03:27:37.000Z</time>
      </trkpt>
      <trkpt lat="48.68401" lon="1.94346">
        <ele>142.41</ele>
        <time>2009-12-06T03:27:39.000Z</time>
      </trkpt>
      <trkpt lat="48.6839" lon="1.9435">
        <ele>141.93</ele>
        <time>2009-12-06T03:27:46.000Z</time>
      </trkpt>
      <trkpt lat="48.68384" lon="1.94353">
        <ele>142.41</ele>
        <time>2009-12-06T03:27:50.000Z</time>
      </trkpt>
      <trkpt lat="48.68385" lon="1.94363">
        <ele>137.61</ele>
        <time>2009-12-06T03:27:54.000Z</time>
      </trkpt>
      <trkpt lat="48.68388" lon="1.94369">
        <ele>135.2</ele>
        <time>2009-12-06T03:27:56.000Z</time>
      </trkpt>
      <trkpt lat="48.68383" lon="1.94376">
        <ele>134.72</ele>
        <time>2009-12-06T03:28:00.000Z</time>
      </trkpt>
      <trkpt lat="48.68383" lon="1.94389">
        <ele>128.95</ele>
        <time>2009-12-06T03:28:06.000Z</time>
      </trkpt>
      <trkpt lat="48.68382" lon="1.944">
        <ele>127.03</ele>
        <time>2009-12-06T03:28:15.000Z</time>
      </trkpt>
      <trkpt lat="48.6838" lon="1.94408">
        <ele>128.47</ele>
        <time>2009-12-06T03:28:21.000Z</time>
      </trkpt>
      <trkpt lat="48.68375" lon="1.94411">
        <ele>133.28</ele>
        <time>2009-12-06T03:28:26.000Z</time>
      </trkpt>
      <trkpt lat="48.68371" lon="1.94417">
        <ele>133.28</ele>
        <time>2009-12-06T03:28:32.000Z</time>
      </trkpt>
      <trkpt lat="48.68364" lon="1.94425">
        <ele>138.57</ele>
        <time>2009-12-06T03:28:40.000Z</time>
      </trkpt>
      <trkpt lat="48.68362" lon="1.9443">
        <ele>139.53</ele>
        <time>2009-12-06T03:28:43.000Z</time>
      </trkpt>
      <trkpt lat="48.68359" lon="1.94442">
        <ele>137.13</ele>
        <time>2009-12-06T03:28:50.000Z</time>
      </trkpt>
      <trkpt lat="48.68358" lon="1.94445">
        <ele>139.05</ele>
        <time>2009-12-06T03:28:52.000Z</time>
      </trkpt>
      <trkpt lat="48.68354" lon="1.94453">
        <ele>139.53</ele>
        <time>2009-12-06T03:28:56.000Z</time>
      </trkpt>
      <trkpt lat="48.68353" lon="1.94458">
        <ele>146.74</ele>
        <time>2009-12-06T03:29:01.000Z</time>
      </trkpt>
      <trkpt lat="48.68353" lon="1.94467">
        <ele>141.45</ele>
        <time>2009-12-06T03:29:07.000Z</time>
      </trkpt>
      <trkpt lat="48.68351" lon="1.9447">
        <ele>140.97</ele>
        <time>2009-12-06T03:29:10.000Z</time>
      </trkpt>
      <trkpt lat="48.68346" lon="1.94474">
        <ele>142.89</ele>
        <time>2009-12-06T03:29:15.000Z</time>
      </trkpt>
      <trkpt lat="48.68344" lon="1.94477">
        <ele>148.66</ele>
        <time>2009-12-06T03:29:19.000Z</time>
      </trkpt>
      <trkpt lat="48.68341" lon="1.94483">
        <ele>146.74</ele>
        <time>2009-12-06T03:29:25.000Z</time>
      </trkpt>
      <trkpt lat="48.68333" lon="1.94484">
        <ele>148.66</ele>
        <time>2009-12-06T03:29:32.000Z</time>
      </trkpt>
      <trkpt lat="48.6833" lon="1.94486">
        <ele>153.47</ele>
        <time>2009-12-06T03:29:38.000Z</time>
      </trkpt>
      <trkpt lat="48.68328" lon="1.94486">
        <ele>155.39</ele>
        <time>2009-12-06T03:29:43.000Z</time>
      </trkpt>
      <trkpt lat="48.68328" lon="1.94492">
        <ele>158.75</ele>
        <time>2009-12-06T03:29:56.000Z</time>
      </trkpt>
      <trkpt lat="48.68328" lon="1.94493">
        <ele>157.79</ele>
        <time>2009-12-06T03:30:05.000Z</time>
      </trkpt>
      <trkpt lat="48.68322" lon="1.94494">
        <ele>161.64</ele>
        <time>2009-12-06T03:30:14.000Z</time>
      </trkpt>
      <trkpt lat="48.68319" lon="1.94496">
        <ele>162.6</ele>
        <time>2009-12-06T03:30:21.000Z</time>
      </trkpt>
      <trkpt lat="48.68317" lon="1.94499">
        <ele>159.72</ele>
        <time>2009-12-06T03:30:27.000Z</time>
      </trkpt>
      <trkpt lat="48.68316" lon="1.94501">
        <ele>159.24</ele>
        <time>2009-12-06T03:30:32.000Z</time>
      </trkpt>
      <trkpt lat="48.68311" lon="1.945">
        <ele>161.16</ele>
        <time>2009-12-06T03:30:38.000Z</time>
      </trkpt>
      <trkpt lat="48.68307" lon="1.94505">
        <ele>161.16</ele>
        <time>2009-12-06T03:30:45.000Z</time>
      </trkpt>
      <trkpt lat="48.68302" lon="1.94506">
        <ele>163.08</ele>
        <time>2009-12-06T03:30:50.000Z</time>
      </trkpt>
      <trkpt lat="48.68298" lon="1.94512">
        <ele>156.83</ele>
        <time>2009-12-06T03:30:54.000Z</time>
      </trkpt>
      <trkpt lat="48.68292" lon="1.94517">
        <ele>156.83</ele>
        <time>2009-12-06T03:30:59.000Z</time>
      </trkpt>
      <trkpt lat="48.68285" lon="1.94517">
        <ele>157.79</ele>
        <time>2009-12-06T03:31:04.000Z</time>
      </trkpt>
      <trkpt lat="48.68283" lon="1.94516">
        <ele>157.79</ele>
        <time>2009-12-06T03:31:06.000Z</time>
      </trkpt>
      <trkpt lat="48.68279" lon="1.94509">
        <ele>159.24</ele>
        <time>2009-12-06T03:31:10.000Z</time>
      </trkpt>
      <trkpt lat="48.68272" lon="1.94499">
        <ele>159.72</ele>
        <time>2009-12-06T03:31:15.000Z</time>
      </trkpt>
      <trkpt lat="48.68269" lon="1.94488">
        <ele>158.75</ele>
        <time>2009-12-06T03:31:19.000Z</time>
      </trkpt>
      <trkpt lat="48.68269" lon="1.94485">
        <ele>157.31</ele>
        <time>2009-12-06T03:31:20.000Z</time>
      </trkpt>
      <trkpt lat="48.6827" lon="1.9448">
        <ele>153.95</ele>
        <time>2009-12-06T03:31:22.000Z</time>
      </trkpt>
      <trkpt lat="48.68275" lon="1.94473">
        <ele>148.18</ele>
        <time>2009-12-06T03:31:28.000Z</time>
      </trkpt>
      <trkpt lat="48.68277" lon="1.94465">
        <ele>145.3</ele>
        <time>2009-12-06T03:31:32.000Z</time>
      </trkpt>
      <trkpt lat="48.68282" lon="1.94453">
        <ele>142.41</ele>
        <time>2009-12-06T03:31:37.000Z</time>
      </trkpt>
      <trkpt lat="48.68288" lon="1.94445">
        <ele>140.97</ele>
        <time>2009-12-06T03:31:41.000Z</time>
      </trkpt>
      <trkpt lat="48.68292" lon="1.94437">
        <ele>140.01</ele>
        <time>2009-12-06T03:31:45.000Z</time>
      </trkpt>
      <trkpt lat="48.68288" lon="1.94423">
        <ele>141.93</ele>
        <time>2009-12-06T03:31:52.000Z</time>
      </trkpt>
      <trkpt lat="48.68287" lon="1.94422">
        <ele>141.93</ele>
        <time>2009-12-06T03:31:53.000Z</time>
      </trkpt>
      <trkpt lat="48.68285" lon="1.94415">
        <ele>139.53</ele>
        <time>2009-12-06T03:31:58.000Z</time>
      </trkpt>
      <trkpt lat="48.68287" lon="1.94407">
        <ele>134.72</ele>
        <time>2009-12-06T03:32:02.000Z</time>
      </trkpt>
      <trkpt lat="48.68287" lon="1.94399">
        <ele>132.8</ele>
        <time>2009-12-06T03:32:07.000Z</time>
      </trkpt>
      <trkpt lat="48.68291" lon="1.94393">
        <ele>130.4</ele>
        <time>2009-12-06T03:32:12.000Z</time>
      </trkpt>
      <trkpt lat="48.68292" lon="1.9438">
        <ele>126.07</ele>
        <time>2009-12-06T03:32:18.000Z</time>
      </trkpt>
      <trkpt lat="48.68294" lon="1.94375">
        <ele>125.11</ele>
        <time>2009-12-06T03:32:22.000Z</time>
      </trkpt>
      <trkpt lat="48.68296" lon="1.94365">
        <ele>122.22</ele>
        <time>2009-12-06T03:32:27.000Z</time>
      </trkpt>
      <trkpt lat="48.68293" lon="1.94359">
        <ele>121.74</ele>
        <time>2009-12-06T03:32:31.000Z</time>
      </trkpt>
      <trkpt lat="48.68287" lon="1.94349">
        <ele>120.3</ele>
        <time>2009-12-06T03:32:37.000Z</time>
      </trkpt>
      <trkpt lat="48.68286" lon="1.94345">
        <ele>118.86</ele>
        <time>2009-12-06T03:32:39.000Z</time>
      </trkpt>
      <trkpt lat="48.68282" lon="1.94326">
        <ele>118.38</ele>
        <time>2009-12-06T03:32:45.000Z</time>
      </trkpt>
      <trkpt lat="48.68283" lon="1.94317">
        <ele>117.42</ele>
        <time>2009-12-06T03:32:48.000Z</time>
      </trkpt>
      <trkpt lat="48.68285" lon="1.94306">
        <ele>118.86</ele>
        <time>2009-12-06T03:32:53.000Z</time>
      </trkpt>
      <trkpt lat="48.68285" lon="1.94301">
        <ele>116.46</ele>
        <time>2009-12-06T03:32:55.000Z</time>
      </trkpt>
      <trkpt lat="48.68285" lon="1.94283">
        <ele>116.46</ele>
        <time>2009-12-06T03:33:01.000Z</time>
      </trkpt>
      <trkpt lat="48.68287" lon="1.94265">
        <ele>116.46</ele>
        <time>2009-12-06T03:33:06.000Z</time>
      </trkpt>
      <trkpt lat="48.68291" lon="1.9425">
        <ele>116.94</ele>
        <time>2009-12-06T03:33:10.000Z</time>
      </trkpt>
      <trkpt lat="48.68294" lon="1.94232">
        <ele>117.9</ele>
        <time>2009-12-06T03:33:16.000Z</time>
      </trkpt>
      <trkpt lat="48.68295" lon="1.94225">
        <ele>115.98</ele>
        <time>2009-12-06T03:33:19.000Z</time>
      </trkpt>
      <trkpt lat="48.6829" lon="1.94219">
        <ele>114.53</ele>
        <time>2009-12-06T03:33:22.000Z</time>
      </trkpt>
      <trkpt lat="48.68277" lon="1.94216">
        <ele>110.69</ele>
        <time>2009-12-06T03:33:28.000Z</time>
      </trkpt>
      <trkpt lat="48.68266" lon="1.94216">
        <ele>110.21</ele>
        <time>2009-12-06T03:33:33.000Z</time>
      </trkpt>
      <trkpt lat="48.68258" lon="1.94214">
        <ele>111.17</ele>
        <time>2009-12-06T03:33:37.000Z</time>
      </trkpt>
      <trkpt lat="48.68248" lon="1.94213">
        <ele>111.17</ele>
        <time>2009-12-06T03:33:42.000Z</time>
      </trkpt>
      <trkpt lat="48.6824" lon="1.94214">
        <ele>109.25</ele>
        <time>2009-12-06T03:33:47.000Z</time>
      </trkpt>
      <trkpt lat="48.68238" lon="1.94215">
        <ele>108.77</ele>
        <time>2009-12-06T03:33:48.000Z</time>
      </trkpt>
      <trkpt lat="48.68227" lon="1.94213">
        <ele>109.25</ele>
        <time>2009-12-06T03:33:53.000Z</time>
      </trkpt>
      <trkpt lat="48.68219" lon="1.94211">
        <ele>109.73</ele>
        <time>2009-12-06T03:33:58.000Z</time>
      </trkpt>
      <trkpt lat="48.68217" lon="1.94211">
        <ele>109.73</ele>
        <time>2009-12-06T03:33:59.000Z</time>
      </trkpt>
      <trkpt lat="48.68208" lon="1.94206">
        <ele>110.21</ele>
        <time>2009-12-06T03:34:05.000Z</time>
      </trkpt>
      <trkpt lat="48.68198" lon="1.94204">
        <ele>110.69</ele>
        <time>2009-12-06T03:34:12.000Z</time>
      </trkpt>
      <trkpt lat="48.68196" lon="1.94203">
        <ele>110.21</ele>
        <time>2009-12-06T03:34:13.000Z</time>
      </trkpt>
      <trkpt lat="48.68192" lon="1.94202">
        <ele>113.09</ele>
        <time>2009-12-06T03:34:17.000Z</time>
      </trkpt>
      <trkpt lat="48.68185" lon="1.94206">
        <ele>113.57</ele>
        <time>2009-12-06T03:34:23.000Z</time>
      </trkpt>
      <trkpt lat="48.68177" lon="1.94212">
        <ele>112.13</ele>
        <time>2009-12-06T03:34:30.000Z</time>
      </trkpt>
      <trkpt lat="48.68166" lon="1.94217">
        <ele>113.57</ele>
        <time>2009-12-06T03:34:36.000Z</time>
      </trkpt>
      <trkpt lat="48.68159" lon="1.94219">
        <ele>115.01</ele>
        <time>2009-12-06T03:34:40.000Z</time>
      </trkpt>
      <trkpt lat="48.68152" lon="1.94221">
        <ele>118.38</ele>
        <time>2009-12-06T03:34:44.000Z</time>
      </trkpt>
      <trkpt lat="48.6815" lon="1.94221">
        <ele>119.82</ele>
        <time>2009-12-06T03:34:45.000Z</time>
      </trkpt>
      <trkpt lat="48.68144" lon="1.94209">
        <ele>127.03</ele>
        <time>2009-12-06T03:34:52.000Z</time>
      </trkpt>
      <trkpt lat="48.68144" lon="1.94206">
        <ele>128.47</ele>
        <time>2009-12-06T03:34:54.000Z</time>
      </trkpt>
      <trkpt lat="48.68141" lon="1.94208">
        <ele>126.07</ele>
        <time>2009-12-06T03:34:59.000Z</time>
      </trkpt>
      <trkpt lat="48.68135" lon="1.94201">
        <ele>127.03</ele>
        <time>2009-12-06T03:35:06.000Z</time>
      </trkpt>
      <trkpt lat="48.68128" lon="1.94195">
        <ele>127.03</ele>
        <time>2009-12-06T03:35:11.000Z</time>
      </trkpt>
      <trkpt lat="48.68126" lon="1.94194">
        <ele>127.03</ele>
        <time>2009-12-06T03:35:12.000Z</time>
      </trkpt>
      <trkpt lat="48.6812" lon="1.94193">
        <ele>126.07</ele>
        <time>2009-12-06T03:35:17.000Z</time>
      </trkpt>
      <trkpt lat="48.68112" lon="1.94184">
        <ele>127.03</ele>
        <time>2009-12-06T03:35:22.000Z</time>
      </trkpt>
      <trkpt lat="48.68107" lon="1.94181">
        <ele>124.15</ele>
        <time>2009-12-06T03:35:28.000Z</time>
      </trkpt>
      <trkpt lat="48.68105" lon="1.94178">
        <ele>125.59</ele>
        <time>2009-12-06T03:35:30.000Z</time>
      </trkpt>
      <trkpt lat="48.68098" lon="1.94173">
        <ele>123.19</ele>
        <time>2009-12-06T03:35:37.000Z</time>
      </trkpt>
      <trkpt lat="48.68093" lon="1.94169">
        <ele>125.59</ele>
        <time>2009-12-06T03:35:42.000Z</time>
      </trkpt>
      <trkpt lat="48.68092" lon="1.94168">
        <ele>125.11</ele>
        <time>2009-12-06T03:35:44.000Z</time>
      </trkpt>
      <trkpt lat="48.6809" lon="1.94161">
        <ele>127.99</ele>
        <time>2009-12-06T03:35:47.000Z</time>
      </trkpt>
      <trkpt lat="48.6809" lon="1.94159">
        <ele>127.03</ele>
        <time>2009-12-06T03:35:49.000Z</time>
      </trkpt>
      <trkpt lat="48.6809" lon="1.94151">
        <ele>129.43</ele>
        <time>2009-12-06T03:35:55.000Z</time>
      </trkpt>
      <trkpt lat="48.68087" lon="1.94147">
        <ele>129.43</ele>
        <time>2009-12-06T03:35:58.000Z</time>
      </trkpt>
      <trkpt lat="48.68088" lon="1.94144">
        <ele>128.95</ele>
        <time>2009-12-06T03:36:00.000Z</time>
      </trkpt>
      <trkpt lat="48.68085" lon="1.94134">
        <ele>131.36</ele>
        <time>2009-12-06T03:36:04.000Z</time>
      </trkpt>
      <trkpt lat="48.6808" lon="1.9413">
        <ele>127.99</ele>
        <time>2009-12-06T03:36:10.000Z</time>
      </trkpt>
      <trkpt lat="48.68079" lon="1.94124">
        <ele>130.88</ele>
        <time>2009-12-06T03:36:15.000Z</time>
      </trkpt>
      <trkpt lat="48.68079" lon="1.94121">
        <ele>130.88</ele>
        <time>2009-12-06T03:36:20.000Z</time>
      </trkpt>
      <trkpt lat="48.6808" lon="1.94115">
        <ele>131.36</ele>
        <time>2009-12-06T03:36:24.000Z</time>
      </trkpt>
      <trkpt lat="48.68081" lon="1.94113">
        <ele>132.32</ele>
        <time>2009-12-06T03:36:26.000Z</time>
      </trkpt>
      <trkpt lat="48.68079" lon="1.94105">
        <ele>134.72</ele>
        <time>2009-12-06T03:36:31.000Z</time>
      </trkpt>
      <trkpt lat="48.68076" lon="1.94097">
        <ele>136.64</ele>
        <time>2009-12-06T03:36:35.000Z</time>
      </trkpt>
      <trkpt lat="48.68074" lon="1.94091">
        <ele>137.13</ele>
        <time>2009-12-06T03:36:38.000Z</time>
      </trkpt>
      <trkpt lat="48.68073" lon="1.94083">
        <ele>137.61</ele>
        <time>2009-12-06T03:36:42.000Z</time>
      </trkpt>
      <trkpt lat="48.6807" lon="1.94078">
        <ele>137.13</ele>
        <time>2009-12-06T03:36:45.000Z</time>
      </trkpt>
      <trkpt lat="48.68069" lon="1.94074">
        <ele>133.76</ele>
        <time>2009-12-06T03:36:48.000Z</time>
      </trkpt>
      <trkpt lat="48.6807" lon="1.94069">
        <ele>132.8</ele>
        <time>2009-12-06T03:36:52.000Z</time>
      </trkpt>
      <trkpt lat="48.68068" lon="1.94061">
        <ele>137.61</ele>
        <time>2009-12-06T03:36:55.000Z</time>
      </trkpt>
      <trkpt lat="48.68066" lon="1.9405">
        <ele>143.85</ele>
        <time>2009-12-06T03:36:59.000Z</time>
      </trkpt>
      <trkpt lat="48.68066" lon="1.94039">
        <ele>147.22</ele>
        <time>2009-12-06T03:37:03.000Z</time>
      </trkpt>
      <trkpt lat="48.68066" lon="1.94025">
        <ele>148.66</ele>
        <time>2009-12-06T03:37:10.000Z</time>
      </trkpt>
      <trkpt lat="48.68065" lon="1.94022">
        <ele>145.3</ele>
        <time>2009-12-06T03:37:13.000Z</time>
      </trkpt>
      <trkpt lat="48.68068" lon="1.94012">
        <ele>144.82</ele>
        <time>2009-12-06T03:37:19.000Z</time>
      </trkpt>
      <trkpt lat="48.68069" lon="1.9401">
        <ele>145.3</ele>
        <time>2009-12-06T03:37:21.000Z</time>
      </trkpt>
      <trkpt lat="48.6807" lon="1.93995">
        <ele>142.89</ele>
        <time>2009-12-06T03:37:26.000Z</time>
      </trkpt>
      <trkpt lat="48.68071" lon="1.93981">
        <ele>140.97</ele>
        <time>2009-12-06T03:37:31.000Z</time>
      </trkpt>
      <trkpt lat="48.68073" lon="1.93963">
        <ele>144.34</ele>
        <time>2009-12-06T03:37:37.000Z</time>
      </trkpt>
      <trkpt lat="48.68073" lon="1.93956">
        <ele>143.85</ele>
        <time>2009-12-06T03:37:40.000Z</time>
      </trkpt>
      <trkpt lat="48.6807" lon="1.93942">
        <ele>139.53</ele>
        <time>2009-12-06T03:37:46.000Z</time>
      </trkpt>
      <trkpt lat="48.68069" lon="1.93931">
        <ele>140.01</ele>
        <time>2009-12-06T03:37:49.000Z</time>
      </trkpt>
      <trkpt lat="48.68066" lon="1.93917">
        <ele>140.97</ele>
        <time>2009-12-06T03:37:54.000Z</time>
      </trkpt>
      <trkpt lat="48.68066" lon="1.93912">
        <ele>138.57</ele>
        <time>2009-12-06T03:37:56.000Z</time>
      </trkpt>
      <trkpt lat="48.68064" lon="1.93907">
        <ele>137.13</ele>
        <time>2009-12-06T03:37:58.000Z</time>
      </trkpt>
      <trkpt lat="48.6806" lon="1.93899">
        <ele>136.64</ele>
        <time>2009-12-06T03:38:02.000Z</time>
      </trkpt>
      <trkpt lat="48.68056" lon="1.93887">
        <ele>140.49</ele>
        <time>2009-12-06T03:38:07.000Z</time>
      </trkpt>
      <trkpt lat="48.68053" lon="1.93871">
        <ele>143.37</ele>
        <time>2009-12-06T03:38:12.000Z</time>
      </trkpt>
      <trkpt lat="48.68052" lon="1.93867">
        <ele>144.82</ele>
        <time>2009-12-06T03:38:14.000Z</time>
      </trkpt>
      <trkpt lat="48.68049" lon="1.93857">
        <ele>148.66</ele>
        <time>2009-12-06T03:38:18.000Z</time>
      </trkpt>
      <trkpt lat="48.68044" lon="1.93845">
        <ele>149.14</ele>
        <time>2009-12-06T03:38:24.000Z</time>
      </trkpt>
      <trkpt lat="48.68043" lon="1.93845">
        <ele>148.66</ele>
        <time>2009-12-06T03:38:25.000Z</time>
      </trkpt>
      <trkpt lat="48.68042" lon="1.93841">
        <ele>145.3</ele>
        <time>2009-12-06T03:38:29.000Z</time>
      </trkpt>
      <trkpt lat="48.6804" lon="1.93833">
        <ele>135.2</ele>
        <time>2009-12-06T03:38:37.000Z</time>
      </trkpt>
      <trkpt lat="48.6804" lon="1.93829">
        <ele>132.32</ele>
        <time>2009-12-06T03:38:41.000Z</time>
      </trkpt>
      <trkpt lat="48.68038" lon="1.9382">
        <ele>138.09</ele>
        <time>2009-12-06T03:38:44.000Z</time>
      </trkpt>
      <trkpt lat="48.68034" lon="1.9381">
        <ele>137.61</ele>
        <time>2009-12-06T03:38:50.000Z</time>
      </trkpt>
      <trkpt lat="48.68034" lon="1.93809">
        <ele>138.09</ele>
        <time>2009-12-06T03:38:51.000Z</time>
      </trkpt>
      <trkpt lat="48.68031" lon="1.93803">
        <ele>142.89</ele>
        <time>2009-12-06T03:38:57.000Z</time>
      </trkpt>
      <trkpt lat="48.68027" lon="1.938">
        <ele>144.34</ele>
        <time>2009-12-06T03:39:05.000Z</time>
      </trkpt>
      <trkpt lat="48.68025" lon="1.93792">
        <ele>142.89</ele>
        <time>2009-12-06T03:39:11.000Z</time>
      </trkpt>
      <trkpt lat="48.68023" lon="1.93788">
        <ele>142.41</ele>
        <time>2009-12-06T03:39:15.000Z</time>
      </trkpt>
      <trkpt lat="48.68018" lon="1.9378">
        <ele>144.34</ele>
        <time>2009-12-06T03:39:20.000Z</time>
      </trkpt>
      <trkpt lat="48.68013" lon="1.93776">
        <ele>145.78</ele>
        <time>2009-12-06T03:39:27.000Z</time>
      </trkpt>
      <trkpt lat="48.68011" lon="1.93773">
        <ele>146.26</ele>
        <time>2009-12-06T03:39:30.000Z</time>
      </trkpt>
      <trkpt lat="48.6801" lon="1.93766">
        <ele>145.78</ele>
        <time>2009-12-06T03:39:32.000Z</time>
      </trkpt>
      <trkpt lat="48.68009" lon="1.93753">
        <ele>140.97</ele>
        <time>2009-12-06T03:39:39.000Z</time>
      </trkpt>
      <trkpt lat="48.68006" lon="1.93743">
        <ele>140.97</ele>
        <time>2009-12-06T03:39:43.000Z</time>
      </trkpt>
      <trkpt lat="48.68005" lon="1.9373">
        <ele>140.97</ele>
        <time>2009-12-06T03:39:47.000Z</time>
      </trkpt>
      <trkpt lat="48.68003" lon="1.9372">
        <ele>140.01</ele>
        <time>2009-12-06T03:39:52.000Z</time>
      </trkpt>
      <trkpt lat="48.68006" lon="1.93706">
        <ele>140.01</ele>
        <time>2009-12-06T03:39:58.000Z</time>
      </trkpt>
      <trkpt lat="48.68006" lon="1.937">
        <ele>139.05</ele>
        <time>2009-12-06T03:40:00.000Z</time>
      </trkpt>
      <trkpt lat="48.68007" lon="1.9369">
        <ele>132.8</ele>
        <time>2009-12-06T03:40:05.000Z</time>
      </trkpt>
      <trkpt lat="48.68008" lon="1.93682">
        <ele>128.47</ele>
        <time>2009-12-06T03:40:10.000Z</time>
      </trkpt>
      <trkpt lat="48.68008" lon="1.93668">
        <ele>127.03</ele>
        <time>2009-12-06T03:40:16.000Z</time>
      </trkpt>
      <trkpt lat="48.68009" lon="1.93658">
        <ele>126.07</ele>
        <time>2009-12-06T03:40:22.000Z</time>
      </trkpt>
      <trkpt lat="48.68009" lon="1.93638">
        <ele>136.64</ele>
        <time>2009-12-06T03:40:29.000Z</time>
      </trkpt>
      <trkpt lat="48.68011" lon="1.93631">
        <ele>139.53</ele>
        <time>2009-12-06T03:40:34.000Z</time>
      </trkpt>
      <trkpt lat="48.6801" lon="1.93617">
        <ele>141.93</ele>
        <time>2009-12-06T03:40:38.000Z</time>
      </trkpt>
      <trkpt lat="48.68011" lon="1.93605">
        <ele>143.37</ele>
        <time>2009-12-06T03:40:43.000Z</time>
      </trkpt>
      <trkpt lat="48.68011" lon="1.9359">
        <ele>143.85</ele>
        <time>2009-12-06T03:40:48.000Z</time>
      </trkpt>
      <trkpt lat="48.68013" lon="1.93578">
        <ele>142.41</ele>
        <time>2009-12-06T03:40:53.000Z</time>
      </trkpt>
      <trkpt lat="48.68014" lon="1.93575">
        <ele>141.45</ele>
        <time>2009-12-06T03:40:59.000Z</time>
      </trkpt>
      <trkpt lat="48.68016" lon="1.93571">
        <ele>140.01</ele>
        <time>2009-12-06T03:41:01.000Z</time>
      </trkpt>
      <trkpt lat="48.68016" lon="1.93565">
        <ele>137.61</ele>
        <time>2009-12-06T03:41:05.000Z</time>
      </trkpt>
      <trkpt lat="48.68016" lon="1.93563">
        <ele>137.61</ele>
        <time>2009-12-06T03:41:06.000Z</time>
      </trkpt>
      <trkpt lat="48.68015" lon="1.9356">
        <ele>135.2</ele>
        <time>2009-12-06T03:41:09.000Z</time>
      </trkpt>
      <trkpt lat="48.68016" lon="1.93553">
        <ele>135.68</ele>
        <time>2009-12-06T03:41:16.000Z</time>
      </trkpt>
      <trkpt lat="48.68016" lon="1.93549">
        <ele>134.72</ele>
        <time>2009-12-06T03:41:20.000Z</time>
      </trkpt>
      <trkpt lat="48.68015" lon="1.9354">
        <ele>137.13</ele>
        <time>2009-12-06T03:41:25.000Z</time>
      </trkpt>
      <trkpt lat="48.68015" lon="1.9353">
        <ele>140.49</ele>
        <time>2009-12-06T03:41:30.000Z</time>
      </trkpt>
      <trkpt lat="48.68017" lon="1.93518">
        <ele>141.93</ele>
        <time>2009-12-06T03:41:35.000Z</time>
      </trkpt>
      <trkpt lat="48.68016" lon="1.93516">
        <ele>141.93</ele>
        <time>2009-12-06T03:41:36.000Z</time>
      </trkpt>
      <trkpt lat="48.68015" lon="1.93511">
        <ele>140.49</ele>
        <time>2009-12-06T03:41:40.000Z</time>
      </trkpt>
      <trkpt lat="48.68015" lon="1.93504">
        <ele>138.57</ele>
        <time>2009-12-06T03:41:45.000Z</time>
      </trkpt>
      <trkpt lat="48.68013" lon="1.93495">
        <ele>139.05</ele>
        <time>2009-12-06T03:41:50.000Z</time>
      </trkpt>
      <trkpt lat="48.68013" lon="1.93494">
        <ele>139.05</ele>
        <time>2009-12-06T03:41:51.000Z</time>
      </trkpt>
      <trkpt lat="48.68013" lon="1.93489">
        <ele>139.05</ele>
        <time>2009-12-06T03:41:55.000Z</time>
      </trkpt>
      <trkpt lat="48.68013" lon="1.93481">
        <ele>141.93</ele>
        <time>2009-12-06T03:41:59.000Z</time>
      </trkpt>
      <trkpt lat="48.68015" lon="1.93474">
        <ele>144.34</ele>
        <time>2009-12-06T03:42:05.000Z</time>
      </trkpt>
      <trkpt lat="48.6802" lon="1.93467">
        <ele>144.34</ele>
        <time>2009-12-06T03:42:12.000Z</time>
      </trkpt>
      <trkpt lat="48.68018" lon="1.93459">
        <ele>145.78</ele>
        <time>2009-12-06T03:42:16.000Z</time>
      </trkpt>
      <trkpt lat="48.68019" lon="1.9345">
        <ele>145.3</ele>
        <time>2009-12-06T03:42:21.000Z</time>
      </trkpt>
      <trkpt lat="48.68017" lon="1.93445">
        <ele>147.22</ele>
        <time>2009-12-06T03:42:26.000Z</time>
      </trkpt>
      <trkpt lat="48.68022" lon="1.93429">
        <ele>145.3</ele>
        <time>2009-12-06T03:42:32.000Z</time>
      </trkpt>
      <trkpt lat="48.68026" lon="1.93421">
        <ele>145.78</ele>
        <time>2009-12-06T03:42:35.000Z</time>
      </trkpt>
      <trkpt lat="48.68028" lon="1.93409">
        <ele>145.3</ele>
        <time>2009-12-06T03:42:40.000Z</time>
      </trkpt>
      <trkpt lat="48.68028" lon="1.93402">
        <ele>143.85</ele>
        <time>2009-12-06T03:42:44.000Z</time>
      </trkpt>
      <trkpt lat="48.68029" lon="1.93391">
        <ele>145.78</ele>
        <time>2009-12-06T03:42:50.000Z</time>
      </trkpt>
      <trkpt lat="48.6803" lon="1.9339">
        <ele>145.3</ele>
        <time>2009-12-06T03:42:51.000Z</time>
      </trkpt>
      <trkpt lat="48.68032" lon="1.93385">
        <ele>142.89</ele>
        <time>2009-12-06T03:42:55.000Z</time>
      </trkpt>
      <trkpt lat="48.68033" lon="1.93369">
        <ele>145.3</ele>
        <time>2009-12-06T03:43:00.000Z</time>
      </trkpt>
      <trkpt lat="48.68033" lon="1.93359">
        <ele>145.78</ele>
        <time>2009-12-06T03:43:05.000Z</time>
      </trkpt>
      <trkpt lat="48.6803" lon="1.93348">
        <ele>146.74</ele>
        <time>2009-12-06T03:43:10.000Z</time>
      </trkpt>
      <trkpt lat="48.68031" lon="1.93339">
        <ele>147.22</ele>
        <time>2009-12-06T03:43:14.000Z</time>
      </trkpt>
      <trkpt lat="48.68032" lon="1.93327">
        <ele>146.26</ele>
        <time>2009-12-06T03:43:19.000Z</time>
      </trkpt>
      <trkpt lat="48.68034" lon="1.93316">
        <ele>141.93</ele>
        <time>2009-12-06T03:43:24.000Z</time>
      </trkpt>
      <trkpt lat="48.68034" lon="1.93315">
        <ele>141.93</ele>
        <time>2009-12-06T03:43:25.000Z</time>
      </trkpt>
      <trkpt lat="48.68041" lon="1.93299">
        <ele>143.85</ele>
        <time>2009-12-06T03:43:32.000Z</time>
      </trkpt>
      <trkpt lat="48.68045" lon="1.93297">
        <ele>142.89</ele>
        <time>2009-12-06T03:43:35.000Z</time>
      </trkpt>
      <trkpt lat="48.68048" lon="1.93291">
        <ele>144.34</ele>
        <time>2009-12-06T03:43:40.000Z</time>
      </trkpt>
      <trkpt lat="48.68051" lon="1.9329">
        <ele>146.74</ele>
        <time>2009-12-06T03:43:46.000Z</time>
      </trkpt>
      <trkpt lat="48.68052" lon="1.9329">
        <ele>146.74</ele>
        <time>2009-12-06T03:43:47.000Z</time>
      </trkpt>
      <trkpt lat="48.68056" lon="1.93287">
        <ele>146.26</ele>
        <time>2009-12-06T03:43:53.000Z</time>
      </trkpt>
      <trkpt lat="48.68058" lon="1.93284">
        <ele>149.62</ele>
        <time>2009-12-06T03:43:59.000Z</time>
      </trkpt>
      <trkpt lat="48.68061" lon="1.93277">
        <ele>153.95</ele>
        <time>2009-12-06T03:44:04.000Z</time>
      </trkpt>
      <trkpt lat="48.68069" lon="1.93279">
        <ele>157.79</ele>
        <time>2009-12-06T03:44:11.000Z</time>
      </trkpt>
      <trkpt lat="48.68075" lon="1.93277">
        <ele>154.91</ele>
        <time>2009-12-06T03:44:20.000Z</time>
      </trkpt>
      <trkpt lat="48.68076" lon="1.93276">
        <ele>154.43</ele>
        <time>2009-12-06T03:44:36.000Z</time>
      </trkpt>
      <trkpt lat="48.68081" lon="1.93275">
        <ele>157.79</ele>
        <time>2009-12-06T03:44:42.000Z</time>
      </trkpt>
      <trkpt lat="48.68082" lon="1.93276">
        <ele>161.16</ele>
        <time>2009-12-06T03:44:48.000Z</time>
      </trkpt>
      <trkpt lat="48.68085" lon="1.93275">
        <ele>162.6</ele>
        <time>2009-12-06T03:44:53.000Z</time>
      </trkpt>
      <trkpt lat="48.68091" lon="1.93275">
        <ele>164.52</ele>
        <time>2009-12-06T03:44:59.000Z</time>
      </trkpt>
      <trkpt lat="48.68097" lon="1.93279">
        <ele>162.12</ele>
        <time>2009-12-06T03:45:04.000Z</time>
      </trkpt>
      <trkpt lat="48.68099" lon="1.9328">
        <ele>162.12</ele>
        <time>2009-12-06T03:45:06.000Z</time>
      </trkpt>
      <trkpt lat="48.68101" lon="1.9328">
        <ele>164.04</ele>
        <time>2009-12-06T03:45:08.000Z</time>
      </trkpt>
      <trkpt lat="48.68106" lon="1.9328">
        <ele>165.96</ele>
        <time>2009-12-06T03:45:11.000Z</time>
      </trkpt>
      <trkpt lat="48.68113" lon="1.93284">
        <ele>165.48</ele>
        <time>2009-12-06T03:45:17.000Z</time>
      </trkpt>
      <trkpt lat="48.68115" lon="1.93284">
        <ele>165.48</ele>
        <time>2009-12-06T03:45:18.000Z</time>
      </trkpt>
      <trkpt lat="48.68126" lon="1.93276">
        <ele>163.08</ele>
        <time>2009-12-06T03:45:26.000Z</time>
      </trkpt>
      <trkpt lat="48.68129" lon="1.93268">
        <ele>158.27</ele>
        <time>2009-12-06T03:45:30.000Z</time>
      </trkpt>
      <trkpt lat="48.68132" lon="1.93263">
        <ele>155.39</ele>
        <time>2009-12-06T03:45:33.000Z</time>
      </trkpt>
      <trkpt lat="48.6814" lon="1.93252">
        <ele>152.99</ele>
        <time>2009-12-06T03:45:39.000Z</time>
      </trkpt>
      <trkpt lat="48.68145" lon="1.93242">
        <ele>152.03</ele>
        <time>2009-12-06T03:45:43.000Z</time>
      </trkpt>
      <trkpt lat="48.68148" lon="1.93239">
        <ele>152.03</ele>
        <time>2009-12-06T03:45:45.000Z</time>
      </trkpt>
      <trkpt lat="48.68153" lon="1.93228">
        <ele>151.06</ele>
        <time>2009-12-06T03:45:50.000Z</time>
      </trkpt>
      <trkpt lat="48.68155" lon="1.9322">
        <ele>151.06</ele>
        <time>2009-12-06T03:45:54.000Z</time>
      </trkpt>
      <trkpt lat="48.68156" lon="1.93211">
        <ele>153.95</ele>
        <time>2009-12-06T03:46:00.000Z</time>
      </trkpt>
      <trkpt lat="48.68157" lon="1.93204">
        <ele>153.47</ele>
        <time>2009-12-06T03:46:04.000Z</time>
      </trkpt>
      <trkpt lat="48.68159" lon="1.932">
        <ele>151.54</ele>
        <time>2009-12-06T03:46:07.000Z</time>
      </trkpt>
      <trkpt lat="48.68166" lon="1.93193">
        <ele>151.06</ele>
        <time>2009-12-06T03:46:11.000Z</time>
      </trkpt>
      <trkpt lat="48.68171" lon="1.93186">
        <ele>151.54</ele>
        <time>2009-12-06T03:46:16.000Z</time>
      </trkpt>
      <trkpt lat="48.6818" lon="1.93177">
        <ele>151.06</ele>
        <time>2009-12-06T03:46:23.000Z</time>
      </trkpt>
      <trkpt lat="48.68187" lon="1.93168">
        <ele>155.87</ele>
        <time>2009-12-06T03:46:29.000Z</time>
      </trkpt>
      <trkpt lat="48.68187" lon="1.93163">
        <ele>156.35</ele>
        <time>2009-12-06T03:46:32.000Z</time>
      </trkpt>
      <trkpt lat="48.68188" lon="1.93158">
        <ele>152.51</ele>
        <time>2009-12-06T03:46:37.000Z</time>
      </trkpt>
      <trkpt lat="48.6819" lon="1.93151">
        <ele>152.99</ele>
        <time>2009-12-06T03:46:43.000Z</time>
      </trkpt>
      <trkpt lat="48.6819" lon="1.93145">
        <ele>153.47</ele>
        <time>2009-12-06T03:46:49.000Z</time>
      </trkpt>
      <trkpt lat="48.68189" lon="1.93138">
        <ele>154.91</ele>
        <time>2009-12-06T03:46:55.000Z</time>
      </trkpt>
      <trkpt lat="48.68189" lon="1.93138">
        <ele>154.43</ele>
        <time>2009-12-06T03:46:56.000Z</time>
      </trkpt>
      <trkpt lat="48.6819" lon="1.93133">
        <ele>155.87</ele>
        <time>2009-12-06T03:47:01.000Z</time>
      </trkpt>
      <trkpt lat="48.6819" lon="1.93124">
        <ele>160.68</ele>
        <time>2009-12-06T03:47:09.000Z</time>
      </trkpt>
      <trkpt lat="48.68191" lon="1.93115">
        <ele>159.72</ele>
        <time>2009-12-06T03:47:16.000Z</time>
      </trkpt>
      <trkpt lat="48.68192" lon="1.93105">
        <ele>160.68</ele>
        <time>2009-12-06T03:47:20.000Z</time>
      </trkpt>
      <trkpt lat="48.68193" lon="1.93087">
        <ele>162.6</ele>
        <time>2009-12-06T03:47:25.000Z</time>
      </trkpt>
      <trkpt lat="48.68192" lon="1.93073">
        <ele>157.79</ele>
        <time>2009-12-06T03:47:31.000Z</time>
      </trkpt>
      <trkpt lat="48.68195" lon="1.93061">
        <ele>154.43</ele>
        <time>2009-12-06T03:47:36.000Z</time>
      </trkpt>
      <trkpt lat="48.68196" lon="1.93059">
        <ele>153.95</ele>
        <time>2009-12-06T03:47:37.000Z</time>
      </trkpt>
      <trkpt lat="48.68198" lon="1.93056">
        <ele>153.47</ele>
        <time>2009-12-06T03:47:39.000Z</time>
      </trkpt>
      <trkpt lat="48.68203" lon="1.93043">
        <ele>151.06</ele>
        <time>2009-12-06T03:47:44.000Z</time>
      </trkpt>
      <trkpt lat="48.68209" lon="1.93024">
        <ele>149.14</ele>
        <time>2009-12-06T03:47:50.000Z</time>
      </trkpt>
      <trkpt lat="48.68213" lon="1.93019">
        <ele>149.62</ele>
        <time>2009-12-06T03:47:54.000Z</time>
      </trkpt>
      <trkpt lat="48.68214" lon="1.93012">
        <ele>151.06</ele>
        <time>2009-12-06T03:47:59.000Z</time>
      </trkpt>
      <trkpt lat="48.68213" lon="1.93">
        <ele>156.83</ele>
        <time>2009-12-06T03:48:06.000Z</time>
      </trkpt>
      <trkpt lat="48.68214" lon="1.92992">
        <ele>158.27</ele>
        <time>2009-12-06T03:48:12.000Z</time>
      </trkpt>
      <trkpt lat="48.68217" lon="1.92984">
        <ele>156.35</ele>
        <time>2009-12-06T03:48:19.000Z</time>
      </trkpt>
      <trkpt lat="48.68219" lon="1.92978">
        <ele>158.27</ele>
        <time>2009-12-06T03:48:23.000Z</time>
      </trkpt>
      <trkpt lat="48.68221" lon="1.9297">
        <ele>159.72</ele>
        <time>2009-12-06T03:48:27.000Z</time>
      </trkpt>
      <trkpt lat="48.68221" lon="1.92966">
        <ele>160.68</ele>
        <time>2009-12-06T03:48:29.000Z</time>
      </trkpt>
      <trkpt lat="48.68221" lon="1.92961">
        <ele>162.12</ele>
        <time>2009-12-06T03:48:33.000Z</time>
      </trkpt>
      <trkpt lat="48.68226" lon="1.92952">
        <ele>162.12</ele>
        <time>2009-12-06T03:48:39.000Z</time>
      </trkpt>
      <trkpt lat="48.68223" lon="1.92945">
        <ele>163.08</ele>
        <time>2009-12-06T03:48:43.000Z</time>
      </trkpt>
      <trkpt lat="48.68222" lon="1.92942">
        <ele>162.6</ele>
        <time>2009-12-06T03:48:47.000Z</time>
      </trkpt>
      <trkpt lat="48.68221" lon="1.92937">
        <ele>160.2</ele>
        <time>2009-12-06T03:48:51.000Z</time>
      </trkpt>
      <trkpt lat="48.68221" lon="1.92927">
        <ele>160.2</ele>
        <time>2009-12-06T03:48:56.000Z</time>
      </trkpt>
      <trkpt lat="48.68222" lon="1.92926">
        <ele>159.24</ele>
        <time>2009-12-06T03:48:58.000Z</time>
      </trkpt>
      <trkpt lat="48.68226" lon="1.92923">
        <ele>160.2</ele>
        <time>2009-12-06T03:49:04.000Z</time>
      </trkpt>
      <trkpt lat="48.68226" lon="1.92914">
        <ele>159.24</ele>
        <time>2009-12-06T03:49:10.000Z</time>
      </trkpt>
      <trkpt lat="48.68226" lon="1.92909">
        <ele>158.27</ele>
        <time>2009-12-06T03:49:15.000Z</time>
      </trkpt>
      <trkpt lat="48.68227" lon="1.92905">
        <ele>156.83</ele>
        <time>2009-12-06T03:49:18.000Z</time>
      </trkpt>
      <trkpt lat="48.68229" lon="1.92892">
        <ele>152.51</ele>
        <time>2009-12-06T03:49:24.000Z</time>
      </trkpt>
      <trkpt lat="48.6823" lon="1.9289">
        <ele>151.06</ele>
        <time>2009-12-06T03:49:25.000Z</time>
      </trkpt>
      <trkpt lat="48.68236" lon="1.92874">
        <ele>147.22</ele>
        <time>2009-12-06T03:49:32.000Z</time>
      </trkpt>
      <trkpt lat="48.68238" lon="1.92863">
        <ele>146.74</ele>
        <time>2009-12-06T03:49:36.000Z</time>
      </trkpt>
      <trkpt lat="48.68244" lon="1.92853">
        <ele>147.7</ele>
        <time>2009-12-06T03:49:41.000Z</time>
      </trkpt>
      <trkpt lat="48.68245" lon="1.92849">
        <ele>151.54</ele>
        <time>2009-12-06T03:49:47.000Z</time>
      </trkpt>
      <trkpt lat="48.68251" lon="1.92838">
        <ele>149.62</ele>
        <time>2009-12-06T03:49:52.000Z</time>
      </trkpt>
      <trkpt lat="48.68258" lon="1.92828">
        <ele>154.91</ele>
        <time>2009-12-06T03:49:57.000Z</time>
      </trkpt>
      <trkpt lat="48.6826" lon="1.92816">
        <ele>154.43</ele>
        <time>2009-12-06T03:50:03.000Z</time>
      </trkpt>
      <trkpt lat="48.68259" lon="1.92808">
        <ele>153.47</ele>
        <time>2009-12-06T03:50:09.000Z</time>
      </trkpt>
      <trkpt lat="48.68258" lon="1.928">
        <ele>150.1</ele>
        <time>2009-12-06T03:50:18.000Z</time>
      </trkpt>
      <trkpt lat="48.68257" lon="1.9279">
        <ele>150.58</ele>
        <time>2009-12-06T03:50:27.000Z</time>
      </trkpt>
      <trkpt lat="48.68256" lon="1.92785">
        <ele>149.14</ele>
        <time>2009-12-06T03:50:34.000Z</time>
      </trkpt>
      <trkpt lat="48.68254" lon="1.92775">
        <ele>153.47</ele>
        <time>2009-12-06T03:50:42.000Z</time>
      </trkpt>
      <trkpt lat="48.68254" lon="1.92771">
        <ele>151.54</ele>
        <time>2009-12-06T03:50:48.000Z</time>
      </trkpt>
      <trkpt lat="48.68254" lon="1.92766">
        <ele>151.54</ele>
        <time>2009-12-06T03:50:54.000Z</time>
      </trkpt>
      <trkpt lat="48.68256" lon="1.92765">
        <ele>151.06</ele>
        <time>2009-12-06T03:50:59.000Z</time>
      </trkpt>
      <trkpt lat="48.68257" lon="1.92757">
        <ele>149.62</ele>
        <time>2009-12-06T03:51:05.000Z</time>
      </trkpt>
      <trkpt lat="48.68254" lon="1.92754">
        <ele>149.62</ele>
        <time>2009-12-06T03:51:09.000Z</time>
      </trkpt>
      <trkpt lat="48.68251" lon="1.92749">
        <ele>148.66</ele>
        <time>2009-12-06T03:51:14.000Z</time>
      </trkpt>
      <trkpt lat="48.68251" lon="1.92744">
        <ele>147.22</ele>
        <time>2009-12-06T03:51:19.000Z</time>
      </trkpt>
      <trkpt lat="48.68249" lon="1.92736">
        <ele>148.18</ele>
        <time>2009-12-06T03:51:24.000Z</time>
      </trkpt>
      <trkpt lat="48.68243" lon="1.9273">
        <ele>148.66</ele>
        <time>2009-12-06T03:51:28.000Z</time>
      </trkpt>
      <trkpt lat="48.68241" lon="1.92727">
        <ele>149.14</ele>
        <time>2009-12-06T03:51:31.000Z</time>
      </trkpt>
      <trkpt lat="48.68236" lon="1.92713">
        <ele>149.14</ele>
        <time>2009-12-06T03:51:39.000Z</time>
      </trkpt>
      <trkpt lat="48.68234" lon="1.92701">
        <ele>147.7</ele>
        <time>2009-12-06T03:51:44.000Z</time>
      </trkpt>
      <trkpt lat="48.68234" lon="1.92699">
        <ele>147.22</ele>
        <time>2009-12-06T03:51:45.000Z</time>
      </trkpt>
      <trkpt lat="48.68233" lon="1.92696">
        <ele>146.26</ele>
        <time>2009-12-06T03:51:47.000Z</time>
      </trkpt>
      <trkpt lat="48.68232" lon="1.92678">
        <ele>153.47</ele>
        <time>2009-12-06T03:51:53.000Z</time>
      </trkpt>
      <trkpt lat="48.68232" lon="1.92676">
        <ele>153.47</ele>
        <time>2009-12-06T03:51:54.000Z</time>
      </trkpt>
      <trkpt lat="48.68229" lon="1.92666">
        <ele>154.43</ele>
        <time>2009-12-06T03:51:59.000Z</time>
      </trkpt>
      <trkpt lat="48.68228" lon="1.92665">
        <ele>153.95</ele>
        <time>2009-12-06T03:52:00.000Z</time>
      </trkpt>
      <trkpt lat="48.68226" lon="1.92656">
        <ele>157.31</ele>
        <time>2009-12-06T03:52:04.000Z</time>
      </trkpt>
      <trkpt lat="48.68225" lon="1.92648">
        <ele>156.35</ele>
        <time>2009-12-06T03:52:10.000Z</time>
      </trkpt>
      <trkpt lat="48.68225" lon="1.92645">
        <ele>155.87</ele>
        <time>2009-12-06T03:52:12.000Z</time>
      </trkpt>
      <trkpt lat="48.68221" lon="1.92637">
        <ele>156.35</ele>
        <time>2009-12-06T03:52:17.000Z</time>
      </trkpt>
      <trkpt lat="48.68218" lon="1.92631">
        <ele>156.83</ele>
        <time>2009-12-06T03:52:21.000Z</time>
      </trkpt>
      <trkpt lat="48.68214" lon="1.92626">
        <ele>154.91</ele>
        <time>2009-12-06T03:52:26.000Z</time>
      </trkpt>
      <trkpt lat="48.68213" lon="1.92619">
        <ele>155.87</ele>
        <time>2009-12-06T03:52:30.000Z</time>
      </trkpt>
      <trkpt lat="48.68211" lon="1.92611">
        <ele>158.75</ele>
        <time>2009-12-06T03:52:36.000Z</time>
      </trkpt>
      <trkpt lat="48.68211" lon="1.92603">
        <ele>160.2</ele>
        <time>2009-12-06T03:52:42.000Z</time>
      </trkpt>
      <trkpt lat="48.68211" lon="1.92593">
        <ele>156.35</ele>
        <time>2009-12-06T03:52:49.000Z</time>
      </trkpt>
      <trkpt lat="48.68211" lon="1.92591">
        <ele>157.31</ele>
        <time>2009-12-06T03:52:51.000Z</time>
      </trkpt>
      <trkpt lat="48.68211" lon="1.9258">
        <ele>160.2</ele>
        <time>2009-12-06T03:52:59.000Z</time>
      </trkpt>
      <trkpt lat="48.68211" lon="1.92576">
        <ele>159.24</ele>
        <time>2009-12-06T03:53:02.000Z</time>
      </trkpt>
      <trkpt lat="48.68212" lon="1.92569">
        <ele>159.72</ele>
        <time>2009-12-06T03:53:06.000Z</time>
      </trkpt>
      <trkpt lat="48.6821" lon="1.92547">
        <ele>162.12</ele>
        <time>2009-12-06T03:53:13.000Z</time>
      </trkpt>
      <trkpt lat="48.6821" lon="1.92543">
        <ele>161.64</ele>
        <time>2009-12-06T03:53:15.000Z</time>
      </trkpt>
      <trkpt lat="48.68204" lon="1.92534">
        <ele>161.16</ele>
        <time>2009-12-06T03:53:22.000Z</time>
      </trkpt>
      <trkpt lat="48.68202" lon="1.92526">
        <ele>160.2</ele>
        <time>2009-12-06T03:53:26.000Z</time>
      </trkpt>
      <trkpt lat="48.68199" lon="1.92518">
        <ele>159.24</ele>
        <time>2009-12-06T03:53:31.000Z</time>
      </trkpt>
      <trkpt lat="48.68196" lon="1.92512">
        <ele>158.27</ele>
        <time>2009-12-06T03:53:36.000Z</time>
      </trkpt>
      <trkpt lat="48.68195" lon="1.9251">
        <ele>156.83</ele>
        <time>2009-12-06T03:53:38.000Z</time>
      </trkpt>
      <trkpt lat="48.68193" lon="1.92505">
        <ele>154.91</ele>
        <time>2009-12-06T03:53:45.000Z</time>
      </trkpt>
      <trkpt lat="48.68196" lon="1.925">
        <ele>153.47</ele>
        <time>2009-12-06T03:53:49.000Z</time>
      </trkpt>
      <trkpt lat="48.68201" lon="1.92493">
        <ele>152.99</ele>
        <time>2009-12-06T03:53:53.000Z</time>
      </trkpt>
      <trkpt lat="48.68203" lon="1.92486">
        <ele>152.51</ele>
        <time>2009-12-06T03:53:56.000Z</time>
      </trkpt>
      <trkpt lat="48.68206" lon="1.9248">
        <ele>150.1</ele>
        <time>2009-12-06T03:54:00.000Z</time>
      </trkpt>
      <trkpt lat="48.68209" lon="1.9248">
        <ele>149.14</ele>
        <time>2009-12-06T03:54:03.000Z</time>
      </trkpt>
      <trkpt lat="48.68219" lon="1.9248">
        <ele>151.06</ele>
        <time>2009-12-06T03:54:09.000Z</time>
      </trkpt>
      <trkpt lat="48.68221" lon="1.9248">
        <ele>151.54</ele>
        <time>2009-12-06T03:54:10.000Z</time>
      </trkpt>
      <trkpt lat="48.68229" lon="1.92483">
        <ele>149.14</ele>
        <time>2009-12-06T03:54:15.000Z</time>
      </trkpt>
      <trkpt lat="48.6823" lon="1.92484">
        <ele>149.14</ele>
        <time>2009-12-06T03:54:21.000Z</time>
      </trkpt>
      <trkpt lat="48.68233" lon="1.92484">
        <ele>148.18</ele>
        <time>2009-12-06T03:54:24.000Z</time>
      </trkpt>
      <trkpt lat="48.6824" lon="1.92475">
        <ele>146.74</ele>
        <time>2009-12-06T03:54:30.000Z</time>
      </trkpt>
      <trkpt lat="48.6824" lon="1.92472">
        <ele>146.74</ele>
        <time>2009-12-06T03:54:31.000Z</time>
      </trkpt>
      <trkpt lat="48.68242" lon="1.92458">
        <ele>145.78</ele>
        <time>2009-12-06T03:54:37.000Z</time>
      </trkpt>
      <trkpt lat="48.68248" lon="1.92446">
        <ele>146.74</ele>
        <time>2009-12-06T03:54:43.000Z</time>
      </trkpt>
      <trkpt lat="48.68254" lon="1.92439">
        <ele>146.74</ele>
        <time>2009-12-06T03:54:47.000Z</time>
      </trkpt>
      <trkpt lat="48.68258" lon="1.92435">
        <ele>148.18</ele>
        <time>2009-12-06T03:54:51.000Z</time>
      </trkpt>
      <trkpt lat="48.68264" lon="1.92434">
        <ele>148.18</ele>
        <time>2009-12-06T03:54:57.000Z</time>
      </trkpt>
      <trkpt lat="48.68267" lon="1.92433">
        <ele>148.66</ele>
        <time>2009-12-06T03:54:59.000Z</time>
      </trkpt>
      <trkpt lat="48.68272" lon="1.92433">
        <ele>149.14</ele>
        <time>2009-12-06T03:55:06.000Z</time>
      </trkpt>
      <trkpt lat="48.68276" lon="1.92428">
        <ele>152.51</ele>
        <time>2009-12-06T03:55:12.000Z</time>
      </trkpt>
      <trkpt lat="48.68282" lon="1.92429">
        <ele>151.54</ele>
        <time>2009-12-06T03:55:18.000Z</time>
      </trkpt>
      <trkpt lat="48.68287" lon="1.92429">
        <ele>151.06</ele>
        <time>2009-12-06T03:55:24.000Z</time>
      </trkpt>
      <trkpt lat="48.68291" lon="1.92428">
        <ele>152.51</ele>
        <time>2009-12-06T03:55:30.000Z</time>
      </trkpt>
      <trkpt lat="48.68297" lon="1.92425">
        <ele>152.03</ele>
        <time>2009-12-06T03:55:38.000Z</time>
      </trkpt>
      <trkpt lat="48.68301" lon="1.92422">
        <ele>152.51</ele>
        <time>2009-12-06T03:55:43.000Z</time>
      </trkpt>
      <trkpt lat="48.68301" lon="1.92421">
        <ele>152.51</ele>
        <time>2009-12-06T03:55:44.000Z</time>
      </trkpt>
      <trkpt lat="48.68307" lon="1.92414">
        <ele>152.51</ele>
        <time>2009-12-06T03:55:50.000Z</time>
      </trkpt>
      <trkpt lat="48.68309" lon="1.92405">
        <ele>151.06</ele>
        <time>2009-12-06T03:55:55.000Z</time>
      </trkpt>
      <trkpt lat="48.68311" lon="1.9239">
        <ele>156.35</ele>
        <time>2009-12-06T03:56:04.000Z</time>
      </trkpt>
      <trkpt lat="48.68317" lon="1.9238">
        <ele>157.31</ele>
        <time>2009-12-06T03:56:09.000Z</time>
      </trkpt>
      <trkpt lat="48.68317" lon="1.92377">
        <ele>157.79</ele>
        <time>2009-12-06T03:56:11.000Z</time>
      </trkpt>
      <trkpt lat="48.68321" lon="1.92369">
        <ele>158.75</ele>
        <time>2009-12-06T03:56:16.000Z</time>
      </trkpt>
      <trkpt lat="48.68328" lon="1.92358">
        <ele>159.24</ele>
        <time>2009-12-06T03:56:21.000Z</time>
      </trkpt>
      <trkpt lat="48.68332" lon="1.92344">
        <ele>157.31</ele>
        <time>2009-12-06T03:56:27.000Z</time>
      </trkpt>
      <trkpt lat="48.68333" lon="1.92326">
        <ele>153.95</ele>
        <time>2009-12-06T03:56:34.000Z</time>
      </trkpt>
      <trkpt lat="48.68337" lon="1.92313">
        <ele>152.99</ele>
        <time>2009-12-06T03:56:38.000Z</time>
      </trkpt>
      <trkpt lat="48.68341" lon="1.92302">
        <ele>152.99</ele>
        <time>2009-12-06T03:56:42.000Z</time>
      </trkpt>
      <trkpt lat="48.6834" lon="1.92291">
        <ele>151.54</ele>
        <time>2009-12-06T03:56:47.000Z</time>
      </trkpt>
      <trkpt lat="48.68341" lon="1.92284">
        <ele>151.54</ele>
        <time>2009-12-06T03:56:50.000Z</time>
      </trkpt>
      <trkpt lat="48.68337" lon="1.92269">
        <ele>154.91</ele>
        <time>2009-12-06T03:56:56.000Z</time>
      </trkpt>
      <trkpt lat="48.68337" lon="1.92267">
        <ele>154.91</ele>
        <time>2009-12-06T03:56:57.000Z</time>
      </trkpt>
      <trkpt lat="48.68336" lon="1.92256">
        <ele>156.83</ele>
        <time>2009-12-06T03:57:02.000Z</time>
      </trkpt>
      <trkpt lat="48.68336" lon="1.92249">
        <ele>156.83</ele>
        <time>2009-12-06T03:57:05.000Z</time>
      </trkpt>
      <trkpt lat="48.68334" lon="1.92234">
        <ele>153.95</ele>
        <time>2009-12-06T03:57:11.000Z</time>
      </trkpt>
      <trkpt lat="48.68335" lon="1.92227">
        <ele>150.58</ele>
        <time>2009-12-06T03:57:15.000Z</time>
      </trkpt>
      <trkpt lat="48.68337" lon="1.92224">
        <ele>150.58</ele>
        <time>2009-12-06T03:57:19.000Z</time>
      </trkpt>
      <trkpt lat="48.68338" lon="1.92217">
        <ele>153.95</ele>
        <time>2009-12-06T03:57:28.000Z</time>
      </trkpt>
      <trkpt lat="48.68341" lon="1.92209">
        <ele>154.43</ele>
        <time>2009-12-06T03:57:38.000Z</time>
      </trkpt>
      <trkpt lat="48.68342" lon="1.92205">
        <ele>153.95</ele>
        <time>2009-12-06T03:57:43.000Z</time>
      </trkpt>
      <trkpt lat="48.68344" lon="1.92202">
        <ele>156.35</ele>
        <time>2009-12-06T03:57:48.000Z</time>
      </trkpt>
      <trkpt lat="48.68348" lon="1.92198">
        <ele>154.43</ele>
        <time>2009-12-06T03:57:56.000Z</time>
      </trkpt>
      <trkpt lat="48.68351" lon="1.92196">
        <ele>153.47</ele>
        <time>2009-12-06T03:58:03.000Z</time>
      </trkpt>
      <trkpt lat="48.68356" lon="1.92194">
        <ele>155.39</ele>
        <time>2009-12-06T03:58:11.000Z</time>
      </trkpt>
      <trkpt lat="48.68358" lon="1.92193">
        <ele>157.79</ele>
        <time>2009-12-06T03:58:15.000Z</time>
      </trkpt>
      <trkpt lat="48.68363" lon="1.92188">
        <ele>158.75</ele>
        <time>2009-12-06T03:58:21.000Z</time>
      </trkpt>
      <trkpt lat="48.68369" lon="1.92184">
        <ele>157.31</ele>
        <time>2009-12-06T03:58:26.000Z</time>
      </trkpt>
      <trkpt lat="48.68373" lon="1.92176">
        <ele>156.35</ele>
        <time>2009-12-06T03:58:30.000Z</time>
      </trkpt>
      <trkpt lat="48.68375" lon="1.92173">
        <ele>155.39</ele>
        <time>2009-12-06T03:58:32.000Z</time>
      </trkpt>
      <trkpt lat="48.68387" lon="1.92174">
        <ele>153.95</ele>
        <time>2009-12-06T03:58:39.000Z</time>
      </trkpt>
      <trkpt lat="48.68389" lon="1.92172">
        <ele>152.51</ele>
        <time>2009-12-06T03:58:41.000Z</time>
      </trkpt>
      <trkpt lat="48.68396" lon="1.92171">
        <ele>152.99</ele>
        <time>2009-12-06T03:58:46.000Z</time>
      </trkpt>
      <trkpt lat="48.68397" lon="1.92173">
        <ele>152.51</ele>
        <time>2009-12-06T03:58:48.000Z</time>
      </trkpt>
      <trkpt lat="48.68403" lon="1.92175">
        <ele>149.62</ele>
        <time>2009-12-06T03:58:52.000Z</time>
      </trkpt>
      <trkpt lat="48.68409" lon="1.92174">
        <ele>147.22</ele>
        <time>2009-12-06T03:58:57.000Z</time>
      </trkpt>
      <trkpt lat="48.68414" lon="1.92163">
        <ele>145.78</ele>
        <time>2009-12-06T03:59:02.000Z</time>
      </trkpt>
      <trkpt lat="48.68416" lon="1.92154">
        <ele>145.3</ele>
        <time>2009-12-06T03:59:06.000Z</time>
      </trkpt>
      <trkpt lat="48.68418" lon="1.92147">
        <ele>143.85</ele>
        <time>2009-12-06T03:59:11.000Z</time>
      </trkpt>
      <trkpt lat="48.68427" lon="1.92148">
        <ele>143.37</ele>
        <time>2009-12-06T03:59:16.000Z</time>
      </trkpt>
      <trkpt lat="48.68432" lon="1.9214">
        <ele>141.45</ele>
        <time>2009-12-06T03:59:21.000Z</time>
      </trkpt>
      <trkpt lat="48.68433" lon="1.92138">
        <ele>139.53</ele>
        <time>2009-12-06T03:59:23.000Z</time>
      </trkpt>
      <trkpt lat="48.68438" lon="1.92133">
        <ele>134.24</ele>
        <time>2009-12-06T03:59:28.000Z</time>
      </trkpt>
      <trkpt lat="48.68441" lon="1.92125">
        <ele>129.92</ele>
        <time>2009-12-06T03:59:32.000Z</time>
      </trkpt>
      <trkpt lat="48.68445" lon="1.92121">
        <ele>130.4</ele>
        <time>2009-12-06T03:59:34.000Z</time>
      </trkpt>
      <trkpt lat="48.68455" lon="1.92111">
        <ele>130.4</ele>
        <time>2009-12-06T03:59:40.000Z</time>
      </trkpt>
      <trkpt lat="48.68465" lon="1.92103">
        <ele>130.88</ele>
        <time>2009-12-06T03:59:47.000Z</time>
      </trkpt>
      <trkpt lat="48.68471" lon="1.92101">
        <ele>129.92</ele>
        <time>2009-12-06T03:59:52.000Z</time>
      </trkpt>
      <trkpt lat="48.6848" lon="1.92094">
        <ele>129.43</ele>
        <time>2009-12-06T03:59:58.000Z</time>
      </trkpt>
      <trkpt lat="48.68485" lon="1.92093">
        <ele>128.95</ele>
        <time>2009-12-06T04:00:02.000Z</time>
      </trkpt>
      <trkpt lat="48.68494" lon="1.92088">
        <ele>130.4</ele>
        <time>2009-12-06T04:00:07.000Z</time>
      </trkpt>
      <trkpt lat="48.68497" lon="1.92084">
        <ele>132.32</ele>
        <time>2009-12-06T04:00:11.000Z</time>
      </trkpt>
      <trkpt lat="48.68506" lon="1.92082">
        <ele>137.13</ele>
        <time>2009-12-06T04:00:14.000Z</time>
      </trkpt>
      <trkpt lat="48.68511" lon="1.92074">
        <ele>138.09</ele>
        <time>2009-12-06T04:00:22.000Z</time>
      </trkpt>
      <trkpt lat="48.68514" lon="1.9207">
        <ele>137.61</ele>
        <time>2009-12-06T04:00:27.000Z</time>
      </trkpt>
      <trkpt lat="48.68517" lon="1.92063">
        <ele>137.61</ele>
        <time>2009-12-06T04:00:33.000Z</time>
      </trkpt>
      <trkpt lat="48.68525" lon="1.92053">
        <ele>140.49</ele>
        <time>2009-12-06T04:00:37.000Z</time>
      </trkpt>
      <trkpt lat="48.6853" lon="1.92042">
        <ele>141.93</ele>
        <time>2009-12-06T04:00:41.000Z</time>
      </trkpt>
      <trkpt lat="48.68534" lon="1.92033">
        <ele>144.34</ele>
        <time>2009-12-06T04:00:45.000Z</time>
      </trkpt>
      <trkpt lat="48.68533" lon="1.92026">
        <ele>144.34</ele>
        <time>2009-12-06T04:00:51.000Z</time>
      </trkpt>
      <trkpt lat="48.68533" lon="1.92011">
        <ele>141.45</ele>
        <time>2009-12-06T04:00:59.000Z</time>
      </trkpt>
      <trkpt lat="48.68535" lon="1.92001">
        <ele>140.97</ele>
        <time>2009-12-06T04:01:05.000Z</time>
      </trkpt>
      <trkpt lat="48.68535" lon="1.91993">
        <ele>140.97</ele>
        <time>2009-12-06T04:01:09.000Z</time>
      </trkpt>
      <trkpt lat="48.68532" lon="1.91983">
        <ele>145.3</ele>
        <time>2009-12-06T04:01:14.000Z</time>
      </trkpt>
      <trkpt lat="48.68527" lon="1.91975">
        <ele>145.78</ele>
        <time>2009-12-06T04:01:20.000Z</time>
      </trkpt>
      <trkpt lat="48.68522" lon="1.91968">
        <ele>143.85</ele>
        <time>2009-12-06T04:01:26.000Z</time>
      </trkpt>
      <trkpt lat="48.68518" lon="1.91961">
        <ele>147.22</ele>
        <time>2009-12-06T04:01:31.000Z</time>
      </trkpt>
      <trkpt lat="48.68517" lon="1.91959">
        <ele>148.18</ele>
        <time>2009-12-06T04:01:32.000Z</time>
      </trkpt>
      <trkpt lat="48.68515" lon="1.91957">
        <ele>149.14</ele>
        <time>2009-12-06T04:01:34.000Z</time>
      </trkpt>
      <trkpt lat="48.68512" lon="1.91953">
        <ele>144.34</ele>
        <time>2009-12-06T04:01:39.000Z</time>
      </trkpt>
      <trkpt lat="48.68511" lon="1.91944">
        <ele>146.26</ele>
        <time>2009-12-06T04:01:46.000Z</time>
      </trkpt>
      <trkpt lat="48.68512" lon="1.91942">
        <ele>149.14</ele>
        <time>2009-12-06T04:01:50.000Z</time>
      </trkpt>
      <trkpt lat="48.68512" lon="1.91941">
        <ele>148.66</ele>
        <time>2009-12-06T04:01:51.000Z</time>
      </trkpt>
      <trkpt lat="48.68508" lon="1.91928">
        <ele>147.7</ele>
        <time>2009-12-06T04:01:57.000Z</time>
      </trkpt>
      <trkpt lat="48.68507" lon="1.91916">
        <ele>148.66</ele>
        <time>2009-12-06T04:02:03.000Z</time>
      </trkpt>
      <trkpt lat="48.68504" lon="1.919">
        <ele>149.62</ele>
        <time>2009-12-06T04:02:13.000Z</time>
      </trkpt>
      <trkpt lat="48.68502" lon="1.91891">
        <ele>150.58</ele>
        <time>2009-12-06T04:02:20.000Z</time>
      </trkpt>
      <trkpt lat="48.68503" lon="1.91886">
        <ele>148.18</ele>
        <time>2009-12-06T04:02:25.000Z</time>
      </trkpt>
      <trkpt lat="48.68502" lon="1.91881">
        <ele>147.22</ele>
        <time>2009-12-06T04:02:30.000Z</time>
      </trkpt>
      <trkpt lat="48.68502" lon="1.91875">
        <ele>144.82</ele>
        <time>2009-12-06T04:02:36.000Z</time>
      </trkpt>
      <trkpt lat="48.68503" lon="1.9187">
        <ele>146.74</ele>
        <time>2009-12-06T04:02:40.000Z</time>
      </trkpt>
      <trkpt lat="48.68504" lon="1.91866">
        <ele>151.06</ele>
        <time>2009-12-06T04:02:46.000Z</time>
      </trkpt>
      <trkpt lat="48.68506" lon="1.91864">
        <ele>150.58</ele>
        <time>2009-12-06T04:02:51.000Z</time>
      </trkpt>
      <trkpt lat="48.68509" lon="1.91862">
        <ele>150.58</ele>
        <time>2009-12-06T04:02:56.000Z</time>
      </trkpt>
      <trkpt lat="48.68512" lon="1.91858">
        <ele>150.1</ele>
        <time>2009-12-06T04:03:02.000Z</time>
      </trkpt>
      <trkpt lat="48.68513" lon="1.91855">
        <ele>149.62</ele>
        <time>2009-12-06T04:03:07.000Z</time>
      </trkpt>
      <trkpt lat="48.68517" lon="1.91848">
        <ele>148.66</ele>
        <time>2009-12-06T04:03:15.000Z</time>
      </trkpt>
      <trkpt lat="48.68519" lon="1.91846">
        <ele>149.62</ele>
        <time>2009-12-06T04:03:18.000Z</time>
      </trkpt>
      <trkpt lat="48.68523" lon="1.9184">
        <ele>149.14</ele>
        <time>2009-12-06T04:03:22.000Z</time>
      </trkpt>
      <trkpt lat="48.68528" lon="1.91834">
        <ele>149.62</ele>
        <time>2009-12-06T04:03:30.000Z</time>
      </trkpt>
      <trkpt lat="48.68527" lon="1.91827">
        <ele>152.99</ele>
        <time>2009-12-06T04:03:34.000Z</time>
      </trkpt>
      <trkpt lat="48.68529" lon="1.9182">
        <ele>152.51</ele>
        <time>2009-12-06T04:03:40.000Z</time>
      </trkpt>
      <trkpt lat="48.6853" lon="1.91814">
        <ele>153.47</ele>
        <time>2009-12-06T04:03:43.000Z</time>
      </trkpt>
      <trkpt lat="48.68531" lon="1.91802">
        <ele>157.31</ele>
        <time>2009-12-06T04:03:49.000Z</time>
      </trkpt>
      <trkpt lat="48.68531" lon="1.91798">
        <ele>158.75</ele>
        <time>2009-12-06T04:03:51.000Z</time>
      </trkpt>
      <trkpt lat="48.6853" lon="1.91785">
        <ele>157.31</ele>
        <time>2009-12-06T04:03:59.000Z</time>
      </trkpt>
      <trkpt lat="48.68529" lon="1.91778">
        <ele>157.31</ele>
        <time>2009-12-06T04:04:03.000Z</time>
      </trkpt>
      <trkpt lat="48.6853" lon="1.91772">
        <ele>157.31</ele>
        <time>2009-12-06T04:04:07.000Z</time>
      </trkpt>
      <trkpt lat="48.6853" lon="1.91764">
        <ele>157.31</ele>
        <time>2009-12-06T04:04:12.000Z</time>
      </trkpt>
      <trkpt lat="48.68527" lon="1.91755">
        <ele>161.16</ele>
        <time>2009-12-06T04:04:17.000Z</time>
      </trkpt>
      <trkpt lat="48.68525" lon="1.91749">
        <ele>161.16</ele>
        <time>2009-12-06T04:04:24.000Z</time>
      </trkpt>
      <trkpt lat="48.68525" lon="1.91754">
        <ele>160.68</ele>
        <time>2009-12-06T04:04:30.000Z</time>
      </trkpt>
      <trkpt lat="48.68524" lon="1.91756">
        <ele>163.56</ele>
        <time>2009-12-06T04:04:35.000Z</time>
      </trkpt>
      <trkpt lat="48.68521" lon="1.91754">
        <ele>165.48</ele>
        <time>2009-12-06T04:04:40.000Z</time>
      </trkpt>
      <trkpt lat="48.68519" lon="1.91748">
        <ele>165.96</ele>
        <time>2009-12-06T04:04:45.000Z</time>
      </trkpt>
      <trkpt lat="48.68515" lon="1.9174">
        <ele>165.96</ele>
        <time>2009-12-06T04:04:51.000Z</time>
      </trkpt>
      <trkpt lat="48.68514" lon="1.91738">
        <ele>166.45</ele>
        <time>2009-12-06T04:04:55.000Z</time>
      </trkpt>
      <trkpt lat="48.68516" lon="1.91732">
        <ele>168.37</ele>
        <time>2009-12-06T04:05:00.000Z</time>
      </trkpt>
      <trkpt lat="48.68519" lon="1.91729">
        <ele>167.41</ele>
        <time>2009-12-06T04:05:05.000Z</time>
      </trkpt>
      <trkpt lat="48.68524" lon="1.91727">
        <ele>166.45</ele>
        <time>2009-12-06T04:05:10.000Z</time>
      </trkpt>
      <trkpt lat="48.68533" lon="1.91719">
        <ele>163.08</ele>
        <time>2009-12-06T04:05:15.000Z</time>
      </trkpt>
      <trkpt lat="48.68539" lon="1.91712">
        <ele>162.6</ele>
        <time>2009-12-06T04:05:19.000Z</time>
      </trkpt>
      <trkpt lat="48.68542" lon="1.91698">
        <ele>161.64</ele>
        <time>2009-12-06T04:05:24.000Z</time>
      </trkpt>
      <trkpt lat="48.68544" lon="1.91682">
        <ele>162.12</ele>
        <time>2009-12-06T04:05:29.000Z</time>
      </trkpt>
      <trkpt lat="48.68544" lon="1.91671">
        <ele>161.64</ele>
        <time>2009-12-06T04:05:33.000Z</time>
      </trkpt>
      <trkpt lat="48.68541" lon="1.91655">
        <ele>161.16</ele>
        <time>2009-12-06T04:05:38.000Z</time>
      </trkpt>
      <trkpt lat="48.68536" lon="1.9164">
        <ele>159.24</ele>
        <time>2009-12-06T04:05:44.000Z</time>
      </trkpt>
      <trkpt lat="48.68534" lon="1.91633">
        <ele>161.16</ele>
        <time>2009-12-06T04:05:46.000Z</time>
      </trkpt>
      <trkpt lat="48.68533" lon="1.91624">
        <ele>162.12</ele>
        <time>2009-12-06T04:05:49.000Z</time>
      </trkpt>
      <trkpt lat="48.6853" lon="1.91613">
        <ele>161.64</ele>
        <time>2009-12-06T04:05:53.000Z</time>
      </trkpt>
      <trkpt lat="48.68524" lon="1.91597">
        <ele>159.72</ele>
        <time>2009-12-06T04:05:59.000Z</time>
      </trkpt>
      <trkpt lat="48.6852" lon="1.91586">
        <ele>159.72</ele>
        <time>2009-12-06T04:06:03.000Z</time>
      </trkpt>
      <trkpt lat="48.68518" lon="1.91571">
        <ele>158.27</ele>
        <time>2009-12-06T04:06:09.000Z</time>
      </trkpt>
      <trkpt lat="48.68515" lon="1.91561">
        <ele>156.83</ele>
        <time>2009-12-06T04:06:13.000Z</time>
      </trkpt>
      <trkpt lat="48.68513" lon="1.91545">
        <ele>157.31</ele>
        <time>2009-12-06T04:06:20.000Z</time>
      </trkpt>
      <trkpt lat="48.68513" lon="1.91542">
        <ele>156.83</ele>
        <time>2009-12-06T04:06:21.000Z</time>
      </trkpt>
      <trkpt lat="48.68514" lon="1.91537">
        <ele>158.27</ele>
        <time>2009-12-06T04:06:24.000Z</time>
      </trkpt>
      <trkpt lat="48.68515" lon="1.91538">
        <ele>157.31</ele>
        <time>2009-12-06T04:06:26.000Z</time>
      </trkpt>
      <trkpt lat="48.68521" lon="1.91528">
        <ele>157.79</ele>
        <time>2009-12-06T04:06:32.000Z</time>
      </trkpt>
      <trkpt lat="48.68521" lon="1.91526">
        <ele>157.31</ele>
        <time>2009-12-06T04:06:33.000Z</time>
      </trkpt>
      <trkpt lat="48.68524" lon="1.91508">
        <ele>156.35</ele>
        <time>2009-12-06T04:06:39.000Z</time>
      </trkpt>
      <trkpt lat="48.68524" lon="1.91501">
        <ele>155.87</ele>
        <time>2009-12-06T04:06:42.000Z</time>
      </trkpt>
      <trkpt lat="48.68526" lon="1.91493">
        <ele>155.87</ele>
        <time>2009-12-06T04:06:46.000Z</time>
      </trkpt>
      <trkpt lat="48.68529" lon="1.91482">
        <ele>155.87</ele>
        <time>2009-12-06T04:06:51.000Z</time>
      </trkpt>
      <trkpt lat="48.6853" lon="1.91479">
        <ele>155.87</ele>
        <time>2009-12-06T04:06:54.000Z</time>
      </trkpt>
      <trkpt lat="48.68531" lon="1.9147">
        <ele>155.39</ele>
        <time>2009-12-06T04:06:59.000Z</time>
      </trkpt>
      <trkpt lat="48.68532" lon="1.91459">
        <ele>153.47</ele>
        <time>2009-12-06T04:07:04.000Z</time>
      </trkpt>
      <trkpt lat="48.68535" lon="1.91443">
        <ele>156.35</ele>
        <time>2009-12-06T04:07:09.000Z</time>
      </trkpt>
      <trkpt lat="48.68538" lon="1.91428">
        <ele>159.24</ele>
        <time>2009-12-06T04:07:14.000Z</time>
      </trkpt>
      <trkpt lat="48.68539" lon="1.91412">
        <ele>159.72</ele>
        <time>2009-12-06T04:07:19.000Z</time>
      </trkpt>
      <trkpt lat="48.68539" lon="1.91408">
        <ele>159.24</ele>
        <time>2009-12-06T04:07:21.000Z</time>
      </trkpt>
      <trkpt lat="48.68541" lon="1.914">
        <ele>157.79</ele>
        <time>2009-12-06T04:07:24.000Z</time>
      </trkpt>
      <trkpt lat="48.68543" lon="1.9139">
        <ele>155.87</ele>
        <time>2009-12-06T04:07:29.000Z</time>
      </trkpt>
      <trkpt lat="48.68543" lon="1.91375">
        <ele>156.35</ele>
        <time>2009-12-06T04:07:34.000Z</time>
      </trkpt>
      <trkpt lat="48.68544" lon="1.91368">
        <ele>157.79</ele>
        <time>2009-12-06T04:07:37.000Z</time>
      </trkpt>
      <trkpt lat="48.68541" lon="1.91353">
        <ele>157.31</ele>
        <time>2009-12-06T04:07:42.000Z</time>
      </trkpt>
      <trkpt lat="48.68538" lon="1.91342">
        <ele>152.51</ele>
        <time>2009-12-06T04:07:48.000Z</time>
      </trkpt>
      <trkpt lat="48.68536" lon="1.91337">
        <ele>152.03</ele>
        <time>2009-12-06T04:07:50.000Z</time>
      </trkpt>
      <trkpt lat="48.68534" lon="1.91331">
        <ele>153.95</ele>
        <time>2009-12-06T04:07:52.000Z</time>
      </trkpt>
      <trkpt lat="48.68534" lon="1.91317">
        <ele>156.83</ele>
        <time>2009-12-06T04:07:57.000Z</time>
      </trkpt>
      <trkpt lat="48.68536" lon="1.9131">
        <ele>155.87</ele>
        <time>2009-12-06T04:08:00.000Z</time>
      </trkpt>
      <trkpt lat="48.6854" lon="1.91302">
        <ele>154.91</ele>
        <time>2009-12-06T04:08:04.000Z</time>
      </trkpt>
      <trkpt lat="48.68546" lon="1.91299">
        <ele>152.03</ele>
        <time>2009-12-06T04:08:09.000Z</time>
      </trkpt>
      <trkpt lat="48.6855" lon="1.9129">
        <ele>149.62</ele>
        <time>2009-12-06T04:08:16.000Z</time>
      </trkpt>
      <trkpt lat="48.68551" lon="1.91288">
        <ele>150.1</ele>
        <time>2009-12-06T04:08:19.000Z</time>
      </trkpt>
      <trkpt lat="48.68558" lon="1.91284">
        <ele>152.99</ele>
        <time>2009-12-06T04:08:26.000Z</time>
      </trkpt>
      <trkpt lat="48.68561" lon="1.91281">
        <ele>152.99</ele>
        <time>2009-12-06T04:08:31.000Z</time>
      </trkpt>
      <trkpt lat="48.68566" lon="1.91277">
        <ele>152.51</ele>
        <time>2009-12-06T04:08:37.000Z</time>
      </trkpt>
      <trkpt lat="48.68568" lon="1.91273">
        <ele>152.99</ele>
        <time>2009-12-06T04:08:40.000Z</time>
      </trkpt>
      <trkpt lat="48.68574" lon="1.91263">
        <ele>152.99</ele>
        <time>2009-12-06T04:08:47.000Z</time>
      </trkpt>
      <trkpt lat="48.68575" lon="1.91261">
        <ele>151.54</ele>
        <time>2009-12-06T04:08:49.000Z</time>
      </trkpt>
      <trkpt lat="48.68577" lon="1.91256">
        <ele>152.51</ele>
        <time>2009-12-06T04:08:52.000Z</time>
      </trkpt>
      <trkpt lat="48.68575" lon="1.91246">
        <ele>153.95</ele>
        <time>2009-12-06T04:08:56.000Z</time>
      </trkpt>
      <trkpt lat="48.68578" lon="1.91234">
        <ele>153.95</ele>
        <time>2009-12-06T04:09:01.000Z</time>
      </trkpt>
      <trkpt lat="48.68577" lon="1.91218">
        <ele>155.87</ele>
        <time>2009-12-06T04:09:06.000Z</time>
      </trkpt>
      <trkpt lat="48.68578" lon="1.91212">
        <ele>155.39</ele>
        <time>2009-12-06T04:09:08.000Z</time>
      </trkpt>
      <trkpt lat="48.68573" lon="1.91204">
        <ele>153.47</ele>
        <time>2009-12-06T04:09:16.000Z</time>
      </trkpt>
      <trkpt lat="48.68569" lon="1.91194">
        <ele>149.62</ele>
        <time>2009-12-06T04:09:21.000Z</time>
      </trkpt>
      <trkpt lat="48.68566" lon="1.91186">
        <ele>146.74</ele>
        <time>2009-12-06T04:09:26.000Z</time>
      </trkpt>
      <trkpt lat="48.68563" lon="1.91177">
        <ele>144.82</ele>
        <time>2009-12-06T04:09:31.000Z</time>
      </trkpt>
      <trkpt lat="48.68561" lon="1.91166">
        <ele>141.93</ele>
        <time>2009-12-06T04:09:36.000Z</time>
      </trkpt>
      <trkpt lat="48.68557" lon="1.91161">
        <ele>139.05</ele>
        <time>2009-12-06T04:09:41.000Z</time>
      </trkpt>
      <trkpt lat="48.68555" lon="1.91158">
        <ele>138.09</ele>
        <time>2009-12-06T04:09:44.000Z</time>
      </trkpt>
      <trkpt lat="48.68549" lon="1.91146">
        <ele>137.13</ele>
        <time>2009-12-06T04:09:49.000Z</time>
      </trkpt>
      <trkpt lat="48.68544" lon="1.91141">
        <ele>138.57</ele>
        <time>2009-12-06T04:09:55.000Z</time>
      </trkpt>
      <trkpt lat="48.68543" lon="1.91138">
        <ele>142.89</ele>
        <time>2009-12-06T04:10:12.000Z</time>
      </trkpt>
      <trkpt lat="48.68539" lon="1.91132">
        <ele>144.34</ele>
        <time>2009-12-06T04:10:23.000Z</time>
      </trkpt>
      <trkpt lat="48.68534" lon="1.91133">
        <ele>144.34</ele>
        <time>2009-12-06T04:10:30.000Z</time>
      </trkpt>
      <trkpt lat="48.68528" lon="1.91133">
        <ele>145.78</ele>
        <time>2009-12-06T04:10:36.000Z</time>
      </trkpt>
      <trkpt lat="48.68525" lon="1.91136">
        <ele>146.74</ele>
        <time>2009-12-06T04:10:39.000Z</time>
      </trkpt>
      <trkpt lat="48.68518" lon="1.91136">
        <ele>149.62</ele>
        <time>2009-12-06T04:10:46.000Z</time>
      </trkpt>
      <trkpt lat="48.68514" lon="1.91135">
        <ele>150.1</ele>
        <time>2009-12-06T04:10:50.000Z</time>
      </trkpt>
      <trkpt lat="48.68509" lon="1.91134">
        <ele>151.06</ele>
        <time>2009-12-06T04:10:53.000Z</time>
      </trkpt>
      <trkpt lat="48.68503" lon="1.91134">
        <ele>151.06</ele>
        <time>2009-12-06T04:10:58.000Z</time>
      </trkpt>
      <trkpt lat="48.68497" lon="1.91137">
        <ele>152.51</ele>
        <time>2009-12-06T04:11:04.000Z</time>
      </trkpt>
      <trkpt lat="48.68488" lon="1.91136">
        <ele>153.95</ele>
        <time>2009-12-06T04:11:10.000Z</time>
      </trkpt>
      <trkpt lat="48.68486" lon="1.91138">
        <ele>154.43</ele>
        <time>2009-12-06T04:11:12.000Z</time>
      </trkpt>
      <trkpt lat="48.68482" lon="1.91137">
        <ele>155.39</ele>
        <time>2009-12-06T04:11:17.000Z</time>
      </trkpt>
      <trkpt lat="48.68472" lon="1.91138">
        <ele>155.39</ele>
        <time>2009-12-06T04:11:24.000Z</time>
      </trkpt>
      <trkpt lat="48.68459" lon="1.91139">
        <ele>153.95</ele>
        <time>2009-12-06T04:11:31.000Z</time>
      </trkpt>
      <trkpt lat="48.68453" lon="1.91142">
        <ele>152.51</ele>
        <time>2009-12-06T04:11:35.000Z</time>
      </trkpt>
      <trkpt lat="48.68444" lon="1.9114">
        <ele>151.06</ele>
        <time>2009-12-06T04:11:41.000Z</time>
      </trkpt>
      <trkpt lat="48.68436" lon="1.91144">
        <ele>151.06</ele>
        <time>2009-12-06T04:11:48.000Z</time>
      </trkpt>
      <trkpt lat="48.68436" lon="1.91143">
        <ele>151.06</ele>
        <time>2009-12-06T04:11:49.000Z</time>
      </trkpt>
      <trkpt lat="48.68431" lon="1.91135">
        <ele>150.1</ele>
        <time>2009-12-06T04:11:55.000Z</time>
      </trkpt>
      <trkpt lat="48.68428" lon="1.9113">
        <ele>147.22</ele>
        <time>2009-12-06T04:12:01.000Z</time>
      </trkpt>
      <trkpt lat="48.68427" lon="1.91128">
        <ele>147.22</ele>
        <time>2009-12-06T04:12:02.000Z</time>
      </trkpt>
      <trkpt lat="48.68426" lon="1.91123">
        <ele>145.78</ele>
        <time>2009-12-06T04:12:05.000Z</time>
      </trkpt>
      <trkpt lat="48.68427" lon="1.91118">
        <ele>145.3</ele>
        <time>2009-12-06T04:12:07.000Z</time>
      </trkpt>
      <trkpt lat="48.68421" lon="1.91118">
        <ele>140.01</ele>
        <time>2009-12-06T04:12:11.000Z</time>
      </trkpt>
      <trkpt lat="48.68414" lon="1.91121">
        <ele>137.13</ele>
        <time>2009-12-06T04:12:16.000Z</time>
      </trkpt>
      <trkpt lat="48.68407" lon="1.91127">
        <ele>133.28</ele>
        <time>2009-12-06T04:12:22.000Z</time>
      </trkpt>
      <trkpt lat="48.68406" lon="1.91127">
        <ele>133.76</ele>
        <time>2009-12-06T04:12:23.000Z</time>
      </trkpt>
      <trkpt lat="48.68398" lon="1.9113">
        <ele>134.72</ele>
        <time>2009-12-06T04:12:27.000Z</time>
      </trkpt>
      <trkpt lat="48.6839" lon="1.9113">
        <ele>136.16</ele>
        <time>2009-12-06T04:12:31.000Z</time>
      </trkpt>
      <trkpt lat="48.68375" lon="1.91131">
        <ele>135.68</ele>
        <time>2009-12-06T04:12:39.000Z</time>
      </trkpt>
      <trkpt lat="48.68373" lon="1.91131">
        <ele>135.68</ele>
        <time>2009-12-06T04:12:40.000Z</time>
      </trkpt>
      <trkpt lat="48.68368" lon="1.91131">
        <ele>135.68</ele>
        <time>2009-12-06T04:12:43.000Z</time>
      </trkpt>
      <trkpt lat="48.68356" lon="1.91132">
        <ele>136.64</ele>
        <time>2009-12-06T04:12:49.000Z</time>
      </trkpt>
      <trkpt lat="48.68343" lon="1.91133">
        <ele>139.53</ele>
        <time>2009-12-06T04:12:55.000Z</time>
      </trkpt>
      <trkpt lat="48.6834" lon="1.91132">
        <ele>141.45</ele>
        <time>2009-12-06T04:12:57.000Z</time>
      </trkpt>
      <trkpt lat="48.68331" lon="1.91131">
        <ele>142.41</ele>
        <time>2009-12-06T04:13:04.000Z</time>
      </trkpt>
      <trkpt lat="48.68322" lon="1.91127">
        <ele>145.78</ele>
        <time>2009-12-06T04:13:10.000Z</time>
      </trkpt>
      <trkpt lat="48.68312" lon="1.9112">
        <ele>148.18</ele>
        <time>2009-12-06T04:13:15.000Z</time>
      </trkpt>
      <trkpt lat="48.68311" lon="1.91119">
        <ele>148.66</ele>
        <time>2009-12-06T04:13:16.000Z</time>
      </trkpt>
      <trkpt lat="48.68306" lon="1.91115">
        <ele>148.18</ele>
        <time>2009-12-06T04:13:20.000Z</time>
      </trkpt>
      <trkpt lat="48.683" lon="1.91107">
        <ele>149.14</ele>
        <time>2009-12-06T04:13:26.000Z</time>
      </trkpt>
      <trkpt lat="48.68295" lon="1.911">
        <ele>148.66</ele>
        <time>2009-12-06T04:13:31.000Z</time>
      </trkpt>
      <trkpt lat="48.68295" lon="1.911">
        <ele>148.66</ele>
        <time>2009-12-06T04:13:32.000Z</time>
      </trkpt>
      <trkpt lat="48.68293" lon="1.91098">
        <ele>148.18</ele>
        <time>2009-12-06T04:13:34.000Z</time>
      </trkpt>
      <trkpt lat="48.68288" lon="1.91094">
        <ele>147.7</ele>
        <time>2009-12-06T04:13:40.000Z</time>
      </trkpt>
      <trkpt lat="48.68284" lon="1.91086">
        <ele>149.14</ele>
        <time>2009-12-06T04:13:44.000Z</time>
      </trkpt>
      <trkpt lat="48.68281" lon="1.91082">
        <ele>147.7</ele>
        <time>2009-12-06T04:13:48.000Z</time>
      </trkpt>
      <trkpt lat="48.68279" lon="1.91074">
        <ele>148.18</ele>
        <time>2009-12-06T04:13:53.000Z</time>
      </trkpt>
      <trkpt lat="48.68277" lon="1.9107">
        <ele>146.74</ele>
        <time>2009-12-06T04:13:56.000Z</time>
      </trkpt>
      <trkpt lat="48.68275" lon="1.91065">
        <ele>145.78</ele>
        <time>2009-12-06T04:14:01.000Z</time>
      </trkpt>
      <trkpt lat="48.68274" lon="1.91058">
        <ele>145.78</ele>
        <time>2009-12-06T04:14:05.000Z</time>
      </trkpt>
      <trkpt lat="48.68279" lon="1.9105">
        <ele>146.74</ele>
        <time>2009-12-06T04:14:11.000Z</time>
      </trkpt>
      <trkpt lat="48.68284" lon="1.91045">
        <ele>150.1</ele>
        <time>2009-12-06T04:14:17.000Z</time>
      </trkpt>
      <trkpt lat="48.68284" lon="1.91034">
        <ele>148.66</ele>
        <time>2009-12-06T04:14:25.000Z</time>
      </trkpt>
      <trkpt lat="48.68286" lon="1.91031">
        <ele>149.14</ele>
        <time>2009-12-06T04:14:32.000Z</time>
      </trkpt>
      <trkpt lat="48.6829" lon="1.91021">
        <ele>143.37</ele>
        <time>2009-12-06T04:14:42.000Z</time>
      </trkpt>
      <trkpt lat="48.68291" lon="1.91015">
        <ele>145.78</ele>
        <time>2009-12-06T04:14:49.000Z</time>
      </trkpt>
      <trkpt lat="48.68296" lon="1.91005">
        <ele>148.18</ele>
        <time>2009-12-06T04:14:58.000Z</time>
      </trkpt>
      <trkpt lat="48.68297" lon="1.90998">
        <ele>149.62</ele>
        <time>2009-12-06T04:15:05.000Z</time>
      </trkpt>
      <trkpt lat="48.683" lon="1.90994">
        <ele>152.03</ele>
        <time>2009-12-06T04:15:12.000Z</time>
      </trkpt>
      <trkpt lat="48.68302" lon="1.90986">
        <ele>156.35</ele>
        <time>2009-12-06T04:15:20.000Z</time>
      </trkpt>
      <trkpt lat="48.68304" lon="1.90978">
        <ele>160.2</ele>
        <time>2009-12-06T04:15:27.000Z</time>
      </trkpt>
      <trkpt lat="48.68307" lon="1.90969">
        <ele>160.68</ele>
        <time>2009-12-06T04:15:35.000Z</time>
      </trkpt>
      <trkpt lat="48.6831" lon="1.90963">
        <ele>161.16</ele>
        <time>2009-12-06T04:15:40.000Z</time>
      </trkpt>
      <trkpt lat="48.68314" lon="1.90962">
        <ele>161.64</ele>
        <time>2009-12-06T04:15:45.000Z</time>
      </trkpt>
      <trkpt lat="48.6832" lon="1.90962">
        <ele>159.72</ele>
        <time>2009-12-06T04:15:52.000Z</time>
      </trkpt>
      <trkpt lat="48.68326" lon="1.9096">
        <ele>157.79</ele>
        <time>2009-12-06T04:15:57.000Z</time>
      </trkpt>
      <trkpt lat="48.68333" lon="1.90954">
        <ele>157.79</ele>
        <time>2009-12-06T04:16:02.000Z</time>
      </trkpt>
      <trkpt lat="48.68343" lon="1.90947">
        <ele>156.35</ele>
        <time>2009-12-06T04:16:08.000Z</time>
      </trkpt>
      <trkpt lat="48.68353" lon="1.90927">
        <ele>156.83</ele>
        <time>2009-12-06T04:16:16.000Z</time>
      </trkpt>
      <trkpt lat="48.68358" lon="1.90921">
        <ele>156.35</ele>
        <time>2009-12-06T04:16:19.000Z</time>
      </trkpt>
      <trkpt lat="48.68361" lon="1.90914">
        <ele>158.27</ele>
        <time>2009-12-06T04:16:22.000Z</time>
      </trkpt>
      <trkpt lat="48.68364" lon="1.90905">
        <ele>160.2</ele>
        <time>2009-12-06T04:16:26.000Z</time>
      </trkpt>
      <trkpt lat="48.68373" lon="1.90886">
        <ele>160.68</ele>
        <time>2009-12-06T04:16:34.000Z</time>
      </trkpt>
      <trkpt lat="48.68379" lon="1.90877">
        <ele>163.56</ele>
        <time>2009-12-06T04:16:38.000Z</time>
      </trkpt>
      <trkpt lat="48.68386" lon="1.90866">
        <ele>161.16</ele>
        <time>2009-12-06T04:16:44.000Z</time>
      </trkpt>
      <trkpt lat="48.68396" lon="1.90857">
        <ele>157.79</ele>
        <time>2009-12-06T04:16:49.000Z</time>
      </trkpt>
      <trkpt lat="48.68406" lon="1.90846">
        <ele>155.39</ele>
        <time>2009-12-06T04:16:55.000Z</time>
      </trkpt>
      <trkpt lat="48.68414" lon="1.90836">
        <ele>157.31</ele>
        <time>2009-12-06T04:17:00.000Z</time>
      </trkpt>
      <trkpt lat="48.68415" lon="1.90834">
        <ele>156.35</ele>
        <time>2009-12-06T04:17:01.000Z</time>
      </trkpt>
      <trkpt lat="48.68425" lon="1.90828">
        <ele>160.2</ele>
        <time>2009-12-06T04:17:06.000Z</time>
      </trkpt>
      <trkpt lat="48.6843" lon="1.90814">
        <ele>156.35</ele>
        <time>2009-12-06T04:17:12.000Z</time>
      </trkpt>
      <trkpt lat="48.68438" lon="1.90801">
        <ele>153.47</ele>
        <time>2009-12-06T04:17:17.000Z</time>
      </trkpt>
      <trkpt lat="48.68439" lon="1.90798">
        <ele>153.95</ele>
        <time>2009-12-06T04:17:18.000Z</time>
      </trkpt>
      <trkpt lat="48.68445" lon="1.90788">
        <ele>152.03</ele>
        <time>2009-12-06T04:17:23.000Z</time>
      </trkpt>
      <trkpt lat="48.68455" lon="1.90784">
        <ele>146.74</ele>
        <time>2009-12-06T04:17:30.000Z</time>
      </trkpt>
      <trkpt lat="48.68463" lon="1.90779">
        <ele>145.3</ele>
        <time>2009-12-06T04:17:35.000Z</time>
      </trkpt>
      <trkpt lat="48.68467" lon="1.90774">
        <ele>143.37</ele>
        <time>2009-12-06T04:17:38.000Z</time>
      </trkpt>
      <trkpt lat="48.68475" lon="1.90758">
        <ele>140.97</ele>
        <time>2009-12-06T04:17:45.000Z</time>
      </trkpt>
      <trkpt lat="48.68479" lon="1.90747">
        <ele>140.49</ele>
        <time>2009-12-06T04:17:49.000Z</time>
      </trkpt>
      <trkpt lat="48.68486" lon="1.90743">
        <ele>139.05</ele>
        <time>2009-12-06T04:17:53.000Z</time>
      </trkpt>
      <trkpt lat="48.68491" lon="1.9074">
        <ele>137.13</ele>
        <time>2009-12-06T04:17:58.000Z</time>
      </trkpt>
      <trkpt lat="48.68492" lon="1.90742">
        <ele>132.8</ele>
        <time>2009-12-06T04:18:00.000Z</time>
      </trkpt>
      <trkpt lat="48.68501" lon="1.90746">
        <ele>125.11</ele>
        <time>2009-12-06T04:18:06.000Z</time>
      </trkpt>
      <trkpt lat="48.68503" lon="1.90747">
        <ele>123.19</ele>
        <time>2009-12-06T04:18:08.000Z</time>
      </trkpt>
      <trkpt lat="48.68505" lon="1.90752">
        <ele>117.9</ele>
        <time>2009-12-06T04:18:13.000Z</time>
      </trkpt>
      <trkpt lat="48.68511" lon="1.90759">
        <ele>120.78</ele>
        <time>2009-12-06T04:18:18.000Z</time>
      </trkpt>
      <trkpt lat="48.68528" lon="1.90754">
        <ele>134.72</ele>
        <time>2009-12-06T04:18:30.000Z</time>
      </trkpt>
      <trkpt lat="48.68535" lon="1.90749">
        <ele>141.45</ele>
        <time>2009-12-06T04:18:37.000Z</time>
      </trkpt>
      <trkpt lat="48.68541" lon="1.9074">
        <ele>148.66</ele>
        <time>2009-12-06T04:18:49.000Z</time>
      </trkpt>
      <trkpt lat="48.68542" lon="1.90732">
        <ele>149.62</ele>
        <time>2009-12-06T04:18:56.000Z</time>
      </trkpt>
      <trkpt lat="48.68546" lon="1.90723">
        <ele>154.43</ele>
        <time>2009-12-06T04:19:02.000Z</time>
      </trkpt>
      <trkpt lat="48.68547" lon="1.90713">
        <ele>155.39</ele>
        <time>2009-12-06T04:19:09.000Z</time>
      </trkpt>
      <trkpt lat="48.68547" lon="1.90711">
        <ele>155.39</ele>
        <time>2009-12-06T04:19:10.000Z</time>
      </trkpt>
      <trkpt lat="48.68549" lon="1.90705">
        <ele>156.35</ele>
        <time>2009-12-06T04:19:14.000Z</time>
      </trkpt>
      <trkpt lat="48.68551" lon="1.90698">
        <ele>158.27</ele>
        <time>2009-12-06T04:19:20.000Z</time>
      </trkpt>
      <trkpt lat="48.68554" lon="1.90692">
        <ele>158.75</ele>
        <time>2009-12-06T04:19:25.000Z</time>
      </trkpt>
      <trkpt lat="48.68557" lon="1.90685">
        <ele>162.12</ele>
        <time>2009-12-06T04:19:32.000Z</time>
      </trkpt>
      <trkpt lat="48.68557" lon="1.90684">
        <ele>162.12</ele>
        <time>2009-12-06T04:19:33.000Z</time>
      </trkpt>
      <trkpt lat="48.68562" lon="1.90683">
        <ele>162.6</ele>
        <time>2009-12-06T04:19:38.000Z</time>
      </trkpt>
      <trkpt lat="48.68567" lon="1.9068">
        <ele>163.56</ele>
        <time>2009-12-06T04:19:43.000Z</time>
      </trkpt>
      <trkpt lat="48.68568" lon="1.9068">
        <ele>163.08</ele>
        <time>2009-12-06T04:19:44.000Z</time>
      </trkpt>
      <trkpt lat="48.68571" lon="1.90679">
        <ele>163.56</ele>
        <time>2009-12-06T04:19:47.000Z</time>
      </trkpt>
      <trkpt lat="48.68579" lon="1.9068">
        <ele>161.64</ele>
        <time>2009-12-06T04:19:53.000Z</time>
      </trkpt>
      <trkpt lat="48.68583" lon="1.90681">
        <ele>160.68</ele>
        <time>2009-12-06T04:19:56.000Z</time>
      </trkpt>
      <trkpt lat="48.6859" lon="1.90683">
        <ele>162.12</ele>
        <time>2009-12-06T04:20:02.000Z</time>
      </trkpt>
      <trkpt lat="48.68594" lon="1.90685">
        <ele>164.52</ele>
        <time>2009-12-06T04:20:07.000Z</time>
      </trkpt>
      <trkpt lat="48.68596" lon="1.9069">
        <ele>167.41</ele>
        <time>2009-12-06T04:20:12.000Z</time>
      </trkpt>
      <trkpt lat="48.68597" lon="1.90692">
        <ele>167.41</ele>
        <time>2009-12-06T04:20:13.000Z</time>
      </trkpt>
      <trkpt lat="48.68599" lon="1.90705">
        <ele>166.45</ele>
        <time>2009-12-06T04:20:18.000Z</time>
      </trkpt>
      <trkpt lat="48.686" lon="1.90719">
        <ele>163.56</ele>
        <time>2009-12-06T04:20:23.000Z</time>
      </trkpt>
      <trkpt lat="48.68609" lon="1.90735">
        <ele>160.68</ele>
        <time>2009-12-06T04:20:30.000Z</time>
      </trkpt>
      <trkpt lat="48.68614" lon="1.90741">
        <ele>160.68</ele>
        <time>2009-12-06T04:20:33.000Z</time>
      </trkpt>
      <trkpt lat="48.68621" lon="1.90755">
        <ele>162.6</ele>
        <time>2009-12-06T04:20:39.000Z</time>
      </trkpt>
      <trkpt lat="48.68631" lon="1.90755">
        <ele>160.2</ele>
        <time>2009-12-06T04:20:46.000Z</time>
      </trkpt>
      <trkpt lat="48.68634" lon="1.90754">
        <ele>158.27</ele>
        <time>2009-12-06T04:20:48.000Z</time>
      </trkpt>
      <trkpt lat="48.68644" lon="1.90754">
        <ele>156.83</ele>
        <time>2009-12-06T04:20:54.000Z</time>
      </trkpt>
      <trkpt lat="48.6865" lon="1.90752">
        <ele>154.43</ele>
        <time>2009-12-06T04:20:58.000Z</time>
      </trkpt>
      <trkpt lat="48.68663" lon="1.90752">
        <ele>151.06</ele>
        <time>2009-12-06T04:21:06.000Z</time>
      </trkpt>
      <trkpt lat="48.68674" lon="1.90756">
        <ele>152.51</ele>
        <time>2009-12-06T04:21:11.000Z</time>
      </trkpt>
      <trkpt lat="48.68682" lon="1.90755">
        <ele>148.18</ele>
        <time>2009-12-06T04:21:16.000Z</time>
      </trkpt>
      <trkpt lat="48.6869" lon="1.90754">
        <ele>145.78</ele>
        <time>2009-12-06T04:21:20.000Z</time>
      </trkpt>
      <trkpt lat="48.68697" lon="1.90753">
        <ele>144.34</ele>
        <time>2009-12-06T04:21:24.000Z</time>
      </trkpt>
      <trkpt lat="48.687" lon="1.90752">
        <ele>143.37</ele>
        <time>2009-12-06T04:21:26.000Z</time>
      </trkpt>
      <trkpt lat="48.68707" lon="1.90751">
        <ele>143.85</ele>
        <time>2009-12-06T04:21:31.000Z</time>
      </trkpt>
      <trkpt lat="48.68709" lon="1.90751">
        <ele>142.41</ele>
        <time>2009-12-06T04:21:33.000Z</time>
      </trkpt>
      <trkpt lat="48.68711" lon="1.90752">
        <ele>141.45</ele>
        <time>2009-12-06T04:21:35.000Z</time>
      </trkpt>
      <trkpt lat="48.68717" lon="1.90752">
        <ele>141.93</ele>
        <time>2009-12-06T04:21:39.000Z</time>
      </trkpt>
      <trkpt lat="48.68721" lon="1.9075">
        <ele>142.89</ele>
        <time>2009-12-06T04:21:41.000Z</time>
      </trkpt>
      <trkpt lat="48.68726" lon="1.90752">
        <ele>138.57</ele>
        <time>2009-12-06T04:21:47.000Z</time>
      </trkpt>
      <trkpt lat="48.6873" lon="1.90753">
        <ele>130.4</ele>
        <time>2009-12-06T04:21:52.000Z</time>
      </trkpt>
      <trkpt lat="48.68734" lon="1.90753">
        <ele>126.55</ele>
        <time>2009-12-06T04:21:55.000Z</time>
      </trkpt>
      <trkpt lat="48.68738" lon="1.90753">
        <ele>125.11</ele>
        <time>2009-12-06T04:21:59.000Z</time>
      </trkpt>
      <trkpt lat="48.68748" lon="1.90754">
        <ele>123.67</ele>
        <time>2009-12-06T04:22:04.000Z</time>
      </trkpt>
      <trkpt lat="48.68755" lon="1.90755">
        <ele>118.38</ele>
        <time>2009-12-06T04:22:08.000Z</time>
      </trkpt>
      <trkpt lat="48.68761" lon="1.90756">
        <ele>113.09</ele>
        <time>2009-12-06T04:22:12.000Z</time>
      </trkpt>
      <trkpt lat="48.68768" lon="1.90755">
        <ele>110.21</ele>
        <time>2009-12-06T04:22:16.000Z</time>
      </trkpt>
      <trkpt lat="48.68773" lon="1.90757">
        <ele>105.88</ele>
        <time>2009-12-06T04:22:20.000Z</time>
      </trkpt>
      <trkpt lat="48.68779" lon="1.90754">
        <ele>100.6</ele>
        <time>2009-12-06T04:22:25.000Z</time>
      </trkpt>
      <trkpt lat="48.68784" lon="1.90756">
        <ele>95.79</ele>
        <time>2009-12-06T04:22:29.000Z</time>
      </trkpt>
      <trkpt lat="48.68792" lon="1.90756">
        <ele>89.54</ele>
        <time>2009-12-06T04:22:34.000Z</time>
      </trkpt>
      <trkpt lat="48.688" lon="1.90755">
        <ele>82.33</ele>
        <time>2009-12-06T04:22:39.000Z</time>
      </trkpt>
      <trkpt lat="48.68803" lon="1.90753">
        <ele>80.89</ele>
        <time>2009-12-06T04:22:41.000Z</time>
      </trkpt>
      <trkpt lat="48.6881" lon="1.90754">
        <ele>77.04</ele>
        <time>2009-12-06T04:22:45.000Z</time>
      </trkpt>
      <trkpt lat="48.68819" lon="1.90751">
        <ele>75.6</ele>
        <time>2009-12-06T04:22:50.000Z</time>
      </trkpt>
      <trkpt lat="48.6883" lon="1.90751">
        <ele>71.27</ele>
        <time>2009-12-06T04:22:56.000Z</time>
      </trkpt>
      <trkpt lat="48.68839" lon="1.90754">
        <ele>70.79</ele>
        <time>2009-12-06T04:23:00.000Z</time>
      </trkpt>
      <trkpt lat="48.68845" lon="1.90746">
        <ele>70.79</ele>
        <time>2009-12-06T04:23:04.000Z</time>
      </trkpt>
      <trkpt lat="48.68847" lon="1.90744">
        <ele>70.79</ele>
        <time>2009-12-06T04:23:05.000Z</time>
      </trkpt>
      <trkpt lat="48.68863" lon="1.90728">
        <ele>89.06</ele>
        <time>2009-12-06T04:23:11.000Z</time>
      </trkpt>
      <trkpt lat="48.68874" lon="1.90721">
        <ele>102.52</ele>
        <time>2009-12-06T04:23:14.000Z</time>
      </trkpt>
      <trkpt lat="48.68879" lon="1.90707">
        <ele>109.73</ele>
        <time>2009-12-06T04:23:18.000Z</time>
      </trkpt>
      <trkpt lat="48.6888" lon="1.90695">
        <ele>113.57</ele>
        <time>2009-12-06T04:23:22.000Z</time>
      </trkpt>
      <trkpt lat="48.6888" lon="1.90685">
        <ele>118.86</ele>
        <time>2009-12-06T04:23:26.000Z</time>
      </trkpt>
      <trkpt lat="48.68884" lon="1.90674">
        <ele>121.74</ele>
        <time>2009-12-06T04:23:31.000Z</time>
      </trkpt>
      <trkpt lat="48.68887" lon="1.90664">
        <ele>126.07</ele>
        <time>2009-12-06T04:23:36.000Z</time>
      </trkpt>
      <trkpt lat="48.68887" lon="1.90654">
        <ele>130.88</ele>
        <time>2009-12-06T04:23:43.000Z</time>
      </trkpt>
      <trkpt lat="48.68887" lon="1.9065">
        <ele>131.36</ele>
        <time>2009-12-06T04:23:45.000Z</time>
      </trkpt>
      <trkpt lat="48.68886" lon="1.90644">
        <ele>132.32</ele>
        <time>2009-12-06T04:23:48.000Z</time>
      </trkpt>
      <trkpt lat="48.68886" lon="1.90631">
        <ele>132.8</ele>
        <time>2009-12-06T04:23:54.000Z</time>
      </trkpt>
      <trkpt lat="48.68886" lon="1.90626">
        <ele>132.8</ele>
        <time>2009-12-06T04:23:57.000Z</time>
      </trkpt>
      <trkpt lat="48.68887" lon="1.90619">
        <ele>134.24</ele>
        <time>2009-12-06T04:24:00.000Z</time>
      </trkpt>
      <trkpt lat="48.68889" lon="1.90606">
        <ele>134.72</ele>
        <time>2009-12-06T04:24:07.000Z</time>
      </trkpt>
      <trkpt lat="48.68888" lon="1.90597">
        <ele>135.2</ele>
        <time>2009-12-06T04:24:12.000Z</time>
      </trkpt>
      <trkpt lat="48.68886" lon="1.90587">
        <ele>135.68</ele>
        <time>2009-12-06T04:24:18.000Z</time>
      </trkpt>
      <trkpt lat="48.68887" lon="1.90583">
        <ele>135.2</ele>
        <time>2009-12-06T04:24:20.000Z</time>
      </trkpt>
      <trkpt lat="48.6889" lon="1.90573">
        <ele>133.76</ele>
        <time>2009-12-06T04:24:27.000Z</time>
      </trkpt>
      <trkpt lat="48.68887" lon="1.90563">
        <ele>135.68</ele>
        <time>2009-12-06T04:24:32.000Z</time>
      </trkpt>
      <trkpt lat="48.68885" lon="1.9055">
        <ele>136.64</ele>
        <time>2009-12-06T04:24:39.000Z</time>
      </trkpt>
      <trkpt lat="48.68886" lon="1.90541">
        <ele>136.64</ele>
        <time>2009-12-06T04:24:44.000Z</time>
      </trkpt>
      <trkpt lat="48.68888" lon="1.90528">
        <ele>137.61</ele>
        <time>2009-12-06T04:24:52.000Z</time>
      </trkpt>
      <trkpt lat="48.68887" lon="1.90522">
        <ele>137.61</ele>
        <time>2009-12-06T04:24:54.000Z</time>
      </trkpt>
      <trkpt lat="48.68888" lon="1.90509">
        <ele>136.16</ele>
        <time>2009-12-06T04:24:59.000Z</time>
      </trkpt>
      <trkpt lat="48.68888" lon="1.90494">
        <ele>135.2</ele>
        <time>2009-12-06T04:25:05.000Z</time>
      </trkpt>
      <trkpt lat="48.68889" lon="1.90484">
        <ele>134.24</ele>
        <time>2009-12-06T04:25:09.000Z</time>
      </trkpt>
      <trkpt lat="48.68891" lon="1.90467">
        <ele>135.68</ele>
        <time>2009-12-06T04:25:15.000Z</time>
      </trkpt>
      <trkpt lat="48.68891" lon="1.90453">
        <ele>137.13</ele>
        <time>2009-12-06T04:25:20.000Z</time>
      </trkpt>
      <trkpt lat="48.6889" lon="1.9044">
        <ele>136.64</ele>
        <time>2009-12-06T04:25:25.000Z</time>
      </trkpt>
      <trkpt lat="48.68891" lon="1.90428">
        <ele>137.61</ele>
        <time>2009-12-06T04:25:31.000Z</time>
      </trkpt>
      <trkpt lat="48.68891" lon="1.90426">
        <ele>137.13</ele>
        <time>2009-12-06T04:25:32.000Z</time>
      </trkpt>
      <trkpt lat="48.68892" lon="1.90417">
        <ele>139.53</ele>
        <time>2009-12-06T04:25:37.000Z</time>
      </trkpt>
      <trkpt lat="48.68892" lon="1.90406">
        <ele>140.97</ele>
        <time>2009-12-06T04:25:43.000Z</time>
      </trkpt>
      <trkpt lat="48.68893" lon="1.90395">
        <ele>143.37</ele>
        <time>2009-12-06T04:25:50.000Z</time>
      </trkpt>
      <trkpt lat="48.68892" lon="1.90388">
        <ele>142.89</ele>
        <time>2009-12-06T04:25:54.000Z</time>
      </trkpt>
      <trkpt lat="48.68893" lon="1.90381">
        <ele>145.3</ele>
        <time>2009-12-06T04:25:58.000Z</time>
      </trkpt>
      <trkpt lat="48.68892" lon="1.90376">
        <ele>145.3</ele>
        <time>2009-12-06T04:26:02.000Z</time>
      </trkpt>
      <trkpt lat="48.68893" lon="1.90369">
        <ele>145.3</ele>
        <time>2009-12-06T04:26:06.000Z</time>
      </trkpt>
      <trkpt lat="48.68895" lon="1.90359">
        <ele>145.3</ele>
        <time>2009-12-06T04:26:15.000Z</time>
      </trkpt>
      <trkpt lat="48.68894" lon="1.9035">
        <ele>145.3</ele>
        <time>2009-12-06T04:26:23.000Z</time>
      </trkpt>
      <trkpt lat="48.68895" lon="1.90341">
        <ele>145.3</ele>
        <time>2009-12-06T04:26:29.000Z</time>
      </trkpt>
      <trkpt lat="48.68898" lon="1.90335">
        <ele>145.3</ele>
        <time>2009-12-06T04:26:36.000Z</time>
      </trkpt>
      <trkpt lat="48.68895" lon="1.90325">
        <ele>145.78</ele>
        <time>2009-12-06T04:26:44.000Z</time>
      </trkpt>
      <trkpt lat="48.68894" lon="1.90317">
        <ele>148.66</ele>
        <time>2009-12-06T04:26:51.000Z</time>
      </trkpt>
      <trkpt lat="48.68893" lon="1.90309">
        <ele>150.58</ele>
        <time>2009-12-06T04:26:59.000Z</time>
      </trkpt>
      <trkpt lat="48.68895" lon="1.903">
        <ele>153.47</ele>
        <time>2009-12-06T04:27:06.000Z</time>
      </trkpt>
      <trkpt lat="48.68898" lon="1.90295">
        <ele>157.31</ele>
        <time>2009-12-06T04:27:12.000Z</time>
      </trkpt>
      <trkpt lat="48.689" lon="1.90292">
        <ele>156.83</ele>
        <time>2009-12-06T04:27:18.000Z</time>
      </trkpt>
      <trkpt lat="48.68905" lon="1.90294">
        <ele>157.79</ele>
        <time>2009-12-06T04:27:23.000Z</time>
      </trkpt>
      <trkpt lat="48.68907" lon="1.90294">
        <ele>157.79</ele>
        <time>2009-12-06T04:27:25.000Z</time>
      </trkpt>
      <trkpt lat="48.68911" lon="1.90295">
        <ele>157.31</ele>
        <time>2009-12-06T04:27:29.000Z</time>
      </trkpt>
      <trkpt lat="48.68917" lon="1.90297">
        <ele>154.43</ele>
        <time>2009-12-06T04:27:34.000Z</time>
      </trkpt>
      <trkpt lat="48.68925" lon="1.903">
        <ele>157.79</ele>
        <time>2009-12-06T04:27:39.000Z</time>
      </trkpt>
      <trkpt lat="48.68929" lon="1.90304">
        <ele>156.35</ele>
        <time>2009-12-06T04:27:42.000Z</time>
      </trkpt>
      <trkpt lat="48.68935" lon="1.90309">
        <ele>155.39</ele>
        <time>2009-12-06T04:27:48.000Z</time>
      </trkpt>
      <trkpt lat="48.68942" lon="1.90309">
        <ele>158.27</ele>
        <time>2009-12-06T04:27:53.000Z</time>
      </trkpt>
      <trkpt lat="48.68945" lon="1.90315">
        <ele>155.39</ele>
        <time>2009-12-06T04:27:58.000Z</time>
      </trkpt>
      <trkpt lat="48.68946" lon="1.90317">
        <ele>156.35</ele>
        <time>2009-12-06T04:28:01.000Z</time>
      </trkpt>
      <trkpt lat="48.6895" lon="1.90321">
        <ele>157.79</ele>
        <time>2009-12-06T04:28:05.000Z</time>
      </trkpt>
      <trkpt lat="48.68955" lon="1.90333">
        <ele>161.16</ele>
        <time>2009-12-06T04:28:12.000Z</time>
      </trkpt>
      <trkpt lat="48.68956" lon="1.90337">
        <ele>160.68</ele>
        <time>2009-12-06T04:28:14.000Z</time>
      </trkpt>
      <trkpt lat="48.68961" lon="1.90351">
        <ele>159.72</ele>
        <time>2009-12-06T04:28:20.000Z</time>
      </trkpt>
      <trkpt lat="48.68964" lon="1.90363">
        <ele>159.72</ele>
        <time>2009-12-06T04:28:24.000Z</time>
      </trkpt>
      <trkpt lat="48.68965" lon="1.90365">
        <ele>159.24</ele>
        <time>2009-12-06T04:28:25.000Z</time>
      </trkpt>
      <trkpt lat="48.68975" lon="1.90371">
        <ele>158.27</ele>
        <time>2009-12-06T04:28:32.000Z</time>
      </trkpt>
      <trkpt lat="48.68984" lon="1.90368">
        <ele>159.24</ele>
        <time>2009-12-06T04:28:37.000Z</time>
      </trkpt>
      <trkpt lat="48.68992" lon="1.90366">
        <ele>157.31</ele>
        <time>2009-12-06T04:28:42.000Z</time>
      </trkpt>
      <trkpt lat="48.69002" lon="1.90365">
        <ele>151.54</ele>
        <time>2009-12-06T04:28:47.000Z</time>
      </trkpt>
      <trkpt lat="48.69003" lon="1.90364">
        <ele>150.58</ele>
        <time>2009-12-06T04:28:48.000Z</time>
      </trkpt>
      <trkpt lat="48.69011" lon="1.90356">
        <ele>150.1</ele>
        <time>2009-12-06T04:28:53.000Z</time>
      </trkpt>
      <trkpt lat="48.69019" lon="1.90352">
        <ele>146.26</ele>
        <time>2009-12-06T04:28:58.000Z</time>
      </trkpt>
      <trkpt lat="48.69024" lon="1.9035">
        <ele>143.85</ele>
        <time>2009-12-06T04:29:02.000Z</time>
      </trkpt>
      <trkpt lat="48.69027" lon="1.9035">
        <ele>142.41</ele>
        <time>2009-12-06T04:29:04.000Z</time>
      </trkpt>
      <trkpt lat="48.6903" lon="1.90348">
        <ele>143.37</ele>
        <time>2009-12-06T04:29:07.000Z</time>
      </trkpt>
      <trkpt lat="48.69041" lon="1.90346">
        <ele>148.18</ele>
        <time>2009-12-06T04:29:13.000Z</time>
      </trkpt>
      <trkpt lat="48.69047" lon="1.90343">
        <ele>149.14</ele>
        <time>2009-12-06T04:29:19.000Z</time>
      </trkpt>
      <trkpt lat="48.69051" lon="1.90343">
        <ele>160.2</ele>
        <time>2009-12-06T04:29:29.000Z</time>
      </trkpt>
      <trkpt lat="48.69051" lon="1.90341">
        <ele>171.73</ele>
        <time>2009-12-06T04:29:42.000Z</time>
      </trkpt>
      <trkpt lat="48.6905" lon="1.90342">
        <ele>174.62</ele>
        <time>2009-12-06T04:29:50.000Z</time>
      </trkpt>
      <trkpt lat="48.69055" lon="1.90343">
        <ele>170.29</ele>
        <time>2009-12-06T04:29:58.000Z</time>
      </trkpt>
      <trkpt lat="48.69057" lon="1.90344">
        <ele>166.93</ele>
        <time>2009-12-06T04:30:02.000Z</time>
      </trkpt>
      <trkpt lat="48.69058" lon="1.90342">
        <ele>165.48</ele>
        <time>2009-12-06T04:30:04.000Z</time>
      </trkpt>
      <trkpt lat="48.69062" lon="1.90341">
        <ele>165.48</ele>
        <time>2009-12-06T04:30:07.000Z</time>
      </trkpt>
      <trkpt lat="48.6907" lon="1.90338">
        <ele>159.24</ele>
        <time>2009-12-06T04:30:14.000Z</time>
      </trkpt>
      <trkpt lat="48.69075" lon="1.90335">
        <ele>158.27</ele>
        <time>2009-12-06T04:30:17.000Z</time>
      </trkpt>
      <trkpt lat="48.69086" lon="1.90332">
        <ele>156.35</ele>
        <time>2009-12-06T04:30:23.000Z</time>
      </trkpt>
      <trkpt lat="48.69088" lon="1.90331">
        <ele>155.39</ele>
        <time>2009-12-06T04:30:24.000Z</time>
      </trkpt>
      <trkpt lat="48.69094" lon="1.9033">
        <ele>152.03</ele>
        <time>2009-12-06T04:30:27.000Z</time>
      </trkpt>
      <trkpt lat="48.691" lon="1.90327">
        <ele>148.66</ele>
        <time>2009-12-06T04:30:33.000Z</time>
      </trkpt>
      <trkpt lat="48.69107" lon="1.90325">
        <ele>145.78</ele>
        <time>2009-12-06T04:30:37.000Z</time>
      </trkpt>
      <trkpt lat="48.69114" lon="1.90322">
        <ele>142.41</ele>
        <time>2009-12-06T04:30:41.000Z</time>
      </trkpt>
      <trkpt lat="48.69125" lon="1.90317">
        <ele>139.05</ele>
        <time>2009-12-06T04:30:46.000Z</time>
      </trkpt>
      <trkpt lat="48.6913" lon="1.90318">
        <ele>134.24</ele>
        <time>2009-12-06T04:30:49.000Z</time>
      </trkpt>
      <trkpt lat="48.69133" lon="1.90317">
        <ele>131.84</ele>
        <time>2009-12-06T04:30:51.000Z</time>
      </trkpt>
      <trkpt lat="48.69139" lon="1.90313">
        <ele>121.74</ele>
        <time>2009-12-06T04:30:57.000Z</time>
      </trkpt>
      <trkpt lat="48.69146" lon="1.90312">
        <ele>113.09</ele>
        <time>2009-12-06T04:31:02.000Z</time>
      </trkpt>
      <trkpt lat="48.69152" lon="1.9031">
        <ele>105.88</ele>
        <time>2009-12-06T04:31:06.000Z</time>
      </trkpt>
      <trkpt lat="48.69152" lon="1.90311">
        <ele>103.48</ele>
        <time>2009-12-06T04:31:07.000Z</time>
      </trkpt>
      <trkpt lat="48.69157" lon="1.90311">
        <ele>100.6</ele>
        <time>2009-12-06T04:31:09.000Z</time>
      </trkpt>
      <trkpt lat="48.69162" lon="1.90311">
        <ele>93.39</ele>
        <time>2009-12-06T04:31:14.000Z</time>
      </trkpt>
      <trkpt lat="48.69164" lon="1.90309">
        <ele>91.46</ele>
        <time>2009-12-06T04:31:17.000Z</time>
      </trkpt>
      <trkpt lat="48.69172" lon="1.90304">
        <ele>90.02</ele>
        <time>2009-12-06T04:31:22.000Z</time>
      </trkpt>
      <trkpt lat="48.6918" lon="1.90301">
        <ele>85.69</ele>
        <time>2009-12-06T04:31:27.000Z</time>
      </trkpt>
      <trkpt lat="48.69192" lon="1.90298">
        <ele>77.52</ele>
        <time>2009-12-06T04:31:33.000Z</time>
      </trkpt>
      <trkpt lat="48.69199" lon="1.90294">
        <ele>75.12</ele>
        <time>2009-12-06T04:31:37.000Z</time>
      </trkpt>
      <trkpt lat="48.69209" lon="1.90289">
        <ele>67.91</ele>
        <time>2009-12-06T04:31:45.000Z</time>
      </trkpt>
      <trkpt lat="48.6922" lon="1.90285">
        <ele>61.66</ele>
        <time>2009-12-06T04:31:51.000Z</time>
      </trkpt>
      <trkpt lat="48.69221" lon="1.90285">
        <ele>59.74</ele>
        <time>2009-12-06T04:31:52.000Z</time>
      </trkpt>
      <trkpt lat="48.69232" lon="1.90281">
        <ele>52.53</ele>
        <time>2009-12-06T04:31:58.000Z</time>
      </trkpt>
      <trkpt lat="48.69236" lon="1.90277">
        <ele>50.61</ele>
        <time>2009-12-06T04:32:01.000Z</time>
      </trkpt>
      <trkpt lat="48.69239" lon="1.90266">
        <ele>51.09</ele>
        <time>2009-12-06T04:32:05.000Z</time>
      </trkpt>
      <trkpt lat="48.69242" lon="1.90262">
        <ele>53.97</ele>
        <time>2009-12-06T04:32:09.000Z</time>
      </trkpt>
      <trkpt lat="48.69247" lon="1.90255">
        <ele>66.47</ele>
        <time>2009-12-06T04:32:18.000Z</time>
      </trkpt>
      <trkpt lat="48.69252" lon="1.9025">
        <ele>70.31</ele>
        <time>2009-12-06T04:32:25.000Z</time>
      </trkpt>
      <trkpt lat="48.69252" lon="1.90251">
        <ele>69.83</ele>
        <time>2009-12-06T04:32:26.000Z</time>
      </trkpt>
      <trkpt lat="48.69255" lon="1.90251">
        <ele>68.39</ele>
        <time>2009-12-06T04:32:28.000Z</time>
      </trkpt>
      <trkpt lat="48.69259" lon="1.90253">
        <ele>62.62</ele>
        <time>2009-12-06T04:32:35.000Z</time>
      </trkpt>
      <trkpt lat="48.6926" lon="1.90253">
        <ele>62.62</ele>
        <time>2009-12-06T04:32:37.000Z</time>
      </trkpt>
      <trkpt lat="48.69266" lon="1.90253">
        <ele>60.22</ele>
        <time>2009-12-06T04:32:40.000Z</time>
      </trkpt>
      <trkpt lat="48.69273" lon="1.90251">
        <ele>56.37</ele>
        <time>2009-12-06T04:32:45.000Z</time>
      </trkpt>
      <trkpt lat="48.69279" lon="1.90252">
        <ele>53.49</ele>
        <time>2009-12-06T04:32:50.000Z</time>
      </trkpt>
      <trkpt lat="48.69282" lon="1.9025">
        <ele>54.45</ele>
        <time>2009-12-06T04:32:52.000Z</time>
      </trkpt>
      <trkpt lat="48.69287" lon="1.90247">
        <ele>54.45</ele>
        <time>2009-12-06T04:32:56.000Z</time>
      </trkpt>
      <trkpt lat="48.69293" lon="1.90245">
        <ele>61.66</ele>
        <time>2009-12-06T04:32:58.000Z</time>
      </trkpt>
      <trkpt lat="48.69297" lon="1.90237">
        <ele>65.03</ele>
        <time>2009-12-06T04:33:02.000Z</time>
      </trkpt>
      <trkpt lat="48.693" lon="1.90232">
        <ele>66.47</ele>
        <time>2009-12-06T04:33:05.000Z</time>
      </trkpt>
      <trkpt lat="48.69307" lon="1.90217">
        <ele>67.91</ele>
        <time>2009-12-06T04:33:11.000Z</time>
      </trkpt>
      <trkpt lat="48.69335" lon="1.90205">
        <ele>110.69</ele>
        <time>2009-12-06T04:33:18.000Z</time>
      </trkpt>
      <trkpt lat="48.69339" lon="1.90195">
        <ele>123.19</ele>
        <time>2009-12-06T04:33:23.000Z</time>
      </trkpt>
      <trkpt lat="48.6934" lon="1.90187">
        <ele>130.88</ele>
        <time>2009-12-06T04:33:29.000Z</time>
      </trkpt>
      <trkpt lat="48.69339" lon="1.90186">
        <ele>130.88</ele>
        <time>2009-12-06T04:33:30.000Z</time>
      </trkpt>
      <trkpt lat="48.69337" lon="1.90182">
        <ele>132.8</ele>
        <time>2009-12-06T04:33:33.000Z</time>
      </trkpt>
      <trkpt lat="48.69336" lon="1.90173">
        <ele>135.2</ele>
        <time>2009-12-06T04:33:38.000Z</time>
      </trkpt>
      <trkpt lat="48.6933" lon="1.90165">
        <ele>141.93</ele>
        <time>2009-12-06T04:33:47.000Z</time>
      </trkpt>
      <trkpt lat="48.69325" lon="1.90157">
        <ele>144.34</ele>
        <time>2009-12-06T04:33:54.000Z</time>
      </trkpt>
      <trkpt lat="48.69325" lon="1.90155">
        <ele>145.3</ele>
        <time>2009-12-06T04:33:56.000Z</time>
      </trkpt>
      <trkpt lat="48.69322" lon="1.90144">
        <ele>152.99</ele>
        <time>2009-12-06T04:34:03.000Z</time>
      </trkpt>
      <trkpt lat="48.69321" lon="1.90142">
        <ele>154.91</ele>
        <time>2009-12-06T04:34:05.000Z</time>
      </trkpt>
      <trkpt lat="48.69319" lon="1.90138">
        <ele>155.39</ele>
        <time>2009-12-06T04:34:12.000Z</time>
      </trkpt>
      <trkpt lat="48.69315" lon="1.90132">
        <ele>155.39</ele>
        <time>2009-12-06T04:34:19.000Z</time>
      </trkpt>
      <trkpt lat="48.6931" lon="1.90125">
        <ele>154.91</ele>
        <time>2009-12-06T04:34:28.000Z</time>
      </trkpt>
      <trkpt lat="48.69304" lon="1.90121">
        <ele>156.35</ele>
        <time>2009-12-06T04:34:35.000Z</time>
      </trkpt>
      <trkpt lat="48.693" lon="1.90118">
        <ele>157.79</ele>
        <time>2009-12-06T04:34:41.000Z</time>
      </trkpt>
      <trkpt lat="48.69297" lon="1.90111">
        <ele>158.75</ele>
        <time>2009-12-06T04:34:48.000Z</time>
      </trkpt>
      <trkpt lat="48.69293" lon="1.901">
        <ele>160.68</ele>
        <time>2009-12-06T04:34:56.000Z</time>
      </trkpt>
      <trkpt lat="48.69291" lon="1.90096">
        <ele>162.12</ele>
        <time>2009-12-06T04:35:00.000Z</time>
      </trkpt>
      <trkpt lat="48.69286" lon="1.90094">
        <ele>162.12</ele>
        <time>2009-12-06T04:35:04.000Z</time>
      </trkpt>
      <trkpt lat="48.6928" lon="1.90091">
        <ele>165.48</ele>
        <time>2009-12-06T04:35:11.000Z</time>
      </trkpt>
      <trkpt lat="48.69274" lon="1.90086">
        <ele>167.89</ele>
        <time>2009-12-06T04:35:16.000Z</time>
      </trkpt>
      <trkpt lat="48.6927" lon="1.90084">
        <ele>170.29</ele>
        <time>2009-12-06T04:35:20.000Z</time>
      </trkpt>
      <trkpt lat="48.69269" lon="1.90079">
        <ele>173.17</ele>
        <time>2009-12-06T04:35:27.000Z</time>
      </trkpt>
      <trkpt lat="48.69271" lon="1.90072">
        <ele>172.21</ele>
        <time>2009-12-06T04:35:33.000Z</time>
      </trkpt>
      <trkpt lat="48.69271" lon="1.90065">
        <ele>170.77</ele>
        <time>2009-12-06T04:35:38.000Z</time>
      </trkpt>
      <trkpt lat="48.69273" lon="1.9006">
        <ele>169.33</ele>
        <time>2009-12-06T04:35:40.000Z</time>
      </trkpt>
      <trkpt lat="48.69277" lon="1.90049">
        <ele>167.89</ele>
        <time>2009-12-06T04:35:45.000Z</time>
      </trkpt>
      <trkpt lat="48.69277" lon="1.90046">
        <ele>167.41</ele>
        <time>2009-12-06T04:35:46.000Z</time>
      </trkpt>
      <trkpt lat="48.69279" lon="1.9003">
        <ele>163.56</ele>
        <time>2009-12-06T04:35:53.000Z</time>
      </trkpt>
      <trkpt lat="48.6928" lon="1.90025">
        <ele>162.6</ele>
        <time>2009-12-06T04:35:55.000Z</time>
      </trkpt>
      <trkpt lat="48.69285" lon="1.90016">
        <ele>159.24</ele>
        <time>2009-12-06T04:36:00.000Z</time>
      </trkpt>
      <trkpt lat="48.69292" lon="1.90013">
        <ele>158.27</ele>
        <time>2009-12-06T04:36:05.000Z</time>
      </trkpt>
      <trkpt lat="48.69294" lon="1.9001">
        <ele>157.31</ele>
        <time>2009-12-06T04:36:07.000Z</time>
      </trkpt>
      <trkpt lat="48.69298" lon="1.90005">
        <ele>157.31</ele>
        <time>2009-12-06T04:36:10.000Z</time>
      </trkpt>
      <trkpt lat="48.69309" lon="1.9">
        <ele>153.95</ele>
        <time>2009-12-06T04:36:16.000Z</time>
      </trkpt>
      <trkpt lat="48.69318" lon="1.90001">
        <ele>152.99</ele>
        <time>2009-12-06T04:36:21.000Z</time>
      </trkpt>
      <trkpt lat="48.69325" lon="1.90001">
        <ele>150.58</ele>
        <time>2009-12-06T04:36:25.000Z</time>
      </trkpt>
      <trkpt lat="48.69331" lon="1.90009">
        <ele>149.62</ele>
        <time>2009-12-06T04:36:31.000Z</time>
      </trkpt>
      <trkpt lat="48.69334" lon="1.90012">
        <ele>150.1</ele>
        <time>2009-12-06T04:36:37.000Z</time>
      </trkpt>
      <trkpt lat="48.69334" lon="1.90015">
        <ele>151.54</ele>
        <time>2009-12-06T04:36:42.000Z</time>
      </trkpt>
      <trkpt lat="48.69333" lon="1.90018">
        <ele>148.66</ele>
        <time>2009-12-06T04:36:48.000Z</time>
      </trkpt>
      <trkpt lat="48.69334" lon="1.90019">
        <ele>149.14</ele>
        <time>2009-12-06T04:36:54.000Z</time>
      </trkpt>
      <trkpt lat="48.69339" lon="1.90026">
        <ele>141.93</ele>
        <time>2009-12-06T04:37:01.000Z</time>
      </trkpt>
      <trkpt lat="48.69343" lon="1.9003">
        <ele>137.13</ele>
        <time>2009-12-06T04:37:05.000Z</time>
      </trkpt>
      <trkpt lat="48.69347" lon="1.9003">
        <ele>128.95</ele>
        <time>2009-12-06T04:37:11.000Z</time>
      </trkpt>
      <trkpt lat="48.69355" lon="1.9003">
        <ele>129.92</ele>
        <time>2009-12-06T04:37:17.000Z</time>
      </trkpt>
      <trkpt lat="48.69358" lon="1.90024">
        <ele>132.32</ele>
        <time>2009-12-06T04:37:21.000Z</time>
      </trkpt>
      <trkpt lat="48.69366" lon="1.90018">
        <ele>133.76</ele>
        <time>2009-12-06T04:37:27.000Z</time>
      </trkpt>
      <trkpt lat="48.6937" lon="1.90015">
        <ele>130.4</ele>
        <time>2009-12-06T04:37:31.000Z</time>
      </trkpt>
      <trkpt lat="48.69371" lon="1.90016">
        <ele>128.47</ele>
        <time>2009-12-06T04:37:34.000Z</time>
      </trkpt>
      <trkpt lat="48.69378" lon="1.90022">
        <ele>131.36</ele>
        <time>2009-12-06T04:37:38.000Z</time>
      </trkpt>
      <trkpt lat="48.69387" lon="1.90031">
        <ele>131.36</ele>
        <time>2009-12-06T04:37:43.000Z</time>
      </trkpt>
      <trkpt lat="48.69387" lon="1.9004">
        <ele>134.24</ele>
        <time>2009-12-06T04:37:48.000Z</time>
      </trkpt>
      <trkpt lat="48.69394" lon="1.9005">
        <ele>136.64</ele>
        <time>2009-12-06T04:37:52.000Z</time>
      </trkpt>
      <trkpt lat="48.69405" lon="1.90056">
        <ele>137.61</ele>
        <time>2009-12-06T04:37:56.000Z</time>
      </trkpt>
      <trkpt lat="48.69411" lon="1.90059">
        <ele>136.16</ele>
        <time>2009-12-06T04:37:59.000Z</time>
      </trkpt>
      <trkpt lat="48.69413" lon="1.9006">
        <ele>135.68</ele>
        <time>2009-12-06T04:38:00.000Z</time>
      </trkpt>
      <trkpt lat="48.6942" lon="1.90074">
        <ele>138.57</ele>
        <time>2009-12-06T04:38:06.000Z</time>
      </trkpt>
      <trkpt lat="48.69428" lon="1.90083">
        <ele>140.01</ele>
        <time>2009-12-06T04:38:11.000Z</time>
      </trkpt>
      <trkpt lat="48.69434" lon="1.90083">
        <ele>137.61</ele>
        <time>2009-12-06T04:38:17.000Z</time>
      </trkpt>
      <trkpt lat="48.69436" lon="1.9008">
        <ele>138.57</ele>
        <time>2009-12-06T04:38:21.000Z</time>
      </trkpt>
      <trkpt lat="48.6944" lon="1.90075">
        <ele>140.97</ele>
        <time>2009-12-06T04:38:30.000Z</time>
      </trkpt>
      <trkpt lat="48.69443" lon="1.90069">
        <ele>142.41</ele>
        <time>2009-12-06T04:38:36.000Z</time>
      </trkpt>
      <trkpt lat="48.69444" lon="1.90062">
        <ele>143.85</ele>
        <time>2009-12-06T04:38:42.000Z</time>
      </trkpt>
      <trkpt lat="48.69448" lon="1.90056">
        <ele>145.3</ele>
        <time>2009-12-06T04:38:48.000Z</time>
      </trkpt>
      <trkpt lat="48.6945" lon="1.90048">
        <ele>146.74</ele>
        <time>2009-12-06T04:38:54.000Z</time>
      </trkpt>
      <trkpt lat="48.69451" lon="1.90044">
        <ele>146.74</ele>
        <time>2009-12-06T04:38:58.000Z</time>
      </trkpt>
      <trkpt lat="48.69448" lon="1.90033">
        <ele>148.18</ele>
        <time>2009-12-06T04:39:05.000Z</time>
      </trkpt>
      <trkpt lat="48.69449" lon="1.90027">
        <ele>148.66</ele>
        <time>2009-12-06T04:39:09.000Z</time>
      </trkpt>
      <trkpt lat="48.69455" lon="1.90022">
        <ele>149.62</ele>
        <time>2009-12-06T04:39:16.000Z</time>
      </trkpt>
      <trkpt lat="48.69459" lon="1.90019">
        <ele>149.62</ele>
        <time>2009-12-06T04:39:20.000Z</time>
      </trkpt>
      <trkpt lat="48.69464" lon="1.90017">
        <ele>150.1</ele>
        <time>2009-12-06T04:39:24.000Z</time>
      </trkpt>
      <trkpt lat="48.69468" lon="1.90017">
        <ele>149.62</ele>
        <time>2009-12-06T04:39:28.000Z</time>
      </trkpt>
      <trkpt lat="48.69475" lon="1.90011">
        <ele>149.62</ele>
        <time>2009-12-06T04:39:34.000Z</time>
      </trkpt>
      <trkpt lat="48.69481" lon="1.90007">
        <ele>149.14</ele>
        <time>2009-12-06T04:39:39.000Z</time>
      </trkpt>
      <trkpt lat="48.69486" lon="1.90005">
        <ele>148.18</ele>
        <time>2009-12-06T04:39:45.000Z</time>
      </trkpt>
      <trkpt lat="48.69496" lon="1.90008">
        <ele>151.54</ele>
        <time>2009-12-06T04:39:50.000Z</time>
      </trkpt>
      <trkpt lat="48.69506" lon="1.9001">
        <ele>152.03</ele>
        <time>2009-12-06T04:39:55.000Z</time>
      </trkpt>
      <trkpt lat="48.6951" lon="1.90013">
        <ele>147.7</ele>
        <time>2009-12-06T04:40:00.000Z</time>
      </trkpt>
      <trkpt lat="48.69513" lon="1.9002">
        <ele>146.74</ele>
        <time>2009-12-06T04:40:04.000Z</time>
      </trkpt>
      <trkpt lat="48.69515" lon="1.90024">
        <ele>146.74</ele>
        <time>2009-12-06T04:40:06.000Z</time>
      </trkpt>
      <trkpt lat="48.69521" lon="1.90029">
        <ele>146.74</ele>
        <time>2009-12-06T04:40:10.000Z</time>
      </trkpt>
      <trkpt lat="48.69526" lon="1.90034">
        <ele>145.78</ele>
        <time>2009-12-06T04:40:13.000Z</time>
      </trkpt>
      <trkpt lat="48.69533" lon="1.90039">
        <ele>142.41</ele>
        <time>2009-12-06T04:40:18.000Z</time>
      </trkpt>
      <trkpt lat="48.69532" lon="1.90041">
        <ele>141.45</ele>
        <time>2009-12-06T04:40:19.000Z</time>
      </trkpt>
      <trkpt lat="48.69533" lon="1.90044">
        <ele>139.53</ele>
        <time>2009-12-06T04:40:22.000Z</time>
      </trkpt>
      <trkpt lat="48.69537" lon="1.90044">
        <ele>140.01</ele>
        <time>2009-12-06T04:40:29.000Z</time>
      </trkpt>
      <trkpt lat="48.69538" lon="1.90046">
        <ele>139.53</ele>
        <time>2009-12-06T04:40:32.000Z</time>
      </trkpt>
      <trkpt lat="48.69543" lon="1.90047">
        <ele>136.64</ele>
        <time>2009-12-06T04:40:38.000Z</time>
      </trkpt>
      <trkpt lat="48.69545" lon="1.90051">
        <ele>134.72</ele>
        <time>2009-12-06T04:40:42.000Z</time>
      </trkpt>
      <trkpt lat="48.69546" lon="1.90055">
        <ele>133.28</ele>
        <time>2009-12-06T04:40:44.000Z</time>
      </trkpt>
      <trkpt lat="48.69546" lon="1.9006">
        <ele>134.24</ele>
        <time>2009-12-06T04:40:46.000Z</time>
      </trkpt>
      <trkpt lat="48.69546" lon="1.90065">
        <ele>135.2</ele>
        <time>2009-12-06T04:40:50.000Z</time>
      </trkpt>
      <trkpt lat="48.69554" lon="1.90062">
        <ele>137.61</ele>
        <time>2009-12-06T04:40:56.000Z</time>
      </trkpt>
      <trkpt lat="48.69558" lon="1.90064">
        <ele>139.05</ele>
        <time>2009-12-06T04:41:03.000Z</time>
      </trkpt>
      <trkpt lat="48.6956" lon="1.90066">
        <ele>140.49</ele>
        <time>2009-12-06T04:41:05.000Z</time>
      </trkpt>
      <trkpt lat="48.69566" lon="1.90068">
        <ele>140.97</ele>
        <time>2009-12-06T04:41:12.000Z</time>
      </trkpt>
      <trkpt lat="48.69572" lon="1.90071">
        <ele>141.93</ele>
        <time>2009-12-06T04:41:16.000Z</time>
      </trkpt>
      <trkpt lat="48.69574" lon="1.90074">
        <ele>141.93</ele>
        <time>2009-12-06T04:41:20.000Z</time>
      </trkpt>
      <trkpt lat="48.69577" lon="1.90084">
        <ele>136.16</ele>
        <time>2009-12-06T04:41:25.000Z</time>
      </trkpt>
      <trkpt lat="48.69585" lon="1.90091">
        <ele>129.92</ele>
        <time>2009-12-06T04:41:30.000Z</time>
      </trkpt>
      <trkpt lat="48.6959" lon="1.90095">
        <ele>125.59</ele>
        <time>2009-12-06T04:41:34.000Z</time>
      </trkpt>
      <trkpt lat="48.69595" lon="1.90102">
        <ele>119.34</ele>
        <time>2009-12-06T04:41:39.000Z</time>
      </trkpt>
      <trkpt lat="48.69598" lon="1.90103">
        <ele>121.26</ele>
        <time>2009-12-06T04:41:40.000Z</time>
      </trkpt>
      <trkpt lat="48.69607" lon="1.90111">
        <ele>119.82</ele>
        <time>2009-12-06T04:41:46.000Z</time>
      </trkpt>
      <trkpt lat="48.6961" lon="1.90114">
        <ele>117.42</ele>
        <time>2009-12-06T04:41:51.000Z</time>
      </trkpt>
      <trkpt lat="48.69621" lon="1.90111">
        <ele>120.3</ele>
        <time>2009-12-06T04:41:56.000Z</time>
      </trkpt>
      <trkpt lat="48.6963" lon="1.90099">
        <ele>123.67</ele>
        <time>2009-12-06T04:42:01.000Z</time>
      </trkpt>
      <trkpt lat="48.69644" lon="1.90084">
        <ele>126.07</ele>
        <time>2009-12-06T04:42:07.000Z</time>
      </trkpt>
      <trkpt lat="48.69653" lon="1.9007">
        <ele>127.03</ele>
        <time>2009-12-06T04:42:12.000Z</time>
      </trkpt>
      <trkpt lat="48.69658" lon="1.90055">
        <ele>127.99</ele>
        <time>2009-12-06T04:42:17.000Z</time>
      </trkpt>
      <trkpt lat="48.69665" lon="1.90035">
        <ele>129.92</ele>
        <time>2009-12-06T04:42:23.000Z</time>
      </trkpt>
      <trkpt lat="48.69672" lon="1.90019">
        <ele>133.76</ele>
        <time>2009-12-06T04:42:28.000Z</time>
      </trkpt>
      <trkpt lat="48.69679" lon="1.90008">
        <ele>135.2</ele>
        <time>2009-12-06T04:42:32.000Z</time>
      </trkpt>
      <trkpt lat="48.69687" lon="1.8999">
        <ele>137.61</ele>
        <time>2009-12-06T04:42:38.000Z</time>
      </trkpt>
      <trkpt lat="48.69694" lon="1.89977">
        <ele>140.97</ele>
        <time>2009-12-06T04:42:43.000Z</time>
      </trkpt>
      <trkpt lat="48.69701" lon="1.89967">
        <ele>140.49</ele>
        <time>2009-12-06T04:42:48.000Z</time>
      </trkpt>
      <trkpt lat="48.69711" lon="1.89956">
        <ele>143.85</ele>
        <time>2009-12-06T04:42:53.000Z</time>
      </trkpt>
      <trkpt lat="48.69711" lon="1.89953">
        <ele>142.89</ele>
        <time>2009-12-06T04:42:54.000Z</time>
      </trkpt>
      <trkpt lat="48.69718" lon="1.89942">
        <ele>143.37</ele>
        <time>2009-12-06T04:42:59.000Z</time>
      </trkpt>
      <trkpt lat="48.6972" lon="1.89939">
        <ele>143.85</ele>
        <time>2009-12-06T04:43:00.000Z</time>
      </trkpt>
      <trkpt lat="48.69728" lon="1.89922">
        <ele>143.37</ele>
        <time>2009-12-06T04:43:06.000Z</time>
      </trkpt>
      <trkpt lat="48.69736" lon="1.89908">
        <ele>142.41</ele>
        <time>2009-12-06T04:43:11.000Z</time>
      </trkpt>
      <trkpt lat="48.69738" lon="1.89898">
        <ele>137.61</ele>
        <time>2009-12-06T04:43:15.000Z</time>
      </trkpt>
      <trkpt lat="48.69741" lon="1.89895">
        <ele>137.13</ele>
        <time>2009-12-06T04:43:17.000Z</time>
      </trkpt>
      <trkpt lat="48.69744" lon="1.8988">
        <ele>138.57</ele>
        <time>2009-12-06T04:43:22.000Z</time>
      </trkpt>
      <trkpt lat="48.69745" lon="1.89867">
        <ele>139.53</ele>
        <time>2009-12-06T04:43:27.000Z</time>
      </trkpt>
      <trkpt lat="48.69753" lon="1.89852">
        <ele>139.53</ele>
        <time>2009-12-06T04:43:33.000Z</time>
      </trkpt>
      <trkpt lat="48.69762" lon="1.89835">
        <ele>140.49</ele>
        <time>2009-12-06T04:43:39.000Z</time>
      </trkpt>
      <trkpt lat="48.69762" lon="1.89819">
        <ele>136.64</ele>
        <time>2009-12-06T04:43:45.000Z</time>
      </trkpt>
      <trkpt lat="48.69761" lon="1.89808">
        <ele>135.68</ele>
        <time>2009-12-06T04:43:48.000Z</time>
      </trkpt>
      <trkpt lat="48.69765" lon="1.89792">
        <ele>133.76</ele>
        <time>2009-12-06T04:43:53.000Z</time>
      </trkpt>
      <trkpt lat="48.69772" lon="1.89775">
        <ele>135.68</ele>
        <time>2009-12-06T04:43:59.000Z</time>
      </trkpt>
      <trkpt lat="48.69774" lon="1.89763">
        <ele>135.68</ele>
        <time>2009-12-06T04:44:04.000Z</time>
      </trkpt>
      <trkpt lat="48.69779" lon="1.89747">
        <ele>136.64</ele>
        <time>2009-12-06T04:44:09.000Z</time>
      </trkpt>
      <trkpt lat="48.6978" lon="1.89733">
        <ele>136.64</ele>
        <time>2009-12-06T04:44:13.000Z</time>
      </trkpt>
      <trkpt lat="48.69778" lon="1.89718">
        <ele>135.2</ele>
        <time>2009-12-06T04:44:18.000Z</time>
      </trkpt>
      <trkpt lat="48.69779" lon="1.89706">
        <ele>135.68</ele>
        <time>2009-12-06T04:44:22.000Z</time>
      </trkpt>
      <trkpt lat="48.69783" lon="1.89685">
        <ele>134.72</ele>
        <time>2009-12-06T04:44:28.000Z</time>
      </trkpt>
      <trkpt lat="48.69783" lon="1.89667">
        <ele>130.88</ele>
        <time>2009-12-06T04:44:33.000Z</time>
      </trkpt>
      <trkpt lat="48.69782" lon="1.89665">
        <ele>130.88</ele>
        <time>2009-12-06T04:44:34.000Z</time>
      </trkpt>
      <trkpt lat="48.69788" lon="1.89654">
        <ele>133.28</ele>
        <time>2009-12-06T04:44:38.000Z</time>
      </trkpt>
      <trkpt lat="48.69796" lon="1.89638">
        <ele>137.13</ele>
        <time>2009-12-06T04:44:45.000Z</time>
      </trkpt>
      <trkpt lat="48.69797" lon="1.89635">
        <ele>136.64</ele>
        <time>2009-12-06T04:44:46.000Z</time>
      </trkpt>
      <trkpt lat="48.69794" lon="1.89626">
        <ele>135.68</ele>
        <time>2009-12-06T04:44:51.000Z</time>
      </trkpt>
      <trkpt lat="48.69792" lon="1.89618">
        <ele>136.16</ele>
        <time>2009-12-06T04:44:56.000Z</time>
      </trkpt>
      <trkpt lat="48.69788" lon="1.89614">
        <ele>138.09</ele>
        <time>2009-12-06T04:45:00.000Z</time>
      </trkpt>
      <trkpt lat="48.69779" lon="1.8961">
        <ele>137.61</ele>
        <time>2009-12-06T04:45:08.000Z</time>
      </trkpt>
      <trkpt lat="48.69774" lon="1.8961">
        <ele>136.64</ele>
        <time>2009-12-06T04:45:11.000Z</time>
      </trkpt>
      <trkpt lat="48.6977" lon="1.89611">
        <ele>137.61</ele>
        <time>2009-12-06T04:45:15.000Z</time>
      </trkpt>
      <trkpt lat="48.69767" lon="1.89611">
        <ele>141.93</ele>
        <time>2009-12-06T04:45:19.000Z</time>
      </trkpt>
      <trkpt lat="48.69763" lon="1.89607">
        <ele>145.3</ele>
        <time>2009-12-06T04:45:25.000Z</time>
      </trkpt>
      <trkpt lat="48.69756" lon="1.89604">
        <ele>146.26</ele>
        <time>2009-12-06T04:45:30.000Z</time>
      </trkpt>
      <trkpt lat="48.69754" lon="1.89604">
        <ele>145.78</ele>
        <time>2009-12-06T04:45:31.000Z</time>
      </trkpt>
      <trkpt lat="48.69749" lon="1.89605">
        <ele>140.97</ele>
        <time>2009-12-06T04:45:37.000Z</time>
      </trkpt>
      <trkpt lat="48.69753" lon="1.89607">
        <ele>136.16</ele>
        <time>2009-12-06T04:45:42.000Z</time>
      </trkpt>
      <trkpt lat="48.69756" lon="1.89606">
        <ele>132.8</ele>
        <time>2009-12-06T04:45:47.000Z</time>
      </trkpt>
      <trkpt lat="48.69755" lon="1.89601">
        <ele>130.4</ele>
        <time>2009-12-06T04:45:50.000Z</time>
      </trkpt>
      <trkpt lat="48.69751" lon="1.89595">
        <ele>130.4</ele>
        <time>2009-12-06T04:45:53.000Z</time>
      </trkpt>
      <trkpt lat="48.69748" lon="1.89578">
        <ele>130.4</ele>
        <time>2009-12-06T04:45:59.000Z</time>
      </trkpt>
      <trkpt lat="48.69744" lon="1.89567">
        <ele>131.36</ele>
        <time>2009-12-06T04:46:03.000Z</time>
      </trkpt>
      <trkpt lat="48.69743" lon="1.89562">
        <ele>130.88</ele>
        <time>2009-12-06T04:46:05.000Z</time>
      </trkpt>
      <trkpt lat="48.69737" lon="1.89551">
        <ele>135.2</ele>
        <time>2009-12-06T04:46:12.000Z</time>
      </trkpt>
      <trkpt lat="48.69736" lon="1.89546">
        <ele>140.01</ele>
        <time>2009-12-06T04:46:19.000Z</time>
      </trkpt>
      <trkpt lat="48.69729" lon="1.89538">
        <ele>140.97</ele>
        <time>2009-12-06T04:46:25.000Z</time>
      </trkpt>
      <trkpt lat="48.69728" lon="1.89536">
        <ele>140.97</ele>
        <time>2009-12-06T04:46:26.000Z</time>
      </trkpt>
      <trkpt lat="48.6972" lon="1.89528">
        <ele>143.85</ele>
        <time>2009-12-06T04:46:31.000Z</time>
      </trkpt>
      <trkpt lat="48.69715" lon="1.89521">
        <ele>145.78</ele>
        <time>2009-12-06T04:46:35.000Z</time>
      </trkpt>
      <trkpt lat="48.69711" lon="1.89515">
        <ele>144.82</ele>
        <time>2009-12-06T04:46:40.000Z</time>
      </trkpt>
      <trkpt lat="48.69707" lon="1.89503">
        <ele>142.89</ele>
        <time>2009-12-06T04:46:47.000Z</time>
      </trkpt>
      <trkpt lat="48.69699" lon="1.89497">
        <ele>140.97</ele>
        <time>2009-12-06T04:46:53.000Z</time>
      </trkpt>
      <trkpt lat="48.69691" lon="1.89493">
        <ele>140.49</ele>
        <time>2009-12-06T04:46:58.000Z</time>
      </trkpt>
      <trkpt lat="48.69687" lon="1.8949">
        <ele>140.01</ele>
        <time>2009-12-06T04:47:03.000Z</time>
      </trkpt>
      <trkpt lat="48.69685" lon="1.89486">
        <ele>138.57</ele>
        <time>2009-12-06T04:47:08.000Z</time>
      </trkpt>
      <trkpt lat="48.69683" lon="1.89481">
        <ele>137.13</ele>
        <time>2009-12-06T04:47:10.000Z</time>
      </trkpt>
      <trkpt lat="48.69674" lon="1.89465">
        <ele>133.76</ele>
        <time>2009-12-06T04:47:17.000Z</time>
      </trkpt>
      <trkpt lat="48.6967" lon="1.8945">
        <ele>136.16</ele>
        <time>2009-12-06T04:47:23.000Z</time>
      </trkpt>
      <trkpt lat="48.69666" lon="1.89443">
        <ele>134.72</ele>
        <time>2009-12-06T04:47:28.000Z</time>
      </trkpt>
      <trkpt lat="48.69663" lon="1.89436">
        <ele>136.16</ele>
        <time>2009-12-06T04:47:32.000Z</time>
      </trkpt>
      <trkpt lat="48.69656" lon="1.89427">
        <ele>135.68</ele>
        <time>2009-12-06T04:47:37.000Z</time>
      </trkpt>
      <trkpt lat="48.69648" lon="1.89415">
        <ele>138.09</ele>
        <time>2009-12-06T04:47:42.000Z</time>
      </trkpt>
      <trkpt lat="48.69641" lon="1.89404">
        <ele>140.49</ele>
        <time>2009-12-06T04:47:48.000Z</time>
      </trkpt>
      <trkpt lat="48.69639" lon="1.89399">
        <ele>141.93</ele>
        <time>2009-12-06T04:47:53.000Z</time>
      </trkpt>
      <trkpt lat="48.69639" lon="1.89396">
        <ele>141.45</ele>
        <time>2009-12-06T04:47:55.000Z</time>
      </trkpt>
      <trkpt lat="48.69635" lon="1.89381">
        <ele>139.53</ele>
        <time>2009-12-06T04:48:00.000Z</time>
      </trkpt>
      <trkpt lat="48.6963" lon="1.89369">
        <ele>139.05</ele>
        <time>2009-12-06T04:48:07.000Z</time>
      </trkpt>
      <trkpt lat="48.69629" lon="1.89363">
        <ele>141.93</ele>
        <time>2009-12-06T04:48:11.000Z</time>
      </trkpt>
      <trkpt lat="48.69626" lon="1.89357">
        <ele>144.34</ele>
        <time>2009-12-06T04:48:17.000Z</time>
      </trkpt>
      <trkpt lat="48.69624" lon="1.89351">
        <ele>146.26</ele>
        <time>2009-12-06T04:48:21.000Z</time>
      </trkpt>
      <trkpt lat="48.69624" lon="1.89347">
        <ele>145.78</ele>
        <time>2009-12-06T04:48:23.000Z</time>
      </trkpt>
      <trkpt lat="48.69623" lon="1.89339">
        <ele>145.78</ele>
        <time>2009-12-06T04:48:28.000Z</time>
      </trkpt>
      <trkpt lat="48.69624" lon="1.89326">
        <ele>143.85</ele>
        <time>2009-12-06T04:48:36.000Z</time>
      </trkpt>
      <trkpt lat="48.69625" lon="1.89323">
        <ele>143.37</ele>
        <time>2009-12-06T04:48:39.000Z</time>
      </trkpt>
      <trkpt lat="48.69629" lon="1.89319">
        <ele>140.49</ele>
        <time>2009-12-06T04:48:45.000Z</time>
      </trkpt>
      <trkpt lat="48.69628" lon="1.89315">
        <ele>137.13</ele>
        <time>2009-12-06T04:48:49.000Z</time>
      </trkpt>
      <trkpt lat="48.6963" lon="1.89313">
        <ele>138.09</ele>
        <time>2009-12-06T04:48:54.000Z</time>
      </trkpt>
      <trkpt lat="48.6963" lon="1.89312">
        <ele>137.61</ele>
        <time>2009-12-06T04:48:55.000Z</time>
      </trkpt>
      <trkpt lat="48.6963" lon="1.89304">
        <ele>140.97</ele>
        <time>2009-12-06T04:49:01.000Z</time>
      </trkpt>
      <trkpt lat="48.6963" lon="1.89296">
        <ele>139.53</ele>
        <time>2009-12-06T04:49:07.000Z</time>
      </trkpt>
      <trkpt lat="48.69632" lon="1.89291">
        <ele>140.97</ele>
        <time>2009-12-06T04:49:11.000Z</time>
      </trkpt>
      <trkpt lat="48.69631" lon="1.89281">
        <ele>143.37</ele>
        <time>2009-12-06T04:49:16.000Z</time>
      </trkpt>
      <trkpt lat="48.69627" lon="1.89276">
        <ele>144.82</ele>
        <time>2009-12-06T04:49:21.000Z</time>
      </trkpt>
      <trkpt lat="48.69626" lon="1.89269">
        <ele>144.82</ele>
        <time>2009-12-06T04:49:25.000Z</time>
      </trkpt>
      <trkpt lat="48.69626" lon="1.89266">
        <ele>144.34</ele>
        <time>2009-12-06T04:49:26.000Z</time>
      </trkpt>
      <trkpt lat="48.69626" lon="1.89255">
        <ele>144.34</ele>
        <time>2009-12-06T04:49:30.000Z</time>
      </trkpt>
      <trkpt lat="48.69626" lon="1.89249">
        <ele>144.82</ele>
        <time>2009-12-06T04:49:32.000Z</time>
      </trkpt>
      <trkpt lat="48.69624" lon="1.89237">
        <ele>143.85</ele>
        <time>2009-12-06T04:49:37.000Z</time>
      </trkpt>
      <trkpt lat="48.69623" lon="1.8923">
        <ele>142.89</ele>
        <time>2009-12-06T04:49:40.000Z</time>
      </trkpt>
      <trkpt lat="48.69614" lon="1.89212">
        <ele>145.3</ele>
        <time>2009-12-06T04:49:46.000Z</time>
      </trkpt>
      <trkpt lat="48.69602" lon="1.89201">
        <ele>146.74</ele>
        <time>2009-12-06T04:49:52.000Z</time>
      </trkpt>
      <trkpt lat="48.69598" lon="1.89197">
        <ele>146.74</ele>
        <time>2009-12-06T04:49:54.000Z</time>
      </trkpt>
      <trkpt lat="48.69592" lon="1.89187">
        <ele>148.66</ele>
        <time>2009-12-06T04:49:58.000Z</time>
      </trkpt>
      <trkpt lat="48.69588" lon="1.89183">
        <ele>148.66</ele>
        <time>2009-12-06T04:50:01.000Z</time>
      </trkpt>
      <trkpt lat="48.69584" lon="1.89178">
        <ele>148.18</ele>
        <time>2009-12-06T04:50:06.000Z</time>
      </trkpt>
      <trkpt lat="48.69579" lon="1.89172">
        <ele>146.74</ele>
        <time>2009-12-06T04:50:11.000Z</time>
      </trkpt>
      <trkpt lat="48.69576" lon="1.89166">
        <ele>148.66</ele>
        <time>2009-12-06T04:50:16.000Z</time>
      </trkpt>
      <trkpt lat="48.69571" lon="1.89159">
        <ele>148.18</ele>
        <time>2009-12-06T04:50:22.000Z</time>
      </trkpt>
      <trkpt lat="48.69569" lon="1.89154">
        <ele>148.66</ele>
        <time>2009-12-06T04:50:26.000Z</time>
      </trkpt>
      <trkpt lat="48.69563" lon="1.89142">
        <ele>151.06</ele>
        <time>2009-12-06T04:50:36.000Z</time>
      </trkpt>
      <trkpt lat="48.69554" lon="1.8913">
        <ele>150.1</ele>
        <time>2009-12-06T04:50:43.000Z</time>
      </trkpt>
      <trkpt lat="48.69552" lon="1.89129">
        <ele>150.1</ele>
        <time>2009-12-06T04:50:44.000Z</time>
      </trkpt>
      <trkpt lat="48.69546" lon="1.89125">
        <ele>149.14</ele>
        <time>2009-12-06T04:50:50.000Z</time>
      </trkpt>
      <trkpt lat="48.69542" lon="1.8912">
        <ele>151.06</ele>
        <time>2009-12-06T04:50:54.000Z</time>
      </trkpt>
      <trkpt lat="48.69538" lon="1.89114">
        <ele>152.51</ele>
        <time>2009-12-06T04:50:59.000Z</time>
      </trkpt>
      <trkpt lat="48.69537" lon="1.89109">
        <ele>152.99</ele>
        <time>2009-12-06T04:51:02.000Z</time>
      </trkpt>
      <trkpt lat="48.69533" lon="1.89101">
        <ele>154.43</ele>
        <time>2009-12-06T04:51:07.000Z</time>
      </trkpt>
      <trkpt lat="48.69527" lon="1.89091">
        <ele>150.58</ele>
        <time>2009-12-06T04:51:13.000Z</time>
      </trkpt>
      <trkpt lat="48.69528" lon="1.89086">
        <ele>149.62</ele>
        <time>2009-12-06T04:51:18.000Z</time>
      </trkpt>
      <trkpt lat="48.69529" lon="1.89085">
        <ele>150.1</ele>
        <time>2009-12-06T04:51:19.000Z</time>
      </trkpt>
      <trkpt lat="48.69534" lon="1.89075">
        <ele>150.58</ele>
        <time>2009-12-06T04:51:24.000Z</time>
      </trkpt>
      <trkpt lat="48.69538" lon="1.89061">
        <ele>149.14</ele>
        <time>2009-12-06T04:51:29.000Z</time>
      </trkpt>
      <trkpt lat="48.69542" lon="1.89057">
        <ele>149.62</ele>
        <time>2009-12-06T04:51:32.000Z</time>
      </trkpt>
      <trkpt lat="48.69545" lon="1.8905">
        <ele>150.1</ele>
        <time>2009-12-06T04:51:38.000Z</time>
      </trkpt>
      <trkpt lat="48.69547" lon="1.89045">
        <ele>150.58</ele>
        <time>2009-12-06T04:51:43.000Z</time>
      </trkpt>
      <trkpt lat="48.69548" lon="1.89038">
        <ele>147.7</ele>
        <time>2009-12-06T04:51:47.000Z</time>
      </trkpt>
      <trkpt lat="48.69548" lon="1.89037">
        <ele>146.74</ele>
        <time>2009-12-06T04:51:48.000Z</time>
      </trkpt>
      <trkpt lat="48.69548" lon="1.8903">
        <ele>148.18</ele>
        <time>2009-12-06T04:51:51.000Z</time>
      </trkpt>
      <trkpt lat="48.69547" lon="1.89021">
        <ele>146.74</ele>
        <time>2009-12-06T04:51:55.000Z</time>
      </trkpt>
      <trkpt lat="48.69537" lon="1.89014">
        <ele>143.37</ele>
        <time>2009-12-06T04:52:02.000Z</time>
      </trkpt>
      <trkpt lat="48.69529" lon="1.8901">
        <ele>141.93</ele>
        <time>2009-12-06T04:52:06.000Z</time>
      </trkpt>
      <trkpt lat="48.69521" lon="1.89003">
        <ele>142.41</ele>
        <time>2009-12-06T04:52:11.000Z</time>
      </trkpt>
      <trkpt lat="48.69513" lon="1.88997">
        <ele>144.34</ele>
        <time>2009-12-06T04:52:15.000Z</time>
      </trkpt>
      <trkpt lat="48.69503" lon="1.88988">
        <ele>146.74</ele>
        <time>2009-12-06T04:52:22.000Z</time>
      </trkpt>
      <trkpt lat="48.69497" lon="1.88983">
        <ele>146.26</ele>
        <time>2009-12-06T04:52:27.000Z</time>
      </trkpt>
      <trkpt lat="48.69486" lon="1.88975">
        <ele>148.18</ele>
        <time>2009-12-06T04:52:33.000Z</time>
      </trkpt>
      <trkpt lat="48.69483" lon="1.88969">
        <ele>150.58</ele>
        <time>2009-12-06T04:52:37.000Z</time>
      </trkpt>
      <trkpt lat="48.69485" lon="1.88958">
        <ele>153.95</ele>
        <time>2009-12-06T04:52:44.000Z</time>
      </trkpt>
      <trkpt lat="48.69485" lon="1.88956">
        <ele>154.43</ele>
        <time>2009-12-06T04:52:45.000Z</time>
      </trkpt>
      <trkpt lat="48.69487" lon="1.88949">
        <ele>154.43</ele>
        <time>2009-12-06T04:52:51.000Z</time>
      </trkpt>
      <trkpt lat="48.69492" lon="1.88941">
        <ele>156.35</ele>
        <time>2009-12-06T04:52:57.000Z</time>
      </trkpt>
      <trkpt lat="48.69494" lon="1.88937">
        <ele>156.83</ele>
        <time>2009-12-06T04:53:00.000Z</time>
      </trkpt>
      <trkpt lat="48.69495" lon="1.88926">
        <ele>158.27</ele>
        <time>2009-12-06T04:53:04.000Z</time>
      </trkpt>
      <trkpt lat="48.69492" lon="1.88915">
        <ele>158.75</ele>
        <time>2009-12-06T04:53:09.000Z</time>
      </trkpt>
      <trkpt lat="48.6949" lon="1.88912">
        <ele>159.24</ele>
        <time>2009-12-06T04:53:12.000Z</time>
      </trkpt>
      <trkpt lat="48.69487" lon="1.88904">
        <ele>157.31</ele>
        <time>2009-12-06T04:53:18.000Z</time>
      </trkpt>
      <trkpt lat="48.69487" lon="1.88903">
        <ele>158.27</ele>
        <time>2009-12-06T04:53:19.000Z</time>
      </trkpt>
      <trkpt lat="48.69487" lon="1.88894">
        <ele>159.72</ele>
        <time>2009-12-06T04:53:25.000Z</time>
      </trkpt>
      <trkpt lat="48.69485" lon="1.88891">
        <ele>158.75</ele>
        <time>2009-12-06T04:53:27.000Z</time>
      </trkpt>
      <trkpt lat="48.69484" lon="1.88883">
        <ele>157.79</ele>
        <time>2009-12-06T04:53:32.000Z</time>
      </trkpt>
      <trkpt lat="48.69484" lon="1.88876">
        <ele>159.72</ele>
        <time>2009-12-06T04:53:37.000Z</time>
      </trkpt>
      <trkpt lat="48.69483" lon="1.88868">
        <ele>160.68</ele>
        <time>2009-12-06T04:53:42.000Z</time>
      </trkpt>
      <trkpt lat="48.69483" lon="1.88859">
        <ele>161.16</ele>
        <time>2009-12-06T04:53:48.000Z</time>
      </trkpt>
      <trkpt lat="48.69483" lon="1.88853">
        <ele>163.08</ele>
        <time>2009-12-06T04:53:52.000Z</time>
      </trkpt>
      <trkpt lat="48.69487" lon="1.88847">
        <ele>164.04</ele>
        <time>2009-12-06T04:53:57.000Z</time>
      </trkpt>
      <trkpt lat="48.69489" lon="1.88842">
        <ele>165.48</ele>
        <time>2009-12-06T04:54:01.000Z</time>
      </trkpt>
      <trkpt lat="48.69493" lon="1.88835">
        <ele>166.45</ele>
        <time>2009-12-06T04:54:06.000Z</time>
      </trkpt>
      <trkpt lat="48.69493" lon="1.88833">
        <ele>166.93</ele>
        <time>2009-12-06T04:54:07.000Z</time>
      </trkpt>
      <trkpt lat="48.69497" lon="1.88823">
        <ele>167.41</ele>
        <time>2009-12-06T04:54:13.000Z</time>
      </trkpt>
      <trkpt lat="48.69498" lon="1.8882">
        <ele>167.41</ele>
        <time>2009-12-06T04:54:16.000Z</time>
      </trkpt>
      <trkpt lat="48.69501" lon="1.88809">
        <ele>167.41</ele>
        <time>2009-12-06T04:54:24.000Z</time>
      </trkpt>
      <trkpt lat="48.69505" lon="1.88797">
        <ele>166.45</ele>
        <time>2009-12-06T04:54:31.000Z</time>
      </trkpt>
      <trkpt lat="48.69505" lon="1.88794">
        <ele>166.45</ele>
        <time>2009-12-06T04:54:33.000Z</time>
      </trkpt>
      <trkpt lat="48.69509" lon="1.88782">
        <ele>165.96</ele>
        <time>2009-12-06T04:54:39.000Z</time>
      </trkpt>
      <trkpt lat="48.6951" lon="1.8878">
        <ele>166.45</ele>
        <time>2009-12-06T04:54:40.000Z</time>
      </trkpt>
      <trkpt lat="48.69512" lon="1.88776">
        <ele>166.93</ele>
        <time>2009-12-06T04:54:42.000Z</time>
      </trkpt>
      <trkpt lat="48.69515" lon="1.88763">
        <ele>168.37</ele>
        <time>2009-12-06T04:54:48.000Z</time>
      </trkpt>
      <trkpt lat="48.69516" lon="1.8876">
        <ele>168.85</ele>
        <time>2009-12-06T04:54:49.000Z</time>
      </trkpt>
      <trkpt lat="48.69518" lon="1.88749">
        <ele>167.41</ele>
        <time>2009-12-06T04:54:55.000Z</time>
      </trkpt>
      <trkpt lat="48.69517" lon="1.88739">
        <ele>164.04</ele>
        <time>2009-12-06T04:55:00.000Z</time>
      </trkpt>
      <trkpt lat="48.69519" lon="1.88734">
        <ele>163.08</ele>
        <time>2009-12-06T04:55:03.000Z</time>
      </trkpt>
      <trkpt lat="48.69522" lon="1.88723">
        <ele>162.6</ele>
        <time>2009-12-06T04:55:09.000Z</time>
      </trkpt>
      <trkpt lat="48.69524" lon="1.88714">
        <ele>162.6</ele>
        <time>2009-12-06T04:55:13.000Z</time>
      </trkpt>
      <trkpt lat="48.69528" lon="1.887">
        <ele>163.08</ele>
        <time>2009-12-06T04:55:20.000Z</time>
      </trkpt>
      <trkpt lat="48.69531" lon="1.88692">
        <ele>163.08</ele>
        <time>2009-12-06T04:55:23.000Z</time>
      </trkpt>
      <trkpt lat="48.69543" lon="1.88673">
        <ele>166.93</ele>
        <time>2009-12-06T04:55:30.000Z</time>
      </trkpt>
      <trkpt lat="48.6955" lon="1.88655">
        <ele>167.41</ele>
        <time>2009-12-06T04:55:36.000Z</time>
      </trkpt>
      <trkpt lat="48.69551" lon="1.88645">
        <ele>166.93</ele>
        <time>2009-12-06T04:55:39.000Z</time>
      </trkpt>
      <trkpt lat="48.69553" lon="1.88632">
        <ele>166.45</ele>
        <time>2009-12-06T04:55:43.000Z</time>
      </trkpt>
      <trkpt lat="48.69553" lon="1.88625">
        <ele>166.45</ele>
        <time>2009-12-06T04:55:45.000Z</time>
      </trkpt>
      <trkpt lat="48.69557" lon="1.8861">
        <ele>165.96</ele>
        <time>2009-12-06T04:55:50.000Z</time>
      </trkpt>
      <trkpt lat="48.69561" lon="1.88594">
        <ele>165.48</ele>
        <time>2009-12-06T04:55:55.000Z</time>
      </trkpt>
      <trkpt lat="48.69564" lon="1.88581">
        <ele>166.93</ele>
        <time>2009-12-06T04:55:59.000Z</time>
      </trkpt>
      <trkpt lat="48.69566" lon="1.88563">
        <ele>167.41</ele>
        <time>2009-12-06T04:56:04.000Z</time>
      </trkpt>
      <trkpt lat="48.69567" lon="1.88547">
        <ele>167.89</ele>
        <time>2009-12-06T04:56:09.000Z</time>
      </trkpt>
      <trkpt lat="48.69568" lon="1.88534">
        <ele>166.93</ele>
        <time>2009-12-06T04:56:13.000Z</time>
      </trkpt>
      <trkpt lat="48.69571" lon="1.88522">
        <ele>166.93</ele>
        <time>2009-12-06T04:56:17.000Z</time>
      </trkpt>
      <trkpt lat="48.69576" lon="1.88505">
        <ele>168.37</ele>
        <time>2009-12-06T04:56:23.000Z</time>
      </trkpt>
      <trkpt lat="48.69581" lon="1.88491">
        <ele>167.89</ele>
        <time>2009-12-06T04:56:28.000Z</time>
      </trkpt>
      <trkpt lat="48.69585" lon="1.88481">
        <ele>167.41</ele>
        <time>2009-12-06T04:56:33.000Z</time>
      </trkpt>
      <trkpt lat="48.69591" lon="1.88469">
        <ele>167.41</ele>
        <time>2009-12-06T04:56:38.000Z</time>
      </trkpt>
      <trkpt lat="48.69596" lon="1.8846">
        <ele>166.45</ele>
        <time>2009-12-06T04:56:43.000Z</time>
      </trkpt>
      <trkpt lat="48.69604" lon="1.88436">
        <ele>164.52</ele>
        <time>2009-12-06T04:56:50.000Z</time>
      </trkpt>
      <trkpt lat="48.69611" lon="1.88422">
        <ele>165</ele>
        <time>2009-12-06T04:56:55.000Z</time>
      </trkpt>
      <trkpt lat="48.69613" lon="1.88418">
        <ele>165</ele>
        <time>2009-12-06T04:56:57.000Z</time>
      </trkpt>
      <trkpt lat="48.69616" lon="1.88405">
        <ele>163.56</ele>
        <time>2009-12-06T04:57:02.000Z</time>
      </trkpt>
      <trkpt lat="48.69621" lon="1.88391">
        <ele>162.6</ele>
        <time>2009-12-06T04:57:07.000Z</time>
      </trkpt>
      <trkpt lat="48.69626" lon="1.88379">
        <ele>162.6</ele>
        <time>2009-12-06T04:57:11.000Z</time>
      </trkpt>
      <trkpt lat="48.69631" lon="1.88368">
        <ele>162.12</ele>
        <time>2009-12-06T04:57:15.000Z</time>
      </trkpt>
      <trkpt lat="48.69641" lon="1.88351">
        <ele>161.64</ele>
        <time>2009-12-06T04:57:21.000Z</time>
      </trkpt>
      <trkpt lat="48.69648" lon="1.88335">
        <ele>162.6</ele>
        <time>2009-12-06T04:57:26.000Z</time>
      </trkpt>
      <trkpt lat="48.69653" lon="1.88321">
        <ele>162.6</ele>
        <time>2009-12-06T04:57:31.000Z</time>
      </trkpt>
      <trkpt lat="48.69661" lon="1.88304">
        <ele>164.04</ele>
        <time>2009-12-06T04:57:37.000Z</time>
      </trkpt>
      <trkpt lat="48.69664" lon="1.88288">
        <ele>164.52</ele>
        <time>2009-12-06T04:57:42.000Z</time>
      </trkpt>
      <trkpt lat="48.6967" lon="1.88278">
        <ele>165.48</ele>
        <time>2009-12-06T04:57:46.000Z</time>
      </trkpt>
      <trkpt lat="48.69675" lon="1.88264">
        <ele>165</ele>
        <time>2009-12-06T04:57:51.000Z</time>
      </trkpt>
      <trkpt lat="48.6968" lon="1.88249">
        <ele>165</ele>
        <time>2009-12-06T04:57:56.000Z</time>
      </trkpt>
      <trkpt lat="48.69688" lon="1.88241">
        <ele>165.48</ele>
        <time>2009-12-06T04:58:00.000Z</time>
      </trkpt>
      <trkpt lat="48.69697" lon="1.88242">
        <ele>164.04</ele>
        <time>2009-12-06T04:58:04.000Z</time>
      </trkpt>
      <trkpt lat="48.69707" lon="1.88248">
        <ele>163.08</ele>
        <time>2009-12-06T04:58:09.000Z</time>
      </trkpt>
      <trkpt lat="48.69717" lon="1.88259">
        <ele>163.56</ele>
        <time>2009-12-06T04:58:14.000Z</time>
      </trkpt>
      <trkpt lat="48.69725" lon="1.88253">
        <ele>162.6</ele>
        <time>2009-12-06T04:58:19.000Z</time>
      </trkpt>
      <trkpt lat="48.69728" lon="1.88244">
        <ele>160.68</ele>
        <time>2009-12-06T04:58:22.000Z</time>
      </trkpt>
      <trkpt lat="48.69736" lon="1.8823">
        <ele>162.12</ele>
        <time>2009-12-06T04:58:27.000Z</time>
      </trkpt>
      <trkpt lat="48.69746" lon="1.88219">
        <ele>163.08</ele>
        <time>2009-12-06T04:58:32.000Z</time>
      </trkpt>
      <trkpt lat="48.69752" lon="1.88205">
        <ele>165</ele>
        <time>2009-12-06T04:58:37.000Z</time>
      </trkpt>
      <trkpt lat="48.69754" lon="1.88185">
        <ele>166.93</ele>
        <time>2009-12-06T04:58:43.000Z</time>
      </trkpt>
      <trkpt lat="48.69758" lon="1.88175">
        <ele>165.96</ele>
        <time>2009-12-06T04:58:48.000Z</time>
      </trkpt>
      <trkpt lat="48.69765" lon="1.8817">
        <ele>163.56</ele>
        <time>2009-12-06T04:58:54.000Z</time>
      </trkpt>
      <trkpt lat="48.69769" lon="1.88164">
        <ele>164.52</ele>
        <time>2009-12-06T04:58:58.000Z</time>
      </trkpt>
      <trkpt lat="48.69781" lon="1.88159">
        <ele>165.96</ele>
        <time>2009-12-06T04:59:03.000Z</time>
      </trkpt>
      <trkpt lat="48.69783" lon="1.88157">
        <ele>165</ele>
        <time>2009-12-06T04:59:04.000Z</time>
      </trkpt>
      <trkpt lat="48.69789" lon="1.8815">
        <ele>164.52</ele>
        <time>2009-12-06T04:59:08.000Z</time>
      </trkpt>
      <trkpt lat="48.698" lon="1.88136">
        <ele>162.6</ele>
        <time>2009-12-06T04:59:16.000Z</time>
      </trkpt>
      <trkpt lat="48.69808" lon="1.88129">
        <ele>160.68</ele>
        <time>2009-12-06T04:59:20.000Z</time>
      </trkpt>
      <trkpt lat="48.69821" lon="1.8812">
        <ele>160.68</ele>
        <time>2009-12-06T04:59:26.000Z</time>
      </trkpt>
      <trkpt lat="48.69828" lon="1.88118">
        <ele>160.68</ele>
        <time>2009-12-06T04:59:30.000Z</time>
      </trkpt>
      <trkpt lat="48.69833" lon="1.88118">
        <ele>161.16</ele>
        <time>2009-12-06T04:59:32.000Z</time>
      </trkpt>
      <trkpt lat="48.69839" lon="1.88124">
        <ele>162.12</ele>
        <time>2009-12-06T04:59:36.000Z</time>
      </trkpt>
      <trkpt lat="48.69845" lon="1.88128">
        <ele>160.68</ele>
        <time>2009-12-06T04:59:39.000Z</time>
      </trkpt>
      <trkpt lat="48.69847" lon="1.8813">
        <ele>161.16</ele>
        <time>2009-12-06T04:59:41.000Z</time>
      </trkpt>
      <trkpt lat="48.69859" lon="1.88129">
        <ele>159.72</ele>
        <time>2009-12-06T04:59:46.000Z</time>
      </trkpt>
      <trkpt lat="48.69875" lon="1.88127">
        <ele>159.72</ele>
        <time>2009-12-06T04:59:53.000Z</time>
      </trkpt>
      <trkpt lat="48.69878" lon="1.88127">
        <ele>161.16</ele>
        <time>2009-12-06T04:59:55.000Z</time>
      </trkpt>
      <trkpt lat="48.6989" lon="1.88129">
        <ele>157.79</ele>
        <time>2009-12-06T05:00:00.000Z</time>
      </trkpt>
      <trkpt lat="48.69896" lon="1.88129">
        <ele>156.83</ele>
        <time>2009-12-06T05:00:04.000Z</time>
      </trkpt>
      <trkpt lat="48.69908" lon="1.88134">
        <ele>156.35</ele>
        <time>2009-12-06T05:00:09.000Z</time>
      </trkpt>
      <trkpt lat="48.69916" lon="1.88133">
        <ele>154.91</ele>
        <time>2009-12-06T05:00:14.000Z</time>
      </trkpt>
      <trkpt lat="48.69928" lon="1.88136">
        <ele>153.47</ele>
        <time>2009-12-06T05:00:19.000Z</time>
      </trkpt>
      <trkpt lat="48.69932" lon="1.88136">
        <ele>152.51</ele>
        <time>2009-12-06T05:00:22.000Z</time>
      </trkpt>
      <trkpt lat="48.69941" lon="1.88137">
        <ele>150.1</ele>
        <time>2009-12-06T05:00:26.000Z</time>
      </trkpt>
      <trkpt lat="48.69957" lon="1.8813">
        <ele>146.26</ele>
        <time>2009-12-06T05:00:32.000Z</time>
      </trkpt>
      <trkpt lat="48.69959" lon="1.88125">
        <ele>144.82</ele>
        <time>2009-12-06T05:00:34.000Z</time>
      </trkpt>
      <trkpt lat="48.6996" lon="1.88121">
        <ele>143.37</ele>
        <time>2009-12-06T05:00:36.000Z</time>
      </trkpt>
      <trkpt lat="48.69951" lon="1.88111">
        <ele>142.89</ele>
        <time>2009-12-06T05:00:41.000Z</time>
      </trkpt>
      <trkpt lat="48.69935" lon="1.88102">
        <ele>140.49</ele>
        <time>2009-12-06T05:00:48.000Z</time>
      </trkpt>
      <trkpt lat="48.69925" lon="1.88094">
        <ele>140.49</ele>
        <time>2009-12-06T05:00:53.000Z</time>
      </trkpt>
      <trkpt lat="48.69925" lon="1.88093">
        <ele>140.49</ele>
        <time>2009-12-06T05:00:54.000Z</time>
      </trkpt>
      <trkpt lat="48.69919" lon="1.88085">
        <ele>140.97</ele>
        <time>2009-12-06T05:00:58.000Z</time>
      </trkpt>
      <trkpt lat="48.69909" lon="1.88069">
        <ele>140.97</ele>
        <time>2009-12-06T05:01:04.000Z</time>
      </trkpt>
      <trkpt lat="48.69905" lon="1.88058">
        <ele>141.45</ele>
        <time>2009-12-06T05:01:08.000Z</time>
      </trkpt>
      <trkpt lat="48.69899" lon="1.88041">
        <ele>141.93</ele>
        <time>2009-12-06T05:01:14.000Z</time>
      </trkpt>
      <trkpt lat="48.69894" lon="1.88026">
        <ele>141.45</ele>
        <time>2009-12-06T05:01:19.000Z</time>
      </trkpt>
      <trkpt lat="48.69888" lon="1.88014">
        <ele>140.97</ele>
        <time>2009-12-06T05:01:24.000Z</time>
      </trkpt>
      <trkpt lat="48.69883" lon="1.88005">
        <ele>141.93</ele>
        <time>2009-12-06T05:01:29.000Z</time>
      </trkpt>
      <trkpt lat="48.69879" lon="1.87993">
        <ele>141.45</ele>
        <time>2009-12-06T05:01:34.000Z</time>
      </trkpt>
      <trkpt lat="48.6987" lon="1.87985">
        <ele>142.41</ele>
        <time>2009-12-06T05:01:39.000Z</time>
      </trkpt>
      <trkpt lat="48.69868" lon="1.87983">
        <ele>142.89</ele>
        <time>2009-12-06T05:01:40.000Z</time>
      </trkpt>
      <trkpt lat="48.69858" lon="1.87978">
        <ele>142.89</ele>
        <time>2009-12-06T05:01:46.000Z</time>
      </trkpt>
      <trkpt lat="48.69852" lon="1.87973">
        <ele>144.34</ele>
        <time>2009-12-06T05:01:50.000Z</time>
      </trkpt>
      <trkpt lat="48.6985" lon="1.87962">
        <ele>147.22</ele>
        <time>2009-12-06T05:01:54.000Z</time>
      </trkpt>
      <trkpt lat="48.69849" lon="1.87945">
        <ele>148.18</ele>
        <time>2009-12-06T05:01:59.000Z</time>
      </trkpt>
      <trkpt lat="48.69846" lon="1.87929">
        <ele>149.14</ele>
        <time>2009-12-06T05:02:04.000Z</time>
      </trkpt>
      <trkpt lat="48.69843" lon="1.87909">
        <ele>147.22</ele>
        <time>2009-12-06T05:02:10.000Z</time>
      </trkpt>
      <trkpt lat="48.69839" lon="1.87895">
        <ele>146.74</ele>
        <time>2009-12-06T05:02:15.000Z</time>
      </trkpt>
      <trkpt lat="48.6984" lon="1.87879">
        <ele>145.3</ele>
        <time>2009-12-06T05:02:20.000Z</time>
      </trkpt>
      <trkpt lat="48.6984" lon="1.87876">
        <ele>145.3</ele>
        <time>2009-12-06T05:02:21.000Z</time>
      </trkpt>
      <trkpt lat="48.69841" lon="1.87868">
        <ele>146.74</ele>
        <time>2009-12-06T05:02:25.000Z</time>
      </trkpt>
      <trkpt lat="48.6984" lon="1.87862">
        <ele>146.26</ele>
        <time>2009-12-06T05:02:28.000Z</time>
      </trkpt>
      <trkpt lat="48.69839" lon="1.8785">
        <ele>145.78</ele>
        <time>2009-12-06T05:02:34.000Z</time>
      </trkpt>
      <trkpt lat="48.69838" lon="1.87842">
        <ele>145.3</ele>
        <time>2009-12-06T05:02:37.000Z</time>
      </trkpt>
      <trkpt lat="48.69834" lon="1.87831">
        <ele>144.34</ele>
        <time>2009-12-06T05:02:42.000Z</time>
      </trkpt>
      <trkpt lat="48.69834" lon="1.87828">
        <ele>144.34</ele>
        <time>2009-12-06T05:02:44.000Z</time>
      </trkpt>
      <trkpt lat="48.69833" lon="1.87817">
        <ele>146.26</ele>
        <time>2009-12-06T05:02:49.000Z</time>
      </trkpt>
      <trkpt lat="48.69833" lon="1.87816">
        <ele>146.74</ele>
        <time>2009-12-06T05:02:50.000Z</time>
      </trkpt>
      <trkpt lat="48.69826" lon="1.87817">
        <ele>147.22</ele>
        <time>2009-12-06T05:02:55.000Z</time>
      </trkpt>
      <trkpt lat="48.69816" lon="1.8781">
        <ele>148.66</ele>
        <time>2009-12-06T05:03:03.000Z</time>
      </trkpt>
      <trkpt lat="48.69811" lon="1.87805">
        <ele>150.58</ele>
        <time>2009-12-06T05:03:08.000Z</time>
      </trkpt>
      <trkpt lat="48.69804" lon="1.87797">
        <ele>152.03</ele>
        <time>2009-12-06T05:03:14.000Z</time>
      </trkpt>
      <trkpt lat="48.698" lon="1.87791">
        <ele>153.47</ele>
        <time>2009-12-06T05:03:21.000Z</time>
      </trkpt>
      <trkpt lat="48.69796" lon="1.87788">
        <ele>154.91</ele>
        <time>2009-12-06T05:03:25.000Z</time>
      </trkpt>
      <trkpt lat="48.69791" lon="1.87784">
        <ele>152.51</ele>
        <time>2009-12-06T05:03:29.000Z</time>
      </trkpt>
      <trkpt lat="48.69789" lon="1.8778">
        <ele>152.03</ele>
        <time>2009-12-06T05:03:32.000Z</time>
      </trkpt>
      <trkpt lat="48.69783" lon="1.87775">
        <ele>148.18</ele>
        <time>2009-12-06T05:03:38.000Z</time>
      </trkpt>
      <trkpt lat="48.6978" lon="1.87771">
        <ele>148.66</ele>
        <time>2009-12-06T05:03:43.000Z</time>
      </trkpt>
      <trkpt lat="48.69778" lon="1.8777">
        <ele>149.14</ele>
        <time>2009-12-06T05:03:45.000Z</time>
      </trkpt>
      <trkpt lat="48.69775" lon="1.87764">
        <ele>152.51</ele>
        <time>2009-12-06T05:03:52.000Z</time>
      </trkpt>
      <trkpt lat="48.6977" lon="1.87759">
        <ele>157.79</ele>
        <time>2009-12-06T05:03:58.000Z</time>
      </trkpt>
      <trkpt lat="48.69764" lon="1.87753">
        <ele>161.64</ele>
        <time>2009-12-06T05:04:04.000Z</time>
      </trkpt>
      <trkpt lat="48.69759" lon="1.8775">
        <ele>161.64</ele>
        <time>2009-12-06T05:04:09.000Z</time>
      </trkpt>
      <trkpt lat="48.69751" lon="1.87749">
        <ele>158.27</ele>
        <time>2009-12-06T05:04:15.000Z</time>
      </trkpt>
      <trkpt lat="48.69751" lon="1.87747">
        <ele>159.72</ele>
        <time>2009-12-06T05:04:19.000Z</time>
      </trkpt>
      <trkpt lat="48.69746" lon="1.87744">
        <ele>164.52</ele>
        <time>2009-12-06T05:04:24.000Z</time>
      </trkpt>
      <trkpt lat="48.69745" lon="1.87738">
        <ele>166.93</ele>
        <time>2009-12-06T05:04:28.000Z</time>
      </trkpt>
      <trkpt lat="48.69743" lon="1.87735">
        <ele>168.37</ele>
        <time>2009-12-06T05:04:31.000Z</time>
      </trkpt>
      <trkpt lat="48.69738" lon="1.87733">
        <ele>170.29</ele>
        <time>2009-12-06T05:04:34.000Z</time>
      </trkpt>
      <trkpt lat="48.69735" lon="1.87727">
        <ele>174.14</ele>
        <time>2009-12-06T05:04:39.000Z</time>
      </trkpt>
      <trkpt lat="48.69728" lon="1.87719">
        <ele>178.46</ele>
        <time>2009-12-06T05:04:45.000Z</time>
      </trkpt>
      <trkpt lat="48.69722" lon="1.87716">
        <ele>180.87</ele>
        <time>2009-12-06T05:04:50.000Z</time>
      </trkpt>
      <trkpt lat="48.69717" lon="1.87712">
        <ele>179.9</ele>
        <time>2009-12-06T05:04:56.000Z</time>
      </trkpt>
      <trkpt lat="48.69713" lon="1.87703">
        <ele>181.83</ele>
        <time>2009-12-06T05:05:02.000Z</time>
      </trkpt>
      <trkpt lat="48.69709" lon="1.87698">
        <ele>182.79</ele>
        <time>2009-12-06T05:05:08.000Z</time>
      </trkpt>
      <trkpt lat="48.69704" lon="1.87692">
        <ele>182.79</ele>
        <time>2009-12-06T05:05:13.000Z</time>
      </trkpt>
      <trkpt lat="48.69703" lon="1.8769">
        <ele>183.75</ele>
        <time>2009-12-06T05:05:14.000Z</time>
      </trkpt>
      <trkpt lat="48.69698" lon="1.87684">
        <ele>183.27</ele>
        <time>2009-12-06T05:05:19.000Z</time>
      </trkpt>
      <trkpt lat="48.69697" lon="1.87683">
        <ele>182.31</ele>
        <time>2009-12-06T05:05:20.000Z</time>
      </trkpt>
      <trkpt lat="48.69697" lon="1.87678">
        <ele>180.87</ele>
        <time>2009-12-06T05:05:23.000Z</time>
      </trkpt>
      <trkpt lat="48.69691" lon="1.87671">
        <ele>176.54</ele>
        <time>2009-12-06T05:05:30.000Z</time>
      </trkpt>
      <trkpt lat="48.69683" lon="1.87665">
        <ele>175.1</ele>
        <time>2009-12-06T05:05:35.000Z</time>
      </trkpt>
      <trkpt lat="48.69676" lon="1.87658">
        <ele>175.58</ele>
        <time>2009-12-06T05:05:40.000Z</time>
      </trkpt>
      <trkpt lat="48.69673" lon="1.87652">
        <ele>174.62</ele>
        <time>2009-12-06T05:05:44.000Z</time>
      </trkpt>
      <trkpt lat="48.69666" lon="1.87644">
        <ele>176.06</ele>
        <time>2009-12-06T05:05:50.000Z</time>
      </trkpt>
      <trkpt lat="48.69664" lon="1.87643">
        <ele>175.58</ele>
        <time>2009-12-06T05:05:51.000Z</time>
      </trkpt>
      <trkpt lat="48.69652" lon="1.87636">
        <ele>174.14</ele>
        <time>2009-12-06T05:05:59.000Z</time>
      </trkpt>
      <trkpt lat="48.69648" lon="1.87631">
        <ele>172.69</ele>
        <time>2009-12-06T05:06:02.000Z</time>
      </trkpt>
      <trkpt lat="48.69642" lon="1.87618">
        <ele>171.25</ele>
        <time>2009-12-06T05:06:08.000Z</time>
      </trkpt>
      <trkpt lat="48.69646" lon="1.87605">
        <ele>170.77</ele>
        <time>2009-12-06T05:06:13.000Z</time>
      </trkpt>
      <trkpt lat="48.69649" lon="1.8759">
        <ele>170.29</ele>
        <time>2009-12-06T05:06:18.000Z</time>
      </trkpt>
      <trkpt lat="48.6965" lon="1.87579">
        <ele>169.33</ele>
        <time>2009-12-06T05:06:22.000Z</time>
      </trkpt>
      <trkpt lat="48.6965" lon="1.87566">
        <ele>169.33</ele>
        <time>2009-12-06T05:06:27.000Z</time>
      </trkpt>
      <trkpt lat="48.69651" lon="1.87558">
        <ele>169.81</ele>
        <time>2009-12-06T05:06:30.000Z</time>
      </trkpt>
      <trkpt lat="48.69655" lon="1.87539">
        <ele>171.25</ele>
        <time>2009-12-06T05:06:36.000Z</time>
      </trkpt>
      <trkpt lat="48.69656" lon="1.87536">
        <ele>172.21</ele>
        <time>2009-12-06T05:06:37.000Z</time>
      </trkpt>
      <trkpt lat="48.6966" lon="1.87524">
        <ele>171.73</ele>
        <time>2009-12-06T05:06:42.000Z</time>
      </trkpt>
      <trkpt lat="48.69661" lon="1.87523">
        <ele>171.25</ele>
        <time>2009-12-06T05:06:43.000Z</time>
      </trkpt>
      <trkpt lat="48.69666" lon="1.87514">
        <ele>169.33</ele>
        <time>2009-12-06T05:06:50.000Z</time>
      </trkpt>
      <trkpt lat="48.69669" lon="1.87508">
        <ele>169.81</ele>
        <time>2009-12-06T05:06:54.000Z</time>
      </trkpt>
      <trkpt lat="48.69674" lon="1.87503">
        <ele>169.33</ele>
        <time>2009-12-06T05:06:59.000Z</time>
      </trkpt>
      <trkpt lat="48.69675" lon="1.87503">
        <ele>168.85</ele>
        <time>2009-12-06T05:07:00.000Z</time>
      </trkpt>
      <trkpt lat="48.69675" lon="1.87496">
        <ele>169.33</ele>
        <time>2009-12-06T05:07:04.000Z</time>
      </trkpt>
      <trkpt lat="48.69681" lon="1.87488">
        <ele>165.96</ele>
        <time>2009-12-06T05:07:09.000Z</time>
      </trkpt>
      <trkpt lat="48.69682" lon="1.87487">
        <ele>165.48</ele>
        <time>2009-12-06T05:07:10.000Z</time>
      </trkpt>
      <trkpt lat="48.69691" lon="1.87479">
        <ele>160.2</ele>
        <time>2009-12-06T05:07:16.000Z</time>
      </trkpt>
      <trkpt lat="48.69694" lon="1.87476">
        <ele>159.72</ele>
        <time>2009-12-06T05:07:18.000Z</time>
      </trkpt>
      <trkpt lat="48.69703" lon="1.8747">
        <ele>157.79</ele>
        <time>2009-12-06T05:07:24.000Z</time>
      </trkpt>
      <trkpt lat="48.69707" lon="1.87465">
        <ele>155.87</ele>
        <time>2009-12-06T05:07:28.000Z</time>
      </trkpt>
      <trkpt lat="48.69708" lon="1.87462">
        <ele>154.43</ele>
        <time>2009-12-06T05:07:30.000Z</time>
      </trkpt>
      <trkpt lat="48.69719" lon="1.87454">
        <ele>150.58</ele>
        <time>2009-12-06T05:07:36.000Z</time>
      </trkpt>
      <trkpt lat="48.69724" lon="1.87449">
        <ele>149.14</ele>
        <time>2009-12-06T05:07:38.000Z</time>
      </trkpt>
      <trkpt lat="48.69722" lon="1.87432">
        <ele>149.14</ele>
        <time>2009-12-06T05:07:43.000Z</time>
      </trkpt>
      <trkpt lat="48.69721" lon="1.87429">
        <ele>149.62</ele>
        <time>2009-12-06T05:07:44.000Z</time>
      </trkpt>
      <trkpt lat="48.69715" lon="1.87412">
        <ele>151.06</ele>
        <time>2009-12-06T05:07:51.000Z</time>
      </trkpt>
      <trkpt lat="48.69714" lon="1.8741">
        <ele>151.06</ele>
        <time>2009-12-06T05:07:52.000Z</time>
      </trkpt>
      <trkpt lat="48.69715" lon="1.87403">
        <ele>152.03</ele>
        <time>2009-12-06T05:07:55.000Z</time>
      </trkpt>
      <trkpt lat="48.69717" lon="1.8739">
        <ele>154.43</ele>
        <time>2009-12-06T05:07:59.000Z</time>
      </trkpt>
      <trkpt lat="48.69719" lon="1.87381">
        <ele>155.39</ele>
        <time>2009-12-06T05:08:01.000Z</time>
      </trkpt>
      <trkpt lat="48.69717" lon="1.87375">
        <ele>153.95</ele>
        <time>2009-12-06T05:08:03.000Z</time>
      </trkpt>
      <trkpt lat="48.69713" lon="1.87366">
        <ele>148.66</ele>
        <time>2009-12-06T05:08:07.000Z</time>
      </trkpt>
      <trkpt lat="48.69711" lon="1.87358">
        <ele>145.3</ele>
        <time>2009-12-06T05:08:11.000Z</time>
      </trkpt>
      <trkpt lat="48.69706" lon="1.87343">
        <ele>144.82</ele>
        <time>2009-12-06T05:08:16.000Z</time>
      </trkpt>
      <trkpt lat="48.69701" lon="1.87326">
        <ele>144.82</ele>
        <time>2009-12-06T05:08:23.000Z</time>
      </trkpt>
      <trkpt lat="48.697" lon="1.87309">
        <ele>145.78</ele>
        <time>2009-12-06T05:08:28.000Z</time>
      </trkpt>
      <trkpt lat="48.697" lon="1.87306">
        <ele>146.26</ele>
        <time>2009-12-06T05:08:29.000Z</time>
      </trkpt>
      <trkpt lat="48.69697" lon="1.87296">
        <ele>147.22</ele>
        <time>2009-12-06T05:08:33.000Z</time>
      </trkpt>
      <trkpt lat="48.69692" lon="1.8728">
        <ele>147.7</ele>
        <time>2009-12-06T05:08:39.000Z</time>
      </trkpt>
      <trkpt lat="48.69691" lon="1.8726">
        <ele>152.03</ele>
        <time>2009-12-06T05:08:45.000Z</time>
      </trkpt>
      <trkpt lat="48.69688" lon="1.87246">
        <ele>154.91</ele>
        <time>2009-12-06T05:08:50.000Z</time>
      </trkpt>
      <trkpt lat="48.69686" lon="1.87238">
        <ele>157.31</ele>
        <time>2009-12-06T05:08:54.000Z</time>
      </trkpt>
      <trkpt lat="48.69681" lon="1.87215">
        <ele>161.64</ele>
        <time>2009-12-06T05:09:02.000Z</time>
      </trkpt>
      <trkpt lat="48.69679" lon="1.872">
        <ele>161.16</ele>
        <time>2009-12-06T05:09:08.000Z</time>
      </trkpt>
      <trkpt lat="48.69679" lon="1.87198">
        <ele>161.16</ele>
        <time>2009-12-06T05:09:09.000Z</time>
      </trkpt>
      <trkpt lat="48.69672" lon="1.87181">
        <ele>157.31</ele>
        <time>2009-12-06T05:09:15.000Z</time>
      </trkpt>
      <trkpt lat="48.69669" lon="1.87177">
        <ele>155.87</ele>
        <time>2009-12-06T05:09:17.000Z</time>
      </trkpt>
      <trkpt lat="48.69666" lon="1.87165">
        <ele>154.91</ele>
        <time>2009-12-06T05:09:23.000Z</time>
      </trkpt>
      <trkpt lat="48.69663" lon="1.87154">
        <ele>154.91</ele>
        <time>2009-12-06T05:09:27.000Z</time>
      </trkpt>
      <trkpt lat="48.69661" lon="1.87139">
        <ele>151.54</ele>
        <time>2009-12-06T05:09:34.000Z</time>
      </trkpt>
      <trkpt lat="48.69661" lon="1.87136">
        <ele>151.54</ele>
        <time>2009-12-06T05:09:35.000Z</time>
      </trkpt>
      <trkpt lat="48.69658" lon="1.87121">
        <ele>151.54</ele>
        <time>2009-12-06T05:09:40.000Z</time>
      </trkpt>
      <trkpt lat="48.69658" lon="1.87106">
        <ele>153.95</ele>
        <time>2009-12-06T05:09:45.000Z</time>
      </trkpt>
      <trkpt lat="48.69656" lon="1.87098">
        <ele>154.43</ele>
        <time>2009-12-06T05:09:48.000Z</time>
      </trkpt>
      <trkpt lat="48.69654" lon="1.87086">
        <ele>155.87</ele>
        <time>2009-12-06T05:09:53.000Z</time>
      </trkpt>
      <trkpt lat="48.69648" lon="1.87077">
        <ele>155.87</ele>
        <time>2009-12-06T05:09:57.000Z</time>
      </trkpt>
      <trkpt lat="48.69639" lon="1.87065">
        <ele>159.24</ele>
        <time>2009-12-06T05:10:02.000Z</time>
      </trkpt>
      <trkpt lat="48.69633" lon="1.87053">
        <ele>160.2</ele>
        <time>2009-12-06T05:10:07.000Z</time>
      </trkpt>
      <trkpt lat="48.69627" lon="1.87037">
        <ele>160.2</ele>
        <time>2009-12-06T05:10:13.000Z</time>
      </trkpt>
      <trkpt lat="48.69617" lon="1.87029">
        <ele>156.83</ele>
        <time>2009-12-06T05:10:18.000Z</time>
      </trkpt>
      <trkpt lat="48.69611" lon="1.87018">
        <ele>159.24</ele>
        <time>2009-12-06T05:10:23.000Z</time>
      </trkpt>
      <trkpt lat="48.69608" lon="1.87016">
        <ele>159.24</ele>
        <time>2009-12-06T05:10:25.000Z</time>
      </trkpt>
      <trkpt lat="48.69606" lon="1.87013">
        <ele>160.2</ele>
        <time>2009-12-06T05:10:27.000Z</time>
      </trkpt>
      <trkpt lat="48.69597" lon="1.87005">
        <ele>157.79</ele>
        <time>2009-12-06T05:10:32.000Z</time>
      </trkpt>
      <trkpt lat="48.69595" lon="1.87003">
        <ele>157.31</ele>
        <time>2009-12-06T05:10:33.000Z</time>
      </trkpt>
      <trkpt lat="48.69584" lon="1.86997">
        <ele>157.31</ele>
        <time>2009-12-06T05:10:39.000Z</time>
      </trkpt>
      <trkpt lat="48.69571" lon="1.8699">
        <ele>158.27</ele>
        <time>2009-12-06T05:10:45.000Z</time>
      </trkpt>
      <trkpt lat="48.69563" lon="1.86983">
        <ele>161.16</ele>
        <time>2009-12-06T05:10:50.000Z</time>
      </trkpt>
      <trkpt lat="48.69559" lon="1.86979">
        <ele>162.6</ele>
        <time>2009-12-06T05:10:54.000Z</time>
      </trkpt>
      <trkpt lat="48.69551" lon="1.86976">
        <ele>162.12</ele>
        <time>2009-12-06T05:10:58.000Z</time>
      </trkpt>
      <trkpt lat="48.69547" lon="1.86974">
        <ele>162.12</ele>
        <time>2009-12-06T05:11:00.000Z</time>
      </trkpt>
      <trkpt lat="48.69534" lon="1.8697">
        <ele>163.08</ele>
        <time>2009-12-06T05:11:06.000Z</time>
      </trkpt>
      <trkpt lat="48.6953" lon="1.86968">
        <ele>162.6</ele>
        <time>2009-12-06T05:11:08.000Z</time>
      </trkpt>
      <trkpt lat="48.69519" lon="1.86962">
        <ele>162.12</ele>
        <time>2009-12-06T05:11:13.000Z</time>
      </trkpt>
      <trkpt lat="48.69514" lon="1.86961">
        <ele>162.12</ele>
        <time>2009-12-06T05:11:15.000Z</time>
      </trkpt>
      <trkpt lat="48.69505" lon="1.86958">
        <ele>161.64</ele>
        <time>2009-12-06T05:11:21.000Z</time>
      </trkpt>
      <trkpt lat="48.69496" lon="1.86952">
        <ele>164.04</ele>
        <time>2009-12-06T05:11:28.000Z</time>
      </trkpt>
      <trkpt lat="48.69492" lon="1.86948">
        <ele>165.48</ele>
        <time>2009-12-06T05:11:32.000Z</time>
      </trkpt>
      <trkpt lat="48.69488" lon="1.86943">
        <ele>168.37</ele>
        <time>2009-12-06T05:11:36.000Z</time>
      </trkpt>
      <trkpt lat="48.6948" lon="1.86935">
        <ele>174.14</ele>
        <time>2009-12-06T05:11:43.000Z</time>
      </trkpt>
      <trkpt lat="48.69477" lon="1.8693">
        <ele>175.1</ele>
        <time>2009-12-06T05:11:46.000Z</time>
      </trkpt>
      <trkpt lat="48.69474" lon="1.86919">
        <ele>177.98</ele>
        <time>2009-12-06T05:11:51.000Z</time>
      </trkpt>
      <trkpt lat="48.69468" lon="1.86906">
        <ele>181.83</ele>
        <time>2009-12-06T05:11:56.000Z</time>
      </trkpt>
      <trkpt lat="48.69466" lon="1.86899">
        <ele>181.83</ele>
        <time>2009-12-06T05:12:00.000Z</time>
      </trkpt>
      <trkpt lat="48.69468" lon="1.86893">
        <ele>184.71</ele>
        <time>2009-12-06T05:12:04.000Z</time>
      </trkpt>
      <trkpt lat="48.69468" lon="1.86886">
        <ele>180.87</ele>
        <time>2009-12-06T05:12:09.000Z</time>
      </trkpt>
      <trkpt lat="48.69464" lon="1.86881">
        <ele>176.54</ele>
        <time>2009-12-06T05:12:13.000Z</time>
      </trkpt>
      <trkpt lat="48.69464" lon="1.86873">
        <ele>170.29</ele>
        <time>2009-12-06T05:12:18.000Z</time>
      </trkpt>
      <trkpt lat="48.69463" lon="1.86871">
        <ele>169.81</ele>
        <time>2009-12-06T05:12:19.000Z</time>
      </trkpt>
      <trkpt lat="48.69462" lon="1.86861">
        <ele>167.89</ele>
        <time>2009-12-06T05:12:25.000Z</time>
      </trkpt>
      <trkpt lat="48.6946" lon="1.86854">
        <ele>166.93</ele>
        <time>2009-12-06T05:12:29.000Z</time>
      </trkpt>
      <trkpt lat="48.69455" lon="1.8684">
        <ele>166.93</ele>
        <time>2009-12-06T05:12:36.000Z</time>
      </trkpt>
      <trkpt lat="48.69452" lon="1.8683">
        <ele>166.93</ele>
        <time>2009-12-06T05:12:42.000Z</time>
      </trkpt>
      <trkpt lat="48.69449" lon="1.86819">
        <ele>168.37</ele>
        <time>2009-12-06T05:12:49.000Z</time>
      </trkpt>
      <trkpt lat="48.69445" lon="1.86811">
        <ele>167.41</ele>
        <time>2009-12-06T05:12:54.000Z</time>
      </trkpt>
      <trkpt lat="48.69438" lon="1.86802">
        <ele>164.52</ele>
        <time>2009-12-06T05:12:59.000Z</time>
      </trkpt>
      <trkpt lat="48.69434" lon="1.86795">
        <ele>160.68</ele>
        <time>2009-12-06T05:13:03.000Z</time>
      </trkpt>
      <trkpt lat="48.69432" lon="1.86789">
        <ele>159.72</ele>
        <time>2009-12-06T05:13:07.000Z</time>
      </trkpt>
      <trkpt lat="48.69428" lon="1.86783">
        <ele>155.87</ele>
        <time>2009-12-06T05:13:12.000Z</time>
      </trkpt>
      <trkpt lat="48.69425" lon="1.86776">
        <ele>158.75</ele>
        <time>2009-12-06T05:13:17.000Z</time>
      </trkpt>
      <trkpt lat="48.69421" lon="1.86772">
        <ele>160.2</ele>
        <time>2009-12-06T05:13:21.000Z</time>
      </trkpt>
      <trkpt lat="48.6942" lon="1.86767">
        <ele>161.16</ele>
        <time>2009-12-06T05:13:23.000Z</time>
      </trkpt>
      <trkpt lat="48.69416" lon="1.86763">
        <ele>162.6</ele>
        <time>2009-12-06T05:13:27.000Z</time>
      </trkpt>
      <trkpt lat="48.69413" lon="1.86757">
        <ele>161.64</ele>
        <time>2009-12-06T05:13:30.000Z</time>
      </trkpt>
      <trkpt lat="48.69411" lon="1.86746">
        <ele>162.12</ele>
        <time>2009-12-06T05:13:36.000Z</time>
      </trkpt>
      <trkpt lat="48.69416" lon="1.86737">
        <ele>163.08</ele>
        <time>2009-12-06T05:13:41.000Z</time>
      </trkpt>
      <trkpt lat="48.69416" lon="1.86736">
        <ele>163.08</ele>
        <time>2009-12-06T05:13:42.000Z</time>
      </trkpt>
      <trkpt lat="48.69419" lon="1.86724">
        <ele>163.56</ele>
        <time>2009-12-06T05:13:48.000Z</time>
      </trkpt>
      <trkpt lat="48.6942" lon="1.86721">
        <ele>163.56</ele>
        <time>2009-12-06T05:13:49.000Z</time>
      </trkpt>
      <trkpt lat="48.69426" lon="1.86702">
        <ele>165</ele>
        <time>2009-12-06T05:13:54.000Z</time>
      </trkpt>
      <trkpt lat="48.69427" lon="1.86694">
        <ele>165.48</ele>
        <time>2009-12-06T05:13:57.000Z</time>
      </trkpt>
      <trkpt lat="48.69431" lon="1.86676">
        <ele>166.45</ele>
        <time>2009-12-06T05:14:02.000Z</time>
      </trkpt>
      <trkpt lat="48.69434" lon="1.86666">
        <ele>168.85</ele>
        <time>2009-12-06T05:14:06.000Z</time>
      </trkpt>
      <trkpt lat="48.69432" lon="1.86657">
        <ele>166.45</ele>
        <time>2009-12-06T05:14:11.000Z</time>
      </trkpt>
    </trkseg>
  </trk>
</gpx>